              Height (m), 1500.0000, 1650.0000, 1800.0000, 1950.0000, 2100.0000, 2250.0000, 2400.0000, 2550.0000, 2700.0000, 2850.0000, 3000.0000, 3150.0000, 3300.0000, 3450.0000, 3600.0000, 3750.0000, 3900.0000, 4050.0000, 4200.0000, 4350.0000, 4500.0000, 4650.0000, 4800.0000, 4950.0000, 5100.0000, 5250.0000, 5400.0000, 5550.0000, 5700.0000, 5850.0000, 6000.0000, 6150.0000, 6300.0000, 6450.0000, 6600.0000, 6750.0000, 6900.0000, 7050.0000, 7200.0000, 7350.0000, 7500.0000, 7650.0000, 7800.0000, 7950.0000, 8100.0000, 8250.0000, 8400.0000, 8550.0000, 8700.0000, 8850.0000, 9000.0000, 9150.0000, 9300.0000, 9450.0000, 9600.0000, 9750.0000, 9900.0000,10050.0000,10200.0000,10350.0000,10500.0000,10650.0000,10800.0000,10950.0000,11100.0000,
 29-OCT-1996 00:00:58.38,    3.6632,    3.5789,  999.0000,  999.0000,  999.0000,    4.7264,    4.9801,    5.0300,    5.5944,    5.8305,    5.9883,  999.0000,   11.2016,   12.2207,   11.8451,    9.8808,    9.9993,   10.5806,   10.3844,   10.5431,   10.5998,   11.0151,   11.3603,   12.5274,   13.5515,   14.3168,   16.9329,   18.2459,   19.1109,   20.1011,   20.3340,   20.4928,   21.8848,   22.5077,   23.6144,   24.1012,   25.4289,   26.6257,   28.1967,   30.7917,   32.1098,   32.0977,   33.3538,   34.5410,   34.4775,   34.9251,  999.0000,   34.8566,  999.0000,   35.1087,   35.6924,   35.3404,  999.0000,  999.0000,   33.8788,   34.7124,   34.7151,   36.7184,   37.4944,   38.6049,   41.3370,  999.0000,   41.6326,   38.1742,   36.9653,
 29-OCT-1996 00:03:31.47,    5.5312,    5.4027,  999.0000,  999.0000,  999.0000,  999.0000,  999.0000,  999.0000,  999.0000,  999.0000,  999.0000,  999.0000,   10.3339,   11.3824,  999.0000,    8.5423,    9.2457,    9.4961,    9.0366,    9.2236,    9.8355,   10.7427,   10.8519,   10.8316,  999.0000,  999.0000,   17.0515,   18.5177,   19.0173,   19.6274,   20.3135,   20.8960,   21.9373,   22.3850,   22.9292,   23.6600,   25.2076,   26.9717,   28.1543,   30.2839,   31.6357,   31.8393,   33.3563,   34.9486,   35.2217,   35.6022,  999.0000,  999.0000,  999.0000,   35.6054,   35.8087,   36.2378,  999.0000,  999.0000,   34.3338,   33.9386,   34.5399,  999.0000,  999.0000,  999.0000,   40.6000,  999.0000,   41.1971,   37.1291,   35.7252,
 29-OCT-1996 00:06:03.86,    5.2001,    5.1315,  999.0000,  999.0000,  999.0000,  999.0000,  999.0000,  999.0000,  999.0000,  999.0000,  999.0000,  999.0000,    9.9511,   10.8929,   10.5278,    9.7189,    9.8702,   10.4719,    8.7750,    8.7095,  999.0000,  999.0000,  999.0000,   12.5042,   12.6715,   14.1715,   16.2755,   18.3478,   19.4699,   20.1915,   20.9304,   21.7655,   22.5376,   22.6912,   22.9463,   23.9010,   25.1210,   26.9860,  999.0000,   30.2127,   31.6751,   31.8909,   33.5700,   35.1682,   35.6963,   36.2021,  999.0000,  999.0000,   33.8045,   35.1408,   35.3484,   36.7725,  999.0000,  999.0000,   33.1725,   32.7923,  999.0000,  999.0000,  999.0000,   37.7737,   39.7118,   41.1649,   40.8155,  999.0000,   36.0330,
 29-OCT-1996 00:08:36.17,    4.8943,    4.8900,    4.9767,  999.0000,  999.0000,    5.3592,    5.4172,    5.4300,  999.0000,  999.0000,  999.0000,  999.0000,  999.0000,   10.9092,   10.5743,   10.3646,   10.3649,   10.1028,  999.0000,    9.9675,   10.3531,   10.8862,  999.0000,  999.0000,   12.1844,   14.0365,   16.0547,   17.9983,   19.5852,   20.6952,   21.0490,   20.7184,   21.9953,   22.6301,   22.7477,   23.5800,   25.0212,   27.0918,   27.4005,   30.0750,   31.4546,   31.8898,   33.2146,   35.0396,   35.1600,   36.1316,  999.0000,  999.0000,   33.5497,   35.1103,   35.6244,   36.8709,  999.0000,  999.0000,  999.0000,  999.0000,  999.0000,  999.0000,  999.0000,  999.0000,  999.0000,   43.0177,   41.7933,  999.0000,   36.7962,
 29-OCT-1996 00:11:08.48,    5.5337,    5.2867,    5.3361,  999.0000,  999.0000,  999.0000,  999.0000,  999.0000,  999.0000,  999.0000,  999.0000,    9.0317,   10.1770,   10.6990,    9.8923,    9.4630,    9.7616,   10.0082,  999.0000,   10.7302,   10.8154,   10.7884,   10.8469,   11.8338,   12.4778,   14.1852,   15.9245,   18.3584,   20.2206,   21.8600,   21.2534,   20.6828,   21.4332,   22.8019,   23.3238,   24.5138,   25.8306,   27.4639,   28.0075,   30.5299,   30.9171,   32.3935,   33.6720,   35.5277,   35.3966,   36.2238,  999.0000,  999.0000,  999.0000,   34.4273,   35.0674,   35.9129,  999.0000,  999.0000,  999.0000,   33.4092,   34.7046,   37.2646,   38.3244,   38.6819,   40.2362,   41.6771,  999.0000,  999.0000,  999.0000,
 29-OCT-1996 00:13:41.00,    5.2400,  999.0000,  999.0000,  999.0000,    5.3960,    5.3091,    5.3424,  999.0000,  999.0000,  999.0000,  999.0000,  999.0000,  999.0000,   10.6061,   10.1731,    9.2992,    9.6401,   10.1581,  999.0000,   10.6964,   10.8166,   10.6792,   10.7717,   11.0259,   12.6825,   14.1940,   16.2151,   19.2708,   21.5230,   21.6309,   21.4947,   21.2961,   22.1434,   22.8617,   23.2308,   24.4096,   25.9158,   26.9562,   28.4923,   30.5999,   30.7334,   31.9920,   33.2653,   34.9713,   34.8384,   35.7174,  999.0000,  999.0000,  999.0000,   33.2711,   33.9440,   35.2283,  999.0000,   34.5304,   33.3956,   33.2361,   34.5214,   37.0520,   38.3003,   38.9073,   40.6333,   41.3453,   43.0519,  999.0000,   37.6713,
 29-OCT-1996 00:16:13.45,    5.8304,    5.0856,    3.1022,  999.0000,  999.0000,  999.0000,  999.0000,  999.0000,  999.0000,  999.0000,  999.0000,  999.0000,    9.6990,    9.9392,    9.7642,    8.5688,    8.6635,    8.8835,    8.4713,   10.2507,   10.7998,   10.7493,   10.8179,   11.3191,   12.2464,   14.2657,   16.3309,   19.6753,   21.8088,   21.8987,   20.9440,   20.9574,   22.5135,   22.7518,   22.5979,   23.5301,   24.9066,   26.3087,   27.8473,   29.3351,   29.5708,   31.6240,   32.6423,   33.6958,   34.8027,   35.4815,   35.9199,   34.9407,  999.0000,  999.0000,   34.0581,   35.4971,   36.3063,  999.0000,  999.0000,  999.0000,  999.0000,   37.0708,   37.7552,   38.3952,   39.9683,   40.7794,   42.3121,   41.6953,  999.0000,
 29-OCT-1996 00:18:46.39,    7.2607,    7.3355,  999.0000,  999.0000,  999.0000,  999.0000,  999.0000,  999.0000,    5.4808,    5.5459,    5.5298,  999.0000,  999.0000,   10.2041,    9.4423,    8.2418,    8.4041,    8.3923,    8.4997,    9.1117,   10.7977,  999.0000,   10.6919,   11.5909,   12.6143,   14.5943,   17.4799,   20.9827,   21.1084,   21.0037,   20.3716,   21.0030,   22.3399,   22.6945,   22.2382,   23.2241,   24.7031,   26.8601,   28.4119,   29.5827,   30.6604,   32.1568,   31.9993,   33.6762,   34.6542,   35.1965,   35.9128,   34.9240,   33.4475,   32.7817,   34.1082,   35.9249,  999.0000,  999.0000,  999.0000,  999.0000,  999.0000,  999.0000,  999.0000,   38.4314,   39.9652,   40.4048,   41.0446,  999.0000,   38.3678,
 29-OCT-1996 00:21:19.09,    5.4086,    5.4083,  999.0000,  999.0000,  999.0000,  999.0000,  999.0000,  999.0000,  999.0000,  999.0000,  999.0000,    8.8809,   10.3204,   10.2637,    9.5707,    8.3053,    8.2085,    8.3518,    8.7238,  999.0000,   10.3546,   10.0765,   10.2278,   12.0666,   12.9329,   15.5531,   18.2957,   22.0624,  999.0000,   21.1585,   20.4896,   21.8875,   23.2815,   24.1325,   23.1353,   23.1852,   24.9932,   26.5089,   27.7372,   29.5038,   30.4178,   32.3572,   32.4423,   34.1299,   35.1086,   35.3818,   35.7643,   35.2192,   34.7793,   33.7913,   35.1310,  999.0000,  999.0000,  999.0000,  999.0000,   31.3241,  999.0000,   35.9108,   37.6250,   38.5075,   40.3142,   41.1595,   41.7185,   42.8801,  999.0000,
 29-OCT-1996 00:23:51.63,    5.4766,    5.4974,    5.3549,    5.1562,    4.6870,  999.0000,  999.0000,    5.3376,    5.7856,    5.7426,  999.0000,  999.0000,  999.0000,   10.2235,    9.8069,    8.8453,    8.7376,    8.4223,    8.5515,    9.2185,    9.4524,    9.4951,    9.7991,   11.6160,   12.2268,   14.8683,   17.6376,   21.2166,   21.7249,   20.3487,   20.0361,   22.0903,   24.0447,   24.7171,   23.3902,   22.7840,   24.4337,   26.6227,   28.4405,   29.0050,   30.1287,   32.5175,   33.0680,   34.3401,   35.4248,   35.5578,   36.2801,   36.1392,   34.1509,   33.3097,   34.6427,   35.7390,   35.3665,   35.5791,   34.8587,  999.0000,   33.1770,   36.0991,   37.8249,  999.0000,   41.8048,   42.6628,   42.5790,  999.0000,   39.8107,
 29-OCT-1996 00:26:24.05,    5.6535,    5.5055,    5.3582,  999.0000,  999.0000,  999.0000,  999.0000,  999.0000,  999.0000,    5.5458,    5.8276,  999.0000,  999.0000,  999.0000,    8.8956,    8.1151,    8.4830,    9.0634,    9.5311,    9.9846,   10.4316,   10.6485,   10.7579,   11.6406,   12.6813,   14.8417,   17.7634,  999.0000,   22.6060,   20.8942,   21.2286,   23.1213,   24.7787,   24.9503,   23.8516,   23.4770,   25.4076,   27.7158,   28.5096,   29.3198,   30.6777,   32.6690,   32.8996,   33.5152,   34.5027,   34.6919,   34.3789,  999.0000,  999.0000,   33.0127,   33.8603,  999.0000,  999.0000,  999.0000,  999.0000,  999.0000,  999.0000,  999.0000,   37.6073,   38.3181,   41.2311,   42.6736,   42.0988,   42.7128,  999.0000,
 29-OCT-1996 00:28:56.42,    5.8803,  999.0000,  999.0000,  999.0000,  999.0000,    3.3891,    3.9023,    4.6368,  999.0000,  999.0000,  999.0000,  999.0000,  999.0000,  999.0000,    9.3418,    8.0162,    7.4034,    6.9484,    7.8111,  999.0000,   10.5647,   10.5558,   10.7423,   12.0927,   12.9201,   15.5134,   18.4877,   21.6248,   22.8814,   21.4530,   21.9292,   23.5106,   25.3397,   25.3876,   23.7698,   23.9215,   26.2984,   28.3336,   28.9361,   29.5135,   30.7839,   31.8213,   32.1689,   33.1299,   34.4186,   34.3073,   33.6771,   33.3903,   33.2036,   33.1610,   33.7456,   35.2568,  999.0000,  999.0000,  999.0000,  999.0000,  999.0000,  999.0000,   38.0244,   38.6825,   40.1009,   41.4624,   40.9014,  999.0000,   40.1566,
 29-OCT-1996 00:31:28.84,    4.5174,    4.8027,    4.0593,    3.5699,    3.3000,  999.0000,  999.0000,  999.0000,    5.3993,    5.4925,  999.0000,  999.0000,  999.0000,    9.7631,    8.9136,    7.2851,    7.1085,    6.1460,    5.7005,  999.0000,  999.0000,  999.0000,   10.8111,   11.6169,   12.7510,   14.8598,   18.0250,  999.0000,   21.2899,   19.9610,   21.3033,   23.3054,   25.1118,   24.8149,   23.3692,   24.6479,   27.0351,   28.3170,   28.6503,   29.5362,   31.0431,   32.0458,   32.1102,   32.7413,   34.0034,   34.2505,   33.3625,   32.2381,   33.3419,   33.3884,   33.5463,   34.9547,  999.0000,  999.0000,  999.0000,  999.0000,  999.0000,  999.0000,   38.0600,   38.4269,   40.0591,   41.9101,   41.8024,   41.6185,   40.4131,
 29-OCT-1996 00:34:01.13,    2.9738,    3.0650,    2.7889,    2.2149,  999.0000,  999.0000,  999.0000,    5.3019,    5.5375,    5.5022,    5.9079,    8.3324,   10.3312,    9.9352,    8.8622,    7.2925,    7.1113,    6.0402,    5.6928,  999.0000,  999.0000,    9.8509,   10.6320,   11.4471,   13.0001,   15.1304,   18.8607,  999.0000,   21.8648,   19.5953,   21.0631,   23.3659,   25.3481,   24.7780,   23.9116,   25.6132,   28.0480,   29.2449,   29.6641,   29.7680,   31.3554,   31.7845,   31.8615,   32.2597,   33.6250,   34.1219,   34.0745,   33.6840,   33.6477,   33.0646,   33.7711,   33.6336,  999.0000,  999.0000,  999.0000,  999.0000,   33.5591,   35.2552,   37.4088,   38.3480,  999.0000,   43.2227,   42.7999,   41.3866,   40.1272,
 29-OCT-1996 00:36:33.37,    2.9567,  999.0000,  999.0000,  999.0000,  999.0000,  999.0000,  999.0000,  999.0000,  999.0000,  999.0000,  999.0000,  999.0000,   10.2767,   10.4737,    9.4952,    7.8893,    7.5317,  999.0000,  999.0000,    9.6198,    9.8609,   10.4678,  999.0000,   11.5025,   13.1777,   16.0454,   19.3296,  999.0000,   21.6804,   20.1217,  999.0000,   22.4992,   24.0606,   24.4231,   23.5724,   25.4599,   27.4772,   28.6581,   29.2925,   29.9990,   31.8731,   31.7588,   31.2203,   31.8058,   32.7349,   33.5238,  999.0000,  999.0000,  999.0000,   32.7595,   32.7364,   33.5660,   35.6482,   37.2222,  999.0000,  999.0000,   33.1282,   34.3919,   37.1389,   38.9900,   40.7531,   43.3468,   42.8246,   42.7162,   40.8109,
 29-OCT-1996 00:39:06.54,    3.2674,    2.6378,  999.0000,    3.9148,    4.9982,  999.0000,  999.0000,  999.0000,    5.4077,    5.4556,  999.0000,  999.0000,  999.0000,    9.7343,    8.7644,    7.1103,    6.2443,    6.1073,    6.1682,  999.0000,    8.2948,    9.7145,   10.4733,   11.9919,   13.5146,   16.3729,   19.8756,  999.0000,   21.2599,   20.5711,   20.9664,   22.3649,   24.2641,   24.5908,   23.7682,   25.5682,   26.9547,   28.7387,   30.0909,   29.2512,   31.0744,   31.7244,   31.5637,   31.9144,   32.7544,   34.2856,   34.9144,   33.8585,   33.9071,   33.3845,   33.0723,   33.9842,  999.0000,  999.0000,  999.0000,   33.6400,   33.8624,   35.0853,   37.6857,   39.7637,   41.0214,   43.3773,   43.0385,   43.7658,  999.0000,
 29-OCT-1996 00:41:39.07,    4.0531,    3.4751,    3.9231,    4.9180,    5.3992,    5.2843,    5.3181,    5.3740,  999.0000,  999.0000,    5.4367,    6.9926,    9.2137,    9.1672,  999.0000,    7.0757,    5.9428,    6.4351,    6.4724,    6.6774,  999.0000,    9.7558,   10.2100,   12.4617,   13.5026,   16.1130,   19.6219,   21.8097,   21.4929,   21.1287,   20.9608,   22.7196,   24.5936,   24.0817,   23.3274,   25.3745,   26.8898,   28.8699,   29.9045,   30.1404,   31.6398,   31.6007,   31.6579,   32.3473,   33.4674,   34.9153,   34.2060,   33.1355,   34.3480,   33.5171,   33.0600,   34.3022,  999.0000,  999.0000,   32.8136,   33.8242,   34.6187,   35.5576,   37.3773,   40.2398,   42.0042,  999.0000,   43.0605,   43.7844,   41.6500,
 29-OCT-1996 00:44:12.64,    5.3111,  999.0000,    4.9103,    5.4926,    5.5846,    5.5290,    5.4436,    5.4413,  999.0000,    5.5750,    5.6435,  999.0000,    8.8403,    9.0125,    8.1693,    6.8289,  999.0000,    8.1550,    7.8746,    8.7515,  999.0000,   10.8108,   10.8464,   12.2489,   13.4973,   16.1623,   19.4104,   21.9428,   21.7775,   21.0865,   21.6827,   22.7680,   23.7688,   23.2233,   23.3205,   25.1655,   27.5697,   28.8775,   28.9735,   30.2094,   32.2295,   31.5605,   30.9070,   32.3521,   33.9373,   35.0576,   34.4974,   33.3360,  999.0000,  999.0000,  999.0000,  999.0000,  999.0000,  999.0000,   32.6169,   33.8220,   34.8830,   36.4896,   37.9193,   39.8311,   41.3306,   43.2352,   42.6824,   43.1717,   41.1306,
 29-OCT-1996 00:46:45.24,    5.5787,    5.5741,  999.0000,  999.0000,  999.0000,  999.0000,  999.0000,  999.0000,  999.0000,  999.0000,  999.0000,    6.8126,    8.3963,    8.6874,    7.6456,    6.5213,    5.7515,  999.0000,    6.6908,    8.1315,    9.3803,   10.7443,   10.7767,   11.8633,   13.9583,   15.7630,   18.5083,   21.2389,   21.3334,   21.0312,   21.9176,   22.2310,   23.0524,   22.7169,   23.3639,   25.4654,   27.5808,   28.4829,   28.1549,   29.9481,   29.9911,   31.8093,   30.9911,   32.2415,   33.5626,   34.7664,   34.9113,   33.9004,   34.0711,   33.5811,   33.6738,   34.6604,  999.0000,  999.0000,  999.0000,  999.0000,  999.0000,   36.4370,   37.8995,   38.9204,   39.8583,   42.5254,   42.5080,   42.6054,   41.2214,
 29-OCT-1996 00:49:17.68,    5.8080,    5.9545,    7.2072,    7.7405,  999.0000,  999.0000,    5.3700,    5.3827,    5.4303,  999.0000,    5.4888,    6.7225,    8.8265,    8.8790,    7.8578,    7.2632,  999.0000,    6.1875,    7.6118,    7.8661,    9.5483,   10.7011,   10.8993,   11.8442,   13.6246,   15.6678,   18.2545,   20.9094,   21.2751,   20.5183,   21.0572,   21.8070,   22.8611,   22.3427,   22.9440,   25.1777,   27.1176,   28.2387,   28.1889,   29.7293,   31.8194,   31.1479,   30.5127,   32.0753,   33.4754,   33.8714,   33.5183,   33.1773,   33.9536,   34.0921,   33.3688,   33.7920,  999.0000,  999.0000,  999.0000,  999.0000,   34.1064,   36.1938,   36.8600,   38.6291,   41.0801,   42.9496,   42.5104,   42.5318,   41.1937,
 29-OCT-1996 00:51:50.69,    5.4111,    5.3126,  999.0000,  999.0000,  999.0000,  999.0000,  999.0000,  999.0000,  999.0000,    5.4848,    5.5841,  999.0000,  999.0000,  999.0000,  999.0000,  999.0000,  999.0000,    5.8166,    6.9906,    7.3757,  999.0000,   10.7384,   10.7434,   11.7796,   13.3816,   15.3911,   17.6417,  999.0000,   20.8822,   20.8119,   20.6288,   21.8227,   23.0495,  999.0000,   23.1318,   25.6156,   27.6916,   28.2907,   28.7571,   30.4176,   31.2635,   30.5692,   30.3877,   31.8155,   33.0495,   33.3038,   33.5767,   32.6028,   33.4540,  999.0000,  999.0000,  999.0000,  999.0000,  999.0000,  999.0000,  999.0000,   34.0401,   36.1898,   37.2293,   39.4360,   40.8689,   42.5528,   42.5609,   42.5250,   40.5245,
 29-OCT-1996 00:54:23.17,    5.3771,  999.0000,  999.0000,  999.0000,  999.0000,  999.0000,  999.0000,  999.0000,  999.0000,    5.4664,    5.4948,  999.0000,    8.1257,    6.9842,    6.9961,  999.0000,  999.0000,  999.0000,    7.4417,    8.3880,  999.0000,  999.0000,  999.0000,  999.0000,   13.1118,   15.2392,   16.9198,  999.0000,   21.1181,   21.0839,   20.2935,   21.4395,   22.6595,   21.5807,   23.1240,   25.8591,   28.1632,   28.7177,   29.6350,   31.2956,   31.2596,   29.9905,   31.0462,   32.6977,   33.4925,   33.0011,   33.2056,   32.7636,   33.5501,   33.9485,  999.0000,   34.1994,  999.0000,  999.0000,  999.0000,   33.5971,   33.9715,   35.8733,   37.6338,  999.0000,  999.0000,  999.0000,  999.0000,  999.0000,  999.0000,
 29-OCT-1996 00:56:55.81,    5.2151,    5.2883,    5.5029,    5.4139,  999.0000,  999.0000,  999.0000,  999.0000,  999.0000,  999.0000,  999.0000,  999.0000,  999.0000,    7.1446,    7.0868,    6.1204,    5.6273,    5.5759,    5.9340,  999.0000,   10.3874,   10.7813,   10.9611,   11.2203,   12.8919,   14.5349,   16.6887,   20.2730,   21.0741,   20.7283,   20.2887,   21.3057,   22.5229,   21.6036,   23.5196,   26.8009,   28.9895,   29.1475,   30.4959,   31.3535,   31.0737,   30.7440,   31.5239,   33.3256,   34.0650,   33.7720,   33.5865,   33.7761,   34.0591,   34.3302,   33.6799,   35.0771,  999.0000,  999.0000,   30.8677,   32.7352,   35.2390,   36.2751,   37.7519,   38.3225,   38.7834,  999.0000,   42.7962,  999.0000,   41.3978,
 29-OCT-1996 00:59:28.20,    4.2663,    4.1933,    4.6414,  999.0000,    5.4769,    5.4231,    5.4444,    5.4859,  999.0000,    5.5022,    5.7916,  999.0000,    7.5744,    7.0588,    6.5956,  999.0000,  999.0000,  999.0000,  999.0000,  999.0000,   10.1850,   10.7545,   10.8718,  999.0000,   13.0457,   14.7825,   15.5940,  999.0000,   21.5717,   21.3307,   21.0276,   21.6697,   22.6011,   21.6490,   23.5993,   27.1349,   29.1815,   29.3237,   30.7843,   31.0313,   31.0781,   30.3732,   31.6314,   33.2640,   33.5743,  999.0000,  999.0000,   34.2012,   34.3583,   34.4074,   33.7477,  999.0000,  999.0000,  999.0000,  999.0000,  999.0000,  999.0000,   36.7063,   38.2530,  999.0000,   40.2154,   42.6437,   43.4872,   43.5522,  999.0000,
 29-OCT-1996 01:02:00.78,    3.5773,    2.7049,    3.1283,  999.0000,  999.0000,  999.0000,  999.0000,  999.0000,    5.4714,    5.5125,    6.2154,  999.0000,    7.3604,    7.4974,    7.4826,    6.2947,    5.6479,    5.5940,    6.3797,  999.0000,   10.7533,   10.6384,   10.6911,   11.2960,   13.1008,   15.4903,   17.3207,   19.8422,   20.5887,   20.5535,   21.0386,   21.3381,   22.1392,   22.0216,   24.4593,   27.7963,   29.1559,   29.5599,   31.2691,   30.8677,   31.6229,   31.0322,   31.8950,   33.6340,   33.9024,  999.0000,  999.0000,   33.9307,   34.2835,   33.6580,   33.6349,   34.9691,   34.6165,  999.0000,  999.0000,  999.0000,   35.5789,   36.5460,   36.6306,   36.7605,  999.0000,  999.0000,   43.5399,   43.1752,   40.5645,
 29-OCT-1996 01:04:33.11,    4.8445,    5.2639,    5.3938,    5.1469,    5.3099,    5.4211,  999.0000,  999.0000,    5.4584,    5.4848,    5.5006,  999.0000,    8.0697,    8.2463,    7.5531,    6.2763,    5.7788,    5.6839,    6.4210,  999.0000,   10.7175,   10.3147,   10.5523,   12.0167,   13.5359,   15.5068,   17.6245,   19.8937,   20.9656,   20.8692,   21.2350,   21.3912,   21.9794,   22.6764,   24.9383,   27.5396,   28.9865,   29.2450,   30.7576,   30.6949,   30.9402,   30.7878,   31.9071,   33.8082,   33.9313,   33.6775,   33.6669,   33.4867,   33.5049,   33.9259,   34.3579,  999.0000,  999.0000,  999.0000,  999.0000,   34.1549,   35.6644,   37.1796,   37.1413,   37.9094,   39.3077,   42.2221,   43.5498,   43.7118,   41.4735,
 29-OCT-1996 01:07:05.48,    5.1689,    5.0664,  999.0000,    4.0213,    5.0647,    5.4432,    5.4645,    5.6350,  999.0000,  999.0000,  999.0000,  999.0000,  999.0000,  999.0000,    7.4688,    7.3341,    6.6899,    6.4929,    6.7298,  999.0000,   10.4578,   10.6614,   10.6721,   11.7536,   13.3637,   15.5720,   18.2443,   20.3499,   21.1915,   21.0431,   21.5657,   21.6453,   22.1079,   23.0655,   25.2964,   27.9176,   29.3405,   29.2004,   30.5655,   31.3254,   31.1163,   30.6040,   31.7439,   33.8441,   33.3214,   32.7155,   32.8327,   32.5829,   33.2978,  999.0000,  999.0000,  999.0000,  999.0000,  999.0000,  999.0000,  999.0000,  999.0000,   37.5643,   37.7517,   39.2148,   40.6930,   43.2504,   43.9337,   43.7372,   42.5216,
 29-OCT-1996 01:09:38.08,  999.0000,  999.0000,  999.0000,  999.0000,    5.4642,    5.4889,    5.4756,  999.0000,  999.0000,  999.0000,  999.0000,  999.0000,  999.0000,  999.0000,  999.0000,    7.9983,    7.8282,    7.7384,    7.8584,    9.4342,   10.2381,   10.6753,   10.8724,   12.1148,   13.5492,   15.9550,  999.0000,   20.4360,   21.0891,   21.0551,   22.1057,   21.8029,   21.6036,   23.9932,   25.5325,   27.7416,   28.6895,   28.4451,   30.6060,   31.3128,   31.0318,   31.0408,   31.6044,   33.9066,   33.8056,   32.9755,  999.0000,  999.0000,  999.0000,  999.0000,  999.0000,  999.0000,  999.0000,  999.0000,  999.0000,   35.3191,   36.2710,   37.4095,  999.0000,   39.1589,   39.9296,  999.0000,   43.5823,   43.4153,  999.0000,
 29-OCT-1996 01:12:51.89,    3.2713,  999.0000,  999.0000,  999.0000,    5.2226,    5.4718,    5.5035,    5.4856,    5.5666,  999.0000,  999.0000,  999.0000,  999.0000,    8.1538,    7.9429,    7.2072,    7.1045,  999.0000,  999.0000,   10.7164,   10.6410,   10.6125,   11.1034,   12.1818,   13.6730,   16.5279,   18.6608,   20.6747,   21.2978,   21.7503,   23.6922,   23.5044,   22.9190,  999.0000,  999.0000,   28.3926,   30.4795,   30.4938,   31.4049,   31.9363,   30.5922,   30.9641,   31.2438,   33.2727,   33.6643,   33.6862,  999.0000,  999.0000,   34.1856,   34.2741,   33.9025,   33.5601,  999.0000,  999.0000,  999.0000,   35.2868,   35.9327,   37.5684,   38.1837,   39.1881,   40.0091,   43.6814,   44.9667,  999.0000,  999.0000,
 29-OCT-1996 01:15:24.63,    2.6886,    1.9943,    2.8351,  999.0000,    4.9232,    5.3428,  999.0000,  999.0000,    5.5843,    5.7909,  999.0000,  999.0000,  999.0000,  999.0000,  999.0000,    6.6706,    6.1582,    5.8956,    6.2727,  999.0000,   10.4013,    9.9523,  999.0000,  999.0000,   14.4589,   16.9447,   18.8293,  999.0000,   22.3512,   22.1305,   24.2031,   24.7834,   25.3698,  999.0000,   24.6901,   26.9438,  999.0000,  999.0000,   28.7203,   28.5053,   28.4463,  999.0000,   30.2402,   32.0921,   32.4100,   32.4206,   32.5877,   33.6259,   33.9144,   33.5446,   33.3702,  999.0000,  999.0000,  999.0000,   33.9097,   35.4848,   35.5966,   36.7801,   38.0517,   39.3427,   40.3104,   43.6179,  999.0000,  999.0000,  999.0000,
 29-OCT-1996 01:17:57.05,    3.8365,  999.0000,  999.0000,    5.1331,    5.3028,    5.3615,    5.3997,    5.4458,    5.4433,  999.0000,  999.0000,    7.7961,    6.4981,    7.3788,    7.8920,    6.7148,    6.6209,    6.4640,  999.0000,  999.0000,  999.0000,   10.8274,   10.8096,   11.4599,   13.6622,   15.8642,   17.7642,  999.0000,   21.4088,   21.4848,   21.5773,   22.5485,   25.2105,   27.1601,   27.2572,  999.0000,   31.8114,   30.6471,   29.0331,   30.0856,   30.1220,   31.0414,   31.7067,   32.7098,   32.6663,   32.6873,   33.2979,   34.8937,   34.8306,   34.1402,   34.2800,  999.0000,  999.0000,  999.0000,   34.0696,   35.5626,   36.2047,   37.4901,   37.8472,   38.5663,   39.5988,  999.0000,  999.0000,  999.0000,  999.0000,
 29-OCT-1996 01:20:29.35,    3.2225,    4.6056,    5.1701,    5.3481,    5.2794,    5.3507,  999.0000,  999.0000,  999.0000,    5.4201,    5.9437,    6.9407,    6.2127,    6.4017,  999.0000,  999.0000,    7.9407,    8.0600,  999.0000,   10.5565,   10.7030,   10.7142,   10.8605,   11.8951,   13.0908,   15.2365,   17.2909,   19.4567,   19.5829,   19.6720,   19.3307,   20.8490,  999.0000,   25.4690,   28.0412,   29.4342,   31.0343,   31.2933,   30.2720,   30.6278,   29.8782,   30.3781,   31.3964,   32.4622,   31.9367,   32.4563,   33.3340,   34.2432,   34.6560,   34.4617,   34.4852,   34.5875,   33.2753,   32.9505,   33.9916,   34.8903,   36.3768,   37.4377,   37.2024,   38.3651,   39.5826,   42.7127,  999.0000,  999.0000,  999.0000,
 29-OCT-1996 01:23:01.60,    2.2571,  999.0000,  999.0000,  999.0000,    5.0283,    5.3043,    5.3552,    5.4736,  999.0000,  999.0000,  999.0000,    8.3203,    6.9557,    6.8177,    7.5260,    7.4686,  999.0000,  999.0000,   10.0030,   10.0745,   10.2357,   10.4254,   10.6604,   11.7034,   13.4654,   15.2517,   16.9464,  999.0000,   20.7924,   20.8727,   21.4166,   23.0248,   25.5727,   26.9047,   27.5857,   29.0886,   30.5526,   30.0027,   29.4709,   29.8737,   29.5279,   30.3020,   31.3566,  999.0000,   30.9330,   31.7855,   32.1043,   32.8178,   33.3986,   33.2359,   33.7183,   33.9168,  999.0000,  999.0000,   34.4190,   35.4219,   36.2847,  999.0000,  999.0000,   38.9055,   39.8167,   42.5573,  999.0000,  999.0000,  999.0000,
 29-OCT-1996 01:25:33.95,    2.2471,  999.0000,  999.0000,  999.0000,    4.5138,    4.9532,    5.3797,    5.4662,    5.4668,    5.4024,    5.6185,  999.0000,    6.0777,    6.5819,    6.9642,    6.8374,    6.5438,    7.6364,    8.2355,    8.7770,    9.9343,  999.0000,  999.0000,   10.8307,   12.9118,   15.2214,   16.8924,   19.9767,   20.7556,   20.8800,   22.1185,   23.3070,   25.2586,   26.9871,   28.5530,   30.8751,   31.9045,   30.3547,   30.1035,   29.6063,   29.4024,   29.9924,   31.3592,   31.2836,   31.3922,  999.0000,  999.0000,  999.0000,  999.0000,  999.0000,   33.1480,   33.3810,   32.6521,   32.8080,   33.4830,   34.7308,   37.1655,  999.0000,  999.0000,   37.6391,   38.7110,   41.6739,   45.2901,   46.6123,  999.0000,
 29-OCT-1996 01:28:06.25,    5.2634,  999.0000,  999.0000,  999.0000,  999.0000,  999.0000,  999.0000,  999.0000,    5.4688,    5.3096,  999.0000,    7.6564,    5.9956,    6.4282,    6.8617,    6.7225,  999.0000,    7.5268,    7.4970,    9.2172,  999.0000,  999.0000,  999.0000,   11.4283,   13.2976,   15.1331,   17.5441,   19.3979,   20.4012,   20.0586,   20.7599,   22.2273,   24.4992,   26.7570,   29.3727,  999.0000,   32.3717,   31.5232,   31.5460,   30.1589,   29.8966,   30.3342,   31.7458,   31.5736,   31.8695,  999.0000,  999.0000,  999.0000,  999.0000,  999.0000,   33.4671,   33.8026,  999.0000,  999.0000,  999.0000,  999.0000,  999.0000,  999.0000,  999.0000,  999.0000,  999.0000,  999.0000,  999.0000,  999.0000,  999.0000,
 29-OCT-1996 01:30:38.60,    5.4862,    5.4708,    5.4543,    5.4505,    5.1176,  999.0000,    5.3877,    5.4630,    5.4718,    5.5458,  999.0000,  999.0000,  999.0000,    7.2464,    6.9506,    5.7860,    5.6074,    5.8568,    5.8564,  999.0000,  999.0000,   10.6230,   10.7997,   10.8555,   12.4818,   14.6046,   17.1880,   19.4001,   19.5457,   19.9860,   20.6955,   23.0948,   25.5646,   27.6393,   30.1003,   29.3631,   32.1320,   32.2346,   32.0512,   30.8039,   30.5919,   30.9362,   32.2292,   32.2830,   32.3912,   31.8789,   32.6707,   32.8097,   32.5244,   33.5133,   34.1992,   33.9319,   32.7324,   32.4554,   33.3559,   34.8786,   37.1876,   38.6639,   37.8790,   37.8630,   38.6963,   41.1269,  999.0000,   45.3493,   43.0956,
 29-OCT-1996 01:33:12.22,    5.3995,    5.1855,    5.4485,    5.4523,  999.0000,  999.0000,  999.0000,  999.0000,  999.0000,  999.0000,  999.0000,    6.4185,    6.3809,    7.3298,    6.8910,    6.4566,    6.4129,    6.4169,    6.9281,    7.9395,    9.8957,   10.5285,   10.6990,   11.4040,   13.0720,   15.2304,   17.2490,  999.0000,   20.1192,   20.5741,   21.6457,   23.6288,   25.9966,   28.2213,   31.0111,   30.8243,  999.0000,   32.4504,   31.7281,   31.1067,   30.8677,   30.7334,   32.0931,   31.9725,   32.1276,   31.8346,   32.1858,   32.1829,   32.7812,   33.8824,   33.4484,   33.0921,   32.2628,   32.3913,   33.8989,   36.2399,   37.8002,   38.0366,  999.0000,   38.0371,   39.6895,   41.0861,   44.5217,   45.0569,   43.4672,
 29-OCT-1996 01:35:44.70,  999.0000,  999.0000,    4.6785,    5.2577,    5.1414,    5.1329,    5.3576,  999.0000,    5.5038,    5.8013,    6.4559,  999.0000,  999.0000,    7.2258,    6.8841,    7.4337,    7.5020,    8.1792,    8.4287,  999.0000,   10.5495,   10.5882,   10.6263,   11.6674,   13.2892,  999.0000,  999.0000,  999.0000,   20.4119,   20.9515,   21.6829,   23.4291,   25.6958,   28.5488,   32.4281,   30.3349,   30.2872,   30.7231,   30.8154,   30.2114,   30.0522,   29.7736,   31.4208,   31.4189,   31.8526,   32.0237,   32.8152,   32.7563,   33.2551,   33.5317,   33.3069,   33.5268,   32.0107,   32.5571,   34.5471,   36.7332,   37.1761,   37.7922,  999.0000,   39.0226,   39.7533,   41.1146,  999.0000,   44.7321,   43.1434,
 29-OCT-1996 01:38:17.18,    3.8424,    3.1139,    3.2606,  999.0000,  999.0000,    5.4366,    5.5764,  999.0000,    5.4372,    5.5466,    5.7366,  999.0000,    6.3249,    7.4216,    7.1401,    5.8763,    6.1087,  999.0000,  999.0000,    9.0138,    9.8554,   10.8178,  999.0000,  999.0000,   13.6499,  999.0000,   18.2727,   20.6934,   20.3525,   20.7484,   21.8923,   23.5397,   25.9473,   29.0863,   32.6078,   33.4130,   31.4367,   30.9592,   29.7708,   29.7730,   29.8317,   29.8974,   31.6809,   31.6185,   31.9945,  999.0000,  999.0000,  999.0000,  999.0000,  999.0000,  999.0000,  999.0000,  999.0000,   34.0820,   35.5962,   36.1003,   37.4786,  999.0000,  999.0000,   41.2213,   41.4681,   42.2847,  999.0000,   45.4295,   43.7741,
 29-OCT-1996 01:40:50.81,    5.2408,  999.0000,    4.6711,    5.3392,    5.3647,    5.3996,    5.4536,  999.0000,  999.0000,  999.0000,  999.0000,    6.5924,    6.5430,    7.3091,    6.9709,    6.4248,  999.0000,  999.0000,    6.8629,    7.9563,  999.0000,   11.1884,   11.2070,   11.0653,   12.4192,   14.3282,   17.6462,   20.8861,   20.1905,   19.6444,   20.5203,   22.8352,   25.6140,   28.9039,  999.0000,   31.8359,  999.0000,  999.0000,   30.1217,   29.9709,   29.9645,   30.4244,   31.9793,   31.5601,   32.1181,   32.6066,   31.9436,   31.3115,   33.1564,   33.1275,   33.3198,   31.8616,   31.1008,   33.3114,   34.9256,   36.3980,   37.5590,  999.0000,  999.0000,   38.4639,   39.9339,   41.2140,   43.9011,   44.9113,   43.3515,
 29-OCT-1996 01:43:23.56,    4.8760,    5.5563,    5.8314,    5.6454,    5.4905,    5.4548,    5.4771,    5.4944,    5.5458,  999.0000,  999.0000,    8.0353,    6.8260,    6.8433,    7.4036,    8.0710,    7.9390,  999.0000,    7.4757,    7.9462,   10.0808,   10.9356,   11.0631,   11.4494,   12.5164,   14.2784,   17.0701,   20.1036,   20.6415,   20.3454,   19.9860,   22.7173,  999.0000,   27.2266,   31.3732,   31.4260,   31.0683,   30.6952,   30.4798,   30.3071,   30.1087,   30.9740,   32.5199,   31.5956,   32.2220,  999.0000,  999.0000,   31.9446,   33.8265,   33.6324,  999.0000,  999.0000,  999.0000,   33.8700,   35.2914,   36.5093,  999.0000,  999.0000,  999.0000,   39.2939,   41.1410,   41.6351,   44.5299,   45.6745,   44.5828,
 29-OCT-1996 01:45:57.13,    4.4700,    6.2071,    6.2719,    5.7576,    5.5218,    5.5370,    5.4925,    5.5984,    5.7248,    6.2312,    7.5311,    7.9350,    6.6698,    6.7373,    7.9368,    8.0811,    6.8807,    6.6615,    6.8414,    8.1655,    9.3703,   11.1076,   11.0151,   11.8192,   12.7985,   14.6640,   16.6986,   19.7221,   21.0549,   20.2774,   19.5421,   21.6502,   25.3032,   27.2204,   30.8748,   31.2921,   31.4548,   31.6058,   29.8283,   30.1325,   29.8749,   30.5257,   32.2067,   31.6527,   32.0593,  999.0000,  999.0000,   33.3990,   33.8956,   33.3617,   33.4324,   32.4219,   31.8374,   34.2903,   36.0237,   36.3373,   38.1973,   37.9235,  999.0000,   38.5167,   40.9245,   41.6878,   44.3222,   45.3657,   44.1906,
 29-OCT-1996 01:48:29.50,    3.3262,  999.0000,  999.0000,  999.0000,  999.0000,  999.0000,    5.4474,    5.4590,    5.2227,    5.7723,    7.0447,    7.1799,    7.3460,    7.7955,  999.0000,  999.0000,    6.0598,    5.8723,    5.8055,    7.8738,    8.7398,  999.0000,   11.0935,   11.8238,   12.7794,   14.8798,   16.9106,   19.3749,   21.1518,   18.5572,   19.1816,   21.9414,   25.2026,   27.9422,   30.8130,   31.3493,   31.7700,   32.0558,   30.2797,   30.1679,   30.2935,   31.0606,   32.1464,   31.6510,   32.5120,  999.0000,  999.0000,   32.1195,   33.2480,   33.6682,   33.7918,   32.7808,   32.0390,   33.6079,   34.4652,   35.8548,  999.0000,  999.0000,  999.0000,  999.0000,   39.6207,   40.9088,   43.7417,   44.5982,   42.7211,
 29-OCT-1996 01:51:02.77,    4.7733,    5.1020,    5.3565,    5.7770,    5.7451,    5.8375,  999.0000,  999.0000,  999.0000,  999.0000,    8.3095,    8.4613,    8.0749,    8.1500,  999.0000,    7.8454,    6.7274,    6.2707,    6.3687,    7.8595,    8.5065,  999.0000,   11.0176,   11.1903,   12.0688,   14.2473,   16.7586,   19.1870,   20.1621,   20.5945,   20.8027,  999.0000,  999.0000,   27.0115,   30.1238,   31.1465,   31.6273,   31.5971,   29.6886,   31.6240,   30.7123,   31.5015,   31.8384,   31.5421,   32.8922,  999.0000,  999.0000,   32.2720,   32.5647,   32.7175,   34.1369,   33.2172,   32.3666,  999.0000,  999.0000,  999.0000,  999.0000,   36.7571,   37.7196,   39.7239,   40.3432,   41.8534,   43.9210,   44.4749,   42.9616,
 29-OCT-1996 01:53:35.13,    3.3515,  999.0000,    5.0141,    5.4751,    5.6296,    5.7440,  999.0000,    5.5687,    5.6498,    7.1081,    7.4474,    8.0272,  999.0000,  999.0000,  999.0000,  999.0000,  999.0000,  999.0000,    7.4990,    8.2399,    9.2155,   10.8863,   11.0997,   11.2352,   12.1118,   14.6672,   17.4054,   19.7410,   20.8251,   20.1266,   20.1855,   22.3496,   25.2913,   28.4643,   30.4814,   32.6753,   32.7986,   31.7912,   29.7930,   30.4779,   31.1650,   32.1220,   32.4352,   31.3879,   32.7974,   33.2231,  999.0000,  999.0000,   32.5969,   32.4006,   33.7829,  999.0000,  999.0000,  999.0000,  999.0000,  999.0000,  999.0000,  999.0000,  999.0000,  999.0000,   41.5793,   42.2775,   44.4538,  999.0000,   43.2558,
 29-OCT-1996 01:56:07.75,    2.8230,    3.4700,  999.0000,    5.2940,    5.5791,    5.6892,  999.0000,    5.5113,    5.5366,    5.7251,    5.5940,    6.4870,    7.0100,    7.3233,    7.1783,    6.7880,    6.1126,    5.8380,    6.2868,    7.9299,    9.1157,   10.6844,   11.2790,   11.5919,   12.4087,  999.0000,  999.0000,   20.2138,   21.1464,   20.4190,   20.5330,   22.7829,   25.3584,   28.0197,   30.3541,   31.6005,   31.6860,   31.2612,   29.8730,   30.5948,   31.7084,   32.2364,   31.8129,   32.2788,   32.8017,  999.0000,  999.0000,   32.3967,   33.0711,   32.8906,   33.3168,   33.0955,  999.0000,  999.0000,  999.0000,  999.0000,  999.0000,   37.3564,   37.2803,   39.0225,   40.5606,   41.7438,  999.0000,  999.0000,  999.0000,
 29-OCT-1996 01:58:40.36,    4.5984,    5.2648,    5.4375,    5.5660,    5.6413,    5.6175,    5.5172,    5.4897,  999.0000,    5.5169,    5.6517,    6.4191,    7.4668,    8.3342,    7.3302,    7.4596,  999.0000,    5.9348,    7.0875,    8.2527,    9.4308,   10.9809,   11.4964,   11.5042,   12.5806,   15.0295,  999.0000,   19.9240,   21.1270,   20.2770,   20.0365,   22.4890,   25.1418,   27.4786,   30.1282,   32.2566,   31.5895,   31.6703,   30.3565,   30.9886,   32.0228,   32.6214,   32.2676,   32.2310,   32.7269,   33.4657,   32.8363,   31.8832,   33.3136,   33.5074,   33.9852,   32.7755,  999.0000,  999.0000,  999.0000,  999.0000,  999.0000,  999.0000,  999.0000,  999.0000,  999.0000,   41.9583,   44.3194,  999.0000,   41.8507,
 29-OCT-1996 02:01:12.79,    4.3459,    5.1255,    5.3765,    5.4001,    5.5983,    5.6830,    5.5705,    5.5465,  999.0000,  999.0000,  999.0000,    6.9003,    7.6687,  999.0000,  999.0000,    5.9975,    5.7388,    6.3885,    7.0709,    8.6264,    9.7711,   11.3917,   11.9411,   11.7144,   13.0924,   15.4462,   18.1569,   20.5772,   21.4624,   19.9973,   20.2456,   22.0216,   24.4632,   26.7936,   29.8298,   31.6546,   31.3569,   31.6411,   31.4479,   31.6801,   32.4363,   32.8823,   32.1511,   32.8876,   33.5263,   33.1084,   32.6740,   31.5720,  999.0000,  999.0000,  999.0000,   32.5346,   32.7445,   34.3311,   35.3782,  999.0000,  999.0000,  999.0000,   38.0158,   39.7381,   40.7406,   41.7712,   43.3755,  999.0000,   42.0626,
 29-OCT-1996 02:03:45.47,    5.0586,    5.4162,    5.4064,  999.0000,    5.9292,    6.1375,    5.7220,    5.5897,    5.5876,    5.6482,    6.2801,    6.4001,    7.2573,  999.0000,  999.0000,    5.8682,    5.7668,    5.8387,    6.9270,    8.7922,   10.2239,   11.2783,   12.0624,   11.5802,   12.9167,   15.7220,   18.2795,   20.7250,   21.7888,   20.8402,   19.9716,   21.4864,   24.0823,   26.4658,   29.4304,   31.4913,   31.3203,   31.6205,   31.3000,   32.1034,   32.8217,   32.7337,   32.9733,   32.9293,  999.0000,   33.0975,   33.2019,   32.1706,   32.4348,   33.9841,   33.4557,   32.0710,   33.2291,   33.8816,  999.0000,  999.0000,  999.0000,   38.2033,   38.5343,   40.4240,   41.3936,   42.5626,   44.3028,   45.7145,  999.0000,
 29-OCT-1996 02:06:18.59,    4.2630,    4.6881,    4.6946,  999.0000,    5.6372,    5.9390,  999.0000,  999.0000,  999.0000,  999.0000,  999.0000,    6.2760,    6.8920,  999.0000,    6.8318,    6.2614,    6.1968,    6.2961,    7.3340,    8.6696,    9.4318,   10.4132,  999.0000,   11.9352,   12.8948,   15.9871,  999.0000,   20.7306,   21.6667,   20.3245,   19.5022,   21.0324,   23.7880,   26.4180,   29.0542,   31.5544,   32.2369,   32.3378,  999.0000,   32.8507,   33.5155,   32.9174,   33.8129,  999.0000,  999.0000,   32.8525,   33.4190,   33.2463,   32.8478,   34.0244,  999.0000,  999.0000,   34.9204,   34.9491,   35.7331,   35.8105,   36.4475,   37.9883,  999.0000,   41.0100,   41.4010,   42.5670,   44.7493,   44.9013,   41.5839,
 29-OCT-1996 02:08:51.01,    2.8319,    2.9271,    3.1551,  999.0000,    5.1867,    5.6857,    5.6183,    5.6602,    5.7779,    6.3007,    6.0928,    6.1868,    6.9794,  999.0000,    7.0831,    5.9663,    5.8341,    6.4186,    8.1223,    9.1107,    9.5037,   10.7737,   11.7304,   11.9987,   12.9543,   15.7236,   17.9783,   20.3908,   21.3400,   19.5473,   19.7094,   21.1562,   23.9728,   26.7831,   29.2730,   32.0466,   33.1615,   32.9669,   32.0625,   32.7332,   33.6240,   33.6342,   34.9831,   34.1165,   33.4946,   32.8965,   32.9173,  999.0000,  999.0000,  999.0000,  999.0000,  999.0000,  999.0000,  999.0000,  999.0000,  999.0000,  999.0000,   37.7308,   38.1367,   40.3305,   40.8767,   42.6787,   44.4921,   43.8339,   40.4955,
 29-OCT-1996 02:11:24.35,  999.0000,  999.0000,  999.0000,  999.0000,    5.4403,    5.9190,  999.0000,    5.5422,    5.6118,    6.6619,  999.0000,    7.3671,    8.1472,  999.0000,  999.0000,    6.0267,    5.7771,    6.9088,    8.3052,    9.1054,    9.9602,   11.0035,  999.0000,   12.2522,   13.3179,   15.4044,   18.5268,   20.2794,   21.1727,   19.3424,   20.1473,   21.6949,   23.8408,   26.0492,   28.4593,   31.0842,   31.8273,   31.6761,   30.5064,   31.7173,   32.6743,   32.5068,   33.6287,   33.1224,   33.5668,   32.4943,   32.5489,   32.5721,  999.0000,  999.0000,  999.0000,  999.0000,  999.0000,  999.0000,  999.0000,  999.0000,  999.0000,  999.0000,  999.0000,   40.2597,   41.4478,   43.6177,   45.0318,   44.7570,  999.0000,
 29-OCT-1996 02:13:57.49,    3.5229,  999.0000,  999.0000,  999.0000,    5.9179,    5.8739,    5.5967,    5.4867,    5.5088,  999.0000,  999.0000,    7.5915,    9.1397,   10.1189,  999.0000,    7.0463,    6.7768,    7.6333,    9.1219,    9.3560,   10.1699,  999.0000,   12.2152,   12.6217,   14.0291,   16.2927,   18.9595,   20.7068,   21.3729,   19.8267,   20.7522,   21.7654,   24.0727,   25.9552,   28.7197,   31.1038,   31.1033,   30.5873,   30.0419,   31.4106,   32.3233,   32.3567,   33.2318,   33.1386,   33.2719,   32.4445,  999.0000,  999.0000,  999.0000,  999.0000,  999.0000,  999.0000,  999.0000,  999.0000,  999.0000,  999.0000,  999.0000,  999.0000,  999.0000,   39.8915,   41.4685,   43.6356,  999.0000,   42.1168,   39.1318,
 29-OCT-1996 02:16:29.99,    5.1424,  999.0000,    5.3896,    5.6863,    5.7225,    5.6789,  999.0000,  999.0000,    5.4657,    5.4657,  999.0000,  999.0000,    8.6153,  999.0000,    8.4121,    7.8678,    7.5752,  999.0000,    9.4819,    9.5307,    9.9231,  999.0000,   13.0984,   12.5198,   14.3580,   16.9596,   19.2346,   20.8817,   20.8975,   20.3423,   20.7388,   22.9072,   24.7879,   26.3121,   28.7897,   31.3374,   31.1571,   30.2081,   30.4908,   31.7082,   32.7433,   32.6155,   33.0611,   33.3599,   33.7227,   32.5614,   32.3105,   31.8088,   31.8622,   32.3217,   32.3832,   31.7251,  999.0000,  999.0000,  999.0000,  999.0000,  999.0000,   36.7021,   38.0364,   40.3983,   42.2055,   44.0535,   45.3350,  999.0000,   40.2764,
 29-OCT-1996 02:19:03.42,  999.0000,  999.0000,  999.0000,  999.0000,    5.8824,    6.0412,  999.0000,  999.0000,  999.0000,  999.0000,  999.0000,    6.5082,    7.3274,  999.0000,    8.7684,    6.8350,    6.3925,    7.7189,    9.2387,    9.3174,    9.3026,  999.0000,  999.0000,  999.0000,   14.4498,   17.2232,   19.7807,   21.1059,   20.0363,   21.0179,   21.5478,   23.8298,   25.3631,   26.9421,   30.1135,   32.5902,   32.6211,   31.2402,   31.6903,   32.6588,   33.1946,   33.2164,   33.6956,   34.0100,   33.9610,  999.0000,   32.1299,   31.1072,   31.0490,   31.9962,   33.3682,   33.0222,  999.0000,  999.0000,  999.0000,  999.0000,  999.0000,   37.2413,   38.0971,   40.1609,   41.8843,  999.0000,  999.0000,  999.0000,   40.1784,
 29-OCT-1996 02:21:35.80,    3.8495,  999.0000,  999.0000,    6.0162,    6.3383,    6.1042,  999.0000,  999.0000,    5.4691,    5.4458,    5.5696,    6.2247,    6.5138,    8.5637,  999.0000,    6.3687,    6.3338,    7.3713,    8.7428,    9.4001,    9.5991,  999.0000,  999.0000,  999.0000,   15.4569,   18.2221,   20.4322,   21.0572,   20.1871,   21.6996,   22.6774,   24.0900,   25.4266,   27.7291,   30.9219,   32.3891,   31.9289,   31.1471,   31.8886,   33.2550,   33.4599,  999.0000,   33.8759,   34.0302,   32.8777,   32.7931,   32.7288,   31.2614,   31.3753,   32.5594,   33.7264,   33.4446,   33.5857,   33.8475,  999.0000,  999.0000,   35.4997,   36.7904,   37.0557,   39.5633,   41.7079,   43.9413,   45.6620,  999.0000,   40.2565,
 29-OCT-1996 02:24:08.09,    4.9866,    5.7068,    5.5549,  999.0000,  999.0000,    6.1072,    5.4854,  999.0000,  999.0000,    5.4294,    6.2030,    5.6601,    5.6811,  999.0000,  999.0000,    7.6247,    7.4617,    7.6732,    8.1941,    9.3587,  999.0000,   11.5252,   12.3331,   13.5469,   14.9614,   17.4365,   19.0355,   19.3384,   19.5932,   21.0762,   22.8980,   23.7832,   24.0718,   26.8127,   29.7824,   31.0129,   31.6520,   30.3683,   31.2007,   32.3524,   32.4665,   32.9864,   33.4552,   33.4207,   32.1661,   32.0188,   31.9977,   31.0829,   31.4786,  999.0000,  999.0000,  999.0000,  999.0000,  999.0000,   36.0768,   36.5654,   36.2328,  999.0000,  999.0000,   40.1927,   42.1857,   44.2435,  999.0000,  999.0000,  999.0000,
 29-OCT-1996 02:26:40.34,    5.2088,    5.7309,    5.6733,  999.0000,  999.0000,    6.1103,    5.6004,    5.4032,    5.3724,  999.0000,    7.3906,    6.7214,  999.0000,  999.0000,    8.6795,    6.6432,    6.0159,    6.8624,    8.1253,    9.6775,    9.7602,   10.3950,   11.7503,   13.0575,   14.7005,   16.9122,   18.7465,   18.5756,   19.3743,   20.9657,   22.7461,   23.7788,   24.2606,   26.9356,   29.8039,   31.6132,   31.1524,   29.6381,   30.6043,   31.6437,   31.6098,   31.8678,   33.2646,   33.3283,   32.2978,   31.9126,   30.9920,   30.1754,   31.3417,   32.4717,   32.7853,   33.2108,  999.0000,  999.0000,  999.0000,   35.1636,   35.9332,  999.0000,  999.0000,   41.0197,   41.5960,   43.1747,  999.0000,   42.2147,  999.0000,
 29-OCT-1996 02:29:12.77,    4.8857,    6.2418,    5.8654,    6.2770,    6.4005,    5.8135,    5.4491,  999.0000,    5.4042,    5.6153,    6.0003,    6.4094,    7.3980,  999.0000,  999.0000,    5.7915,    5.7784,    6.2807,  999.0000,    9.9243,    9.5784,    9.9100,   11.2590,   13.4194,   14.6705,  999.0000,   18.4674,   18.6768,   18.7388,   20.5871,   21.9659,   22.7610,   23.7624,   26.0756,   27.9659,  999.0000,   29.3957,   28.9289,   30.1149,   31.2911,   31.4655,   32.1749,   33.2543,   32.9625,   32.2995,   31.8443,   31.1373,   30.5131,   32.0810,   33.0414,   32.1738,   32.1914,   33.0131,   33.8523,  999.0000,  999.0000,  999.0000,  999.0000,  999.0000,   41.5466,   41.6519,   42.7228,   44.7014,   43.1537,  999.0000,
 29-OCT-1996 02:31:45.13,    3.5341,  999.0000,    5.4101,    6.2716,    6.4401,    5.5746,    5.3674,    5.4103,    5.2963,    5.6350,    5.8204,    6.0814,    6.4800,    8.1128,  999.0000,  999.0000,    6.5186,    6.5388,    8.7768,    9.4592,    9.8252,   10.5578,   12.0514,   12.9353,   14.4516,   17.1126,   19.5475,   19.3307,   18.7751,   20.2313,   21.7603,   22.4875,   23.5105,   24.9605,   28.2517,   29.5451,   31.0018,   29.6677,   30.6973,   31.2916,   31.2145,   32.4014,   32.8741,   32.4401,   32.9206,   32.5798,   31.0196,   30.8035,   32.7408,   33.8008,   32.8953,  999.0000,  999.0000,  999.0000,  999.0000,  999.0000,  999.0000,  999.0000,  999.0000,   41.3198,   41.5732,   42.9782,   43.3301,   42.5310,   39.9511,
 29-OCT-1996 02:34:18.05,    5.4116,    5.6972,    5.6548,    6.1338,    6.3621,    5.3072,    5.3226,    5.4288,    5.4435,    5.4626,    5.3619,    5.8499,    6.3249,    7.1850,    6.8971,  999.0000,    7.8120,    8.1660,    9.4151,    9.5755,    9.3564,   10.1727,   11.4849,   11.3980,  999.0000,  999.0000,   19.8244,   20.3897,   20.7927,   19.7563,   21.3732,   22.1133,   23.8917,   26.0316,   29.5141,   32.0526,   34.1120,  999.0000,   31.3233,   31.9809,   31.7327,   33.3007,   33.3867,   32.5913,   32.5454,   31.8773,   30.3399,  999.0000,  999.0000,  999.0000,  999.0000,  999.0000,  999.0000,   34.4178,   36.2262,  999.0000,  999.0000,  999.0000,  999.0000,  999.0000,  999.0000,   42.9440,  999.0000,   40.7817,   39.8907,
 29-OCT-1996 02:36:50.48,    5.4980,  999.0000,    6.0552,    6.0296,    6.0397,  999.0000,    5.3021,    5.3377,    5.3538,    5.4412,    5.2081,  999.0000,    7.5710,    8.3779,  999.0000,  999.0000,  999.0000,    7.9528,    8.8702,    9.8688,    9.8697,  999.0000,   11.9701,   12.5006,   14.2629,   17.2012,   19.4231,   20.2875,   18.9636,   19.7025,   21.0365,   21.7489,   24.0539,  999.0000,  999.0000,   31.2970,  999.0000,   30.3990,   30.9147,  999.0000,   31.6199,   32.2302,   33.6414,   32.5125,   32.2576,   32.2496,   30.3692,   30.8463,   32.5808,   33.8058,   33.6591,   32.6062,   32.2542,   34.2459,   34.9611,  999.0000,  999.0000,  999.0000,  999.0000,  999.0000,   41.4554,   42.3926,   41.3979,   39.0033,   38.5438,
 29-OCT-1996 02:39:22.83,    6.0429,    7.0077,    6.9394,    6.4354,  999.0000,    5.1419,    5.2101,    5.2457,    5.2564,    5.5268,    5.4144,  999.0000,    6.6320,    7.3177,    6.5315,    6.4911,    6.5453,    6.8993,  999.0000,    9.1167,    9.5033,   10.2417,   10.9895,   12.7345,   14.1210,   17.1351,   19.0421,   19.9678,   19.3202,   19.8163,   20.6363,   22.1238,  999.0000,   26.3719,   28.3121,   31.9818,   33.0066,   31.2116,  999.0000,   31.8450,   31.7423,   32.7662,   33.5696,   32.4482,   32.1757,   32.0187,   30.6124,   31.4023,   32.3989,   33.5721,   33.4049,   31.9288,   32.2127,  999.0000,  999.0000,  999.0000,  999.0000,  999.0000,  999.0000,  999.0000,   42.4253,  999.0000,   42.1748,  999.0000,   39.3608,
 29-OCT-1996 02:41:58.53,    6.8748,    7.6791,    7.8023,    7.7462,    6.7500,  999.0000,  999.0000,  999.0000,    5.4512,    5.8959,  999.0000,    5.8325,    6.9461,    8.5470,    8.2597,    8.0821,    8.0837,    8.0182,  999.0000,    9.8429,   10.1946,   10.4301,  999.0000,   12.6640,   14.2611,   17.2193,   19.0094,   20.2596,   19.3248,   19.8918,   21.0061,   22.2844,   23.4795,   25.2614,   28.4970,  999.0000,   32.3501,   31.0296,   30.4173,   31.8193,   31.3972,   33.2088,   33.0625,  999.0000,  999.0000,   31.2741,   30.3964,   30.9060,   32.1768,   33.4179,   33.3145,   31.7305,   32.1922,   34.2374,   35.2803,   37.2851,   37.6858,  999.0000,   39.1104,   42.3802,   43.0947,   44.5210,  999.0000,   39.4648,   39.2134,
 29-OCT-1996 02:44:31.54,  999.0000,  999.0000,  999.0000,  999.0000,  999.0000,  999.0000,  999.0000,  999.0000,  999.0000,  999.0000,  999.0000,  999.0000,    7.1045,    7.7320,    8.6022,    8.4737,    8.5614,  999.0000,  999.0000,  999.0000,  999.0000,  999.0000,  999.0000,   13.2827,   15.0167,   17.4783,   19.0634,   20.2916,   20.0963,   20.1445,   21.1802,   22.3396,   23.3551,   24.6563,   27.9637,   31.1371,   31.8599,   31.1344,  999.0000,   31.3094,   31.3601,   32.4185,   33.2477,  999.0000,  999.0000,   31.1746,   30.6109,   31.3846,   32.6584,   33.6571,  999.0000,  999.0000,  999.0000,   34.3553,   35.5771,   37.2167,   37.5228,   36.9075,   38.8723,  999.0000,   42.0355,   43.2903,  999.0000,   39.2108,   37.9740,
 29-OCT-1996 02:47:04.25,    4.4667,    5.3335,    5.6439,    5.6099,    5.5147,    5.3954,  999.0000,    5.4311,    5.4398,    5.2172,    5.2216,    5.6386,    8.0188,    9.1410,    8.6663,    8.5990,    8.9725,    8.4262,    9.2362,    9.5361,    9.5825,    9.9675,   11.4085,   12.8260,   14.4875,   16.7658,   18.7651,   19.3491,   18.0534,   20.2254,   21.8619,   23.1698,   23.6226,   25.1298,   27.9506,   30.6911,   32.0477,   31.4431,   30.7683,   32.2337,   32.3187,   33.4462,   34.0968,   32.7351,   31.7590,   31.7431,   31.6549,   31.7887,   33.3533,  999.0000,  999.0000,  999.0000,  999.0000,  999.0000,   36.1336,   37.6194,   37.4733,   37.1973,   39.3722,  999.0000,  999.0000,  999.0000,  999.0000,   39.8034,   38.7332,
 29-OCT-1996 02:49:36.68,    4.6780,    5.5586,    5.6333,    5.4560,    5.4419,    5.3929,    4.7623,    5.2637,    5.4380,    4.7191,    4.5410,    5.1315,    7.6601,    9.4027,  999.0000,    7.0832,    6.9825,    8.4497,    9.0267,    9.1820,    9.4149,    9.9824,   12.2963,   13.2133,   14.2777,   16.3438,   18.5277,   18.8274,   18.1769,   20.0099,   21.5868,   22.4265,   23.2885,   24.8286,   27.7355,   30.0607,   30.8621,   29.9488,   29.9959,   31.5732,  999.0000,   33.0296,   33.6167,  999.0000,  999.0000,   31.0834,   31.6934,   31.8122,   32.2505,   34.3335,  999.0000,   32.5268,   32.4929,   34.6114,   36.7329,  999.0000,   37.2128,  999.0000,   39.9546,  999.0000,   42.7372,   44.2479,  999.0000,   38.6745,   38.2511,
 29-OCT-1996 02:52:09.39,    4.1329,  999.0000,  999.0000,    5.2551,    5.2763,  999.0000,    3.7541,    4.9481,    5.4462,  999.0000,    5.0697,    5.2367,    6.9251,    8.2612,    7.7807,    7.3750,    7.1055,    8.6196,    9.0103,    9.5472,   10.4308,  999.0000,   12.3395,   12.4165,   13.3955,   16.1168,   18.5274,   19.0439,   18.5437,   20.5064,   22.1825,   22.3154,   23.0118,   24.7494,   27.3791,  999.0000,  999.0000,   30.0673,   29.8921,   31.4273,  999.0000,   32.9965,   33.4642,  999.0000,  999.0000,  999.0000,  999.0000,  999.0000,  999.0000,   32.3995,   31.6957,   31.6974,   31.9288,   34.0307,   36.8357,   37.4290,   37.9112,   37.8947,   39.5763,   41.1488,   42.4641,  999.0000,  999.0000,  999.0000,  999.0000,
 29-OCT-1996 02:54:41.69,    5.7222,    6.2879,    5.6379,    5.4877,  999.0000,    5.3675,    5.3562,    5.2041,  999.0000,    5.4873,    5.7340,    5.8405,  999.0000,    9.1469,    9.2132,    8.0859,    8.0907,    8.5515,    8.8849,    9.2392,    9.7479,    9.7897,  999.0000,   12.1388,   13.5287,   16.0697,   18.3191,   18.7639,   18.7691,   20.2300,   22.0865,   22.8335,   22.9047,   25.2393,   27.9299,   30.3826,   31.4586,   30.5208,   31.0302,  999.0000,   32.1023,   32.9989,  999.0000,  999.0000,  999.0000,  999.0000,  999.0000,  999.0000,  999.0000,  999.0000,   31.8159,   32.9542,   33.2717,   34.1091,   37.0580,   38.0787,   38.1436,   38.0390,   39.2775,   41.3154,   42.6015,  999.0000,  999.0000,  999.0000,  999.0000,
 29-OCT-1996 02:57:14.48,    7.9846,    7.8383,  999.0000,  999.0000,  999.0000,    5.4821,    5.4685,  999.0000,    5.5098,    5.6672,    6.4385,    6.6060,    7.6901,  999.0000,  999.0000,    7.0407,    7.6990,    8.1647,    8.1915,    8.2884,    8.7243,    9.4247,  999.0000,   12.6193,   13.8746,  999.0000,   17.7038,   19.1589,   20.4667,   20.8596,   22.2051,   22.2977,   23.3154,   25.5594,   28.0234,   30.6371,   31.2453,   30.2406,   30.9056,   32.2706,  999.0000,   33.6802,   33.8688,  999.0000,  999.0000,  999.0000,   32.0863,   32.4599,   32.8316,  999.0000,  999.0000,  999.0000,   33.6374,   34.7021,   36.8424,  999.0000,  999.0000,  999.0000,   40.7617,   41.5805,   42.6756,  999.0000,   40.6955,   38.0947,   37.4902,
 29-OCT-1996 02:59:46.87,  999.0000,  999.0000,  999.0000,  999.0000,    5.4947,    5.4828,    5.4311,    5.4536,    5.5050,    5.6505,    6.2429,    6.0804,  999.0000,    9.1882,    8.3764,  999.0000,    7.8800,    8.4133,    8.7561,    9.0191,    9.5191,    9.8290,   11.0147,   12.5106,   13.8183,   15.7985,   17.4250,   18.2687,   18.9810,   20.8501,   21.3486,   22.0127,   23.3210,   25.6930,   27.9993,   30.5230,   31.1451,   29.8632,   30.7105,   32.5326,   32.5834,   34.3893,   33.9964,  999.0000,  999.0000,   31.2581,   31.3778,   31.4076,  999.0000,  999.0000,  999.0000,  999.0000,   33.8389,   35.5509,   36.3990,   37.1837,   38.8261,   39.3435,   39.5552,   41.9591,  999.0000,  999.0000,  999.0000,  999.0000,  999.0000,
 29-OCT-1996 03:02:20.46,    7.2200,  999.0000,    5.6762,    5.4312,    5.4671,    5.4679,    5.4087,  999.0000,    5.4457,    5.5158,    5.7773,    5.8466,    7.8205,    8.9000,    8.4919,  999.0000,    6.6098,    7.3121,    8.9961,    9.5366,    9.2981,  999.0000,  999.0000,   12.9702,   13.6790,   15.9421,   17.7348,   18.1194,   18.1483,   20.8915,   20.8376,   21.6226,   23.2108,   25.2752,   27.4684,   30.0706,   30.6339,   29.2498,   29.9676,   32.6125,   32.2647,   33.6968,   33.6534,   32.4347,   31.6674,   32.0427,  999.0000,  999.0000,  999.0000,  999.0000,  999.0000,  999.0000,  999.0000,   36.4484,   37.0302,   37.1606,   38.3810,   39.2439,   40.2996,   42.9268,   44.7036,  999.0000,  999.0000,   39.0005,   38.3036,
 29-OCT-1996 03:04:52.94,    5.5410,    5.5184,    5.4639,    5.4575,    5.4599,    5.3857,  999.0000,    5.4808,    5.5729,    5.5645,    5.7333,  999.0000,  999.0000,    8.9126,    8.7128,    7.3843,    7.4570,    8.0449,    8.5505,    9.2288,    8.9371,    9.8521,  999.0000,  999.0000,   13.6368,   16.4092,   18.0779,   17.9666,   17.9704,   20.5264,   21.4520,   21.8973,   23.6074,   26.2760,   28.4841,   31.1466,   31.3991,   30.3988,   31.1269,   33.4969,   32.0530,   34.3932,   35.3172,  999.0000,   32.3671,   32.7102,  999.0000,  999.0000,  999.0000,  999.0000,  999.0000,   32.4435,   33.8213,   36.3467,   37.0144,   37.5221,   38.4379,   39.1117,   41.1031,   44.1055,  999.0000,  999.0000,   42.5867,   40.5190,   39.4533,
 29-OCT-1996 03:07:25.26,    5.8253,    5.6962,  999.0000,  999.0000,    5.4684,    5.2262,    5.5748,  999.0000,    5.8271,    5.7983,    5.9762,    6.1587,    8.0492,    8.9983,    8.4526,    7.1331,    7.3695,    7.6441,    8.9967,    9.3913,    9.0827,   10.3491,   11.3626,   12.1829,   13.9186,   16.3727,   17.7370,   17.3067,   17.8627,   20.4445,   21.7449,   22.2538,   23.5724,   26.0361,   28.6770,   31.0770,   31.6560,   30.6912,   31.6510,  999.0000,  999.0000,   35.1060,  999.0000,   33.3255,   31.8364,   32.3971,  999.0000,  999.0000,  999.0000,  999.0000,  999.0000,  999.0000,  999.0000,   36.3589,   37.0950,   38.0013,   37.8223,   38.2596,   40.7590,   44.3604,   46.1282,  999.0000,  999.0000,  999.0000,   38.3008,
 29-OCT-1996 03:09:57.70,    5.6852,    5.6056,    5.4905,    5.4670,    5.4805,    5.4521,    5.5133,    5.6111,    5.7644,    5.6226,    5.8081,  999.0000,    7.4159,    9.1556,    8.3262,    7.0597,    5.9666,    6.0130,  999.0000,    8.3553,    8.7567,    9.9299,   11.3950,   11.9029,   13.5048,   16.4590,   18.0378,   17.9417,   18.9096,   20.4342,   21.5039,   21.4773,   22.6206,   25.4289,   27.5272,   30.3156,   31.7194,   30.8539,   30.5645,   32.4873,   33.4755,   34.7378,  999.0000,   33.9757,   31.9208,   31.9249,  999.0000,  999.0000,  999.0000,   35.0672,   33.7962,   33.1945,   35.2287,   37.2423,   38.0110,   37.8495,  999.0000,   38.2103,   41.4529,   44.5174,  999.0000,  999.0000,   41.4540,   40.3241,   38.4741,
 29-OCT-1996 03:12:30.24,    5.5004,    5.4647,    5.4539,    5.4548,    5.4600,  999.0000,    5.4700,    5.4490,    5.6781,  999.0000,    6.1750,    5.6281,    6.7806,    8.4526,  999.0000,  999.0000,  999.0000,  999.0000,    8.4000,    8.0897,    8.7564,    9.7488,   11.5785,   11.9922,   12.9910,   16.2649,   18.0124,   19.0020,   18.6821,   19.9939,   21.4814,   21.8813,   23.3158,   26.0426,   27.6421,   30.2459,   30.9799,   30.0374,   30.1290,   31.8983,   31.4458,   33.5102,  999.0000,   33.5949,  999.0000,  999.0000,  999.0000,  999.0000,  999.0000,  999.0000,  999.0000,  999.0000,  999.0000,   37.0599,   37.7760,   38.4817,   37.8053,   38.5851,   41.8554,   44.4067,  999.0000,  999.0000,   40.8783,   39.3655,  999.0000,
 29-OCT-1996 03:15:03.05,    5.4684,    5.4587,    5.4329,    5.4501,    5.4643,    5.5036,    5.4519,    5.3008,    5.0924,    5.1076,    4.9285,    3.8946,  999.0000,    7.9080,    7.4097,    7.2763,    7.3955,    7.6075,    7.7407,    8.0749,    8.8781,   10.2135,   11.3519,   11.6794,   14.2768,   16.1427,   17.9635,   18.7189,   18.0590,   19.7665,   21.0282,   21.8220,   23.5569,   26.2544,   27.7645,   30.4276,   31.3090,   30.0229,   31.2504,   33.0375,   32.7789,   32.9747,   34.5560,   33.6891,   32.8259,   32.3103,  999.0000,  999.0000,   33.1425,   33.6288,   34.3246,   33.6750,   34.2791,   35.7191,   36.8654,   38.5795,   38.1389,   39.1470,   42.0516,   44.1376,  999.0000,  999.0000,   39.5754,   39.4284,  999.0000,
 29-OCT-1996 03:17:43.41,    5.3667,  999.0000,    5.4129,    5.4368,    5.4372,  999.0000,    5.3642,    5.1660,    5.3743,    5.5018,    5.0997,  999.0000,  999.0000,    8.7128,    8.4647,    8.0851,    8.6989,    8.0366,    7.8189,    8.2737,    8.8235,   10.7280,  999.0000,   11.7906,   13.5348,   15.4996,   17.7055,   17.9436,   17.5079,   18.7077,   20.6498,   21.5213,   22.9865,   24.9972,   26.8601,   29.4305,   31.1495,   30.4439,   30.6138,   31.6397,   30.6101,   32.3909,   33.4295,   33.5973,   32.7803,   32.2669,   32.5368,   33.0253,   33.7870,   34.0213,   34.4135,   33.8857,   34.6542,   37.0494,   38.1273,   37.9238,   37.8326,   39.5858,   42.0397,  999.0000,   45.6833,  999.0000,  999.0000,   38.2433,   38.0405,
 29-OCT-1996 03:20:16.55,    5.4603,    5.4467,    5.4302,    5.4221,    5.4183,  999.0000,    5.2961,    5.0898,    5.3852,    5.6105,    5.2756,    4.6353,  999.0000,    9.1787,    9.6294,    8.8656,    8.5894,    8.9462,    7.5574,    8.3862,    8.6003,  999.0000,   11.7070,   11.8225,   13.5443,   15.0453,   16.6746,   16.3956,   16.8397,   18.1566,   19.7998,   21.3702,   22.1040,   24.7802,   26.8926,   28.9223,   31.1967,   31.9499,   30.9062,   31.9147,  999.0000,  999.0000,   32.8668,   33.6441,   32.6960,  999.0000,  999.0000,  999.0000,  999.0000,   34.8360,   34.9304,   34.2262,   35.2439,  999.0000,  999.0000,  999.0000,  999.0000,  999.0000,   43.4209,   45.6954,  999.0000,  999.0000,  999.0000,  999.0000,   37.7051,
 29-OCT-1996 03:22:49.01,    6.2235,    5.8618,    5.5905,    5.4678,    5.4826,    5.4976,    5.5221,    5.4852,    5.5362,    5.8166,    5.9408,  999.0000,    7.5317,    8.6847,    8.9362,    9.6377,    9.5746,  999.0000,    7.7245,    8.7221,    9.2460,  999.0000,   11.3107,   11.7522,   13.6117,   15.2213,   17.0322,   17.4362,   17.3673,   18.2679,   20.2826,   21.8017,   22.8093,   25.5534,   27.8122,   30.2531,  999.0000,   31.3373,   31.4071,   33.0700,   32.9364,   32.0618,   32.3483,   32.8388,   32.9793,   33.2644,   33.3536,   33.4994,   33.7061,   34.9158,   34.7807,   34.3624,   35.9083,   37.4485,   37.7390,  999.0000,  999.0000,  999.0000,   43.2181,  999.0000,  999.0000,   38.6065,   38.6747,   36.8317,  999.0000,
 29-OCT-1996 03:25:21.42,    8.1250,  999.0000,    5.8442,    5.5915,  999.0000,    5.6006,    5.6526,    5.5538,    5.5579,    5.6782,    7.5462,    7.8681,    9.5421,    8.7866,    8.1671,    8.2696,    8.5382,    8.5654,    8.9660,    9.3550,   10.0285,   11.5732,  999.0000,   12.2957,   13.5231,   15.0941,   17.2171,   17.7641,   17.1920,   19.1810,   20.1664,   21.4589,   22.9694,   25.6331,   27.5300,   31.2340,   32.4263,   30.4311,   30.0180,   32.0593,   32.6048,   31.5403,   32.3980,   33.0194,   33.0909,   33.1530,   33.3777,   33.0042,   32.4975,   33.9266,   34.0654,  999.0000,  999.0000,   37.2542,   37.4271,   38.3744,   39.6741,   40.6201,   42.9019,   44.7871,  999.0000,   38.6617,   38.8831,  999.0000,  999.0000,
 29-OCT-1996 03:27:54.60,    7.3031,    7.3175,  999.0000,    5.7389,    5.5336,    5.4453,    5.4705,    5.4621,    5.4956,  999.0000,  999.0000,  999.0000,  999.0000,    9.4930,    8.6452,    9.1295,    9.7582,    9.6079,    9.0438,    9.9070,   10.9943,   12.2294,   12.5379,   12.9695,   13.6217,   15.1272,   16.7019,   17.1546,   16.9836,   18.4703,   19.5310,   21.1984,   22.6750,   25.8369,   27.1893,   29.0471,  999.0000,   29.9077,   29.6739,   31.5415,   31.5074,   31.2242,   32.1622,   33.0475,   33.2636,   33.0485,   32.7440,   32.9338,   32.5821,   33.3598,   33.8311,   34.0656,   36.5284,   37.6746,   37.3973,   38.0220,   39.3258,   41.2802,   43.6058,   43.9338,   42.9906,   40.3695,  999.0000,   36.3116,   37.0258,
 29-OCT-1996 03:30:27.07,    5.5517,    5.5054,  999.0000,    5.4532,    5.4538,    5.3279,  999.0000,    5.4443,    5.6709,    6.2543,    6.9686,  999.0000,    9.7777,    9.9132,  999.0000,   10.7496,   10.7614,    9.8478,   10.0535,   10.4799,  999.0000,  999.0000,   11.8825,   12.7547,   13.3205,   14.1131,  999.0000,   16.5534,   16.5547,   17.0307,   17.9838,   19.5438,   22.7213,   25.5666,   27.0468,   28.5877,   30.5954,   31.2963,  999.0000,  999.0000,   32.3627,   31.6309,   32.0741,  999.0000,   33.2232,  999.0000,  999.0000,  999.0000,  999.0000,   34.2973,   35.0308,   34.5913,   36.3637,   37.3941,  999.0000,  999.0000,   39.4908,   41.2778,  999.0000,  999.0000,  999.0000,  999.0000,  999.0000,  999.0000,  999.0000,
 29-OCT-1996 03:32:59.51,    5.5863,    5.4044,    5.4149,    5.4681,    5.5918,  999.0000,  999.0000,  999.0000,    5.8727,    6.5348,  999.0000,    7.4812,    8.4662,    8.9296,  999.0000,   10.0722,   10.0804,  999.0000,    9.5125,   10.6047,   11.4154,   11.8867,   11.9821,   12.9658,   13.2977,   14.4613,   16.7070,   17.4372,   17.4537,   17.3414,  999.0000,   21.3808,   22.6726,   25.6754,   27.0312,   29.1195,   31.0266,   30.1587,  999.0000,   31.5382,   32.8908,   32.1350,   32.9940,   34.4977,   34.5865,   34.9893,   33.0281,   33.3812,   33.4420,   34.3225,   34.8084,   34.1046,   36.0981,   37.0912,   37.6937,   38.3192,   39.3364,   41.4551,   44.2501,   44.5801,   43.0342,   41.1290,  999.0000,  999.0000,   37.6380,
 29-OCT-1996 03:35:32.43,    5.5761,    5.3020,    5.3270,    5.4676,    5.5592,    5.6083,    5.5287,    5.6904,    5.5730,  999.0000,    6.9376,    7.1188,    8.2007,    9.2496,    9.1842,    8.5047,    8.3531,    8.3524,    9.9505,   11.1907,   11.9416,   12.3449,   12.3576,   12.5339,   13.8465,   14.4749,   16.3303,   16.7243,   17.6393,   18.9675,   19.3761,   20.5246,   22.9656,   25.2320,   26.5554,   29.0497,   30.6408,   29.0185,   29.1203,   31.7047,   33.0752,   32.3332,   33.4785,   34.5260,   33.8008,   33.7820,   33.1416,   33.4471,   32.9389,   33.2677,   34.5828,   34.5379,   36.4925,   37.1354,   37.7844,   38.7093,   39.5590,   41.3160,   44.2027,  999.0000,   42.6425,   41.2425,   39.9775,  999.0000,   36.3226,
 29-OCT-1996 03:38:05.20,    5.8765,    5.5410,    5.3034,  999.0000,    5.6984,    5.6484,    5.5975,  999.0000,    5.9604,    6.1575,    7.4726,    7.7554,    9.4248,    8.8794,  999.0000,  999.0000,  999.0000,  999.0000,  999.0000,   11.2345,   12.3651,   12.8052,   12.6435,   12.3080,   13.6116,   13.6944,   15.6156,   15.9999,   17.2190,   18.6210,   18.9102,   19.8352,   22.2712,   24.7924,   26.1124,   28.1623,   29.8482,   28.9634,   29.4078,   31.8590,   33.1077,   32.2694,   33.1537,   34.0381,   33.3255,   33.3296,   32.7488,  999.0000,  999.0000,   32.7941,   33.7087,   34.2596,   36.3315,   36.6094,   37.1873,   38.1497,   38.2851,   40.0875,   43.2020,   43.8640,  999.0000,  999.0000,  999.0000,  999.0000,  999.0000,
 29-OCT-1996 03:40:37.89,    5.5973,    5.5327,    5.4481,    5.4861,    6.1616,    6.2787,  999.0000,  999.0000,  999.0000,    6.6276,    7.4753,    7.8490,  999.0000,    9.1116,    9.3599,    9.4186,    9.3438,    9.1418,    9.6082,   11.4087,   11.9707,   12.5761,   12.6943,   12.5019,   12.9007,   13.5258,   15.5654,   16.2412,   17.0806,   18.3209,   18.7826,   19.7462,   22.4163,   24.8381,   26.1421,   27.9318,   29.2155,   28.4066,   29.0456,   31.4331,   32.6302,   32.1535,   33.5524,   34.1776,   32.8013,   32.6517,   31.9247,   32.4706,   33.3715,   33.5926,   34.4338,   34.8956,   36.4680,  999.0000,  999.0000,   38.7063,   39.0818,   40.7852,  999.0000,   44.1323,   42.0214,   41.2159,   39.0961,   36.8947,   36.8999,
 29-OCT-1996 03:43:10.36,    5.3205,    5.4821,  999.0000,  999.0000,    7.4742,    7.6665,  999.0000,  999.0000,  999.0000,  999.0000,  999.0000,  999.0000,   10.6886,   10.6903,   10.5665,   10.6313,   10.5592,   10.2116,   10.2439,   11.2065,  999.0000,   13.0523,   13.1350,   12.2820,   12.8578,   13.6710,   15.4522,   15.9295,   16.6419,   18.0318,   18.8532,   20.0346,   22.9788,   25.3437,   26.6032,   28.4657,   29.2416,   28.0286,   28.5518,   30.8011,   32.2817,   32.0019,   33.3305,   33.9173,   32.7822,   33.0436,  999.0000,  999.0000,   33.5176,   33.7674,   35.2319,   35.9409,   37.0545,  999.0000,  999.0000,   39.6588,   40.1334,   41.4518,  999.0000,   44.4693,   41.8500,   40.9060,  999.0000,  999.0000,   36.3213,
 29-OCT-1996 03:47:12.56,    5.4471,    5.4266,    5.4240,    5.5491,    5.5335,    5.6084,  999.0000,  999.0000,    8.7331,    9.1829,    8.7660,    9.6402,   10.2373,   10.3045,    9.8343,   10.1076,   10.0656,    9.5828,    9.8501,   10.3095,   11.4072,   12.3715,   12.4732,   12.5756,   12.5820,   13.6673,   15.6889,   15.6343,   16.5516,   17.3355,   18.7529,   20.8934,   24.3677,   25.6324,   27.0368,   28.3904,   29.6037,   28.8044,   28.9938,   30.6670,   32.0784,   31.9798,   33.0452,   33.1122,   32.9774,   32.8902,   32.1622,   32.5778,   33.2178,   33.7668,   35.1647,   35.9378,   36.5992,   37.2878,   37.8635,  999.0000,   40.4518,   41.3126,   43.3274,   43.6419,   41.4406,   40.3858,   37.5688,   36.3276,   34.7332,
 29-OCT-1996 03:49:45.14,    5.4540,    5.4465,    5.4429,  999.0000,    5.4990,    5.7848,  999.0000,    9.9513,   10.4292,   10.2094,    8.9369,    9.3382,   10.1098,   10.2171,  999.0000,  999.0000,  999.0000,  999.0000,  999.0000,  999.0000,  999.0000,   12.4558,   12.2280,   11.9349,   12.3701,  999.0000,   15.8718,   16.0402,   16.9577,   17.3928,   18.9038,   21.3760,   24.9752,   26.9194,   27.1963,   29.1728,   30.1879,   28.8895,   29.2429,   31.2368,   32.2816,   32.1034,   33.4475,   33.2313,  999.0000,  999.0000,   32.4212,   32.5844,   32.8538,  999.0000,  999.0000,  999.0000,  999.0000,   35.8709,   37.1567,   40.1925,   39.9052,   40.8334,   42.0553,   42.6314,   40.7259,   38.6669,  999.0000,   36.9263,  999.0000,
 29-OCT-1996 03:52:19.14,  999.0000,    5.4230,    5.4241,    5.5363,    5.6648,    5.6644,    5.6750,  999.0000,  999.0000,    8.7274,    7.9865,    8.4923,    8.7881,    8.9909,   10.0503,   10.6904,   10.3680,  999.0000,    8.4144,    8.2399,  999.0000,   12.6802,   12.1494,   12.4026,   12.5074,   13.8046,   15.9364,   16.1882,   17.3188,   17.8665,   18.7652,   21.5572,   24.8490,   27.0695,   26.9716,   28.5701,   29.6600,   28.4118,   29.2373,   31.6226,   32.2283,   32.0365,   33.5720,   33.8632,  999.0000,  999.0000,  999.0000,  999.0000,  999.0000,   33.4764,   34.4778,   35.0316,   34.7583,   35.4958,   37.2105,   39.8002,   39.8015,   40.9912,   41.6455,   41.5272,   39.4618,   37.7711,  999.0000,  999.0000,   33.8793,
 29-OCT-1996 03:54:51.57,    5.3585,  999.0000,    5.4031,    5.5012,    5.5251,  999.0000,  999.0000,  999.0000,    8.8083,    8.6653,    8.3744,    8.9424,    9.3731,    9.6861,    9.4995,   10.6618,    9.9300,    9.0204,    9.5258,   10.3286,   11.1244,   13.1216,   12.9565,   12.5726,   12.9429,   14.3311,   16.4384,   16.3543,   17.0256,   17.9485,   18.6457,   21.7681,   25.4715,   25.7279,   27.1330,   28.2849,   29.3915,   28.7313,   28.7985,   30.9851,   31.6814,   32.0528,   32.7034,   33.3495,   32.8689,   32.2805,   32.0851,   31.3117,   32.5838,   33.3751,   34.4928,  999.0000,  999.0000,   35.3643,   37.3087,   40.0678,   40.3159,   41.3255,   41.3786,   40.4288,   39.1206,   37.3355,   35.2586,   35.9940,  999.0000,
 29-OCT-1996 03:57:24.15,    5.2584,    5.3403,    5.4119,    5.4066,  999.0000,  999.0000,  999.0000,  999.0000,  999.0000,    9.3946,    9.0612,  999.0000,   10.9789,   11.1718,   10.7488,   11.0795,   10.9143,  999.0000,  999.0000,   10.9012,   10.6637,  999.0000,   12.5806,   12.1358,   12.7897,   14.5703,   16.4674,   16.1302,   17.1119,   18.1190,  999.0000,   21.0593,   24.5774,  999.0000,   26.2979,   27.7179,   29.7486,   29.4578,   29.5580,   31.2965,   31.8039,   32.1790,   32.5787,   33.0911,   33.1910,   32.9231,   33.4586,   32.4155,   32.9085,   33.8059,   34.4949,   35.4126,   35.4496,   35.8931,   37.9575,   40.3977,   40.1254,   41.7369,  999.0000,   39.8254,   39.3222,   38.2398,   35.8538,   35.0696,   35.9095,
 29-OCT-1996 03:59:56.53,    5.4170,    5.4001,    5.2921,    5.2399,    5.3439,  999.0000,  999.0000,  999.0000,   10.3795,    9.3328,  999.0000,  999.0000,  999.0000,  999.0000,  999.0000,  999.0000,  999.0000,    9.9924,   10.4981,   10.7610,  999.0000,   12.2496,   12.4840,   11.8999,   12.7112,   15.2624,   16.6902,   16.3066,   17.8941,   18.3764,   19.0816,   21.4079,   24.9124,   24.7817,   26.5468,   26.9045,   29.0349,   28.7007,   29.2776,   30.9818,   32.0462,   31.8601,   32.8552,   33.6482,   34.0662,   33.1707,   33.2692,  999.0000,  999.0000,  999.0000,  999.0000,   34.9900,   35.9298,   37.0861,   39.1485,  999.0000,   41.1455,   42.3023,   42.9850,   41.4512,  999.0000,  999.0000,  999.0000,   34.6045,   35.7257,
 29-OCT-1996 04:02:29.05,    5.4116,  999.0000,  999.0000,  999.0000,  999.0000,  999.0000,  999.0000,  999.0000,    9.6918,   10.0856,  999.0000,   10.8231,   10.9182,   10.0635,  999.0000,    9.4122,    9.4282,   10.6816,   10.5460,   10.3255,   10.9701,   12.2398,   11.3523,   12.5965,   13.5669,   14.9845,   15.8060,   16.3651,   17.3183,   18.0377,   19.3435,   21.8330,   25.4171,   25.2546,   26.8378,   28.0431,   29.7223,   28.9573,   29.7543,   31.0920,   32.5221,   32.7701,   33.4610,   34.2248,   34.4370,   33.4243,  999.0000,  999.0000,   34.9345,   35.5736,   36.1638,  999.0000,   36.8105,   37.9741,   40.0880,   41.5778,   42.1488,   43.9604,   43.6177,   41.2053,   40.0325,   39.1464,   38.1559,   36.6028,  999.0000,
 29-OCT-1996 04:05:01.45,    5.4750,  999.0000,  999.0000,  999.0000,  999.0000,  999.0000,  999.0000,    8.4570,    8.9200,    8.1827,  999.0000,  999.0000,  999.0000,    8.5613,    8.5806,    8.5747,  999.0000,   10.4303,    9.5953,    9.2239,   10.4093,   10.8748,   10.0187,   12.0758,   13.6464,   15.4231,   16.4917,   16.2012,   17.1888,   18.2171,   19.2373,   21.3851,   25.3820,   25.5077,   27.2218,   27.9466,   29.4584,   28.8724,   29.7314,   30.8895,   32.4898,   33.0309,   33.3081,   33.4689,   33.1575,   33.9501,   33.8825,   32.5517,   33.8185,   34.9422,   35.8138,   35.8302,   36.2088,   37.2331,   40.0685,   41.9812,   42.3953,   43.8769,   44.0005,  999.0000,  999.0000,  999.0000,  999.0000,  999.0000,  999.0000,
 29-OCT-1996 04:07:34.88,    5.7729,  999.0000,  999.0000,  999.0000,  999.0000,  999.0000,  999.0000,    9.4512,   10.0745,  999.0000,  999.0000,  999.0000,  999.0000,  999.0000,  999.0000,  999.0000,  999.0000,  999.0000,    9.5042,    9.9957,   10.0031,   10.0721,   10.6810,   11.5850,   14.5145,   16.3398,   17.2541,   16.7161,   17.5106,   18.6435,   19.6509,   20.9968,  999.0000,  999.0000,   27.0923,   27.8413,   28.9852,   28.5215,   29.5426,   31.1914,   32.8228,   33.0766,   33.2556,   33.2688,   32.0136,   34.1250,   34.4594,   32.8569,   33.7773,   34.6912,   35.8340,   35.8012,   35.8609,   37.6610,   40.0068,   42.2846,   42.7800,  999.0000,  999.0000,   41.4525,   40.9522,   37.9437,   37.4991,   38.0349,  999.0000,
 29-OCT-1996 04:10:07.47,    5.7369,    5.3059,  999.0000,  999.0000,  999.0000,  999.0000,    7.5754,    8.0495,    8.1338,    8.1759,  999.0000,  999.0000,  999.0000,   12.9900,   12.3358,  999.0000,  999.0000,  999.0000,   10.4184,   10.9774,   11.0510,   10.9338,   11.9880,   13.0306,   14.7361,   16.4417,   16.8757,   16.5080,   17.4322,   18.5821,   19.7561,   20.7531,  999.0000,  999.0000,  999.0000,   27.8264,  999.0000,   28.9953,   30.1078,   31.7657,   32.8933,   32.8631,   33.2384,   33.3239,  999.0000,   33.8426,   34.0882,   32.9284,   34.0301,   34.7984,   35.8086,   35.5821,   35.6584,   37.7884,   40.1363,   42.6658,   42.9493,  999.0000,  999.0000,   41.7580,   40.9607,   37.9769,   37.7080,   38.4697,  999.0000,
 29-OCT-1996 04:14:52.98,    5.7401,    5.3375,  999.0000,  999.0000,  999.0000,  999.0000,  999.0000,  999.0000,  999.0000,  999.0000,   10.7116,   10.8620,   10.9078,  999.0000,  999.0000,  999.0000,  999.0000,  999.0000,  999.0000,   11.2366,   10.5032,   10.1836,   10.9970,    7.5800,   10.6208,   12.5325,   13.3367,   14.0606,   16.7351,   18.3485,   19.2007,  999.0000,   23.9566,   23.8708,   25.9062,   26.6974,   28.8765,   29.2045,   30.5060,   31.9885,   32.3270,   32.2835,   33.4270,   33.6701,   33.0166,  999.0000,  999.0000,  999.0000,  999.0000,  999.0000,  999.0000,   34.6834,   35.0416,   37.0289,   39.2924,   41.2782,   41.7926,   42.0563,   43.0960,   41.5088,  999.0000,  999.0000,  999.0000,  999.0000,  999.0000,
 29-OCT-1996 04:17:25.48,    5.9742,  999.0000,  999.0000,  999.0000,    3.4819,    5.1021,  999.0000,  999.0000,    7.4844,    8.4783,  999.0000,  999.0000,  999.0000,  999.0000,  999.0000,  999.0000,  999.0000,  999.0000,  999.0000,  999.0000,  999.0000,  999.0000,  999.0000,   12.9971,   14.7542,   15.6715,   15.5594,   15.4204,   17.1422,   18.5834,   18.8380,   20.0722,   23.4332,  999.0000,  999.0000,   26.6303,   28.3666,   28.7173,   29.8647,   31.9486,   32.6042,   32.3973,   33.9256,   34.1712,   33.8752,   32.7176,   33.0655,  999.0000,  999.0000,  999.0000,  999.0000,  999.0000,  999.0000,   37.6097,   39.9979,   40.9284,   41.9863,   42.4232,   43.0265,  999.0000,   40.4795,   38.9176,   39.1470,   39.7765,  999.0000,
 29-OCT-1996 04:19:57.85,    5.5674,    5.3579,  999.0000,  999.0000,  999.0000,  999.0000,    5.5416,    6.1880,  999.0000,  999.0000,  999.0000,  999.0000,  999.0000,  999.0000,  999.0000,   10.9048,   10.9659,   10.7015,   10.6048,  999.0000,   10.4485,   10.5900,   11.0316,   14.6655,   16.1300,  999.0000,   16.8656,   16.6952,   17.3502,   18.6429,   18.8753,   20.4025,   23.5128,   24.1288,   26.0412,   26.3384,   28.5748,   28.4918,   29.6911,   31.8535,   32.9515,   32.1453,   33.9877,   34.6271,  999.0000,   32.4168,   32.6406,   32.7931,  999.0000,  999.0000,  999.0000,   35.0649,   36.0783,   38.0616,   40.0782,   41.7897,   42.1409,   42.7174,   42.2996,   40.1201,   40.5274,   38.7915,   39.0584,  999.0000,   37.4912,
 29-OCT-1996 04:22:30.43,    5.8708,  999.0000,  999.0000,  999.0000,  999.0000,  999.0000,  999.0000,  999.0000,  999.0000,    9.6975,   10.0172,   10.4631,  999.0000,  999.0000,  999.0000,  999.0000,  999.0000,  999.0000,   10.4687,    9.7988,   10.6347,   11.4601,  999.0000,  999.0000,   12.5838,   13.4792,  999.0000,   16.3417,   16.9787,   18.3345,   19.2452,   20.5009,   23.8776,  999.0000,  999.0000,   26.9730,   28.1174,   27.9740,   28.9000,   31.1776,   32.2978,   31.6126,   32.4116,  999.0000,  999.0000,   32.6342,   32.3314,  999.0000,  999.0000,  999.0000,  999.0000,   35.3654,   36.7842,   38.5001,  999.0000,  999.0000,  999.0000,  999.0000,   41.7457,   39.7792,   40.2657,   38.9696,   39.5004,  999.0000,  999.0000,
 29-OCT-1996 04:25:02.71,    6.0992,  999.0000,  999.0000,  999.0000,  999.0000,  999.0000,    5.1286,    5.8525,    6.8018,    7.7443,  999.0000,  999.0000,   10.7970,   10.4533,  999.0000,   10.7608,   10.8077,   10.7532,    9.9557,   10.0727,  999.0000,   12.6733,   13.1165,   13.7296,   14.0763,   14.8791,   16.5807,   16.5584,   16.2925,   18.1204,   19.1810,   20.8498,   23.9931,  999.0000,  999.0000,   26.6136,   28.7212,   28.8842,   29.6374,   31.8451,   32.1092,  999.0000,  999.0000,  999.0000,  999.0000,  999.0000,  999.0000,  999.0000,  999.0000,  999.0000,  999.0000,   35.7342,   37.2766,   38.4569,   40.9292,   41.4495,   41.6986,   42.5161,   41.1128,   39.2203,  999.0000,  999.0000,  999.0000,  999.0000,  999.0000,
 29-OCT-1996 04:27:35.27,    5.8524,  999.0000,    1.3592,    0.2660,    1.5174,  999.0000,  999.0000,  999.0000,    8.1350,    8.1839,  999.0000,  999.0000,  999.0000,  999.0000,  999.0000,  999.0000,  999.0000,  999.0000,  999.0000,  999.0000,   12.2482,   12.5406,   13.0875,   13.6098,  999.0000,   16.0409,   16.6197,   16.4724,   16.6930,   18.3883,   19.3895,   20.7453,   23.4145,  999.0000,   25.3714,   26.3060,   28.2216,   28.7848,   29.8460,   32.1428,   32.5602,   32.1913,  999.0000,  999.0000,  999.0000,  999.0000,  999.0000,  999.0000,  999.0000,   35.4664,   34.6239,   36.0468,   37.3509,   38.3796,   41.0209,   42.3565,   42.0774,   42.4201,   41.0782,   39.0240,   37.8807,  999.0000,  999.0000,  999.0000,   37.2290,
 29-OCT-1996 04:30:07.92,    5.8866,  999.0000,    1.3452,    0.4990,  999.0000,  999.0000,  999.0000,  999.0000,  999.0000,  999.0000,  999.0000,  999.0000,   10.8499,   10.7969,  999.0000,  999.0000,  999.0000,  999.0000,  999.0000,  999.0000,   11.7329,   11.7723,   13.2647,   15.7845,   16.4641,   16.0013,   17.2679,   16.6146,   17.1495,   18.9940,   20.1935,   21.0131,   23.5721,  999.0000,  999.0000,   27.5606,   28.3646,   28.9556,   30.3560,   32.7704,   32.7737,   32.2543,  999.0000,  999.0000,  999.0000,  999.0000,   33.3950,   33.0862,  999.0000,  999.0000,  999.0000,   36.3511,   37.9085,   38.6312,   40.8406,   42.2012,   41.9119,   42.1859,   41.2015,   39.5365,   39.1315,   39.0771,   38.7337,   36.5676,   36.8921,
 29-OCT-1996 04:32:40.45,    5.9251,  999.0000,    1.9180,    1.3382,  999.0000,  999.0000,  999.0000,  999.0000,  999.0000,  999.0000,  999.0000,  999.0000,  999.0000,  999.0000,  999.0000,  999.0000,   10.7625,   10.9033,   10.9272,  999.0000,  999.0000,  999.0000,   14.5474,   14.5627,   15.6342,   16.1013,   17.1718,   16.8602,   17.1530,   19.0902,   20.1140,   21.1495,   22.6559,  999.0000,  999.0000,   28.7365,   29.0750,   29.0349,  999.0000,   29.8225,  999.0000,  999.0000,  999.0000,  999.0000,  999.0000,  999.0000,  999.0000,  999.0000,  999.0000,  999.0000,   33.8042,   35.1301,   35.7605,  999.0000,  999.0000,  999.0000,  999.0000,  999.0000,  999.0000,  999.0000,  999.0000,  999.0000,  999.0000,  999.0000,  999.0000,
 29-OCT-1996 04:35:12.80,    6.4031,    5.4340,  999.0000,  999.0000,  999.0000,  999.0000,  999.0000,  999.0000,  999.0000,    8.4020,    9.5924,  999.0000,  999.0000,  999.0000,  999.0000,  999.0000,  999.0000,   10.8961,   10.9321,  999.0000,  999.0000,   12.4850,   13.1702,   15.1480,   15.6562,   16.2623,   16.4348,   16.4652,   17.1233,   18.8146,   19.9338,   21.2884,   24.0109,  999.0000,  999.0000,   28.2376,   28.7530,   28.5300,   30.2572,   32.2740,   32.4113,   32.0649,   32.8816,   33.3760,  999.0000,  999.0000,  999.0000,  999.0000,   34.8006,   36.0497,   34.8413,   35.3170,   37.5173,   38.6184,   40.2267,   42.1611,   41.4847,   40.3791,   39.2308,   39.3605,   40.0312,   39.5502,  999.0000,  999.0000,   38.9416,
 29-OCT-1996 04:37:45.14,    6.4049,  999.0000,  999.0000,  999.0000,    3.5786,    4.7445,    5.7370,  999.0000,  999.0000,  999.0000,  999.0000,  999.0000,  999.0000,    8.9537,    8.9785,  999.0000,  999.0000,  999.0000,  999.0000,  999.0000,  999.0000,   12.5019,   13.8979,   15.0335,   15.4028,   15.8654,   17.0188,   17.3335,   17.0920,   18.7971,   19.4879,  999.0000,   23.3032,   23.2973,   24.4260,   27.0135,   27.9259,   27.8822,   29.6015,   31.7396,   32.5729,   32.0411,   32.2150,   33.7131,  999.0000,  999.0000,   33.7451,   33.1168,   34.8931,   35.9772,   34.8922,   35.2292,   37.3157,   37.9517,   39.6291,   41.9864,   41.4670,   40.8776,   39.4861,   39.8612,   40.5705,   40.7258,   40.3300,   38.0470,   38.8700,
 29-OCT-1996 04:40:17.80,    6.2020,  999.0000,    2.1574,    0.6983,  999.0000,  999.0000,  999.0000,  999.0000,  999.0000,  999.0000,  999.0000,  999.0000,  999.0000,   10.9380,   10.8616,   10.7618,    9.7630,  999.0000,  999.0000,   12.5676,   12.2439,   12.4867,   13.9263,   15.0244,   14.7920,  999.0000,   15.8721,   17.0472,   16.8502,   17.7967,   18.2576,   19.6660,   22.4904,   22.6132,   24.3904,   26.9421,   27.8547,   28.4556,   30.2600,   32.5632,   32.6374,   32.6603,   32.9135,   34.5877,  999.0000,  999.0000,   33.0024,   32.7240,   35.0560,   35.8372,   35.1957,   35.9414,   37.6466,   38.3426,   40.7535,  999.0000,   42.4778,   42.8660,  999.0000,   41.8452,   41.2318,   41.2072,  999.0000,   38.3429,   39.5831,
 29-OCT-1996 04:42:50.12,    6.0358,  999.0000,  999.0000,  999.0000,  999.0000,  999.0000,  999.0000,  999.0000,  999.0000,    8.0922,    8.2816,  999.0000,  999.0000,  999.0000,  999.0000,  999.0000,   10.4632,   10.2177,    9.9079,   11.7668,   12.0889,   12.4758,   13.6707,   14.7994,   15.0319,   15.5452,   15.5179,   16.2495,   16.9532,   17.9606,   18.7257,   20.6215,   21.0842,   23.1120,   24.6606,   27.2316,   28.1558,   28.4207,   29.9472,   32.2446,   31.8726,  999.0000,  999.0000,  999.0000,  999.0000,  999.0000,   33.1530,   33.4961,   35.2013,   35.8962,   36.0811,   37.0313,   38.4661,   39.0106,   39.8500,  999.0000,  999.0000,   42.3578,   40.0393,   41.4277,   41.1328,   42.1466,  999.0000,   38.6683,   40.1593,
 29-OCT-1996 04:45:23.11,    6.3454,    5.3947,  999.0000,    1.7073,    1.0737,    1.9022,  999.0000,  999.0000,  999.0000,    7.9031,    8.3199,  999.0000,   10.7400,   10.9193,   10.7651,  999.0000,   10.8827,   10.8595,   10.5512,   11.3677,   11.1310,   11.8366,   13.5020,   14.9475,   14.4126,   14.2585,   15.2749,   16.4977,   16.3082,   17.9873,   19.0523,   21.1822,   21.2883,   24.0125,   24.8352,   27.3151,   28.3560,   28.5888,   30.6183,   32.8696,   32.6576,   31.9227,  999.0000,  999.0000,  999.0000,  999.0000,   34.0076,   34.0729,   35.2387,   34.5387,   35.1390,   37.2790,   38.2505,   38.7051,   40.9634,   42.5556,   42.8040,   41.5173,  999.0000,   40.4243,   40.5137,   40.0825,   38.2898,   38.9718,   41.3861,
 29-OCT-1996 04:47:55.73,    6.3446,    5.3192,  999.0000,    1.6530,    1.4694,  999.0000,  999.0000,  999.0000,  999.0000,  999.0000,  999.0000,  999.0000,  999.0000,  999.0000,  999.0000,  999.0000,  999.0000,  999.0000,   10.5406,   10.9015,   10.8524,   11.6263,  999.0000,   14.4576,   14.3537,   14.8335,   15.7530,   16.7472,   17.1661,   18.4092,   19.8356,   21.8311,  999.0000,   24.2964,   24.9787,   27.1021,   27.9587,   28.0943,   30.6691,   33.1588,   33.6177,  999.0000,  999.0000,  999.0000,  999.0000,  999.0000,  999.0000,  999.0000,  999.0000,   35.0352,   35.8479,  999.0000,   37.4140,   38.0743,  999.0000,   42.0065,   41.5439,   41.2898,   40.6359,   41.1314,   40.1879,   40.2089,   38.8233,   39.4322,   42.6501,
 29-OCT-1996 04:50:28.13,    6.0389,  999.0000,  999.0000,    0.9722,    0.4888,    0.2430,  999.0000,  999.0000,  999.0000,  999.0000,  999.0000,   10.7771,   10.8735,  999.0000,  999.0000,  999.0000,  999.0000,  999.0000,  999.0000,   11.1566,   11.8424,  999.0000,   14.2363,   14.0248,   14.3700,   14.8583,   15.1607,   15.3220,   16.0689,   18.2911,   19.6556,   21.7957,   22.0176,   24.1678,   25.0243,   27.3078,   27.8903,   27.9735,  999.0000,   32.5451,   31.7596,   32.1999,   30.9154,  999.0000,  999.0000,  999.0000,  999.0000,  999.0000,  999.0000,   34.7985,   34.5593,   37.1470,   38.3679,   38.8122,   41.1184,  999.0000,   42.1780,   40.9223,   40.6096,   41.7023,   40.6161,   40.2561,   40.6644,   40.7939,   43.4055,
 29-OCT-1996 04:53:00.40,    5.9247,  999.0000,    1.3700,    0.6088,    0.4473,    0.7107,  999.0000,  999.0000,    8.0386,    8.8191,  999.0000,  999.0000,  999.0000,   11.1750,   10.7115,   10.8129,  999.0000,  999.0000,  999.0000,  999.0000,   11.9390,   12.9177,   13.0978,   12.9398,   13.4553,   14.0795,   15.0102,   14.7482,   15.7512,   17.5745,   18.8401,   20.9478,  999.0000,  999.0000,   24.4534,   26.4263,   27.5253,   28.4312,   31.3261,   33.5435,   31.6782,   32.2971,   32.9928,   33.7786,   34.3107,   34.0432,   33.5982,   33.9128,   35.0500,   34.2942,   34.2772,   36.8503,   38.6103,   38.9528,   40.5728,  999.0000,  999.0000,   41.3790,   40.3746,   41.1677,   40.3229,   40.2878,   41.3417,   40.9720,  999.0000,
 29-OCT-1996 04:55:32.87,    5.6635,  999.0000,    1.2690,    0.5423,    0.2454,    2.0949,  999.0000,  999.0000,  999.0000,   10.4695,   10.5253,   10.5519,  999.0000,  999.0000,  999.0000,  999.0000,   10.8315,   10.8260,   11.2316,   11.9731,   12.9830,  999.0000,   13.9307,   14.5329,   14.3832,   14.8702,   15.0544,   14.6976,   15.6127,   17.4215,   18.6460,   20.3536,  999.0000,   23.5638,   23.9847,   26.1903,   27.1651,   29.5161,   31.4080,   33.8006,   32.0961,   33.0950,   34.1052,   33.5285,   33.8800,   34.0601,   33.3464,   33.2890,   34.9951,   34.7159,   34.7501,   37.0416,   38.7679,   39.0196,   40.7696,   43.0945,  999.0000,  999.0000,  999.0000,  999.0000,   40.5397,  999.0000,  999.0000,   41.4615,   42.8389,
 29-OCT-1996 04:58:05.42,    5.5920,  999.0000,    1.3543,    0.4798,  999.0000,  999.0000,  999.0000,  999.0000,   10.4378,   10.7487,   10.8268,   10.8661,   10.9713,  999.0000,   10.9918,   10.8498,   10.5430,   10.8004,   11.6673,   12.4449,   13.9457,  999.0000,  999.0000,   14.8060,   15.7561,   15.4789,   15.6459,   15.4260,   15.8171,   17.9400,   18.5741,   20.4058,   22.5665,   23.3508,   24.5139,   26.3582,   27.0684,   28.3803,   31.3631,   32.5391,   31.4150,   31.9833,   33.1865,   33.5686,  999.0000,  999.0000,   33.9813,   33.7470,   34.0479,   34.2476,   34.6401,   36.4465,   37.9828,   39.0440,   41.1329,   43.1300,   42.6070,   41.9855,   41.1165,   39.4928,   38.6546,   38.9644,   40.7640,   41.1784,   42.9664,
 29-OCT-1996 05:00:38.42,    5.6506,  999.0000,  999.0000,  999.0000,  999.0000,  999.0000,  999.0000,  999.0000,  999.0000,   10.5967,   10.8461,  999.0000,   11.0683,   11.2547,   11.0745,  999.0000,  999.0000,   11.0021,   11.4605,  999.0000,   13.7353,   13.4523,  999.0000,   14.3825,   14.6223,   14.4933,   14.3810,   14.9584,   16.1517,   17.9031,   18.5153,   20.8698,   21.2960,  999.0000,   25.1291,   26.8304,   27.2940,   28.5044,   31.3055,  999.0000,   32.6983,   31.9923,   33.2741,   34.4800,   34.7946,   34.0339,   34.6640,   35.1142,  999.0000,  999.0000,   34.0190,   35.4756,  999.0000,  999.0000,   40.7690,   42.6529,   42.1654,  999.0000,  999.0000,   39.8492,   38.9789,   39.4769,   40.5091,   40.8502,   42.1509,
 29-OCT-1996 05:03:11.12,    5.7235,  999.0000,  999.0000,  999.0000,  999.0000,  999.0000,  999.0000,  999.0000,   10.5972,   10.8292,   10.8224,   10.7771,  999.0000,  999.0000,  999.0000,   10.8873,   10.8246,   11.1434,  999.0000,   12.9821,   13.3947,   13.7285,   14.4328,   14.1859,   14.1021,   14.0748,   14.6480,   15.0344,   16.9782,   18.3102,   18.6976,   21.0905,   23.2792,   22.9999,   25.0547,   27.0370,   27.8020,   28.4070,   31.1604,   33.3927,   33.2180,   32.6311,   33.8780,   34.5020,   34.0069,   34.1204,   33.7171,   33.5353,   33.2910,   33.4267,   33.4089,   34.9506,   37.2631,   38.3963,   39.8004,  999.0000,   41.5140,   39.8115,   39.4151,   39.1235,   39.9964,   39.9361,   40.1518,   40.3954,   41.7163,
 29-OCT-1996 05:05:43.74,    5.1016,  999.0000,  999.0000,  999.0000,  999.0000,  999.0000,  999.0000,   10.2677,   10.7880,   10.7900,   10.7524,  999.0000,  999.0000,  999.0000,  999.0000,  999.0000,  999.0000,  999.0000,  999.0000,   12.1079,   12.7680,   13.2562,  999.0000,   13.6170,   13.8554,   13.7479,   14.1967,   15.5428,   17.4771,   18.4473,   19.2978,   21.5563,   22.8804,   23.2642,   25.3811,   27.7558,   28.2115,   28.3905,   31.1003,   33.8302,   33.8754,   32.5592,   33.1996,   34.7333,  999.0000,  999.0000,   33.8457,   33.9144,   32.9309,   32.6745,   33.3743,   35.3932,   37.8050,   38.9031,   40.5152,   41.7155,   41.4931,   40.5364,   39.9878,   39.6501,   39.9840,   40.9402,   41.8674,   41.0741,   42.0536,
 29-OCT-1996 05:08:16.18,    4.0806,    2.5556,  999.0000,  999.0000,  999.0000,  999.0000,  999.0000,  999.0000,   10.2586,   10.8043,   10.7850,   10.2424,  999.0000,   10.7069,   10.8003,  999.0000,  999.0000,  999.0000,  999.0000,   11.0680,   11.6919,   11.6722,  999.0000,   13.8060,   13.1826,   13.7979,   14.5790,   16.1640,   17.3079,   18.2488,   19.8497,   22.2266,   22.3844,   22.9854,   24.9693,   26.9813,   28.0546,   29.1474,   31.7983,   34.2948,   33.9661,   32.4551,   33.2309,   34.4984,   33.2557,   32.9957,   33.9298,   34.0328,   33.0020,   32.4412,   34.0687,   36.6238,   39.2289,   41.0825,   42.3395,   42.6715,   42.6686,   41.6748,   41.1968,   41.0213,   40.0999,   41.3246,  999.0000,  999.0000,   42.5062,
 29-OCT-1996 05:10:48.72,    5.4807,  999.0000,  999.0000,  999.0000,  999.0000,  999.0000,  999.0000,  999.0000,  999.0000,   10.2604,   10.8416,  999.0000,   10.6871,   10.5586,  999.0000,  999.0000,  999.0000,  999.0000,  999.0000,   11.0933,   12.1159,  999.0000,  999.0000,  999.0000,   13.5792,   13.8230,   14.2408,   16.3961,   17.2343,   17.8583,  999.0000,   22.4037,   22.2251,   23.2022,   25.1375,   27.0675,   28.0442,  999.0000,  999.0000,  999.0000,   33.3785,   31.5923,   34.9565,   33.2587,   33.3531,   33.0141,   33.9578,   33.6250,   33.2449,   33.3026,   35.4717,   37.9986,   39.8492,   41.3265,   43.0088,   42.6297,   42.3660,   42.0027,   41.5554,   40.9722,   40.9425,   42.1967,  999.0000,  999.0000,   43.2051,
 29-OCT-1996 05:13:21.06,    5.4751,  999.0000,  999.0000,  999.0000,  999.0000,  999.0000,  999.0000,  999.0000,  999.0000,  999.0000,   10.0640,   10.0583,  999.0000,  999.0000,  999.0000,  999.0000,  999.0000,  999.0000,   11.2693,   11.6542,   12.3812,   12.4137,  999.0000,   13.9209,   13.7736,   14.2176,   13.8184,   15.9651,   16.5490,   17.0120,   19.0105,   21.2762,   21.7225,   23.2874,   25.1467,   27.0562,   27.6517,   28.9361,   30.9274,   33.7276,   33.8702,  999.0000,   32.4014,   32.4522,   32.3992,   33.7464,   34.2606,   33.4580,   33.7498,   33.9945,   35.9891,   38.5545,   39.9716,   40.8291,   42.7697,   42.5532,   41.4885,   41.3302,   39.6991,   39.6174,  999.0000,  999.0000,  999.0000,  999.0000,   43.2442,
 29-OCT-1996 05:15:53.90,    5.3536,  999.0000,    1.0515,    0.5491,    1.4185,  999.0000,  999.0000,  999.0000,    7.9202,    8.2190,    8.2015,    8.5437,  999.0000,   10.5881,   10.6161,  999.0000,  999.0000,   10.8201,   11.0559,   11.3414,   11.4904,  999.0000,  999.0000,   13.7833,   13.5434,   13.8541,   14.1754,   16.3728,   17.0640,   17.1068,  999.0000,   21.5505,   21.7802,   23.1858,   25.3561,   27.1153,   27.5346,   29.7641,   31.8045,   35.2134,   35.2346,   33.1595,   33.5739,   33.8596,  999.0000,  999.0000,   34.0201,   32.8121,   33.2890,   34.0538,   36.0866,   38.4996,   39.9363,   41.0158,   42.1193,   41.7052,  999.0000,   41.3025,   40.3695,   40.1542,   42.3287,   42.3099,   44.0786,   43.1616,   43.6811,
 29-OCT-1996 05:18:26.69,    5.4350,  999.0000,  999.0000,  999.0000,    3.1950,    3.8916,  999.0000,  999.0000,    8.1548,    8.2622,    8.3010,  999.0000,  999.0000,  999.0000,  999.0000,  999.0000,  999.0000,  999.0000,  999.0000,  999.0000,  999.0000,  999.0000,  999.0000,   13.5363,   13.6036,   12.9990,   14.1521,   16.1701,   16.9444,   17.2454,   19.3275,   21.5064,   21.2724,   23.3664,   25.3600,   26.0868,   27.4328,   29.1271,   32.0673,  999.0000,   34.4629,   32.9582,   33.5026,   33.3363,   32.2180,   33.5816,   34.7039,   33.5663,   32.9024,   33.6588,   35.7649,   38.8828,   40.5978,   41.1033,   41.5811,   41.6657,   40.6958,   41.2392,   40.8910,  999.0000,   42.8853,   42.7951,   44.3871,   43.2122,   43.9753,
 29-OCT-1996 05:20:59.36,    5.4741,  999.0000,    1.8856,    1.4280,  999.0000,  999.0000,  999.0000,  999.0000,  999.0000,  999.0000,  999.0000,   10.5671,   10.7942,   10.7909,  999.0000,  999.0000,  999.0000,  999.0000,  999.0000,  999.0000,  999.0000,   12.8582,   12.9852,   13.6881,   13.7598,   13.0452,   13.8552,   15.6632,   17.0783,   17.6301,   19.2054,   21.1374,   21.5592,   23.5709,   25.7295,   26.1630,   27.6899,   29.2314,   32.3889,   34.6772,   34.2633,   32.5588,   32.3014,  999.0000,  999.0000,   33.8504,   34.0833,   33.4846,  999.0000,  999.0000,  999.0000,   39.3803,   40.8978,   41.0286,  999.0000,  999.0000,   41.3837,   41.4560,   40.5699,   40.6183,   42.4216,   42.6645,  999.0000,   43.4758,  999.0000,
 29-OCT-1996 05:23:31.86,    5.5264,    5.0516,  999.0000,  999.0000,  999.0000,  999.0000,  999.0000,  999.0000,    8.1116,    8.3449,  999.0000,   10.4783,   10.8032,   10.9409,  999.0000,  999.0000,  999.0000,  999.0000,   11.9790,   12.2336,   12.3209,   12.8067,  999.0000,   13.8776,   13.9591,   13.6057,   14.0093,   15.6026,   16.6648,   17.0986,   18.2907,   20.0588,   21.1022,   23.5488,   25.9246,   26.6757,   28.3499,   29.5449,   32.8010,  999.0000,   34.8154,   33.1847,   33.0790,  999.0000,  999.0000,   33.0960,   32.9893,   32.7510,   32.9503,   33.8049,   35.9856,   39.1494,   40.6158,   40.3183,   40.3819,   40.4008,   41.2285,   41.4405,   39.9214,   40.0493,   42.2051,   41.9452,   43.6738,   42.9669,   42.1032,
 29-OCT-1996 05:26:04.25,    5.3770,  999.0000,  999.0000,    3.1217,    2.7873,    3.1669,  999.0000,  999.0000,  999.0000,  999.0000,  999.0000,  999.0000,  999.0000,  999.0000,  999.0000,  999.0000,  999.0000,  999.0000,  999.0000,   12.4992,   12.6013,   12.6633,   12.7804,   12.9992,   13.9523,   13.6524,   13.9321,   15.5345,   16.3303,   17.0481,   18.2835,   20.7233,   22.2034,   24.1513,   26.0918,   26.4001,   28.0899,   29.8755,   32.7301,   34.4479,  999.0000,   33.1265,   33.5950,   33.5927,   33.8481,   33.3346,   33.0656,   32.8141,   33.2578,   33.8020,  999.0000,  999.0000,  999.0000,   40.2378,   40.0009,   39.6253,   40.7101,   40.7882,   39.6378,   39.9455,  999.0000,  999.0000,   42.7260,   42.7341,   41.7679,
 29-OCT-1996 05:28:36.56,    5.3636,  999.0000,  999.0000,  999.0000,  999.0000,  999.0000,  999.0000,  999.0000,  999.0000,  999.0000,  999.0000,  999.0000,   11.0123,   10.8704,  999.0000,  999.0000,  999.0000,  999.0000,  999.0000,  999.0000,  999.0000,  999.0000,  999.0000,  999.0000,  999.0000,   12.9619,   14.0896,   15.5348,   16.4958,   16.9241,   18.5121,   21.3634,   23.0251,   24.9887,   27.0894,   26.7518,   28.1570,   30.4582,   33.3799,  999.0000,   35.0110,   33.1932,   33.9494,   34.0080,   33.3346,   33.2140,   33.1970,   32.9257,   33.4951,   33.7150,   35.8637,   37.8465,   39.3899,   40.6321,   40.2603,   39.8550,   40.4290,   40.1203,   39.3184,  999.0000,   42.6199,   41.0564,   42.0413,   42.8965,   42.2353,
 29-OCT-1996 05:31:08.85,    5.3465,  999.0000,    3.3426,    2.7927,    2.7104,  999.0000,  999.0000,  999.0000,  999.0000,  999.0000,  999.0000,  999.0000,  999.0000,  999.0000,  999.0000,  999.0000,  999.0000,  999.0000,  999.0000,  999.0000,   12.8149,   12.7928,   13.2294,   14.3397,   14.4226,   13.3318,   14.3302,   16.1333,   16.7618,   17.1092,   18.6342,   21.9021,   23.7445,   25.8968,  999.0000,   27.0992,   28.4170,   30.9318,   33.5968,  999.0000,   33.1980,   32.3777,   32.7806,  999.0000,  999.0000,   32.9515,   33.3460,   33.0558,   33.6859,   34.2006,   36.4469,   38.5919,   39.9033,   40.8730,   40.5496,   40.4013,   40.6641,   40.4174,   39.5622,   39.5039,   41.2149,   41.3203,   42.7865,   43.7058,   42.3359,
 29-OCT-1996 05:33:41.33,    5.3375,  999.0000,    2.4659,    2.1244,    2.9135,    2.7569,  999.0000,  999.0000,  999.0000,  999.0000,  999.0000,  999.0000,  999.0000,  999.0000,  999.0000,  999.0000,  999.0000,  999.0000,  999.0000,  999.0000,  999.0000,  999.0000,  999.0000,   14.1678,   14.0059,   13.3809,   14.3069,   15.7281,   16.1525,   16.6093,   18.3452,   21.5092,   23.8186,   26.0216,  999.0000,   27.0152,   28.1861,   31.0746,   33.8313,  999.0000,   32.4581,   32.2362,   32.9555,   33.1869,   32.7065,   33.4494,   33.6839,   33.8101,   34.0108,   34.9466,   37.5341,   39.5262,   41.3888,   41.8411,   40.9585,   40.3197,   40.6504,   40.8132,   39.4367,   39.4942,   41.9345,   42.2221,   42.7865,   43.1532,   43.1720,
 29-OCT-1996 05:36:13.68,    5.4520,  999.0000,    1.5045,    1.0630,  999.0000,  999.0000,  999.0000,   10.0534,   10.7849,  999.0000,  999.0000,  999.0000,  999.0000,  999.0000,  999.0000,  999.0000,  999.0000,  999.0000,  999.0000,  999.0000,  999.0000,  999.0000,   14.8719,   15.5162,   12.9453,   12.7665,   13.6660,   14.9205,   16.0541,   16.6441,   18.1268,   20.9403,   23.4574,   25.7270,  999.0000,   26.9421,   28.5338,   31.6731,   33.7010,  999.0000,   32.9831,   32.6653,   33.3181,   33.5170,   32.7342,   33.1025,   33.7278,   34.6137,   34.4077,   35.9867,   38.5486,   40.2880,   41.8525,   41.6179,   41.4437,   41.0520,   40.6466,   41.1098,   39.6368,   39.7885,   42.5022,   42.9921,   43.0916,   42.8154,   43.0341,
 29-OCT-1996 05:38:45.84,    5.3274,  999.0000,  999.0000,  999.0000,  999.0000,  999.0000,  999.0000,   10.4450,   10.9186,   10.9296,   10.9941,   11.9203,  999.0000,  999.0000,  999.0000,  999.0000,    9.0939,   10.6977,   12.7210,   13.3306,  999.0000,  999.0000,  999.0000,   14.0853,   13.3096,   12.5599,   13.5221,   14.5685,   15.9507,   16.4889,  999.0000,  999.0000,   23.1319,   25.4274,  999.0000,  999.0000,   29.2534,   31.7133,   33.5354,  999.0000,   32.6676,   32.6845,   33.1005,   33.8688,  999.0000,  999.0000,   33.5270,   34.7834,   34.9725,   36.2465,  999.0000,  999.0000,   41.5374,   41.4061,   41.5794,   42.1954,   41.8341,   41.7799,  999.0000,  999.0000,   41.7678,   42.0976,   42.5510,   42.8470,   43.5655,
 29-OCT-1996 05:41:18.47,    5.3642,    5.3462,    5.3576,  999.0000,  999.0000,  999.0000,  999.0000,  999.0000,  999.0000,  999.0000,  999.0000,  999.0000,  999.0000,  999.0000,  999.0000,  999.0000,  999.0000,   11.4015,   12.7325,  999.0000,  999.0000,  999.0000,  999.0000,   13.6496,   13.1244,   12.3877,   13.3824,   14.5425,   15.8025,   16.3020,   17.9938,   20.9541,   22.7307,   25.0735,   26.9050,  999.0000,   29.1105,   31.5714,   34.0007,  999.0000,  999.0000,   32.7060,   33.2455,   33.9991,   32.4952,   32.6850,   33.5728,   34.3103,   35.1177,   35.9426,   37.9906,   40.1417,   41.3777,   40.8911,   39.9459,   41.1031,   41.3983,   40.7319,   39.0981,   39.8645,   42.5685,   42.8028,   42.8106,   42.3436,  999.0000,
 29-OCT-1996 05:43:50.75,    5.4631,    5.4059,    5.3091,    5.4056,    5.4357,  999.0000,  999.0000,  999.0000,  999.0000,  999.0000,  999.0000,  999.0000,  999.0000,  999.0000,  999.0000,  999.0000,  999.0000,  999.0000,  999.0000,   12.4451,   12.8581,   12.8954,   12.1280,   12.6773,   12.1930,   11.9290,   13.5333,   15.1153,   16.2675,   16.7470,   17.9785,   20.7408,   22.7132,   24.7276,   26.9639,   27.0539,   28.9734,   31.5802,   34.4677,   36.1847,  999.0000,   32.0935,   32.5665,   32.0649,   32.9636,   33.0718,   33.9821,   34.3765,  999.0000,  999.0000,   38.3562,   40.0220,   40.7523,   41.4080,   39.9182,   40.5359,  999.0000,  999.0000,  999.0000,  999.0000,   42.7331,   42.5952,   42.1892,   42.9453,  999.0000,
 29-OCT-1996 05:46:23.48,    5.6262,    5.3059,  999.0000,  999.0000,  999.0000,  999.0000,  999.0000,   10.7040,   10.9591,  999.0000,  999.0000,  999.0000,  999.0000,  999.0000,  999.0000,  999.0000,  999.0000,  999.0000,  999.0000,   12.6189,   12.7787,  999.0000,  999.0000,   13.1144,   12.9377,   12.5501,   13.8144,   15.3905,   15.8347,   16.0422,  999.0000,  999.0000,   23.2159,   25.2023,   27.2611,   27.4257,   29.5143,   32.2418,   35.0999,   36.4465,  999.0000,  999.0000,  999.0000,   32.3671,   33.1191,   33.5120,   34.4514,   34.1319,   34.8413,   36.3101,   38.9184,   39.9654,   40.2557,  999.0000,   41.5140,   40.8374,   41.5963,   39.7566,   38.8452,   40.0891,   42.4835,   42.5006,   42.5813,   43.4042,   43.7866,
 29-OCT-1996 05:48:56.06,    5.8730,    4.8801,    4.9801,  999.0000,  999.0000,  999.0000,   10.7906,   11.0525,   10.9865,  999.0000,  999.0000,  999.0000,  999.0000,  999.0000,  999.0000,  999.0000,  999.0000,  999.0000,  999.0000,  999.0000,  999.0000,  999.0000,  999.0000,   13.5891,   13.2521,   13.3218,   14.0886,   15.3181,   15.8323,   16.1334,   18.6384,   21.3888,   23.5165,   24.6725,   26.6991,   27.6191,   30.0723,   32.4726,  999.0000,   35.3345,   32.3951,   32.6434,  999.0000,   33.4409,   33.5843,   33.6313,   34.2229,   34.3597,   35.0837,   36.5271,   39.6344,   40.5176,   40.1355,   41.8336,   41.7095,   40.7273,   41.2670,   40.0398,   40.1196,   40.7197,   42.5981,   43.2246,   42.7992,   43.8477,  999.0000,
 29-OCT-1996 05:51:29.02,    5.5557,  999.0000,  999.0000,  999.0000,  999.0000,  999.0000,  999.0000,  999.0000,  999.0000,  999.0000,  999.0000,  999.0000,  999.0000,  999.0000,  999.0000,  999.0000,  999.0000,  999.0000,  999.0000,  999.0000,  999.0000,  999.0000,  999.0000,   12.9835,   12.4918,   12.5653,   13.6659,   15.3013,   15.8714,   16.6514,   18.2971,   21.0722,   23.8803,   25.6695,   27.6152,   29.0779,   31.1396,   33.8694,  999.0000,   34.8740,   33.2233,   33.2162,   33.5682,   32.7255,   33.8752,   34.2774,   34.3386,   34.6986,   35.7422,  999.0000,  999.0000,  999.0000,  999.0000,   41.8399,   41.1680,   40.4559,   41.7619,   41.0957,   40.8501,   40.4856,   42.2402,   42.4934,   42.4666,  999.0000,   40.4454,
 29-OCT-1996 05:54:01.29,    5.5923,  999.0000,    4.6040,    4.6058,    5.2223,  999.0000,  999.0000,  999.0000,  999.0000,  999.0000,  999.0000,  999.0000,  999.0000,  999.0000,  999.0000,  999.0000,  999.0000,  999.0000,  999.0000,   12.3969,   12.6358,  999.0000,  999.0000,   12.2595,   12.1809,   12.7440,   13.5048,   15.2917,   15.4458,   16.1769,   18.3415,   21.3781,   24.3901,   25.9091,   27.5707,   29.3810,   31.1457,   33.7970,  999.0000,   34.5664,   33.2697,   33.6927,   34.1762,   33.1151,   34.3228,   34.7118,   34.4895,   34.7990,   35.6805,   36.2750,   39.8612,   41.8462,   41.6540,   42.1249,   40.8988,   40.6103,   42.1660,   41.3804,   40.9415,   40.6083,   42.8127,   42.7524,  999.0000,  999.0000,   42.8684,
 29-OCT-1996 05:56:34.10,    5.6033,    3.9452,    3.1668,    3.4134,    4.9315,  999.0000,  999.0000,   10.5505,   11.1212,  999.0000,  999.0000,  999.0000,  999.0000,  999.0000,  999.0000,  999.0000,  999.0000,  999.0000,  999.0000,  999.0000,  999.0000,  999.0000,  999.0000,   12.4781,   11.6055,   12.7232,   13.3189,   15.0949,   15.3489,   15.6132,   17.6260,   20.8804,   23.9738,   25.6578,   27.0594,   29.1655,   31.5725,   33.9072,  999.0000,   34.3212,   33.2301,   33.5635,   34.4064,  999.0000,   34.5560,   34.7668,   34.3468,   34.7557,  999.0000,  999.0000,   40.6800,   41.4388,   41.1539,  999.0000,   40.7542,   40.5715,   41.8843,   40.5691,   40.5395,  999.0000,  999.0000,  999.0000,  999.0000,  999.0000,  999.0000,
 29-OCT-1996 05:59:06.52,    5.3496,    4.5057,    4.2583,    4.9082,    5.3661,  999.0000,  999.0000,  999.0000,  999.0000,  999.0000,  999.0000,  999.0000,  999.0000,  999.0000,  999.0000,  999.0000,  999.0000,  999.0000,  999.0000,   11.6675,   11.5255,  999.0000,  999.0000,   12.8055,   13.1315,   13.8172,   14.7796,   15.8602,   16.2327,   15.9266,   17.6264,   21.0844,   24.0156,   25.1748,   26.7799,   28.6025,   31.0779,   33.9521,  999.0000,   34.2062,   33.2238,   32.7084,   33.0379,   33.4245,   34.8354,   34.8036,   34.7121,   34.8708,   35.3615,   36.6012,   40.7036,   42.1448,   41.9684,   42.3149,   40.5660,   40.2660,   40.8758,   40.7685,   40.9511,   41.4824,   42.4059,   42.3647,   42.3639,   43.7693,   43.0185,
 29-OCT-1996 06:01:38.82,    3.7676,    3.5376,    3.4106,    4.0141,    4.9690,  999.0000,  999.0000,  999.0000,  999.0000,  999.0000,  999.0000,  999.0000,  999.0000,  999.0000,  999.0000,  999.0000,  999.0000,  999.0000,  999.0000,  999.0000,  999.0000,  999.0000,  999.0000,   11.9168,   12.2289,   12.9702,  999.0000,  999.0000,  999.0000,   16.5892,   18.3069,   21.7628,   24.2025,   25.1078,   27.0704,   28.3655,   30.4992,   33.9339,  999.0000,   33.7282,   32.9902,   32.4949,   32.4110,   33.3617,   34.5314,   34.0512,   34.5526,   34.4247,   34.8019,   36.3406,   39.8670,   41.8936,   42.1140,   41.7373,   39.9944,   39.8415,   39.8780,   40.0288,   39.9285,   40.9601,   42.5985,   42.6590,   42.3442,   43.5147,   43.6149,
 29-OCT-1996 06:04:11.30,    3.6541,  999.0000,  999.0000,  999.0000,  999.0000,  999.0000,  999.0000,  999.0000,  999.0000,  999.0000,  999.0000,  999.0000,  999.0000,  999.0000,  999.0000,  999.0000,  999.0000,  999.0000,  999.0000,  999.0000,  999.0000,  999.0000,  999.0000,   10.2814,   10.2265,   11.0195,   12.5471,   14.5732,   15.3375,   16.1692,   18.1300,   21.4675,   24.3330,   25.4164,   27.2164,   28.7106,   30.3648,   33.9757,  999.0000,   33.8713,   33.2279,   33.3654,   32.3313,   33.1158,   34.4528,   34.6045,   35.1674,   35.0712,   35.3637,   36.5176,   39.6626,  999.0000,  999.0000,  999.0000,   39.2975,   39.5009,   40.9857,   40.5252,  999.0000,   41.2192,  999.0000,   42.8937,   41.8445,  999.0000,   43.1927,
 29-OCT-1996 06:06:43.54,    5.3746,    4.8967,    4.6389,    4.5774,  999.0000,  999.0000,  999.0000,  999.0000,  999.0000,  999.0000,  999.0000,  999.0000,  999.0000,  999.0000,  999.0000,  999.0000,  999.0000,   11.6252,   12.3149,   11.9695,   11.7408,  999.0000,  999.0000,   11.2743,   11.4895,   12.2505,  999.0000,   15.0093,   15.4745,   16.4105,   18.2820,   21.0825,   23.8429,   24.9046,   26.9939,   29.1485,   30.2382,   33.6165,  999.0000,   33.8573,   32.9636,   32.9190,   31.7031,   32.9726,   34.2197,   34.3960,   34.4496,   35.0981,   35.6877,   36.9261,   40.3350,   41.8868,   41.4052,   41.3983,   40.7888,  999.0000,  999.0000,   40.3114,   39.4248,   41.3580,  999.0000,   42.7557,   42.4563,   42.7911,   43.2507,
 29-OCT-1996 06:09:16.06,    5.4564,  999.0000,    3.1437,    2.7391,  999.0000,  999.0000,  999.0000,  999.0000,  999.0000,  999.0000,  999.0000,   15.7554,   15.1382,  999.0000,  999.0000,  999.0000,  999.0000,  999.0000,  999.0000,  999.0000,  999.0000,  999.0000,  999.0000,   10.1471,   10.5237,   12.1651,   14.3463,   15.1882,   16.1131,   16.8126,   18.1871,   21.1609,   23.4009,   25.4360,   27.8270,   30.0507,   30.7682,   33.8867,  999.0000,   33.7377,   32.6512,   32.5605,   32.2820,   33.7385,   33.9297,   33.5016,   33.8729,   34.5515,   35.6606,   37.3464,   40.8074,   41.9519,   41.7001,   41.6199,   41.3819,   40.7521,   41.4801,   41.0386,   39.8705,   40.7273,  999.0000,  999.0000,   43.7324,   42.9729,   44.1293,
 29-OCT-1996 06:11:48.52,    4.3334,  999.0000,  999.0000,  999.0000,    5.7529,    6.5051,    8.1079,  999.0000,  999.0000,  999.0000,   14.4985,   15.5178,  999.0000,  999.0000,  999.0000,  999.0000,    8.4782,    9.6606,  999.0000,  999.0000,  999.0000,  999.0000,   10.0576,   10.6107,   11.0043,   12.1868,  999.0000,   15.7394,   16.5037,   17.2352,   19.3512,   22.3782,   23.7867,   26.2447,   28.7056,   30.7010,  999.0000,   34.0941,   35.3842,   33.7709,   32.6054,   32.3052,   32.7303,   34.3494,   34.3464,   34.1219,   34.4592,   34.7854,   35.8434,   37.9499,  999.0000,   42.0074,   41.1117,   40.6612,   40.4073,   40.2532,   40.9348,   41.6495,   40.8218,   40.7603,   42.1699,   42.2733,   42.8261,   42.8720,  999.0000,
 29-OCT-1996 06:14:20.92,    5.3326,    3.4463,    2.3566,    2.8919,  999.0000,  999.0000,  999.0000,   10.2829,   10.8374,  999.0000,  999.0000,  999.0000,  999.0000,  999.0000,  999.0000,  999.0000,    9.5302,   10.8302,  999.0000,  999.0000,   11.4045,   11.3134,  999.0000,   11.8461,   11.8624,   12.3602,   14.0330,   15.1207,   15.8194,   16.8389,  999.0000,   22.5415,   25.4432,   26.8742,   29.6414,   30.8945,   30.8715,  999.0000,  999.0000,   34.4386,   32.7527,   32.4152,  999.0000,   34.1108,   34.7661,   34.7791,   34.8276,   35.6319,   36.4217,   38.3262,  999.0000,   41.5687,   40.9284,  999.0000,  999.0000,  999.0000,  999.0000,  999.0000,  999.0000,  999.0000,  999.0000,  999.0000,   42.8685,   42.4299,   43.1880,
 29-OCT-1996 06:16:54.66,    5.2515,    5.3216,  999.0000,  999.0000,  999.0000,  999.0000,  999.0000,  999.0000,  999.0000,  999.0000,  999.0000,  999.0000,  999.0000,  999.0000,  999.0000,  999.0000,    9.2224,   10.1124,  999.0000,  999.0000,  999.0000,  999.0000,  999.0000,   11.3890,   11.8235,   12.0762,   13.6714,   14.8447,   16.2216,   16.6140,   18.3151,   22.1815,   25.7153,   26.8475,   29.6526,   30.6534,   30.2857,  999.0000,   34.3645,   33.0909,   32.0055,   32.5527,   32.8769,   33.0917,   34.6878,   35.1787,   35.0355,   35.7153,   36.2276,   38.5055,   41.9426,   42.5398,   41.2695,   40.8787,   40.6839,   39.6679,   40.8660,   41.1968,   40.7794,   41.3908,   42.5784,   43.3277,   43.3885,   43.0550,   43.8137,
 29-OCT-1996 06:19:27.13,    4.8919,    5.1155,  999.0000,  999.0000,  999.0000,  999.0000,  999.0000,  999.0000,  999.0000,  999.0000,  999.0000,   10.9730,   10.9119,  999.0000,  999.0000,  999.0000,  999.0000,  999.0000,  999.0000,  999.0000,  999.0000,   10.7689,   10.5926,   11.1791,   11.7271,   11.5616,   13.1212,   14.8762,   15.9574,   16.2493,   17.6579,   21.2660,   24.9126,   26.1566,   28.8080,   30.3595,  999.0000,   33.0602,  999.0000,   32.9106,  999.0000,   32.7656,   33.8615,   33.4122,   34.4939,   35.5871,   35.9881,   36.9383,   37.1743,   38.8357,   42.5979,  999.0000,   41.8281,   41.2942,   40.8223,   40.3377,   41.6111,   41.1420,   40.6982,   41.7198,   43.4386,   44.5216,   44.6569,   44.6597,   44.9435,
 29-OCT-1996 06:21:59.52,    4.5775,    4.5854,  999.0000,  999.0000,    5.1125,    5.3877,  999.0000,  999.0000,  999.0000,  999.0000,  999.0000,  999.0000,  999.0000,  999.0000,  999.0000,  999.0000,  999.0000,  999.0000,  999.0000,  999.0000,  999.0000,  999.0000,  999.0000,   11.4112,   12.0056,   11.8897,   13.5903,   14.7762,   16.0681,   16.5047,   17.4430,   21.0286,   24.9500,   26.5138,   28.5063,   30.0124,  999.0000,   32.6519,  999.0000,   33.3572,   32.2800,   32.9217,   33.8303,   33.4987,   34.9160,   35.5579,   36.0651,   38.1254,   38.0485,  999.0000,  999.0000,  999.0000,  999.0000,   41.4233,   41.2428,   41.0217,   41.2191,   40.9390,   41.7087,   42.0359,   44.0293,  999.0000,   45.6843,   44.7602,   45.2399,
 29-OCT-1996 06:24:32.11,    5.1797,    4.0652,    3.1046,  999.0000,    5.1825,    5.5031,  999.0000,  999.0000,  999.0000,  999.0000,  999.0000,  999.0000,  999.0000,  999.0000,  999.0000,  999.0000,    9.0087,    9.8651,  999.0000,  999.0000,  999.0000,  999.0000,  999.0000,   11.5746,   12.3279,   12.3897,   14.2851,   15.2658,  999.0000,   16.1584,   17.6016,   21.9750,   25.3872,   27.1734,   28.7879,   28.8741,   30.2094,   33.1657,   34.7836,  999.0000,   31.4822,   32.7163,   33.4675,   33.1191,   34.1726,   35.3563,   36.3902,   38.7090,   38.6977,  999.0000,  999.0000,   43.6728,   42.8449,   42.6392,   42.0210,   41.1512,   41.7624,   41.5227,   41.5624,   42.2738,  999.0000,  999.0000,   44.2068,   44.1541,   45.3091,
 29-OCT-1996 06:27:04.40,    5.1402,    5.3164,  999.0000,    5.4503,    5.4342,  999.0000,  999.0000,  999.0000,  999.0000,  999.0000,  999.0000,  999.0000,  999.0000,  999.0000,  999.0000,  999.0000,  999.0000,  999.0000,  999.0000,  999.0000,  999.0000,  999.0000,  999.0000,   11.9151,   12.2660,   12.6585,  999.0000,   14.6681,   15.4755,   16.0256,  999.0000,   22.1644,   25.8093,  999.0000,   29.5719,  999.0000,   29.9491,   33.2861,   34.3113,   32.8447,  999.0000,   32.8274,   33.6850,   33.9819,   34.5534,   35.7959,   37.0742,   39.0039,   38.5774,  999.0000,   41.3129,   42.9237,   42.5308,   42.6400,   41.7303,   41.2305,   42.7161,   41.7800,   41.9406,   42.8356,   44.4661,   46.3549,   45.4381,   45.2152,  999.0000,
 29-OCT-1996 06:29:36.84,    5.2949,    5.2014,    5.0528,    5.2859,  999.0000,  999.0000,  999.0000,  999.0000,  999.0000,  999.0000,  999.0000,  999.0000,  999.0000,  999.0000,  999.0000,  999.0000,    9.8404,   10.0218,   10.1280,   10.3197,  999.0000,  999.0000,  999.0000,   11.7191,   11.7995,   12.0504,  999.0000,  999.0000,   15.4244,   15.8397,   18.1184,   22.5156,   26.5143,  999.0000,  999.0000,  999.0000,  999.0000,   33.1598,   33.4519,   32.8715,  999.0000,   32.2445,   33.3713,   33.6581,   34.4151,   35.4126,   35.9474,   38.3283,   38.7941,   38.6550,   41.0182,   42.3144,  999.0000,  999.0000,   42.1205,  999.0000,   42.5341,   42.4616,   41.8562,   43.0410,   45.1810,   45.9742,   44.6183,   45.2053,   45.5713,
 29-OCT-1996 06:32:09.27,    5.1000,  999.0000,    4.8574,    4.8506,    5.4579,    5.7726,  999.0000,  999.0000,   10.6001,   11.3276,   12.1503,  999.0000,  999.0000,  999.0000,  999.0000,  999.0000,  999.0000,  999.0000,  999.0000,  999.0000,  999.0000,  999.0000,  999.0000,   11.7171,   11.8268,   11.6748,   13.1607,   14.1462,   15.3407,   15.6178,   17.5914,   21.7577,   25.8952,  999.0000,  999.0000,  999.0000,  999.0000,  999.0000,   32.5577,   32.3084,  999.0000,   31.8755,   33.2292,  999.0000,   33.7685,   34.5136,   35.0571,   37.4170,   38.1941,   38.5616,   40.4900,   41.6024,   41.8202,   41.3292,   41.0462,   40.9750,   42.7336,   42.7286,   42.5104,   42.8518,  999.0000,  999.0000,   45.0179,   45.3706,   45.7072,
 29-OCT-1996 06:34:41.84,    5.0138,    4.9027,    4.7465,    4.7231,    5.6758,  999.0000,  999.0000,  999.0000,  999.0000,  999.0000,  999.0000,  999.0000,  999.0000,  999.0000,  999.0000,  999.0000,  999.0000,  999.0000,  999.0000,  999.0000,  999.0000,  999.0000,  999.0000,   11.4224,   11.9369,   11.5485,   12.7760,   13.7655,   14.9300,   15.3115,   17.1134,   21.3247,   25.4025,  999.0000,  999.0000,  999.0000,   31.5057,  999.0000,   32.4661,   32.4564,   30.9033,   31.7769,   32.3551,   33.8207,   34.0136,   34.9681,   35.8078,   37.7956,   38.5852,   39.8097,   40.9124,   41.5909,   42.2949,   41.7829,   41.2705,   41.3538,   42.7018,   41.8119,   42.6282,   43.2245,   44.5143,   45.3211,   44.6563,   45.6362,   45.5442,
 29-OCT-1996 06:37:14.17,    4.2928,    3.7839,    3.2658,    3.1752,  999.0000,  999.0000,  999.0000,  999.0000,  999.0000,  999.0000,   12.8643,   13.3924,  999.0000,  999.0000,  999.0000,  999.0000,  999.0000,  999.0000,  999.0000,  999.0000,  999.0000,  999.0000,  999.0000,   11.4882,   11.7814,   12.0796,   13.0964,   14.4689,   15.2930,   15.0967,  999.0000,   21.4214,   25.0248,  999.0000,  999.0000,  999.0000,   31.9474,  999.0000,   33.6733,   32.2186,   31.1539,   32.3538,   32.2831,   33.6243,   34.2653,   35.2120,   36.3895,   38.0724,   39.0493,   39.7867,   40.8036,   41.7196,   42.3656,   41.9014,   40.9984,   41.6749,  999.0000,   41.0468,   41.2156,   42.5623,   44.2929,   45.3975,   44.3020,  999.0000,  999.0000,
 29-OCT-1996 06:39:47.19,    5.1656,  999.0000,  999.0000,  999.0000,  999.0000,  999.0000,  999.0000,  999.0000,  999.0000,  999.0000,  999.0000,  999.0000,  999.0000,  999.0000,  999.0000,  999.0000,  999.0000,  999.0000,  999.0000,  999.0000,  999.0000,  999.0000,  999.0000,   12.1209,   11.3020,   11.7424,   12.8715,   14.6818,   15.6148,   15.2586,   16.9663,   20.8503,   24.8726,  999.0000,   27.1213,   27.9544,   31.5435,  999.0000,   33.6484,   31.9270,   31.6679,   33.0434,   32.2089,   33.6369,   34.6866,   35.4927,  999.0000,  999.0000,   38.8528,   40.1159,   41.0378,   41.9431,   42.7135,   42.9641,   42.0313,   42.3532,  999.0000,   41.4447,   40.4937,   41.9516,   43.5942,   45.5892,   45.0468,  999.0000,  999.0000,
 29-OCT-1996 06:42:19.57,    5.3648,    5.1480,    5.0920,    5.4166,    5.7135,    5.9773,  999.0000,  999.0000,   10.5643,   10.9093,   10.9207,  999.0000,  999.0000,  999.0000,  999.0000,  999.0000,  999.0000,  999.0000,  999.0000,  999.0000,  999.0000,  999.0000,  999.0000,   11.5495,   11.0771,   11.6614,   12.4639,   14.0145,   14.6087,   15.0939,  999.0000,  999.0000,   24.6315,  999.0000,  999.0000,   28.0905,   31.4128,  999.0000,   32.3493,   31.3969,   31.8081,   32.9981,   32.3578,   33.9364,   34.6363,   35.4001,   36.4532,   36.2386,   37.2609,   39.6103,   40.6199,   41.6588,   42.0303,   42.5212,   41.8237,   41.3699,   42.3703,   41.1898,   41.1394,  999.0000,   43.8278,   45.5709,   45.3290,  999.0000,   44.4483,
 29-OCT-1996 06:44:51.89,    5.2759,    5.2109,    5.2853,  999.0000,  999.0000,  999.0000,  999.0000,  999.0000,  999.0000,   10.9001,   10.9088,  999.0000,  999.0000,  999.0000,  999.0000,  999.0000,  999.0000,  999.0000,  999.0000,  999.0000,  999.0000,  999.0000,  999.0000,   11.4261,   11.5429,   11.4575,   12.1735,   13.6037,   14.1565,   14.6179,  999.0000,   20.6408,   24.7900,  999.0000,   27.3933,   28.2720,   31.3227,  999.0000,   32.1377,   31.7050,   32.0169,   33.2763,   33.1322,   33.6217,  999.0000,   35.6779,   37.4861,   37.0473,   37.4720,   39.1532,   40.0687,   41.4360,   41.5485,   42.2938,   41.7091,   41.2311,   42.5034,   41.5019,   40.8487,   41.6218,   43.8184,   45.3053,   45.8346,   44.3994,  999.0000,
 29-OCT-1996 06:47:24.44,    5.0115,    5.3089,  999.0000,    5.4955,    5.8655,  999.0000,  999.0000,  999.0000,  999.0000,   10.9221,   10.9697,  999.0000,  999.0000,  999.0000,   11.2391,   10.9179,  999.0000,   10.8962,   10.8857,  999.0000,  999.0000,  999.0000,  999.0000,   11.1379,   11.3087,   11.0043,   11.4020,   12.8003,   13.8083,   14.1771,  999.0000,  999.0000,   23.2342,  999.0000,   26.5894,   27.3517,   30.3558,  999.0000,   31.9782,   31.5912,   31.8620,   32.9901,   32.9155,   33.5131,   33.6014,   34.7803,   36.5759,   37.3243,   37.8368,   38.9984,   39.4336,   40.7907,   40.9273,   41.3305,   40.9466,   41.3172,   42.0241,  999.0000,  999.0000,   41.5206,   42.7982,   44.5163,  999.0000,  999.0000,   44.1292,
 29-OCT-1996 06:49:56.78,    5.2898,    5.3327,    5.3954,  999.0000,  999.0000,  999.0000,  999.0000,  999.0000,   10.6453,   10.9040,  999.0000,  999.0000,  999.0000,  999.0000,  999.0000,  999.0000,  999.0000,  999.0000,  999.0000,  999.0000,  999.0000,  999.0000,  999.0000,   11.8429,   11.6848,   11.1132,   11.6188,   13.2678,  999.0000,   14.1759,   15.8751,   19.0216,   22.8117,   25.3663,   25.6755,   27.5082,   30.5996,   32.4311,   31.5254,   31.3001,   31.6153,   32.6094,   32.7578,   33.1189,   33.3753,   35.4369,   36.6546,   37.1722,   38.0781,   39.4357,   39.6132,   40.5945,   40.2206,   41.0264,   41.0420,   41.3009,   41.7165,   40.9306,   40.1561,   40.8970,   43.0206,  999.0000,   44.1933,   43.0267,   43.2750,
 29-OCT-1996 06:52:29.56,  999.0000,  999.0000,  999.0000,  999.0000,  999.0000,  999.0000,  999.0000,  999.0000,   10.6551,   10.9113,   11.0223,  999.0000,  999.0000,  999.0000,  999.0000,  999.0000,  999.0000,  999.0000,  999.0000,  999.0000,  999.0000,  999.0000,  999.0000,   11.1693,   11.2601,   10.6059,   11.6322,   13.1800,   13.1716,   13.4589,   15.5502,   19.2631,   23.7039,   26.6301,   27.1845,   27.8912,   30.9642,   32.3074,   31.6778,   31.7325,   32.2892,   32.5543,   33.1489,   33.2012,   33.3457,   35.7755,   36.5486,   37.2710,   37.9659,   39.3578,   39.7121,   40.8530,   40.5768,   40.7814,   40.7977,   40.6289,   41.0661,   41.0088,   41.5705,   41.6736,   42.2628,   43.8791,   44.8227,   43.7680,  999.0000,
 29-OCT-1996 06:55:02.02,    4.7338,    5.0398,    5.2939,  999.0000,  999.0000,  999.0000,  999.0000,  999.0000,  999.0000,  999.0000,   10.6972,   10.8427,  999.0000,  999.0000,  999.0000,  999.0000,  999.0000,  999.0000,  999.0000,  999.0000,  999.0000,  999.0000,  999.0000,   10.8480,   10.6569,  999.0000,   11.7819,   13.0781,   13.6109,   13.9066,   15.7933,   19.5377,   24.3188,   27.1307,   28.0286,   29.1155,   32.5538,   33.3872,   31.8579,   32.1789,   33.1950,   32.6739,   33.6930,   33.4384,   34.1430,   35.9816,   36.4404,   37.4616,   38.2584,   39.3044,   40.3054,   41.4853,   41.2514,   41.2766,   41.2118,   40.9499,   41.0877,   41.3765,   42.2642,   42.4677,   42.3260,   43.7840,   45.3070,  999.0000,  999.0000,
 29-OCT-1996 06:57:34.59,    2.8047,    4.3682,    5.3165,  999.0000,  999.0000,  999.0000,  999.0000,  999.0000,  999.0000,  999.0000,  999.0000,  999.0000,  999.0000,  999.0000,  999.0000,  999.0000,  999.0000,  999.0000,  999.0000,  999.0000,  999.0000,  999.0000,  999.0000,   11.2683,   11.5847,   11.2090,   12.2050,   13.5368,   14.1061,   14.0885,   16.0560,   20.5289,   25.2410,   27.6622,   28.1527,   29.5440,  999.0000,   33.3662,   31.8849,   32.3320,   33.3705,   33.3173,   34.1384,   33.6734,   34.3486,   36.6392,   37.5531,   38.5043,   38.5100,   39.2665,  999.0000,  999.0000,   40.7583,   40.7392,   41.1640,   41.3172,   41.2477,   40.9688,   41.9298,   42.2307,  999.0000,  999.0000,  999.0000,  999.0000,   44.8768,
 29-OCT-1996 07:00:07.88,  999.0000,  999.0000,    4.9320,    5.4760,  999.0000,  999.0000,  999.0000,  999.0000,  999.0000,  999.0000,  999.0000,  999.0000,  999.0000,  999.0000,  999.0000,  999.0000,  999.0000,   10.4746,   10.7348,  999.0000,  999.0000,  999.0000,  999.0000,   11.2275,   11.4550,   10.9796,  999.0000,   13.5958,   13.8334,   14.2075,   16.2142,   20.8562,   24.7675,  999.0000,  999.0000,   29.4701,   32.4208,   32.7890,   31.8931,   32.4295,   33.4876,   33.6421,   34.3707,   34.0907,   34.3955,   36.4494,  999.0000,  999.0000,  999.0000,  999.0000,   41.8217,  999.0000,   40.7844,   40.6304,   41.5152,   40.4916,   40.9859,  999.0000,   41.7530,   41.6395,   43.1027,   45.5732,   45.6279,   44.9238,   45.3468,
 29-OCT-1996 07:02:40.37,    1.7203,  999.0000,  999.0000,  999.0000,  999.0000,  999.0000,  999.0000,  999.0000,  999.0000,  999.0000,  999.0000,  999.0000,  999.0000,  999.0000,  999.0000,  999.0000,  999.0000,  999.0000,  999.0000,  999.0000,  999.0000,  999.0000,  999.0000,   11.6580,   11.5321,   11.2840,  999.0000,   14.2846,   13.8808,   14.4149,   16.4803,   20.6371,   24.1180,   26.7140,  999.0000,   28.9863,  999.0000,  999.0000,   32.7415,   33.4361,   33.8939,  999.0000,   33.6950,   33.7637,   35.2916,   37.4146,   37.6214,   38.3937,   38.9921,   39.4855,   42.0057,   41.8805,   40.2521,   39.8735,   41.3429,   41.1095,   41.6065,   42.5419,   42.1646,   42.1179,   43.8889,  999.0000,   44.8099,  999.0000,   44.3867,
 29-OCT-1996 07:05:12.85,    2.0605,  999.0000,  999.0000,  999.0000,  999.0000,  999.0000,   10.2950,   10.8663,  999.0000,  999.0000,  999.0000,  999.0000,  999.0000,  999.0000,  999.0000,  999.0000,   10.6502,   10.6448,  999.0000,  999.0000,  999.0000,  999.0000,  999.0000,   11.4024,   10.6013,   11.1934,   12.6123,   13.6275,   13.8544,   15.1644,   18.2321,   22.5665,   26.2576,  999.0000,  999.0000,  999.0000,   33.0454,   32.7402,   33.2249,   34.1649,   34.1312,   34.9897,   34.0203,   33.9982,   35.2734,  999.0000,   37.6953,   38.7160,   39.5604,   40.1537,   42.3950,   41.7784,   40.0817,   39.9758,   41.3722,   42.1915,   42.5742,   42.5250,   41.9535,  999.0000,   44.2912,   45.5684,   45.0513,  999.0000,   44.7030,
 29-OCT-1996 07:07:45.48,    1.5032,  999.0000,  999.0000,  999.0000,  999.0000,  999.0000,   10.5366,   10.9450,  999.0000,  999.0000,  999.0000,  999.0000,  999.0000,  999.0000,  999.0000,  999.0000,  999.0000,  999.0000,  999.0000,  999.0000,  999.0000,  999.0000,  999.0000,   10.7288,   10.7186,   11.4409,   12.8593,   13.7332,   14.3047,   15.3872,   18.7343,   22.8991,   26.1369,  999.0000,  999.0000,   29.3091,   32.6173,   32.7493,   33.4767,   34.0284,   34.1612,   35.3884,   33.9836,   33.9295,   35.9116,   37.4435,   38.3861,   39.1191,   39.7314,   40.5203,  999.0000,   41.9278,   40.0661,   40.3868,   41.3243,   42.6389,  999.0000,   41.5452,   41.5169,   43.5011,   44.8974,   45.1116,   45.5458,   45.1214,   44.5498,
 29-OCT-1996 07:10:17.99,    1.0475,    1.4850,  999.0000,  999.0000,  999.0000,  999.0000,   10.4079,   11.0743,  999.0000,  999.0000,  999.0000,  999.0000,  999.0000,  999.0000,  999.0000,  999.0000,  999.0000,  999.0000,  999.0000,  999.0000,  999.0000,  999.0000,  999.0000,   10.3326,   10.9447,   11.9992,  999.0000,   14.0259,   14.7397,   15.7502,   18.7678,  999.0000,  999.0000,   28.8421,  999.0000,   29.9524,   32.8000,   33.6321,   33.9196,   34.6675,   35.3721,   35.3335,   33.7163,   34.1468,   36.4329,   37.7222,   38.7672,   38.3136,   38.7594,   40.3422,  999.0000,  999.0000,  999.0000,   40.3467,   40.9267,   41.9994,   42.2188,   40.7346,  999.0000,  999.0000,   44.5076,  999.0000,   45.0004,   43.6275,   44.1656,
 29-OCT-1996 07:12:50.48,    2.3167,    2.3451,  999.0000,    5.8688,    7.6242,  999.0000,  999.0000,  999.0000,  999.0000,  999.0000,  999.0000,  999.0000,  999.0000,  999.0000,  999.0000,  999.0000,  999.0000,  999.0000,  999.0000,  999.0000,  999.0000,  999.0000,  999.0000,   10.6985,   11.2931,   12.5150,   13.5085,   14.1746,   14.8030,   15.3001,   17.8195,   21.4177,   25.0600,  999.0000,  999.0000,   29.3227,   32.5704,   33.4751,   33.4962,   34.6618,   35.3595,   35.8706,   34.4917,   34.4161,   36.9348,   38.3682,   39.3655,   38.6358,   39.3499,  999.0000,  999.0000,  999.0000,  999.0000,   39.8230,   40.8625,   41.4012,   42.0902,   41.3911,   42.9634,   43.4689,   44.6865,  999.0000,   45.4608,  999.0000,   44.2078,
 29-OCT-1996 07:15:23.25,    3.0183,    3.1574,    3.0020,  999.0000,  999.0000,  999.0000,  999.0000,  999.0000,  999.0000,  999.0000,    8.5104,    9.3187,  999.0000,  999.0000,  999.0000,  999.0000,  999.0000,  999.0000,  999.0000,  999.0000,  999.0000,  999.0000,  999.0000,  999.0000,  999.0000,  999.0000,  999.0000,   14.3128,   14.5561,   14.6383,   17.2356,  999.0000,  999.0000,  999.0000,  999.0000,  999.0000,   32.4167,   33.2702,   33.2399,  999.0000,  999.0000,  999.0000,  999.0000,  999.0000,   36.9821,   37.8708,   38.9057,   38.3040,   39.5372,  999.0000,  999.0000,  999.0000,  999.0000,  999.0000,  999.0000,  999.0000,   41.0893,  999.0000,   43.3069,   43.5290,   44.3422,   46.8353,   47.3272,  999.0000,   45.0186,
 29-OCT-1996 07:17:55.68,  999.0000,  999.0000,  999.0000,  999.0000,    7.9269,    9.4288,   10.5629,  999.0000,  999.0000,  999.0000,  999.0000,  999.0000,  999.0000,  999.0000,  999.0000,  999.0000,  999.0000,  999.0000,  999.0000,  999.0000,  999.0000,  999.0000,  999.0000,  999.0000,  999.0000,   12.2238,   13.3954,   14.4915,   15.4089,   15.3088,   17.9011,   22.4284,   26.0862,  999.0000,  999.0000,  999.0000,   33.4718,   33.5897,   34.2942,   35.3881,   35.1744,   35.6990,   35.5958,   34.8471,   36.9324,   38.2395,   39.1523,   38.4016,   39.7098,  999.0000,  999.0000,  999.0000,  999.0000,  999.0000,  999.0000,  999.0000,  999.0000,  999.0000,   43.2405,   43.3633,   44.3738,  999.0000,  999.0000,  999.0000,  999.0000,
 29-OCT-1996 07:20:28.44,    3.4185,    4.8316,  999.0000,    7.6161,    8.2514,  999.0000,   11.8169,   11.6653,  999.0000,  999.0000,  999.0000,  999.0000,  999.0000,  999.0000,  999.0000,  999.0000,  999.0000,  999.0000,  999.0000,  999.0000,  999.0000,  999.0000,  999.0000,   11.2739,   11.1949,   12.4824,   14.2083,   14.2462,   14.6907,   14.9715,   16.9373,   20.8995,   25.2892,  999.0000,  999.0000,   30.0839,   33.5107,   33.6988,   34.5213,   34.9573,   35.3745,   35.9651,   34.9703,   34.8050,   36.8754,   38.2817,   39.5266,   39.6211,   40.3672,  999.0000,  999.0000,  999.0000,   40.3987,   40.6636,   40.6245,   41.8278,   41.8048,   41.3105,   43.0702,   43.8052,   44.6783,   46.3798,   48.0191,  999.0000,   44.1399,
 29-OCT-1996 07:23:00.86,    4.2300,    5.1217,  999.0000,  999.0000,  999.0000,  999.0000,   12.9793,   11.7731,  999.0000,  999.0000,  999.0000,  999.0000,  999.0000,  999.0000,  999.0000,  999.0000,  999.0000,  999.0000,  999.0000,  999.0000,  999.0000,  999.0000,  999.0000,   11.7866,   11.2998,   12.7143,   14.2642,   14.7243,   14.3369,   14.6215,   16.9031,   21.4628,   25.7239,  999.0000,  999.0000,   30.7006,   33.5030,   33.5203,   34.9450,   35.6319,   36.3315,   36.4220,   34.8872,   35.0854,   37.2730,   38.6882,   39.6118,   39.8792,   40.8584,  999.0000,  999.0000,  999.0000,   40.4952,   40.4243,   40.7019,   41.7532,   41.6565,   40.8755,  999.0000,  999.0000,  999.0000,  999.0000,  999.0000,  999.0000,  999.0000,
 29-OCT-1996 07:25:33.24,    4.2706,    5.4360,    5.5115,  999.0000,  999.0000,  999.0000,  999.0000,  999.0000,  999.0000,  999.0000,  999.0000,  999.0000,  999.0000,  999.0000,  999.0000,  999.0000,  999.0000,  999.0000,  999.0000,  999.0000,  999.0000,  999.0000,  999.0000,   12.3205,   11.2178,  999.0000,   13.7983,   14.8531,   15.1293,   15.0231,   17.2655,   21.8322,   26.1493,   28.2591,   28.9757,   31.9702,   34.5584,   34.6175,   36.2479,   36.2821,   36.8730,   36.4160,   34.9920,   35.5056,   36.8997,   38.0911,   39.3576,   40.0730,  999.0000,  999.0000,  999.0000,  999.0000,   40.6103,   40.5645,   40.8240,   41.7724,   42.3881,   41.0384,   41.8155,   44.4851,   45.7125,   47.4819,   48.2348,  999.0000,   45.7642,
 29-OCT-1996 07:28:05.58,    3.4080,  999.0000,  999.0000,  999.0000,  999.0000,   11.6040,   13.1039,   13.3815,  999.0000,  999.0000,  999.0000,  999.0000,  999.0000,  999.0000,  999.0000,  999.0000,  999.0000,  999.0000,  999.0000,  999.0000,  999.0000,  999.0000,  999.0000,   12.4049,   11.8318,   12.0737,   13.5400,   14.6597,   14.7130,   15.1869,   17.1726,   21.7753,   25.4820,   28.1420,   28.7302,   32.0462,  999.0000,  999.0000,   36.1489,   36.0105,   36.7576,   35.7012,   34.4542,   35.8668,   37.0082,   38.0664,   39.5672,   40.4716,   41.6426,   41.2662,   40.4633,   40.7693,   40.6167,   40.1408,   40.8991,   42.4640,   42.9729,   41.3031,   42.3379,   45.1233,   46.7721,   48.0196,  999.0000,  999.0000,   45.6853,
 29-OCT-1996 07:30:38.09,    4.3626,  999.0000,    5.6484,    5.8466,  999.0000,  999.0000,  999.0000,  999.0000,  999.0000,  999.0000,  999.0000,  999.0000,  999.0000,  999.0000,  999.0000,  999.0000,  999.0000,  999.0000,  999.0000,  999.0000,  999.0000,  999.0000,  999.0000,   12.8176,   11.5960,  999.0000,   13.3673,   14.4114,   14.5122,  999.0000,  999.0000,  999.0000,  999.0000,   27.3112,   27.4676,  999.0000,   33.6666,   34.2621,   34.9063,   35.6929,   37.0839,   36.1142,  999.0000,   36.2156,   37.5247,   38.2220,  999.0000,  999.0000,   41.0917,   41.3565,   40.8843,   41.3749,   41.3714,   40.4560,   40.5379,   41.8874,  999.0000,   41.3751,   42.2296,   44.9743,   47.1600,   48.2113,   46.5994,  999.0000,   44.1302,
 29-OCT-1996 07:33:10.54,    2.9148,  999.0000,  999.0000,  999.0000,  999.0000,  999.0000,  999.0000,  999.0000,  999.0000,  999.0000,  999.0000,  999.0000,  999.0000,  999.0000,  999.0000,  999.0000,  999.0000,  999.0000,  999.0000,  999.0000,   10.5147,   10.7753,  999.0000,   12.6790,   11.8800,   13.2138,   13.3514,   13.7807,  999.0000,  999.0000,   16.2725,   20.6848,   25.1377,  999.0000,  999.0000,  999.0000,   33.6518,   34.2123,   33.7927,   35.4933,   37.0454,   36.0146,  999.0000,   36.3243,   37.5446,   38.6728,   39.9459,   39.4311,   40.1754,   40.9362,   39.8852,   40.4703,   40.3554,  999.0000,   41.2407,   41.9915,   43.2605,   42.6626,   41.9997,   43.8856,   46.9919,   47.8728,  999.0000,   42.4640,   43.4589,
 29-OCT-1996 07:35:42.87,    2.9693,  999.0000,    7.3844,    8.1777,  999.0000,   12.5272,   13.1863,  999.0000,  999.0000,  999.0000,  999.0000,  999.0000,  999.0000,  999.0000,  999.0000,  999.0000,  999.0000,  999.0000,  999.0000,  999.0000,  999.0000,  999.0000,  999.0000,   12.5967,   12.3951,   13.7892,  999.0000,   14.6486,   15.1660,   15.2316,  999.0000,  999.0000,  999.0000,   28.0958,   28.2853,  999.0000,   33.1942,  999.0000,  999.0000,   36.3851,   37.3759,   35.6326,   34.8751,   35.7630,   37.1281,   39.0971,   40.4428,   39.7306,  999.0000,  999.0000,  999.0000,   40.0359,   40.4146,   40.7603,   42.0143,   42.2053,   42.6107,   42.0582,   42.4719,   44.3676,   46.9474,  999.0000,   44.7283,   42.5900,  999.0000,
 29-OCT-1996 07:38:15.33,    4.0538,    5.8081,    7.0284,  999.0000,  999.0000,  999.0000,  999.0000,  999.0000,  999.0000,  999.0000,  999.0000,  999.0000,  999.0000,  999.0000,  999.0000,  999.0000,  999.0000,  999.0000,  999.0000,  999.0000,  999.0000,  999.0000,  999.0000,   10.7106,   11.9031,   13.8803,   14.7394,   14.1593,   14.0614,   14.8090,   16.1402,   19.5958,   24.4390,   28.1291,  999.0000,  999.0000,   32.4115,   34.8261,   34.9423,   36.8604,  999.0000,   35.4093,   34.6951,   35.8685,   37.2173,   39.3702,   40.7318,   39.8989,   40.5869,   41.0955,   40.2275,   40.9973,   41.4647,   41.1805,   42.6293,  999.0000,  999.0000,  999.0000,  999.0000,  999.0000,  999.0000,  999.0000,  999.0000,  999.0000,  999.0000,
 29-OCT-1996 07:40:48.04,    5.5693,    6.1315,    6.2795,  999.0000,  999.0000,   10.6797,   11.0644,  999.0000,  999.0000,  999.0000,  999.0000,  999.0000,  999.0000,  999.0000,  999.0000,  999.0000,  999.0000,  999.0000,  999.0000,  999.0000,  999.0000,  999.0000,  999.0000,   10.8274,   11.9095,   13.6104,   13.9220,   13.4414,   13.8812,   14.4739,  999.0000,  999.0000,   24.0250,  999.0000,   27.8551,  999.0000,   32.2532,   34.6949,   34.6422,   36.1067,  999.0000,   34.7326,   34.6057,   35.8821,   37.2019,   38.9450,   40.4853,   40.0307,   40.8943,   40.5737,   39.9555,   41.2205,  999.0000,  999.0000,   43.4265,   42.9247,   42.3582,   41.4583,   42.2133,   44.4298,   46.7871,   46.8397,  999.0000,  999.0000,   42.2923,
 29-OCT-1996 07:43:20.49,    5.4824,    7.1655,    7.8007,  999.0000,  999.0000,  999.0000,  999.0000,  999.0000,  999.0000,  999.0000,  999.0000,  999.0000,  999.0000,  999.0000,  999.0000,  999.0000,  999.0000,  999.0000,  999.0000,  999.0000,  999.0000,  999.0000,  999.0000,  999.0000,  999.0000,   13.5713,   14.0060,   13.7536,   13.3219,  999.0000,  999.0000,  999.0000,  999.0000,   27.5874,   27.3436,  999.0000,   32.1805,   34.4208,   34.3173,   35.2712,  999.0000,  999.0000,  999.0000,   35.9630,   37.1399,   38.1930,   39.3041,   39.1848,   40.7550,   40.1767,   39.3091,   40.6450,   41.3937,  999.0000,  999.0000,  999.0000,  999.0000,   41.3825,   42.5429,   44.3176,  999.0000,  999.0000,  999.0000,   44.1898,   42.9440,
 29-OCT-1996 07:45:55.44,    5.4613,  999.0000,  999.0000,  999.0000,   10.5093,   10.9132,   10.9123,  999.0000,  999.0000,  999.0000,  999.0000,  999.0000,  999.0000,  999.0000,  999.0000,  999.0000,  999.0000,  999.0000,  999.0000,  999.0000,  999.0000,  999.0000,  999.0000,   11.6312,   13.3050,   14.3825,   14.5641,   14.4118,   14.4297,   15.3775,   17.0509,   20.6062,   24.6385,  999.0000,  999.0000,  999.0000,   32.2787,   34.7489,   34.8982,   36.0161,   36.6715,   34.9140,   34.7240,   36.1114,   36.8962,   37.7988,   39.3601,   39.8844,   41.0330,   40.2692,   39.9998,   41.2551,  999.0000,  999.0000,   44.3774,   43.0870,   41.1599,   41.2292,   42.5754,   44.0488,   46.4200,  999.0000,  999.0000,  999.0000,  999.0000,
 29-OCT-1996 07:48:27.98,    5.5697,  999.0000,  999.0000,  999.0000,  999.0000,  999.0000,  999.0000,  999.0000,   10.8497,   10.6648,  999.0000,  999.0000,  999.0000,  999.0000,  999.0000,  999.0000,  999.0000,  999.0000,  999.0000,  999.0000,  999.0000,  999.0000,  999.0000,   11.0934,   12.5738,   13.6703,  999.0000,   14.0284,   14.1187,   14.8695,  999.0000,  999.0000,   24.2866,   27.7136,  999.0000,  999.0000,   32.1938,   34.8709,   35.5458,   36.4488,   36.8868,  999.0000,   34.4403,   35.9176,   36.9183,   37.6175,   39.2391,   39.7487,   41.0814,   40.3648,   40.3311,   41.7488,   41.2082,   42.0369,   43.8692,   42.6344,   41.6271,   41.5746,   42.6776,   44.1759,   46.8487,   46.8251,   44.4693,   43.9971,  999.0000,
 29-OCT-1996 07:51:00.52,    5.8278,    5.8759,  999.0000,  999.0000,   10.7172,   11.0330,   11.0625,   10.4090,  999.0000,  999.0000,  999.0000,  999.0000,  999.0000,  999.0000,  999.0000,  999.0000,  999.0000,  999.0000,  999.0000,  999.0000,  999.0000,  999.0000,  999.0000,   11.8309,   12.9489,   13.8615,   14.5850,   14.0724,   14.6467,  999.0000,  999.0000,   20.5562,   24.4390,   28.1898,  999.0000,  999.0000,   31.5619,   34.7237,   35.7546,   36.4086,   36.8427,  999.0000,  999.0000,  999.0000,   36.9437,   37.5401,   38.9155,   39.0891,   41.0498,   40.5946,   40.7665,   42.4139,   41.5771,   42.1215,   43.9245,  999.0000,  999.0000,   41.8899,   42.7518,   44.4326,  999.0000,   45.8090,   44.2923,   44.7611,   43.3581,
 29-OCT-1996 07:53:34.10,    5.5351,    5.7361,    5.7554,  999.0000,  999.0000,  999.0000,  999.0000,  999.0000,  999.0000,    9.7670,    9.4197,  999.0000,  999.0000,  999.0000,  999.0000,  999.0000,  999.0000,  999.0000,  999.0000,  999.0000,  999.0000,  999.0000,  999.0000,   12.8595,   13.3640,   13.8316,   14.1455,   14.1784,   14.6726,   15.3883,   17.5225,   21.0405,   25.0995,   28.0412,   27.8125,   28.3766,   31.4750,   34.6716,   35.5244,   36.4701,   35.9258,   33.8354,   34.4892,   35.7598,   36.7687,   37.9926,   39.6728,   39.6963,   41.6657,   41.1696,   41.0357,   42.3362,   42.5577,   43.3079,   44.9085,   44.1877,   42.4925,   42.1459,   43.0491,   44.2867,   46.6819,   45.9983,   44.4886,   44.3270,   42.9332,
 29-OCT-1996 07:56:06.92,    5.4204,    5.7008,    6.4108,  999.0000,  999.0000,   10.5343,   10.9239,  999.0000,  999.0000,  999.0000,  999.0000,  999.0000,  999.0000,  999.0000,  999.0000,  999.0000,  999.0000,  999.0000,  999.0000,  999.0000,  999.0000,  999.0000,  999.0000,   12.8614,   13.8499,   13.8864,   13.5303,   12.8137,   13.0500,   13.8288,   16.1427,   19.8839,   23.9181,   27.1548,  999.0000,  999.0000,  999.0000,   33.6575,   34.7781,  999.0000,   34.9347,   33.3332,   33.6428,   34.9312,   36.2823,   37.7205,   39.2532,   39.7615,   41.8478,   41.2831,   41.5997,   42.4809,   42.7403,   43.9759,   44.6147,   43.6921,   42.8358,   42.4960,   43.3285,   45.4969,  999.0000,   47.4281,  999.0000,  999.0000,  999.0000,
 29-OCT-1996 07:58:39.26,    5.4314,    5.7488,    7.3562,  999.0000,  999.0000,  999.0000,  999.0000,  999.0000,  999.0000,  999.0000,  999.0000,  999.0000,  999.0000,  999.0000,  999.0000,  999.0000,  999.0000,  999.0000,  999.0000,  999.0000,  999.0000,  999.0000,  999.0000,   12.8677,   13.3843,   13.8401,   14.1147,   14.0757,   13.9667,  999.0000,  999.0000,  999.0000,   23.7992,   26.7771,   28.2462,   28.0935,   30.7147,   33.4763,   34.6786,   35.5060,   35.1917,   33.4110,  999.0000,   34.1769,   35.8496,   37.5969,   39.4323,   40.6248,   42.1480,   41.2184,   41.9964,   42.7753,   42.7245,  999.0000,   44.2006,   43.0752,   43.3087,   42.6213,   43.5573,   45.7768,  999.0000,   47.3757,   45.9041,   45.1800,   44.3427,
 29-OCT-1996 08:01:11.64,    5.5037,    6.2180,    7.2635,  999.0000,  999.0000,  999.0000,  999.0000,  999.0000,  999.0000,  999.0000,  999.0000,  999.0000,  999.0000,  999.0000,  999.0000,  999.0000,  999.0000,  999.0000,  999.0000,  999.0000,  999.0000,  999.0000,  999.0000,  999.0000,  999.0000,   12.4901,   13.5570,   13.5817,   13.4924,  999.0000,   15.8306,   20.3019,   24.8249,   27.6989,   28.6715,  999.0000,   30.3638,   33.1259,   34.5865,   35.6774,   35.6434,  999.0000,  999.0000,  999.0000,   36.2164,   37.6973,  999.0000,  999.0000,  999.0000,  999.0000,  999.0000,  999.0000,  999.0000,  999.0000,  999.0000,  999.0000,  999.0000,  999.0000,  999.0000,  999.0000,   47.4193,   47.2242,   46.1619,  999.0000,   43.2301,
 29-OCT-1996 08:03:44.13,    5.5126,  999.0000,  999.0000,    8.6993,   10.3691,   10.7806,  999.0000,  999.0000,  999.0000,  999.0000,  999.0000,  999.0000,  999.0000,  999.0000,  999.0000,  999.0000,  999.0000,  999.0000,  999.0000,  999.0000,  999.0000,  999.0000,  999.0000,   13.2256,   13.8332,  999.0000,   13.3268,   12.7442,   13.0562,   14.3487,   16.7297,   21.3801,   24.8958,   27.5334,   28.7365,   28.1141,   30.3796,   33.0109,   34.5969,   35.7306,   35.2273,   34.1969,   33.8858,   34.4731,   36.6098,   37.9000,   39.9598,   41.3466,   42.5001,   42.0091,   43.3279,   43.6877,   42.8472,  999.0000,   43.4790,   42.4640,   43.5557,   42.5329,   43.8934,   45.8896,   47.7358,  999.0000,  999.0000,  999.0000,  999.0000,
 29-OCT-1996 08:06:16.50,    5.4823,    5.5054,    7.3308,    7.8506,  999.0000,  999.0000,  999.0000,  999.0000,  999.0000,  999.0000,  999.0000,  999.0000,  999.0000,  999.0000,  999.0000,  999.0000,  999.0000,  999.0000,  999.0000,  999.0000,  999.0000,  999.0000,  999.0000,   13.2585,   13.7172,   13.6571,   13.3714,   13.6098,   13.7796,   14.8343,   16.8363,   21.5494,   24.9100,   26.7661,  999.0000,  999.0000,   30.4896,   33.0578,   35.1449,   36.2066,   35.3078,   34.5743,   34.3841,   35.1898,   37.2214,  999.0000,   40.8626,   42.1175,   42.1744,   42.3324,   43.8316,   43.3330,  999.0000,   44.0013,   43.7293,   42.8273,   43.6089,   42.9492,   44.4013,   46.9603,   48.4054,  999.0000,  999.0000,  999.0000,   43.3002,
 29-OCT-1996 08:08:48.91,    5.6184,    5.6463,  999.0000,  999.0000,   10.4258,   10.9106,   10.9554,  999.0000,  999.0000,  999.0000,  999.0000,  999.0000,  999.0000,  999.0000,  999.0000,  999.0000,  999.0000,  999.0000,  999.0000,  999.0000,  999.0000,  999.0000,  999.0000,   12.7395,   13.6356,   13.6313,   13.2875,   13.9120,   14.1681,   14.2604,   15.9133,   20.0062,   23.3840,   25.7551,   27.0738,   27.3421,   29.0531,  999.0000,  999.0000,   34.9280,   34.5512,   34.4923,   33.8540,   34.1395,   36.7101,   38.5675,   41.1446,   42.2646,   42.1021,  999.0000,  999.0000,   43.1169,   42.2164,   43.3303,   43.0976,   43.3374,   43.8856,   42.8984,   44.0985,  999.0000,   48.8101,   48.4669,   47.4793,  999.0000,   45.1080,
 29-OCT-1996 08:11:21.37,    5.5623,    5.9030,  999.0000,  999.0000,  999.0000,  999.0000,  999.0000,  999.0000,  999.0000,   10.0149,   10.1282,  999.0000,  999.0000,  999.0000,  999.0000,  999.0000,  999.0000,  999.0000,  999.0000,  999.0000,  999.0000,  999.0000,  999.0000,   12.6076,   13.4701,   13.8645,   13.5510,   14.0624,   14.5066,   14.4875,   15.5011,   18.8099,   21.9063,   24.8348,   26.5285,   26.8558,  999.0000,  999.0000,   34.6284,   35.1014,   35.2912,   35.6211,   34.4414,   34.5486,   37.0494,   38.8961,   41.2243,   42.1353,   42.6276,   43.1359,   44.2410,  999.0000,  999.0000,  999.0000,  999.0000,  999.0000,  999.0000,  999.0000,  999.0000,  999.0000,  999.0000,  999.0000,  999.0000,  999.0000,  999.0000,
 29-OCT-1996 08:13:54.05,    5.5112,  999.0000,  999.0000,  999.0000,   10.6548,   11.1082,  999.0000,  999.0000,  999.0000,  999.0000,  999.0000,  999.0000,  999.0000,  999.0000,  999.0000,  999.0000,  999.0000,  999.0000,  999.0000,  999.0000,  999.0000,  999.0000,  999.0000,   12.4592,   13.2431,  999.0000,   13.4868,   13.8606,   14.3562,   14.2803,   15.7272,   18.8901,   22.0805,   25.2653,   26.7596,   26.7255,   28.2601,   31.7900,   34.2136,   35.2681,   35.1847,   35.5341,   34.5495,  999.0000,   37.3767,   39.1109,   41.4131,   42.6729,   43.5295,   43.6824,   45.0940,  999.0000,  999.0000,   43.5028,   44.2547,   44.6011,   43.9879,   43.1432,   45.0304,  999.0000,  999.0000,   48.9797,   49.6398,  999.0000,   46.5267,
 29-OCT-1996 08:16:26.77,    5.3234,    6.4762,    7.3870,  999.0000,   10.8358,   11.9428,   12.0052,    9.5774,  999.0000,   10.7874,   10.5505,  999.0000,  999.0000,  999.0000,  999.0000,  999.0000,  999.0000,  999.0000,  999.0000,  999.0000,  999.0000,  999.0000,  999.0000,   11.9362,   13.0206,   13.3046,   13.5568,   13.9294,   14.3888,   14.4428,  999.0000,   18.1534,   21.5948,   24.0636,   25.6622,   26.4953,   27.9810,   31.1308,  999.0000,  999.0000,   35.7868,   35.0060,   34.8733,  999.0000,   37.3045,   39.2994,   41.2696,   42.6069,  999.0000,  999.0000,  999.0000,  999.0000,  999.0000,  999.0000,  999.0000,  999.0000,  999.0000,  999.0000,  999.0000,  999.0000,  999.0000,  999.0000,  999.0000,  999.0000,  999.0000,
 29-OCT-1996 08:18:59.29,    5.0570,  999.0000,  999.0000,  999.0000,  999.0000,   12.4610,   13.0882,  999.0000,   11.0711,   10.8348,    9.8124,  999.0000,  999.0000,  999.0000,  999.0000,  999.0000,  999.0000,  999.0000,  999.0000,  999.0000,  999.0000,  999.0000,  999.0000,   11.8130,   11.9493,   12.7090,   13.2840,   13.4552,   13.6517,   14.1064,   13.3620,  999.0000,  999.0000,   25.4399,  999.0000,  999.0000,  999.0000,   30.9877,   33.8413,   35.2013,   36.3885,  999.0000,  999.0000,  999.0000,  999.0000,  999.0000,  999.0000,  999.0000,  999.0000,  999.0000,  999.0000,  999.0000,  999.0000,  999.0000,  999.0000,  999.0000,  999.0000,  999.0000,  999.0000,  999.0000,  999.0000,  999.0000,  999.0000,  999.0000,  999.0000,
 29-OCT-1996 08:21:31.57,    6.1222,  999.0000,  999.0000,  999.0000,   10.5436,   10.8413,  999.0000,  999.0000,  999.0000,  999.0000,  999.0000,  999.0000,  999.0000,  999.0000,  999.0000,  999.0000,  999.0000,  999.0000,  999.0000,  999.0000,  999.0000,  999.0000,  999.0000,   11.6291,   12.1943,   13.0881,   13.4429,   14.1086,   14.1580,   14.4567,   13.8219,   16.6803,   16.9763,   22.0488,  999.0000,  999.0000,  999.0000,  999.0000,  999.0000,  999.0000,  999.0000,  999.0000,  999.0000,  999.0000,  999.0000,  999.0000,  999.0000,  999.0000,  999.0000,  999.0000,  999.0000,  999.0000,  999.0000,  999.0000,  999.0000,  999.0000,  999.0000,  999.0000,  999.0000,  999.0000,    3.4599,    5.0184,    4.6978,    2.7284,    6.9130,
 29-OCT-1996 08:24:03.93,    6.9970,    7.4084,    8.1438,  999.0000,  999.0000,   10.7116,   10.9301,  999.0000,  999.0000,  999.0000,  999.0000,   10.8722,   11.1830,   10.9681,  999.0000,  999.0000,  999.0000,  999.0000,  999.0000,  999.0000,  999.0000,  999.0000,  999.0000,   12.1377,   12.3255,   12.6350,   13.1592,   14.0094,   13.8768,   13.7790,   14.5083,   16.1243,  999.0000,  999.0000,  999.0000,  999.0000,  999.0000,  999.0000,  999.0000,  999.0000,  999.0000,  999.0000,  999.0000,  999.0000,  999.0000,  999.0000,  999.0000,  999.0000,  999.0000,   43.0279,   42.9043,  999.0000,  999.0000,  999.0000,  999.0000,  999.0000,  999.0000,  999.0000,  999.0000,  999.0000,  999.0000,  999.0000,  999.0000,  999.0000,  999.0000,
 29-OCT-1996 08:26:36.41,    5.4927,    5.5203,  999.0000,  999.0000,  999.0000,  999.0000,  999.0000,  999.0000,  999.0000,  999.0000,  999.0000,  999.0000,  999.0000,   11.1344,   10.9148,  999.0000,  999.0000,  999.0000,  999.0000,  999.0000,  999.0000,  999.0000,  999.0000,   11.5590,   12.5608,  999.0000,   13.3083,   13.9201,   13.9390,   14.3349,   14.7485,   16.6655,   20.2345,   23.6623,   24.3738,   24.4760,   27.0471,   30.4843,   33.7365,   36.1738,   36.2733,   34.3053,   34.5846,   36.4515,   38.3949,   39.4269,   40.9633,   42.1783,  999.0000,  999.0000,  999.0000,   43.2705,   42.8263,   43.6912,   43.4627,   44.2806,   44.4200,   43.3326,   45.0824,   47.8494,  999.0000,   42.5158,   41.2350,  999.0000,   38.9172,
 29-OCT-1996 08:29:08.64,    5.5410,    5.5576,  999.0000,  999.0000,  999.0000,  999.0000,  999.0000,  999.0000,  999.0000,  999.0000,  999.0000,  999.0000,  999.0000,  999.0000,  999.0000,  999.0000,  999.0000,  999.0000,    9.7232,   10.5385,   11.0270,  999.0000,  999.0000,   11.0221,   12.1986,  999.0000,   11.4927,  999.0000,  999.0000,  999.0000,  999.0000,  999.0000,  999.0000,  999.0000,  999.0000,  999.0000,  999.0000,  999.0000,  999.0000,  999.0000,  999.0000,  999.0000,  999.0000,  999.0000,  999.0000,  999.0000,  999.0000,  999.0000,  999.0000,  999.0000,  999.0000,  999.0000,  999.0000,  999.0000,  999.0000,  999.0000,  999.0000,  999.0000,  999.0000,   16.1483,    2.9490,   15.2333,   14.3583,  999.0000,  999.0000,
 29-OCT-1996 08:31:41.22,    5.5149,  999.0000,  999.0000,  999.0000,   10.5353,   10.9551,  999.0000,  999.0000,  999.0000,  999.0000,  999.0000,   10.8823,   11.1089,   10.9695,  999.0000,  999.0000,  999.0000,  999.0000,  999.0000,   10.4510,   10.3805,  999.0000,  999.0000,  999.0000,   13.2193,   13.3863,   13.4128,   14.7023,   15.2359,   15.3223,   14.6946,   16.3330,   19.4603,   22.4866,   24.2131,   24.2915,   27.0286,   29.7208,   32.2050,   35.0084,   36.0304,   34.5874,   34.7924,   35.4526,   37.7421,   39.0872,   40.3066,   42.4878,   42.9328,   41.8647,   42.8784,   43.1053,   43.5013,   43.1216,   42.8917,   43.8299,  999.0000,  999.0000,  999.0000,   36.4916,   37.1841,  999.0000,  999.0000,  999.0000,   45.7197,
 29-OCT-1996 08:34:13.78,    5.5404,    5.5583,  999.0000,  999.0000,  999.0000,  999.0000,  999.0000,  999.0000,  999.0000,  999.0000,  999.0000,   10.8383,   10.9278,   10.9059,  999.0000,   10.7046,    9.7366,  999.0000,  999.0000,  999.0000,  999.0000,  999.0000,  999.0000,   12.8831,   12.9854,   13.1678,   13.5435,   14.2139,   15.2890,   15.6130,   15.5623,   16.6090,   19.8010,   22.6727,   24.8095,   25.1776,   26.7780,   29.4944,   31.9672,   34.9008,   35.8101,   34.4144,  999.0000,  999.0000,   37.8327,   39.0736,   40.2085,   42.8038,   43.0434,   41.7943,  999.0000,  999.0000,  999.0000,  999.0000,   43.3530,   43.5086,   43.3833,   43.1773,   45.2207,   48.4463,  999.0000,  999.0000,   41.6926,  999.0000,   45.3068,
 29-OCT-1996 08:36:46.25,    5.4864,    5.5903,  999.0000,  999.0000,   10.5339,   11.0191,  999.0000,  999.0000,  999.0000,   10.6690,   10.7425,  999.0000,  999.0000,  999.0000,  999.0000,  999.0000,  999.0000,  999.0000,  999.0000,  999.0000,  999.0000,  999.0000,  999.0000,   12.7057,   13.3835,   14.0658,   13.9153,   14.3377,   15.2629,   15.7549,   15.6988,   16.6690,   19.5753,   22.2896,   24.3063,   24.2735,   25.7484,   29.1894,   33.0371,   35.3363,   35.4221,   35.1665,   34.9727,   36.2534,   38.5651,   39.9856,   40.6811,   43.2874,   43.8785,   42.3739,   43.5617,  999.0000,  999.0000,   43.3128,   43.3270,   43.1644,   43.3077,  999.0000,  999.0000,   49.1438,   49.3419,  999.0000,  999.0000,  999.0000,  999.0000,
 29-OCT-1996 08:39:18.56,    5.4685,    5.4881,  999.0000,  999.0000,   10.7817,   11.2153,   11.0034,  999.0000,  999.0000,  999.0000,  999.0000,  999.0000,  999.0000,  999.0000,  999.0000,  999.0000,  999.0000,  999.0000,  999.0000,  999.0000,  999.0000,  999.0000,  999.0000,   13.0754,   14.1823,   14.7622,   14.9390,   15.0864,   14.9726,   15.5339,   15.5430,   17.3451,   20.0745,   22.9972,   24.6510,  999.0000,   26.4588,   29.8726,   33.4478,   34.8811,   34.8626,   35.0680,   35.0295,   36.3704,   38.9249,   41.0729,   41.0171,   42.7764,   43.7432,   42.9767,   43.8361,   43.5095,   43.1735,   43.4054,   43.7965,   44.2231,   43.4702,  999.0000,  999.0000,   47.6838,   48.8769,   44.7188,   49.6016,  999.0000,   45.1541,
 29-OCT-1996 08:41:51.10,    5.5235,  999.0000,  999.0000,    9.5647,   10.6219,   10.8938,  999.0000,  999.0000,  999.0000,  999.0000,  999.0000,  999.0000,  999.0000,  999.0000,  999.0000,   10.9854,   10.6722,  999.0000,  999.0000,  999.0000,  999.0000,  999.0000,  999.0000,  999.0000,  999.0000,   15.2982,   15.1878,   14.9985,   15.0538,  999.0000,  999.0000,  999.0000,  999.0000,  999.0000,   24.4993,  999.0000,   26.6471,   30.0436,   33.5945,   35.5215,   35.1644,   35.4642,   35.0479,   36.0156,   38.8836,   40.7474,   40.4479,   42.2423,   43.1272,   42.5294,   43.0725,   42.0617,   41.8961,   43.2640,   44.7103,   44.2939,  999.0000,   43.7790,   45.2744,   47.3065,   48.6395,   47.8933,   49.3527,  999.0000,   45.5242,
 29-OCT-1996 08:44:23.22,    5.5304,  999.0000,  999.0000,  999.0000,  999.0000,  999.0000,  999.0000,  999.0000,  999.0000,  999.0000,  999.0000,  999.0000,  999.0000,   11.0121,   10.0834,  999.0000,  999.0000,  999.0000,   10.0846,   10.5385,  999.0000,  999.0000,  999.0000,   13.8129,   15.1164,   15.5564,   15.6805,   15.4902,   15.3844,   15.2221,   15.0624,   17.1268,   20.2518,   22.9343,   23.7772,   25.7665,   26.3995,   29.7038,   33.4593,   33.5826,   34.9864,   35.3506,   34.9740,   36.1835,   38.7833,   40.3502,   40.5179,   42.9184,   42.9664,   41.9256,   42.7235,   41.7986,   42.2075,   43.5890,   44.0120,   43.3080,   42.9589,   44.2967,   45.3692,   47.9123,   48.0582,   47.4401,  999.0000,  999.0000,   45.9031,
 29-OCT-1996 08:46:56.53,    5.3110,    5.4680,    7.1285,  999.0000,   10.5654,   10.8843,   10.5185,  999.0000,  999.0000,  999.0000,  999.0000,  999.0000,  999.0000,  999.0000,  999.0000,  999.0000,  999.0000,  999.0000,  999.0000,  999.0000,  999.0000,  999.0000,  999.0000,   13.9488,   15.1159,   14.8369,   15.1474,   15.6371,   15.6117,   15.4574,   15.2115,   17.1287,   19.9896,   22.8467,   24.5240,   25.9726,   26.9697,   29.9395,   33.0706,   34.8288,   34.2607,   34.5576,   34.4024,   37.0080,   39.1343,   40.1012,   40.6224,   43.4198,   43.3196,   42.1234,   43.1363,  999.0000,  999.0000,  999.0000,  999.0000,   42.8855,   42.5499,   43.9148,   45.1480,   48.1647,   48.8699,   47.8611,   49.3214,  999.0000,   45.6746,
 29-OCT-1996 08:49:29.15,  999.0000,    5.5487,    6.7523,    9.4420,   10.6356,  999.0000,  999.0000,  999.0000,  999.0000,    9.3111,    9.4627,  999.0000,  999.0000,  999.0000,  999.0000,   10.8911,   10.7402,   10.8708,   10.8691,   10.6046,   11.0600,  999.0000,  999.0000,   13.4978,   14.1756,   14.1687,   14.2213,   14.1308,   14.0390,   14.4665,   15.0380,   17.0012,   19.9666,   22.8607,  999.0000,  999.0000,   27.2134,   30.5847,   33.9394,   35.3639,   34.6634,   34.6038,   34.6179,   37.3260,   39.2897,   39.7683,   40.9402,   43.2511,   43.4565,   42.5931,  999.0000,  999.0000,  999.0000,  999.0000,  999.0000,  999.0000,  999.0000,  999.0000,  999.0000,  999.0000,  999.0000,  999.0000,  999.0000,  999.0000,  999.0000,
 29-OCT-1996 08:52:02.16,    5.5230,    5.7127,  999.0000,  999.0000,   10.3339,   10.8075,   10.4402,  999.0000,  999.0000,  999.0000,  999.0000,  999.0000,  999.0000,  999.0000,  999.0000,  999.0000,  999.0000,  999.0000,  999.0000,  999.0000,  999.0000,  999.0000,  999.0000,  999.0000,  999.0000,   14.0792,   13.7147,  999.0000,   14.4604,   14.8299,  999.0000,  999.0000,  999.0000,  999.0000,  999.0000,  999.0000,  999.0000,  999.0000,  999.0000,  999.0000,  999.0000,  999.0000,  999.0000,  999.0000,  999.0000,  999.0000,  999.0000,  999.0000,  999.0000,  999.0000,  999.0000,  999.0000,  999.0000,  999.0000,  999.0000,  999.0000,  999.0000,  999.0000,  999.0000,  999.0000,  999.0000,  999.0000,  999.0000,  999.0000,   45.5593,
 29-OCT-1996 08:54:34.53,    5.6366,    5.7031,  999.0000,  999.0000,  999.0000,  999.0000,    9.2988,    8.6437,  999.0000,  999.0000,  999.0000,   11.2562,   11.8314,   11.1279,  999.0000,  999.0000,  999.0000,   10.7756,   11.0976,   10.6806,   11.0079,   11.4947,   11.8111,   12.5922,   13.5350,   14.8930,   15.2710,   16.0979,   15.7064,   15.3637,   15.0621,   17.3838,   20.5877,   22.1229,   23.2063,   25.4144,   27.6583,   30.2360,   33.3385,   35.0036,  999.0000,  999.0000,   34.8204,   36.7759,   38.9604,   40.5734,  999.0000,   43.5697,   43.5152,   42.0888,   42.6408,   42.7971,   42.9136,   42.7150,   42.9428,   43.7712,   44.5380,   46.3707,   46.9015,   48.6533,   49.8976,   49.1880,   49.3290,   45.4206,   45.8382,
 29-OCT-1996 08:57:07.00,    5.4796,    5.5155,  999.0000,  999.0000,  999.0000,  999.0000,  999.0000,  999.0000,    9.0314,   10.5734,  999.0000,  999.0000,  999.0000,  999.0000,  999.0000,  999.0000,  999.0000,  999.0000,   10.8528,   10.1419,   10.3219,  999.0000,  999.0000,   12.2799,   13.6925,   14.4032,   14.8997,   15.0709,   14.6943,   14.6828,   14.9678,   16.9535,   19.8635,   22.8827,   23.6775,   24.8627,   26.2673,  999.0000,  999.0000,   34.6028,   34.6861,   34.3930,   35.8780,   36.5709,   38.9403,   40.0217,   40.9827,   42.7924,   42.7006,   41.9706,   42.3872,   42.3986,   43.0566,   43.4762,   43.5336,   44.2170,   44.9830,   45.7687,   46.7872,   49.7833,   50.6822,   49.9313,   49.2760,   47.5362,   47.2841,
 29-OCT-1996 08:59:39.43,    5.5301,    5.5567,  999.0000,  999.0000,  999.0000,  999.0000,  999.0000,  999.0000,  999.0000,  999.0000,  999.0000,  999.0000,  999.0000,  999.0000,  999.0000,   11.5726,   10.1541,   10.4316,   10.6032,   10.2660,   10.5644,  999.0000,  999.0000,  999.0000,  999.0000,  999.0000,   14.3251,   14.3982,   14.8796,  999.0000,  999.0000,  999.0000,  999.0000,  999.0000,  999.0000,   25.1659,   26.7848,  999.0000,  999.0000,  999.0000,  999.0000,   35.1096,   35.8872,   37.0439,  999.0000,  999.0000,  999.0000,  999.0000,   42.6247,   42.7751,   42.9404,  999.0000,  999.0000,  999.0000,  999.0000,  999.0000,  999.0000,   45.5021,   47.0116,   49.5846,   50.4335,   49.1247,   47.1669,   46.2337,   47.5758,
 29-OCT-1996 09:02:12.08,    5.5557,  999.0000,  999.0000,  999.0000,    9.5704,    9.9402,    8.9407,  999.0000,  999.0000,  999.0000,  999.0000,  999.0000,  999.0000,  999.0000,  999.0000,  999.0000,   10.7843,   10.3912,   10.1949,   10.2052,  999.0000,  999.0000,  999.0000,   12.5855,   13.3134,   14.6733,   15.0908,   14.9329,   15.5499,   15.7392,   15.5649,   17.2941,   20.4045,  999.0000,   23.3280,   25.1296,   26.8155,  999.0000,   31.7161,   34.2830,   35.0747,   34.0549,   35.8803,   37.0773,   39.1417,   39.8494,   40.4243,   42.0703,   42.3969,   43.0955,   42.9215,   42.8611,   43.3856,  999.0000,  999.0000,   43.9755,   44.7174,   45.6930,   46.4818,   48.7036,   49.5294,   48.4313,   47.0307,   45.8233,   47.3349,
 29-OCT-1996 09:04:44.41,    5.4731,  999.0000,  999.0000,  999.0000,  999.0000,  999.0000,  999.0000,  999.0000,  999.0000,  999.0000,  999.0000,  999.0000,  999.0000,  999.0000,  999.0000,  999.0000,  999.0000,  999.0000,  999.0000,   10.3135,   10.7768,   11.0095,  999.0000,   12.9554,   14.1978,   14.8533,   15.3518,   15.3387,   14.9828,   14.5741,   15.3281,   17.3436,   20.1579,   22.6188,   24.0531,  999.0000,   26.2042,   29.6085,   32.1835,   34.0885,   35.0600,   34.0478,   35.2359,   37.4093,   39.0973,   39.7840,   40.6977,   41.9579,   42.0822,   42.3278,   42.3647,   42.5805,   43.2083,   43.6048,   42.9643,   43.6503,   44.3553,   45.2359,   45.8262,   48.8581,   49.4792,   48.2521,   47.1938,   45.9939,   46.7807,
 29-OCT-1996 09:07:16.61,    5.5241,  999.0000,  999.0000,  999.0000,   10.4754,   10.8767,  999.0000,  999.0000,  999.0000,   10.0821,   10.7440,  999.0000,  999.0000,  999.0000,  999.0000,  999.0000,  999.0000,   10.9567,   10.9790,    9.6960,    9.6286,   10.2040,   10.7877,   13.0602,   14.2743,   15.1456,   15.3797,   15.3935,   14.9336,   14.6249,   14.7995,   16.5251,  999.0000,   22.3974,  999.0000,   25.4188,   25.7558,   29.0172,   31.6411,   34.5092,   34.0517,   34.2975,   35.1769,   37.8356,   39.7139,   40.4020,   41.3855,   42.4507,   42.2427,   42.7613,   42.7703,  999.0000,  999.0000,   44.1827,   44.2681,   43.6044,   44.4774,   45.9314,   45.7270,  999.0000,   48.3291,   49.0028,  999.0000,   44.9821,   45.5434,
 29-OCT-1996 09:09:48.98,    5.6892,    5.6363,  999.0000,  999.0000,   10.4055,   10.8887,  999.0000,  999.0000,  999.0000,  999.0000,  999.0000,  999.0000,  999.0000,  999.0000,  999.0000,  999.0000,  999.0000,  999.0000,  999.0000,  999.0000,  999.0000,  999.0000,  999.0000,   11.7530,   13.1740,   14.2380,   14.5551,   14.9018,  999.0000,   14.4067,   14.5646,  999.0000,  999.0000,   22.5728,   23.0793,  999.0000,   25.8276,   29.0247,   31.6266,   33.8744,   33.8446,   33.6262,   34.8026,   37.9946,   40.1342,   40.1937,   40.3586,   41.8963,   42.2325,   42.4189,   42.7639,   42.5079,   42.4051,  999.0000,  999.0000,  999.0000,  999.0000,  999.0000,  999.0000,  999.0000,  999.0000,  999.0000,  999.0000,  999.0000,  999.0000,
 29-OCT-1996 09:12:21.37,    5.6303,    5.6713,  999.0000,    9.6753,   10.5766,  999.0000,  999.0000,  999.0000,  999.0000,  999.0000,  999.0000,  999.0000,  999.0000,  999.0000,  999.0000,  999.0000,  999.0000,  999.0000,   11.0369,   10.9506,   10.2848,   10.9364,   10.8835,   12.2211,   13.3884,   14.1443,   14.3674,   14.7573,   14.3350,   14.3517,   14.8102,  999.0000,  999.0000,  999.0000,  999.0000,   23.3632,   25.9754,   29.1432,   31.8308,   33.7116,   34.2738,   34.2741,   34.8941,   38.1980,   40.3053,   40.1471,   39.8817,   41.7072,   41.9618,   42.1185,   42.3437,   42.4535,   42.6414,   43.8183,   45.2401,   44.6700,   44.9714,   46.0725,   47.3188,   48.3824,   48.0786,  999.0000,   44.9519,  999.0000,  999.0000,
 29-OCT-1996 09:14:53.72,    5.6331,    5.6379,  999.0000,   10.1072,   10.9367,   10.8946,  999.0000,  999.0000,  999.0000,  999.0000,  999.0000,  999.0000,  999.0000,  999.0000,  999.0000,  999.0000,  999.0000,   10.5558,   10.3415,   10.4174,    9.7531,   10.4390,   10.7344,   11.7325,   13.2367,   13.2479,   14.6699,   14.2880,   14.4862,   14.9981,  999.0000,   16.2373,   18.9829,  999.0000,  999.0000,   22.8062,   25.6919,   28.8655,   31.4140,   33.7808,  999.0000,   33.6230,   33.4771,  999.0000,   40.3302,   40.6178,   40.6809,  999.0000,  999.0000,   42.5709,   43.0518,   42.6870,   42.5482,   43.4688,   44.6346,   44.0983,   45.3562,   46.6018,   47.8647,   49.2211,  999.0000,  999.0000,  999.0000,  999.0000,  999.0000,
 29-OCT-1996 09:17:26.18,    5.5086,    5.8225,  999.0000,   10.1931,   10.8581,   10.8431,  999.0000,  999.0000,    8.5213,    8.6225,    8.8786,  999.0000,  999.0000,  999.0000,  999.0000,  999.0000,  999.0000,   10.7285,   10.5748,   10.5119,   10.5025,   10.2173,   10.7692,   11.8247,   12.6548,   13.8855,   14.7671,   15.2489,   15.3571,   14.7855,   14.5640,   16.4539,   19.3380,  999.0000,   21.2462,   22.6025,   25.6618,   29.1453,   31.7973,   34.0943,   35.4756,  999.0000,  999.0000,  999.0000,   40.3131,   40.9360,   41.1404,   41.9000,   41.3302,   42.5098,   43.2555,   42.6309,   42.0941,   43.0377,  999.0000,   44.3135,   44.9934,   46.6844,   47.0181,   48.4553,   48.8437,   49.4761,  999.0000,   45.8697,   46.4630,
 29-OCT-1996 09:19:58.39,    5.5840,    5.9585,  999.0000,  999.0000,  999.0000,  999.0000,  999.0000,  999.0000,  999.0000,  999.0000,  999.0000,  999.0000,  999.0000,  999.0000,  999.0000,   11.3432,   11.1373,   11.0039,   10.9417,   10.7974,   10.7392,   10.6688,   10.2985,  999.0000,   12.6067,   13.5460,   14.1467,   14.3950,   14.6120,   14.3086,   14.3053,   16.1438,   19.0202,   19.8759,   22.1511,  999.0000,   25.2146,   28.7624,   31.9681,   34.2488,   35.3497,   33.9666,   35.2872,   38.9105,   40.4080,   40.3183,   41.4413,   42.1094,  999.0000,  999.0000,  999.0000,  999.0000,  999.0000,  999.0000,  999.0000,  999.0000,  999.0000,  999.0000,  999.0000,  999.0000,  999.0000,  999.0000,  999.0000,  999.0000,  999.0000,
 29-OCT-1996 09:22:30.69,    5.7323,    6.4993,  999.0000,   10.3869,   10.7807,  999.0000,    8.3349,    8.1894,    8.7194,    9.0847,  999.0000,  999.0000,  999.0000,  999.0000,  999.0000,  999.0000,   11.3907,   11.2745,   11.5626,   11.3837,   11.3885,   11.5210,  999.0000,   11.8982,   13.5059,   14.1071,   14.4553,   14.5926,   14.9874,   15.2091,  999.0000,  999.0000,   18.3839,  999.0000,   22.4098,   22.6685,   25.3713,   28.8294,   31.5964,   33.4556,   34.2596,   34.2660,   35.9555,   39.0036,   40.1223,   40.6114,   41.5740,   41.3488,   40.7212,   41.2916,   42.5864,   43.6791,  999.0000,  999.0000,   43.6672,   42.4439,   43.4265,   46.5197,   47.1255,   47.5111,   47.0654,   48.5603,  999.0000,   45.8407,   46.0020,
 29-OCT-1996 09:25:02.95,    5.4739,    5.4673,  999.0000,  999.0000,   10.3486,   10.9008,  999.0000,  999.0000,  999.0000,  999.0000,  999.0000,  999.0000,  999.0000,  999.0000,  999.0000,   12.0406,   11.8548,   11.6434,   11.3199,   11.0850,   10.7903,   10.7430,   11.0893,   11.3418,   12.8648,   13.6458,   14.3396,   14.1965,  999.0000,   14.1850,   13.7772,   15.4167,   18.3364,  999.0000,  999.0000,  999.0000,  999.0000,   28.8614,   31.6636,   33.2634,   33.6948,   34.5830,   36.4114,   39.2033,   40.3379,   40.4302,   40.5648,   41.0537,   40.9720,   42.2157,   42.6315,   42.6061,   41.6787,   42.3939,   43.2540,   42.3407,   43.3472,   45.2878,   46.9701,   47.8757,   46.9594,   48.6322,  999.0000,   46.3199,   45.9283,
 29-OCT-1996 09:27:35.32,    5.4677,    5.4633,    6.5603,  999.0000,   10.0259,   10.6729,  999.0000,  999.0000,  999.0000,    8.3376,    9.4914,  999.0000,  999.0000,  999.0000,  999.0000,   13.0214,   12.4471,  999.0000,   10.6794,   11.0809,   11.0299,   10.5501,  999.0000,   11.8971,   13.1934,   13.7959,   14.7017,   15.2719,   15.2695,   14.3303,   14.1369,   16.2541,   19.1895,  999.0000,   20.9799,   22.0394,   25.3531,   28.7655,   32.1630,   33.9525,  999.0000,  999.0000,   36.4730,   39.0935,   39.9716,   40.4543,   40.6158,   40.8062,   40.5707,   41.8551,   42.2197,   42.5008,   42.3488,   42.8649,   43.2699,   42.9396,   43.5895,   44.9433,   46.2206,  999.0000,   47.4576,   48.5625,   46.6289,   45.4112,   45.7119,
 29-OCT-1996 09:30:07.77,    5.4911,    5.4701,  999.0000,  999.0000,  999.0000,  999.0000,  999.0000,  999.0000,  999.0000,  999.0000,  999.0000,  999.0000,   13.8847,   14.0733,   13.6952,   12.7050,   12.0897,   11.4401,   11.3722,   11.8662,   11.6528,   11.3825,   11.5118,   11.6726,   12.6134,   13.1248,   14.7315,   15.1299,   15.2796,   15.6101,   15.2754,   17.0343,   19.6897,  999.0000,  999.0000,   23.0008,   26.1437,   29.5934,   32.6371,   34.8416,   35.5182,  999.0000,  999.0000,   39.3360,   39.7626,   40.5515,   41.0897,   41.2928,   40.5696,   42.1429,   42.1291,   42.7421,   42.4385,   42.3837,   43.7471,   43.9332,   43.5958,   45.3730,   46.8972,   47.5792,   48.0823,   48.5270,   46.6812,   45.9707,   45.9300,
 29-OCT-1996 09:32:40.19,    5.4866,    5.4978,  999.0000,  999.0000,   10.4649,   10.8494,  999.0000,    8.3871,    8.2384,  999.0000,  999.0000,  999.0000,  999.0000,  999.0000,  999.0000,  999.0000,  999.0000,  999.0000,  999.0000,  999.0000,  999.0000,  999.0000,  999.0000,   11.5072,   12.4910,   13.4057,   14.7047,   15.2345,   15.0286,   15.0512,  999.0000,   16.9772,   20.1122,  999.0000,  999.0000,  999.0000,  999.0000,   29.4596,   31.5269,  999.0000,  999.0000,  999.0000,   37.8659,   39.8479,   39.8129,   40.5898,   41.1556,   41.4472,   40.4921,   42.2707,   43.1549,   43.7904,   42.9376,   42.5556,   43.1339,   43.5818,   44.0566,   45.9609,  999.0000,  999.0000,   47.6927,  999.0000,  999.0000,  999.0000,   46.0323,
 29-OCT-1996 09:35:12.46,    5.5192,    5.5877,  999.0000,  999.0000,  999.0000,  999.0000,  999.0000,  999.0000,  999.0000,  999.0000,  999.0000,  999.0000,  999.0000,   13.4086,   13.5732,  999.0000,  999.0000,  999.0000,  999.0000,  999.0000,   11.3104,   11.5286,   11.3761,   11.4336,   12.3441,   13.2911,   14.5019,   14.8786,   14.9115,   15.2793,   14.9289,   16.5044,  999.0000,   20.9245,   22.5104,  999.0000,  999.0000,  999.0000,  999.0000,  999.0000,  999.0000,  999.0000,  999.0000,  999.0000,  999.0000,  999.0000,  999.0000,  999.0000,  999.0000,  999.0000,  999.0000,  999.0000,  999.0000,  999.0000,  999.0000,  999.0000,  999.0000,  999.0000,  999.0000,    9.1459,   14.2362,    7.6096,  999.0000,  999.0000,  999.0000,
 29-OCT-1996 09:37:44.80,    5.5334,  999.0000,  999.0000,   10.3121,   10.9958,   10.9438,  999.0000,  999.0000,  999.0000,  999.0000,  999.0000,  999.0000,  999.0000,  999.0000,  999.0000,  999.0000,  999.0000,  999.0000,  999.0000,   12.0877,   10.9317,   11.0817,  999.0000,   11.2824,   12.7648,   13.5571,  999.0000,   15.2613,   15.1378,   15.3657,   14.8152,   16.4049,   19.5317,  999.0000,   21.7425,   22.4439,   25.4378,   28.9781,   31.4652,   34.2993,   34.9950,   34.8773,   37.0947,   39.5545,   39.2857,   40.2226,   41.0029,   41.0388,   40.9019,   42.9014,   43.6178,   43.8500,   43.0023,   42.3969,   42.4342,  999.0000,   44.8095,   46.8690,   47.1546,   34.7182,   35.6911,  999.0000,  999.0000,  999.0000,  999.0000,
 29-OCT-1996 09:40:17.31,    5.4839,    5.6765,  999.0000,   10.0251,   10.8493,   10.7504,  999.0000,  999.0000,  999.0000,  999.0000,  999.0000,  999.0000,  999.0000,  999.0000,  999.0000,  999.0000,  999.0000,  999.0000,  999.0000,   12.1637,   10.7267,  999.0000,  999.0000,   11.3037,   13.0833,   13.9049,   14.6118,   15.1887,   14.3032,   14.6645,   14.6088,   16.7383,   19.8580,   21.7963,   21.6634,   22.3686,   25.2458,   28.6953,   31.2288,   33.6723,   34.3238,  999.0000,   37.2135,   39.1349,   38.9487,   39.7541,   40.8797,   41.1779,   40.8556,  999.0000,  999.0000,   43.6462,   43.3395,   41.7578,   42.4674,   42.6602,  999.0000,  999.0000,  999.0000,  999.0000,  999.0000,   38.1006,   44.0586,   44.5678,   45.5826,
 29-OCT-1996 09:42:49.60,  999.0000,  999.0000,  999.0000,  999.0000,  999.0000,  999.0000,  999.0000,  999.0000,  999.0000,   10.7601,   10.9596,  999.0000,  999.0000,   12.9715,   13.3081,   13.2361,  999.0000,  999.0000,  999.0000,   12.3431,   11.0259,  999.0000,  999.0000,   12.2209,   13.2285,   14.2722,   14.8545,   15.1983,   15.1042,   14.9921,   14.8672,   17.0582,   20.0311,   21.2383,   21.7725,  999.0000,  999.0000,   28.4450,   31.4405,   33.5987,   33.6307,   34.9519,   38.0588,   39.5571,  999.0000,   40.7018,   41.4021,   40.8663,   41.5839,   43.4637,   43.3910,   43.4698,   43.3157,   41.9749,   43.1618,   42.9992,   44.2412,  999.0000,   47.9585,  999.0000,   46.4069,  999.0000,   45.2127,   45.0390,   45.8051,
 29-OCT-1996 09:45:22.01,    5.4675,  999.0000,  999.0000,  999.0000,  999.0000,  999.0000,  999.0000,  999.0000,  999.0000,  999.0000,  999.0000,   11.0357,   11.0210,   11.5294,  999.0000,  999.0000,  999.0000,  999.0000,  999.0000,   13.2605,   11.4654,   10.7286,   10.0517,   11.4352,   12.0923,   13.7000,   14.7150,   15.2739,  999.0000,   14.6279,   15.2881,   17.4168,  999.0000,  999.0000,   21.4991,   22.0232,   25.0630,  999.0000,   32.3259,   34.1180,   33.8243,   36.0405,   38.5380,   39.8648,  999.0000,   41.6255,   42.0593,   40.7207,   42.2073,   43.5463,   44.5203,   44.3633,   43.1802,   42.6108,   43.3702,   43.2076,   44.2138,  999.0000,  999.0000,   46.2944,   46.3401,   46.1739,   46.2520,   45.8315,   46.7824,
 29-OCT-1996 09:47:54.44,    6.1117,    6.2256,  999.0000,  999.0000,  999.0000,  999.0000,  999.0000,  999.0000,  999.0000,   10.7562,   10.7198,   10.0620,  999.0000,  999.0000,  999.0000,  999.0000,  999.0000,  999.0000,  999.0000,  999.0000,  999.0000,  999.0000,  999.0000,  999.0000,   12.1841,   13.1783,   13.9359,   14.5532,   14.2597,   13.9428,   15.4750,   18.4409,  999.0000,   21.4152,   21.6342,   21.9902,  999.0000,  999.0000,   32.9433,   34.4701,  999.0000,   36.5922,   38.9561,   39.8072,   38.1191,  999.0000,   42.6615,   41.1478,   42.3462,   43.7079,   44.6718,   43.0278,   41.8247,   42.2098,   43.7396,   43.7237,   44.4694,   46.6474,   46.1198,   45.3773,   45.9910,   45.5641,   44.9162,   45.2532,   46.8810,
 29-OCT-1996 09:50:26.79,    7.7533,    8.1378,    8.1965,    8.4293,   10.0713,  999.0000,  999.0000,  999.0000,  999.0000,  999.0000,  999.0000,    9.1882,    9.2746,    9.9301,  999.0000,  999.0000,  999.0000,  999.0000,  999.0000,  999.0000,   10.5005,    9.8559,   10.5392,   11.7443,   12.7686,   13.6803,   14.3057,   14.2586,   14.2698,   14.0284,   16.1688,   18.9589,   21.5959,   21.7001,   21.7138,   22.2696,   25.9547,   29.2863,   32.6016,   34.4553,   33.9942,   36.5203,   38.9311,   39.2781,  999.0000,  999.0000,   42.3015,  999.0000,   41.8310,   42.7759,   43.8355,   42.9184,   41.7418,   42.5292,   44.0189,   43.5833,   44.4052,   45.7774,   45.3129,   46.3177,  999.0000,   47.5332,   45.1303,   45.2764,   46.7958,
 29-OCT-1996 09:52:59.19,    7.5595,    7.9752,    8.2126,  999.0000,  999.0000,  999.0000,    7.7537,    8.1401,  999.0000,  999.0000,  999.0000,  999.0000,  999.0000,   10.4914,   11.3950,  999.0000,  999.0000,  999.0000,  999.0000,  999.0000,   10.5559,   10.7757,   11.0471,   12.0734,   13.0133,   14.0892,   14.8315,   14.3755,   13.7276,   13.7077,   15.8690,   18.7315,   20.8321,   22.0079,   21.9338,   22.4367,   25.3843,   28.7153,   32.2683,   34.5571,   34.9230,   37.0855,   38.7065,   38.7850,  999.0000,  999.0000,   41.6544,   40.8979,   41.3383,   42.2417,   43.8200,   42.8829,   41.8421,   42.8754,   43.8428,   43.3254,   43.9023,   46.0610,   46.1023,   47.8100,   47.9200,   47.5932,   45.5275,   45.9390,  999.0000,
 29-OCT-1996 09:55:32.05,    6.6743,  999.0000,  999.0000,    8.1204,    8.2227,    8.2791,  999.0000,  999.0000,  999.0000,  999.0000,  999.0000,  999.0000,  999.0000,  999.0000,  999.0000,  999.0000,   10.9301,   10.9329,  999.0000,  999.0000,   10.4392,   10.8423,  999.0000,   11.9071,   12.6208,   13.6648,   14.0864,   14.2586,   13.6002,   13.9923,  999.0000,   19.4732,   20.4762,   21.6694,   21.7784,  999.0000,   24.6117,   27.9549,   31.3842,   34.0358,   35.3400,   36.6834,   38.5467,   38.8050,  999.0000,  999.0000,  999.0000,  999.0000,   41.0601,   42.6060,  999.0000,   43.7907,   42.9785,   42.3940,   43.0351,   44.3914,   44.1829,   45.6978,   46.9022,   47.2990,  999.0000,   45.9348,   45.2120,   46.4016,   47.3692,
 29-OCT-1996 09:58:04.47,    5.5786,  999.0000,  999.0000,  999.0000,  999.0000,    8.2732,    8.3502,    8.5123,  999.0000,   10.4524,    9.2009,    8.7292,   10.4466,   10.7997,  999.0000,  999.0000,  999.0000,  999.0000,   10.9394,   11.0337,   10.3008,   10.6579,   11.0870,   12.1944,   12.4027,   13.9003,   14.6700,   14.5084,   14.0323,   15.1855,   17.3641,   19.9705,   20.6419,   21.5603,   21.6809,  999.0000,   25.0595,   28.5447,   31.3609,   33.5241,   35.0569,   36.8204,   38.3867,   38.2338,  999.0000,  999.0000,   42.1724,  999.0000,   41.2163,   42.8471,  999.0000,   43.6275,   43.3115,   42.1391,   42.1582,   43.7251,   43.9189,   45.8691,   46.6380,   46.1770,   46.2903,  999.0000,   45.1069,   45.6267,   46.8471,
 29-OCT-1996 10:00:36.95,    5.7154,  999.0000,  999.0000,    8.1934,    8.8205,    8.1006,    8.0703,  999.0000,  999.0000,  999.0000,  999.0000,  999.0000,  999.0000,  999.0000,  999.0000,  999.0000,  999.0000,   10.9104,   10.9365,   10.9416,    9.7249,   10.8093,  999.0000,   12.2999,   12.8516,   13.7911,   14.5409,   14.1356,   14.0704,   16.0502,   18.5720,   19.5627,   20.4309,   21.4622,   21.5899,   23.6030,   26.5914,   29.9214,   32.2401,   34.1305,   35.3527,   37.1824,   38.1450,  999.0000,   38.1765,  999.0000,   42.3540,  999.0000,   41.2571,   42.8745,   44.3849,   43.6997,   44.2816,  999.0000,  999.0000,   44.0079,   44.3558,   46.8498,   47.6793,   47.0710,   46.6194,   46.0894,   46.0941,   46.5293,   46.7937,
 29-OCT-1996 10:03:09.74,    5.4895,    5.8665,  999.0000,    8.4908,    9.7596,  999.0000,  999.0000,  999.0000,  999.0000,  999.0000,  999.0000,  999.0000,   10.0762,   10.5193,   10.9862,   11.0307,   10.9710,  999.0000,  999.0000,   11.1062,   10.1730,   11.2312,   11.4995,   12.5696,   13.2680,   14.4887,   14.8051,   14.3496,   14.6021,   17.1120,   19.9878,   20.0904,   21.0873,   21.5260,   22.7928,   24.4396,   27.9797,   30.7150,   32.5428,   33.9360,   35.6402,   37.5652,   37.9980,  999.0000,   38.7671,   40.4918,   42.6715,  999.0000,   41.6684,   42.7267,   44.1878,   44.2149,   45.1125,   43.5125,  999.0000,   44.1614,   44.7378,   47.0479,   48.1379,   47.3162,   47.5759,   47.5006,   46.4844,   47.1900,   47.3695,
 29-OCT-1996 10:05:42.09,    6.2852,  999.0000,  999.0000,    7.9308,    8.2084,  999.0000,  999.0000,  999.0000,  999.0000,  999.0000,    8.4911,    8.7167,  999.0000,  999.0000,  999.0000,  999.0000,  999.0000,  999.0000,  999.0000,   11.0235,   10.3792,   10.8410,   11.5204,   12.7114,   13.6289,   14.9443,   15.6066,   14.7153,   15.4277,  999.0000,  999.0000,   20.2866,   21.4871,   20.8726,   21.9949,   25.3941,  999.0000,  999.0000,   32.8849,   34.1258,   35.7322,   37.7406,   37.7814,  999.0000,   38.7147,   41.0117,   41.3390,   39.9650,   41.0870,   42.5436,   44.5238,   44.2946,   43.7268,   42.7388,   42.5217,  999.0000,  999.0000,  999.0000,  999.0000,  999.0000,  999.0000,  999.0000,  999.0000,  999.0000,  999.0000,
 29-OCT-1996 10:08:14.25,    7.3920,    7.4084,  999.0000,  999.0000,  999.0000,  999.0000,  999.0000,  999.0000,  999.0000,  999.0000,    8.2970,    8.3470,  999.0000,  999.0000,  999.0000,  999.0000,  999.0000,  999.0000,  999.0000,   10.9985,   11.5303,   11.5323,  999.0000,  999.0000,  999.0000,   14.9379,   14.5562,   14.2246,   15.6921,  999.0000,   19.9107,   20.0109,   21.2112,   20.5530,   22.3423,   25.5588,   28.6202,   30.3719,   32.2975,   33.8896,   35.3056,   37.7809,  999.0000,  999.0000,   38.3539,   40.4546,   40.4055,   40.0687,   41.0505,   42.5353,   44.4302,   44.5005,   43.1757,   42.5508,   43.0624,   43.8320,   44.3467,   46.1306,   47.2166,   46.5892,   45.1798,   45.4753,   44.2947,   45.4647,  999.0000,
 29-OCT-1996 10:10:46.48,    6.1654,    6.2552,  999.0000,    7.9364,    8.2719,    7.7442,    7.3190,    7.7105,    8.1454,    8.2455,    8.2979,    8.0321,    8.3466,    9.4116,  999.0000,  999.0000,  999.0000,  999.0000,  999.0000,  999.0000,   13.2582,   12.9839,   12.8510,   12.7743,   13.8137,   15.1273,   14.1419,   14.3597,  999.0000,   17.6115,   18.2992,   19.6560,   20.6466,  999.0000,   22.9309,   26.1535,   28.7554,   30.5809,   32.2335,   33.4554,   35.1925,   37.9143,   38.0640,  999.0000,   37.7779,   39.5497,   39.2897,   39.7436,   41.2140,   42.9597,   44.8061,   44.8015,   42.9557,   42.5042,   43.2876,   42.6163,   43.1971,   45.6743,   46.4302,   45.4999,   44.5233,   44.7027,   43.9367,   44.6494,   46.2707,
 29-OCT-1996 10:13:18.79,    7.7359,    8.1154,    8.3476,    8.2160,    8.2036,    7.6716,  999.0000,  999.0000,  999.0000,  999.0000,    8.3218,    7.2108,    7.5982,  999.0000,  999.0000,  999.0000,  999.0000,  999.0000,  999.0000,   10.3958,   10.2826,   11.0966,   11.3300,   12.2096,   13.4901,   14.5132,   13.8131,   14.6804,   16.3819,   18.7387,   18.8611,   19.9129,   20.3213,   22.3138,   22.7121,   25.8056,   28.2094,   30.5365,   32.1347,   33.3479,   34.9075,   37.1596,   37.2518,   35.4121,   38.1909,   39.4918,   38.6937,   39.8576,   41.5278,   42.6130,   44.5050,   44.4163,   42.5496,   42.6917,   43.0184,   42.1402,   43.8304,   45.9880,   46.2763,   46.1043,  999.0000,   45.2697,   44.8475,   45.3201,  999.0000,
 29-OCT-1996 10:15:51.31,    7.4742,    8.0982,  999.0000,  999.0000,  999.0000,    7.1128,    7.8581,    8.1815,    7.8941,    8.0815,    8.2046,    6.9170,    8.0064,  999.0000,  999.0000,  999.0000,   10.8442,   10.8636,   10.8824,   10.8349,   10.4374,   11.3264,   11.4059,   12.1847,   12.8029,   14.3729,   14.0375,   14.1884,   15.7707,   18.0620,   18.2769,   19.3167,   19.7879,   20.7786,  999.0000,  999.0000,   28.6219,  999.0000,  999.0000,  999.0000,   34.8550,   36.0932,   36.6174,   36.4454,   37.8670,   39.0967,  999.0000,   40.6790,   42.1745,   42.9715,   44.5547,   44.6673,  999.0000,  999.0000,  999.0000,  999.0000,  999.0000,  999.0000,  999.0000,  999.0000,  999.0000,  999.0000,  999.0000,  999.0000,  999.0000,
 29-OCT-1996 10:18:24.17,    7.3593,    8.2642,    9.0907,  999.0000,  999.0000,  999.0000,  999.0000,    8.1919,    8.2376,    8.3846,    8.5853,  999.0000,  999.0000,  999.0000,  999.0000,   10.8086,   10.9383,  999.0000,   10.8533,   10.7501,   10.8919,   11.4924,   11.9179,   12.8594,   14.0249,   14.5301,   14.5611,   14.1276,   15.5309,   18.2353,   19.0644,   19.4137,   19.7581,   21.5011,   24.0807,   26.4389,   28.6665,   30.1679,   32.0403,   34.3664,   35.3727,   37.0367,   37.2846,   36.5088,   38.5836,   40.1558,  999.0000,   41.2373,   42.8431,   42.7873,  999.0000,  999.0000,  999.0000,   43.8871,   43.9998,  999.0000,  999.0000,   46.2729,   47.5674,   46.9576,   44.8741,   44.9738,   46.2654,   47.7662,   47.6631,
 29-OCT-1996 10:20:57.02,    5.6509,  999.0000,  999.0000,  999.0000,  999.0000,  999.0000,  999.0000,  999.0000,  999.0000,  999.0000,    8.3653,    6.7861,  999.0000,  999.0000,  999.0000,  999.0000,  999.0000,  999.0000,  999.0000,  999.0000,  999.0000,  999.0000,  999.0000,   12.8432,   14.0116,   14.9219,   14.1620,   13.7215,   14.9257,  999.0000,   16.5352,   19.4815,   20.9814,  999.0000,  999.0000,  999.0000,  999.0000,  999.0000,  999.0000,  999.0000,  999.0000,  999.0000,  999.0000,  999.0000,  999.0000,  999.0000,   39.6511,   40.6125,   42.2694,  999.0000,  999.0000,  999.0000,  999.0000,  999.0000,  999.0000,  999.0000,  999.0000,  999.0000,  999.0000,  999.0000,  999.0000,  999.0000,  999.0000,  999.0000,  999.0000,
 29-OCT-1996 10:23:29.54,    6.6492,  999.0000,  999.0000,  999.0000,  999.0000,  999.0000,  999.0000,    8.1528,    8.1448,    8.2266,    8.2367,    7.1137,  999.0000,  999.0000,  999.0000,   11.0998,   11.2731,   10.8660,   10.8509,  999.0000,  999.0000,  999.0000,   11.7911,   12.5274,   13.6795,   14.8147,   14.4643,   13.6351,   15.0090,   17.3803,   17.4063,   18.5156,   19.5888,   21.7448,   24.6898,   26.6475,   28.2358,   30.0304,   31.2942,   33.3256,   34.8555,   36.5519,   37.3798,   35.8372,   37.4784,   39.3655,   39.0841,   40.9844,   42.5449,   42.8024,   44.2036,   43.4035,   41.9429,   43.2139,   43.6322,   42.6595,   43.7745,   45.8350,   47.1343,   46.8007,   45.7346,   44.9811,   44.7626,   46.3006,   45.0436,
 29-OCT-1996 10:26:01.98,    7.9663,    8.1941,  999.0000,  999.0000,  999.0000,    8.0962,    8.1219,    8.1726,    8.1505,    8.2607,    8.1963,    7.3816,  999.0000,  999.0000,   10.7291,   10.9231,   11.0316,  999.0000,   10.9786,   10.8473,   10.9508,   11.3723,   11.5855,   12.3757,   13.4048,   14.5812,   14.9580,   13.8780,   15.2359,   17.3818,   18.0526,   18.8871,   19.9102,   22.2905,   24.2891,   25.7256,   27.4548,   29.2252,   30.8130,   32.8358,   34.2259,   36.0544,   36.9431,   35.8202,   37.2842,   38.6685,   38.9435,   40.5749,   41.9816,   43.6224,   44.6120,  999.0000,  999.0000,   43.0023,   43.2863,   42.3947,   43.4069,   45.4534,   46.7785,   47.1352,   46.7895,   44.9080,   45.1043,   45.9945,   45.2831,
 29-OCT-1996 10:28:34.27,  999.0000,  999.0000,  999.0000,  999.0000,  999.0000,    7.9035,    8.1225,  999.0000,    8.2141,    8.2322,    8.0053,    7.3700,    8.5211,  999.0000,  999.0000,   11.0429,   11.0681,   10.6897,  999.0000,   10.8040,   10.8897,   11.7642,   12.0817,   12.4851,   13.8453,   14.3511,   13.9819,   14.3373,   15.7392,   17.5371,   18.5569,   18.6658,   18.7493,   21.1043,   23.8587,   25.6978,   26.7993,   28.6159,   30.8197,   33.0514,   34.1538,   36.1314,   36.9422,   35.5167,   36.7041,   39.4398,   39.7290,   40.9362,   42.0252,   43.8026,  999.0000,   43.1198,   41.9087,   42.7025,   43.7621,   43.2523,   43.1778,   44.8832,   46.4896,   46.2014,   46.7219,  999.0000,   46.2908,   46.3205,  999.0000,
 29-OCT-1996 10:31:06.88,    7.1380,  999.0000,    8.4601,    8.3402,  999.0000,  999.0000,  999.0000,  999.0000,  999.0000,  999.0000,    7.3817,    6.6543,  999.0000,  999.0000,  999.0000,   11.1116,   11.3132,   11.0241,   11.0062,   11.2179,   11.0570,   11.9106,   12.4699,   13.1780,   14.6895,   14.3031,   13.4574,   14.1756,   15.7000,   17.8797,   18.0929,   18.5575,   18.8361,   19.8513,   22.4727,   24.8376,   26.2257,   28.3624,   30.3657,   33.0490,   34.4519,   35.9991,   37.1851,  999.0000,   37.0127,   38.7695,   39.6427,   40.9655,   41.8908,   43.5485,   43.6682,  999.0000,  999.0000,   42.5201,   43.7514,   43.9582,   43.3083,   44.4609,   46.4753,   46.0166,   46.1604,   45.1196,   45.5796,   45.4351,   45.3230,
 29-OCT-1996 10:33:39.21,    8.1005,  999.0000,    9.1413,    8.5080,    7.6222,    7.5783,    7.3591,    8.0074,    8.2017,    8.2982,  999.0000,    7.1136,    6.8196,  999.0000,  999.0000,  999.0000,  999.0000,  999.0000,  999.0000,  999.0000,   11.3298,   11.6676,   11.5535,   13.3799,   14.8733,   14.9513,   14.2094,   14.0095,   15.4806,   17.0876,   16.7598,   17.5134,   18.3833,   18.7513,   21.4197,   23.9274,   25.5068,   28.0706,   30.0877,   32.6041,   34.5075,   35.7065,   36.5028,   34.9593,   36.9645,   37.9946,   38.9969,   41.0675,   42.3651,   43.5737,   43.3873,  999.0000,   41.8055,   42.3079,  999.0000,  999.0000,   42.8126,   44.0906,   45.6966,   46.4104,   47.7924,  999.0000,   46.7395,   45.4387,   45.7853,
 29-OCT-1996 10:36:11.59,    7.9010,    8.2263,    8.1998,  999.0000,  999.0000,  999.0000,  999.0000,    8.1650,    8.1918,    8.4922,  999.0000,    7.8425,    8.1365,  999.0000,  999.0000,  999.0000,  999.0000,  999.0000,  999.0000,   11.6099,   11.5342,  999.0000,  999.0000,  999.0000,   13.6187,   14.9425,   14.1624,   14.1825,   15.2392,   16.7447,   17.2212,   17.9840,   18.1681,   18.9123,   21.4847,   23.7390,   25.3077,   27.1916,   29.5902,   32.0151,   34.0416,   35.8966,   36.5593,   35.7518,   37.4015,   38.0859,   39.2501,   41.1720,   42.3672,   43.5200,  999.0000,  999.0000,   41.5925,   42.5186,   44.0896,   43.6939,   42.9979,   44.1660,   45.8131,   46.2419,   47.4902,  999.0000,   46.5437,   46.2204,   46.0443,
 29-OCT-1996 10:38:44.02,    7.7644,  999.0000,  999.0000,  999.0000,  999.0000,  999.0000,  999.0000,    8.4815,    8.3934,    8.5722,  999.0000,    7.6117,    7.7755,  999.0000,   10.7288,   11.0251,   10.7006,   10.4126,   10.6203,   10.9997,   11.6094,   11.7612,   12.0442,   13.9287,   13.3014,   13.5496,   13.0672,   14.5759,   15.2217,   16.6679,   16.5197,   17.1063,   17.5681,   19.6733,   21.6682,  999.0000,  999.0000,  999.0000,   29.4230,   31.7656,   34.2320,   36.1466,   36.1150,   35.5792,   37.1921,   37.9236,   39.2731,   41.7021,   42.2203,   42.7282,   42.7706,   40.8233,   41.3777,   42.4683,  999.0000,  999.0000,   43.0444,   44.5423,   46.1115,   45.6964,   46.5574,  999.0000,  999.0000,   44.9925,   46.0313,
 29-OCT-1996 10:41:16.97,    7.6320,  999.0000,    8.1492,    7.8087,  999.0000,  999.0000,  999.0000,    8.6921,    8.7046,    8.4311,  999.0000,    6.2893,    6.7818,  999.0000,   10.5368,   10.9582,  999.0000,  999.0000,  999.0000,   11.0114,   11.7211,   11.4564,   12.7409,   13.6905,   14.4645,   14.3156,   14.3263,   13.7070,   14.7690,  999.0000,   16.1954,   16.3359,   17.0507,   19.4407,   21.7585,   23.4835,  999.0000,  999.0000,   29.5436,   31.8339,   34.5697,   36.1142,   35.7399,   35.6118,   36.9560,   37.4352,   38.9792,   42.0688,   42.5212,   42.7652,  999.0000,  999.0000,   41.8836,   43.1387,  999.0000,   42.8383,  999.0000,   44.8025,   46.4492,   46.3889,   46.5589,   44.7284,   44.1806,   45.3699,   46.2089,
 29-OCT-1996 10:43:49.44,    7.6765,    8.0745,    8.2045,    8.2019,    7.3343,    7.9062,    8.2136,    8.2921,    8.3929,    8.4886,  999.0000,    6.7764,    7.8895,    8.7016,   10.2756,  999.0000,   10.5809,   10.5785,   10.7855,   10.8018,   10.9799,   11.1577,  999.0000,   13.3211,   15.0619,   15.1233,   14.3989,   13.4922,   14.9296,   15.2954,   16.3534,   16.6326,   17.1087,   19.7348,   22.2615,   23.3716,   25.0415,   27.4246,   29.7690,   32.0813,   35.0179,   36.3322,   34.9822,   35.2135,   36.5572,   37.2393,   39.1358,   40.2973,   42.2699,   42.3902,   42.1393,   41.9607,   41.9758,   43.7475,   43.6936,   43.8066,   43.9366,   44.3862,   46.0111,   46.7390,   45.9124,  999.0000,   44.4580,   46.4006,   47.3123,
 29-OCT-1996 10:46:24.47,    7.0913,    7.9127,    8.1417,    8.2628,  999.0000,  999.0000,  999.0000,    8.1856,    8.2300,    8.3500,    7.1992,  999.0000,  999.0000,  999.0000,  999.0000,   10.8552,   10.6299,   10.7121,   11.1210,   10.5895,   10.6077,   11.0861,  999.0000,   14.0052,   14.4773,   14.9054,   13.5847,   14.3278,   15.6271,   17.1376,   16.6895,   17.2869,   17.0425,  999.0000,   22.4558,   23.4280,   25.5519,   27.5834,   30.0520,   32.6397,   35.2106,   35.1253,   35.1283,   34.7895,   35.8991,   36.5224,   38.4004,   41.3982,   41.6059,   41.7116,   42.3094,   41.6544,   41.8423,   43.1982,   44.1481,   43.8665,   43.9150,   44.8222,   45.8588,   45.8993,   44.8217,   43.7679,   44.1855,   46.4131,   47.2994,
 29-OCT-1996 10:48:57.03,    7.3033,    8.1640,  999.0000,    7.9285,    7.7812,    8.0628,    8.1773,    8.2069,    8.1936,    8.1612,    6.9816,    7.4313,    7.8681,  999.0000,  999.0000,  999.0000,  999.0000,  999.0000,  999.0000,   10.8142,   11.7912,   12.4397,   12.8795,   14.3713,   13.7631,   14.0273,   13.4155,   14.7645,  999.0000,   16.7572,   17.0156,   17.0686,   17.5661,   20.5048,   22.4357,   23.4242,   25.4415,   27.9204,   30.2842,   32.6957,   34.8061,   36.0349,   35.1794,   35.1091,   36.6176,   37.3313,   38.9018,   41.2277,   41.6245,   41.7789,   41.8697,   41.2567,   41.7934,   43.5893,   44.3092,   42.8803,   43.4032,   44.2986,   45.8741,   45.7140,   44.3271,   43.2487,   43.5541,   45.8410,  999.0000,
 29-OCT-1996 10:51:29.58,    5.5563,  999.0000,    7.8961,    7.3234,    7.0802,    7.9284,    8.1637,    8.1811,    8.1669,    8.1193,    7.3725,    6.4058,    7.1327,    8.0250,  999.0000,  999.0000,  999.0000,  999.0000,  999.0000,   11.6263,   11.7362,   13.3341,   14.1584,   14.4995,   14.4950,   14.3101,   13.4746,   14.7598,   14.6195,   16.4540,   16.4594,   17.1407,   17.7947,   20.4471,   22.2207,   23.0048,   24.7865,   27.9844,   30.5616,   32.6291,   35.1807,   36.3928,   35.6827,   35.1926,   36.6645,   37.6758,   39.9134,   41.6591,   41.5178,   41.6144,   41.3969,   41.3763,   41.9129,   43.5003,  999.0000,  999.0000,  999.0000,   43.6818,   45.2699,   45.0834,   44.1734,   43.0278,   43.5000,   45.6698,  999.0000,
 29-OCT-1996 10:54:02.10,    6.3723,  999.0000,  999.0000,  999.0000,    6.5138,    7.2502,    8.1900,    8.1123,  999.0000,    7.9996,    7.5065,  999.0000,  999.0000,  999.0000,  999.0000,   10.9497,   10.4618,   10.5929,   10.7440,   11.2030,   11.2255,  999.0000,  999.0000,   14.7641,   15.1897,   15.1701,   13.8107,   15.2265,  999.0000,   16.5789,   16.5626,   16.9365,   18.2362,   20.2358,   22.4822,   22.5850,   24.5086,  999.0000,  999.0000,  999.0000,   35.8891,   36.9377,   36.5764,   35.5778,   36.8342,   37.7880,   40.4247,   42.0969,   42.0352,   42.2355,   41.7053,   42.2210,   42.7547,   44.0288,   45.8502,   45.2750,   44.9728,   44.9797,   45.4652,   45.3358,   45.1309,   44.1666,   44.6173,   46.2162,   47.2573,
 29-OCT-1996 10:56:34.69,    8.0755,    8.2446,  999.0000,  999.0000,    5.9399,    5.5279,  999.0000,    7.3344,    7.6868,    7.1502,    5.9165,    5.5417,  999.0000,  999.0000,   10.6744,   10.9291,   11.0553,   11.2420,   11.3187,  999.0000,   11.6601,   11.4711,  999.0000,   13.7783,   14.8152,   14.2550,   13.5267,   14.8971,   16.6548,   16.7718,   15.7475,   16.7517,   18.7086,   20.8110,   21.8015,   22.9043,   23.8762,   27.0606,   29.4054,   32.1297,   34.4749,   34.9860,   35.2165,   33.8853,   35.9774,   37.4010,   39.7892,   41.6515,   41.8727,   41.6475,  999.0000,   41.7820,   42.1559,   42.9652,  999.0000,  999.0000,  999.0000,  999.0000,   45.0962,   45.1758,   44.8098,   43.8579,   44.4155,   46.0890,  999.0000,
 29-OCT-1996 10:59:07.29,    7.8138,  999.0000,  999.0000,  999.0000,    6.5200,    6.1626,  999.0000,    6.0244,    6.4867,    5.8893,    5.8587,    5.8587,    6.2725,  999.0000,   10.6064,   10.9267,   11.2650,   11.6163,   11.6660,   11.3750,   11.9959,  999.0000,  999.0000,   13.1102,   13.4103,   14.3571,   13.6376,   14.5696,   14.2163,   16.2657,  999.0000,  999.0000,  999.0000,  999.0000,  999.0000,   22.1136,   24.5107,  999.0000,  999.0000,   32.4522,   33.9976,   34.2966,   34.3682,  999.0000,  999.0000,  999.0000,  999.0000,  999.0000,  999.0000,  999.0000,  999.0000,   41.4870,   42.1337,   42.8809,  999.0000,  999.0000,  999.0000,  999.0000,   44.4009,   45.3044,   45.1781,   43.8301,  999.0000,   46.2650,  999.0000,
 29-OCT-1996 11:01:39.75,    7.7474,    8.3674,    8.3541,  999.0000,    6.9578,    7.3733,    8.0953,  999.0000,  999.0000,  999.0000,    6.3128,    6.3666,    6.5756,  999.0000,  999.0000,  999.0000,   10.7747,   10.9774,  999.0000,  999.0000,  999.0000,  999.0000,  999.0000,   12.8518,   12.6686,   14.0307,   13.8760,   14.9156,   14.9628,   15.4682,   16.4958,   17.8261,  999.0000,   20.0860,   19.5471,   20.8652,  999.0000,  999.0000,  999.0000,  999.0000,  999.0000,  999.0000,  999.0000,  999.0000,  999.0000,  999.0000,  999.0000,  999.0000,  999.0000,  999.0000,  999.0000,  999.0000,  999.0000,  999.0000,  999.0000,  999.0000,  999.0000,  999.0000,   44.6521,  999.0000,  999.0000,   43.6477,  999.0000,   45.8882,  999.0000,
 29-OCT-1996 11:05:13.67,    7.0284,    7.8074,    7.7945,    7.1381,    6.4685,    5.8831,  999.0000,    8.1257,    8.1973,  999.0000,  999.0000,  999.0000,  999.0000,  999.0000,  999.0000,   10.7857,   11.0539,   11.0973,   11.0866,   11.1155,   11.3373,  999.0000,  999.0000,   13.4866,   14.1487,   13.2407,   14.5979,   15.8690,   16.4285,   15.9755,   16.3460,   18.4610,   20.6618,   20.9398,   20.4903,   21.2731,   23.7437,   26.2621,  999.0000,   33.7590,   34.0903,   33.9682,   32.8560,   34.5452,   35.4754,   37.5447,   40.3484,   41.1184,   39.4909,   39.5718,   40.0599,   40.1217,   40.9505,   42.3426,   43.6670,   44.5567,  999.0000,  999.0000,   44.9992,   44.8026,   42.9540,   43.3817,   44.0581,   46.5261,   46.3098,
 29-OCT-1996 11:07:50.90,    5.3145,  999.0000,  999.0000,  999.0000,  999.0000,  999.0000,  999.0000,  999.0000,  999.0000,  999.0000,  999.0000,  999.0000,    5.6483,    6.5979,  999.0000,  999.0000,  999.0000,  999.0000,   10.9494,   10.9544,  999.0000,  999.0000,  999.0000,   13.1264,   13.7976,   13.0980,   14.7671,   16.3275,   16.4272,   16.2737,   16.6664,   19.0388,   20.3963,   20.8183,  999.0000,   20.7447,   23.4991,   26.8486,   29.9011,   33.3801,   36.5923,   34.7422,   34.6597,   37.1689,   37.5294,   38.9051,  999.0000,   41.8396,   40.6288,   40.9934,   40.6827,   40.8444,   41.5889,   42.9040,   43.8417,   44.4236,   44.3746,   43.9471,   44.6400,   45.3133,   43.5327,   43.0631,   44.4506,  999.0000,  999.0000,
 29-OCT-1996 11:10:27.91,  999.0000,    6.3233,    6.1752,    6.2421,    6.6356,    7.2089,    7.6573,    8.0051,    7.4645,    6.6281,    5.7205,    6.0479,  999.0000,    8.1394,    9.8045,   10.4877,   11.1038,   11.0502,   11.0974,   10.9319,   10.9774,   10.7478,   10.9223,   13.2638,   12.1886,   13.5123,   14.8039,   15.9297,   15.7932,   16.2191,   17.4133,   19.7316,   20.4906,   20.1542,   19.3813,   20.7377,   23.5618,   26.4513,   29.2184,   32.7523,   35.8931,   35.8555,   34.8882,   37.3839,   38.2652,   39.7090,   41.1712,   40.2630,   39.0470,   39.5953,   40.7301,   40.6305,   41.7911,   43.6361,   44.6998,   44.8779,   44.7288,   45.4328,  999.0000,  999.0000,  999.0000,   44.7944,   45.3765,  999.0000,   46.4240,
 29-OCT-1996 11:13:07.04,    6.8271,  999.0000,    8.5347,    7.4048,    6.9412,    7.2934,    7.9861,    8.0425,    7.3545,    6.7117,    5.7656,    5.5134,    5.8760,    6.3186,  999.0000,   10.7265,   10.9146,   11.2386,   11.5009,  999.0000,  999.0000,  999.0000,  999.0000,   12.7702,   12.4509,   13.7608,   15.1712,   16.0258,   16.2794,   16.5750,   18.2227,   20.1134,   20.3738,   19.4881,   20.0536,   21.5715,   24.0810,   26.7186,   29.1165,   32.0914,   35.1048,   36.2523,   35.4721,   37.2910,   38.7781,   40.0089,  999.0000,   41.2074,   41.3942,  999.0000,   40.3957,   40.3904,   41.6764,   43.1227,   44.4149,   44.7563,   44.5136,   44.0135,   44.9661,   44.8263,   43.5893,   44.4262,   45.2004,  999.0000,   46.8208,
 29-OCT-1996 11:15:47.87,    9.4946,   10.0258,    9.8614,  999.0000,    6.4436,    6.2765,    7.8132,    8.2380,    7.4996,    6.7021,    5.9596,    5.9173,    6.5039,    6.5838,    9.8253,   10.8298,   10.9911,  999.0000,  999.0000,  999.0000,   10.9568,   11.0306,  999.0000,   11.3674,   12.7218,   14.2961,   15.2079,   15.6089,   15.7781,   16.6869,   18.4855,   20.0225,   20.0224,   19.3993,   20.5152,   22.1297,   24.2690,   26.5850,   28.9223,   31.4418,   33.8558,   35.0128,   35.0935,   36.0813,   37.3752,  999.0000,  999.0000,  999.0000,   40.9170,   41.1563,   39.5062,   39.8340,   41.4557,   43.0639,   44.2578,   44.6481,   44.8657,   44.2042,   45.4477,   45.7974,   44.1397,   44.1501,   45.6373,  999.0000,   46.4078,
 29-OCT-1996 11:18:25.23,    8.1039,    8.4664,    8.5441,  999.0000,    6.9443,    7.8613,    8.2065,    8.6293,  999.0000,  999.0000,  999.0000,  999.0000,    6.1435,    6.0901,  999.0000,   10.6340,   10.8858,   11.1821,  999.0000,   10.8936,   11.0535,   11.2508,   11.1756,   12.2796,   12.5311,   13.7397,   14.7583,   13.7657,   14.6522,   16.0791,   17.7591,   19.2241,   19.0087,   18.6548,   19.1970,   22.1886,  999.0000,  999.0000,   28.2449,   30.7703,   32.5254,   33.4080,   34.2771,   35.4751,   36.3910,   37.7184,   39.6015,   39.6915,   39.8237,   39.8044,   38.7172,   39.4129,   40.8319,   43.1501,   44.4340,   43.9938,   44.2318,   44.3752,   45.2926,   46.1768,   44.3557,  999.0000,  999.0000,   46.7458,   46.6862,
 29-OCT-1996 11:21:02.29,  999.0000,  999.0000,  999.0000,  999.0000,  999.0000,  999.0000,  999.0000,    8.8433,    8.5363,    6.9346,    6.4476,  999.0000,  999.0000,  999.0000,  999.0000,   10.8904,   10.8549,   10.9431,   11.1899,  999.0000,  999.0000,   11.0235,   10.9975,   12.4117,   13.1037,   14.3970,   15.2416,   14.5084,   15.3363,   17.0454,   18.0659,   19.4095,   19.0935,   19.3759,   19.5171,   21.8138,   23.7872,   25.9542,   28.5098,   31.3422,   33.5233,   35.0587,   36.2310,   36.8919,   37.5377,   38.9136,   40.5364,   39.8579,   40.3125,   40.1082,   39.4017,   40.0001,  999.0000,  999.0000,   45.3349,   44.3323,   44.2303,   44.7353,   45.3072,   45.9429,   43.9516,  999.0000,  999.0000,   47.2607,   46.6661,
 29-OCT-1996 11:23:41.68,  999.0000,    9.5698,   10.5715,  999.0000,  999.0000,  999.0000,    7.0153,    7.3607,  999.0000,    6.6649,    6.4954,  999.0000,    8.1072,    8.1589,  999.0000,  999.0000,   10.2891,   10.7832,  999.0000,  999.0000,  999.0000,   11.1238,   10.9751,  999.0000,   13.4916,   14.8380,   15.2761,   14.6223,   16.3583,   17.6675,   17.8298,   18.7442,   19.3981,   19.5518,   19.9151,   21.8111,   23.8386,   26.0043,   27.9888,   30.9629,   32.9376,   34.2251,   35.3994,   35.6804,   36.8461,   39.1190,   40.2650,   39.3515,   39.8961,   40.2105,   38.9741,   39.3775,   41.0566,   43.4445,   44.5727,   43.8519,   43.7398,   44.3006,  999.0000,   45.0604,   43.4548,   43.9790,   46.9741,   47.4227,   47.0041,
 29-OCT-1996 11:26:18.68,    7.3568,    8.1657,  999.0000,  999.0000,    6.0363,    6.1571,    6.5573,    7.5419,  999.0000,    6.7027,    6.8925,  999.0000,    7.6229,    7.5063,  999.0000,   10.5770,   10.3360,   10.1842,  999.0000,  999.0000,  999.0000,  999.0000,  999.0000,   12.6849,   13.6431,   14.8561,   15.0364,   15.8373,   16.0789,   17.0993,   17.6017,   18.4399,   19.4401,   19.1501,   19.5238,   21.3759,   23.4856,   25.6355,   28.1814,   30.9459,   32.9630,   34.5104,   35.2121,   35.5576,   36.7774,   39.3796,   40.9674,   39.4171,  999.0000,  999.0000,   38.7133,   39.4280,   41.1653,   43.6898,   44.2122,   42.8673,   43.3326,   44.6278,   44.0333,   44.9772,   43.6520,   44.1781,   47.4885,   48.1454,   47.7417,
 29-OCT-1996 11:28:57.88,    7.6854,    8.1643,  999.0000,  999.0000,    5.7896,    5.5582,    5.5951,    6.3557,    6.2252,    6.2834,    6.0064,    5.9317,    6.6620,  999.0000,  999.0000,   10.6472,   10.8212,   10.7667,   10.8628,   10.9294,   10.9201,  999.0000,   12.0510,   12.8509,   13.5036,   14.2303,   15.0078,   15.6217,   16.3424,   16.6691,   18.0820,   19.0130,   19.8648,   20.1931,   20.4604,   21.9395,   23.6214,   24.8109,   27.0665,   29.8677,   32.1651,   33.6472,   34.3280,   35.1637,   36.3785,   38.7116,   39.9726,   38.7724,   39.2932,   38.9314,   38.4694,   39.8360,   41.7002,   43.9726,   45.4307,  999.0000,  999.0000,   45.2682,   44.0980,   45.1402,   43.8091,   44.1726,  999.0000,   47.4772,   47.1194,
 29-OCT-1996 11:31:34.79,  999.0000,  999.0000,  999.0000,  999.0000,  999.0000,  999.0000,    5.9753,    6.4684,    6.4472,    6.4786,  999.0000,  999.0000,    7.5058,    6.8885,  999.0000,  999.0000,   10.7573,   10.8453,   10.7949,  999.0000,  999.0000,   10.9457,   12.2588,   12.0993,   12.8176,   14.0323,   14.9755,   14.8473,   15.8849,   16.4061,   17.9161,   18.4610,   19.4594,   20.1848,   19.7385,   21.8984,   23.6015,   25.0567,   27.4415,   30.4207,   32.7934,   34.0226,   34.7353,   35.5924,   36.8996,   38.9411,   40.1293,   38.6757,   39.1108,   38.4507,   37.8575,   39.1189,   40.9320,   43.0692,   44.0008,   42.8419,   43.2502,   44.3164,   43.3519,   44.4771,  999.0000,   44.5262,   45.9748,   47.1143,   47.0953,
 29-OCT-1996 11:34:14.00,    7.1773,    8.2379,    8.0565,  999.0000,    5.8317,    5.7866,    6.6944,    6.7071,    6.0767,    5.9587,    5.6113,    6.6114,    7.0800,    6.4376,  999.0000,  999.0000,   10.8492,   10.9448,  999.0000,   10.9460,   10.8779,   11.2261,   12.1989,   12.7434,   13.1662,   14.2816,   15.0834,   14.4446,   15.9896,   16.7754,   17.8069,   18.4766,   19.5293,   20.2838,   19.9381,   21.5453,   23.3082,   25.0589,   27.2844,   30.2628,   32.4513,   33.4390,   34.5087,   35.1769,   36.8773,   37.8244,   39.5080,   38.7833,   38.3255,   37.9855,   37.4461,   38.5162,   40.0485,   42.1084,   42.8704,   42.7079,   43.3802,   42.7166,   42.2821,   44.1057,  999.0000,  999.0000,  999.0000,  999.0000,  999.0000,
 29-OCT-1996 11:36:53.20,    6.1441,  999.0000,  999.0000,  999.0000,    6.2744,    6.0959,  999.0000,    6.9791,    6.8819,    7.0975,  999.0000,    8.2614,    8.5020,    7.5247,  999.0000,  999.0000,  999.0000,  999.0000,  999.0000,   10.9176,   11.0952,  999.0000,   12.5506,   12.2062,   12.8811,   14.3330,   14.8568,   15.1109,   16.1987,   16.4746,   18.0807,   19.5464,   20.1810,   19.4487,   19.9642,   21.3660,   23.4670,   25.3541,   27.4534,   29.9332,   31.8175,   33.2090,   33.9274,   34.3835,   35.5754,   36.9485,   39.5072,   39.0761,   38.2306,   37.7223,   37.7846,   39.2368,   40.4242,   42.2559,   42.9736,   43.1724,   43.4117,   42.3729,   42.6360,  999.0000,   43.6333,   43.2398,   44.0870,   46.2166,   46.7369,
 29-OCT-1996 11:39:30.58,  999.0000,  999.0000,  999.0000,    6.5418,    6.7980,    7.4252,    7.6603,    7.7346,    7.8688,    8.2587,  999.0000,  999.0000,    8.6174,    7.6888,    7.5999,  999.0000,  999.0000,  999.0000,  999.0000,  999.0000,  999.0000,  999.0000,  999.0000,   12.6095,   13.2606,   14.4429,   13.7159,   14.7591,   15.3768,   16.2097,   17.9502,   19.7815,   19.3958,   18.0130,   18.9791,   20.3537,   22.2420,   24.2724,   26.4134,   29.0714,   31.7600,   33.2952,   34.2110,   34.5379,   36.4035,   37.8496,   39.8590,   39.4718,   38.2534,  999.0000,   39.0529,   40.4759,   40.6937,   42.4713,   43.4182,   43.9176,   43.2378,   41.8261,   42.5932,  999.0000,   43.3686,   43.1503,   43.7574,  999.0000,   45.7139,
 29-OCT-1996 11:42:08.26,    8.0380,    8.7723,    7.5910,    6.2542,    6.2737,    7.1265,    7.2791,    7.1849,    6.9498,    7.5477,  999.0000,    8.1549,    7.6714,    7.2452,  999.0000,    9.2970,   10.0418,   10.3741,  999.0000,  999.0000,   11.7754,   12.9321,   13.4679,   12.8695,   13.7617,   14.2054,   14.3218,   15.5496,   15.7444,   17.3014,   18.9950,   20.0105,   19.8221,   19.6770,   20.1160,   19.9926,   21.6033,   23.3517,   26.0965,   28.9599,   32.2437,   34.5022,   34.9693,   34.5628,   36.1934,   37.5979,   39.3645,   38.9541,   38.1640,   37.9815,   39.5314,   40.4061,   40.3894,   42.1268,   42.9467,   44.1588,   43.8297,   42.5080,   43.2633,  999.0000,  999.0000,   43.8989,   44.0123,   45.7891,   45.6691,
 29-OCT-1996 11:44:45.29,    6.9937,    7.5235,    6.6237,    6.0098,    5.9957,    6.3011,    6.0532,    5.8594,    5.9352,    6.0523,    6.2370,  999.0000,    6.7951,    6.6717,    8.0311,  999.0000,   10.5465,   10.5497,   10.5485,   10.8083,   11.0278,   11.5871,   11.8796,   13.2716,   14.0126,   14.0798,   15.0078,   14.9208,   15.8782,   17.6518,   19.6185,   19.6498,   19.7282,   19.9044,   19.6862,   20.4836,   21.5871,   23.5188,   25.7625,   27.8526,   30.9625,   34.0376,   34.4199,   33.4527,   35.1677,   36.9036,   39.4062,   39.3581,   37.7275,   37.7429,   38.8919,   40.0038,   40.1903,   41.8906,   42.7436,   44.3689,   44.2709,   43.9321,   44.1312,   44.8408,   43.6670,   45.0530,   44.9371,   46.2741,   46.4614,
 29-OCT-1996 11:47:25.04,    5.6456,    5.8941,    6.1228,    6.4063,    6.1746,    7.6143,  999.0000,  999.0000,    6.6813,    7.6595,    8.0183,    7.9647,    7.6482,    6.7826,    8.0369,   10.0672,   10.4061,   10.8591,   10.8689,   10.8312,   11.3421,   12.2967,   12.1153,   12.9335,   13.2411,   12.6872,   14.2277,   15.3097,   15.6742,   16.2107,   19.3107,   19.3651,   19.0541,   18.5847,   18.7317,   20.1894,   21.1032,   22.8819,   24.9969,   27.3702,   29.9618,   32.3456,   32.4305,   32.1661,   34.0201,   36.3452,   36.9893,   36.2705,   36.9805,   37.5309,   38.3195,   38.9249,   39.3935,   41.0688,   42.1869,   42.9022,   43.5213,   43.1247,   43.9641,   44.9708,   43.4795,   44.4620,   44.7466,   45.4286,   45.0872,
 29-OCT-1996 11:50:02.30,    6.0131,    6.7515,    6.7805,  999.0000,  999.0000,  999.0000,  999.0000,    7.2330,    6.6859,    7.1004,    7.6751,    8.3154,    8.5159,  999.0000,  999.0000,   10.8120,   10.9092,  999.0000,   10.8507,   10.7571,   11.4878,   11.9861,   12.3413,   13.0420,   13.4198,   13.3116,   14.0687,  999.0000,   14.7695,   16.3554,   19.0643,   18.5261,   19.4144,  999.0000,   18.4502,   20.2179,   20.4823,   22.0488,   24.6500,   26.8998,   29.4003,   32.1524,   32.9619,   32.4998,   34.5191,   37.2114,   37.5495,   36.7831,   37.3520,   37.5308,   38.2069,   39.0432,   39.7446,   41.0049,   42.4372,   43.3214,   43.1059,   43.0936,   43.3543,  999.0000,   42.8385,   43.3603,   44.5193,   44.8278,   45.4755,
 29-OCT-1996 11:52:39.60,    7.2167,    7.0705,  999.0000,    6.2630,    6.1657,  999.0000,  999.0000,    7.4359,    6.6546,    7.1517,    7.6359,    7.8399,    8.0875,  999.0000,  999.0000,  999.0000,  999.0000,  999.0000,  999.0000,   11.1425,   11.7630,   12.0799,   11.9892,   12.7607,   13.7177,   14.1041,   14.4675,   13.9584,   15.2389,   17.5003,   19.5313,  999.0000,  999.0000,   18.3459,   19.3484,   20.9440,   21.2864,   22.8952,   25.3082,   27.7531,   30.6933,   32.9624,   33.0244,   33.6783,  999.0000,   37.9906,   37.7494,   37.8080,   38.1016,   37.9530,   37.9890,   39.1067,   39.9434,   40.7930,   42.6859,   43.1334,   43.1824,   43.7013,   43.2455,  999.0000,   42.2622,   42.6313,  999.0000,   45.0884,   45.8803,
 29-OCT-1996 11:55:16.80,    8.4742,    7.7665,    6.8309,    6.4103,    6.9683,    7.7996,    8.0239,    7.4832,    6.5766,    7.7246,    8.1257,    8.2460,    8.3789,    6.7293,    7.7048,  999.0000,  999.0000,  999.0000,   11.0024,   11.1754,   11.8472,   11.6953,   11.8196,   11.9994,   12.8086,   13.2814,   14.3697,   14.1940,   15.8538,   17.9538,   19.3827,   18.1429,   18.5610,   18.3954,   20.1405,   21.2064,   22.2090,   23.5350,   25.2339,   28.0470,   31.2622,   33.3927,   32.8218,   34.5623,   37.2202,  999.0000,   37.8801,   38.5500,   39.0244,   38.7309,   39.4008,   39.9942,   41.3217,   42.3508,   42.9145,   42.3472,   43.2497,   44.1366,   43.5306,   44.3307,  999.0000,  999.0000,   45.1003,   45.2471,   46.8108,
 29-OCT-1996 11:57:54.55,    7.7527,    7.1280,    5.7897,    5.7422,    6.0166,  999.0000,    8.1379,    7.8096,    6.7691,  999.0000,    8.0532,    8.4226,    8.3852,    6.4988,    6.4862,  999.0000,  999.0000,  999.0000,   10.9081,   11.1711,   11.8005,   11.9913,   11.9596,   12.7905,   14.0293,   13.3514,   14.8590,   14.7977,   16.3856,  999.0000,  999.0000,  999.0000,   18.7416,   18.4895,   20.2628,   21.3164,   21.9382,   23.5034,   25.1390,   27.7486,   30.6344,   32.7333,   32.4826,   34.0375,   36.6172,  999.0000,   37.5031,   37.8181,   38.5472,   37.9144,   38.6733,   39.5640,   39.7267,   40.6959,   43.2260,   42.3892,   42.8428,   43.6397,   42.5341,  999.0000,   43.4561,   43.4387,  999.0000,  999.0000,   47.2263,
 29-OCT-1996 12:00:32.10,    5.4853,    5.1284,    5.4621,    5.8991,    6.2260,    7.4070,    8.2621,    8.1158,    7.1580,    7.4058,  999.0000,    8.3610,    8.5698,  999.0000,  999.0000,   10.0652,   10.3699,   10.8318,   10.9474,   11.1325,   11.7327,   11.6914,   11.7446,   12.9383,   14.4251,   13.7168,   14.7589,   14.4923,   16.1667,   17.7647,   19.3208,  999.0000,   18.1803,   18.7913,   20.2203,   21.3523,   21.2980,   22.8790,   24.6631,   27.2334,   30.0685,   32.1874,   32.0524,   33.0256,   35.1915,  999.0000,  999.0000,  999.0000,  999.0000,  999.0000,  999.0000,   39.2713,   41.2514,   42.2495,   42.1142,   42.2455,   43.9040,   43.7921,  999.0000,   44.6589,   44.2395,   43.9342,   44.4404,   45.7321,   48.0686,
 29-OCT-1996 12:03:09.48,    6.5759,  999.0000,  999.0000,    5.4467,    5.6655,  999.0000,  999.0000,  999.0000,    6.4041,    7.5605,    7.9897,    8.1135,    8.2776,    7.6287,    7.8869,    8.1906,    9.0528,   10.4970,   10.8095,   11.3787,   11.6887,   11.3099,   11.6011,   13.1135,   14.1953,   13.5122,   13.8658,   14.4591,   16.5332,   18.0861,   19.5677,  999.0000,   17.4865,   18.9009,   19.4771,  999.0000,  999.0000,   46.8249,  999.0000,   51.4126,  999.0000,  999.0000,   31.2749,   32.9057,   34.4790,   36.6784,   35.1603,   35.5284,   36.5242,   35.8146,   36.5332,   38.8283,   40.1220,   40.4308,   41.1905,   41.6016,   42.9446,   42.7417,   41.1380,   43.0600,   43.9469,   43.7361,   44.1109,   45.1577,   47.5996,
 29-OCT-1996 12:05:46.38,  999.0000,    3.9443,    3.7434,    4.2259,    5.3407,  999.0000,    7.1777,    7.4136,  999.0000,    6.9191,    7.3567,    7.8267,    8.1502,    7.6620,    7.5808,    7.7592,    9.0249,   10.1355,   10.5162,   11.4262,   11.6559,   11.3478,   11.5745,   12.8539,   14.2779,   13.6908,   13.5423,   14.6609,   17.1533,   18.4582,   17.2890,   17.5057,   17.5109,   19.0127,   19.8086,  999.0000,   20.9461,   22.0003,   23.5592,   25.6974,   28.4587,   30.5399,   30.7966,   32.6650,   35.0703,  999.0000,   34.8556,   35.2993,   37.1868,   36.7270,   36.4568,   38.5743,   39.7391,   40.2640,   41.0152,   41.6181,   42.2768,   40.9163,   40.3785,   42.3354,   43.6063,   43.5394,   43.7905,   45.1974,   46.7690,
 29-OCT-1996 12:08:23.61,    4.6126,  999.0000,  999.0000,  999.0000,    5.1392,    4.9385,    4.9325,    4.8572,    4.8927,    5.1960,    6.0397,    7.1273,    7.1492,    7.4724,    7.5180,    7.8780,    9.5001,   10.5704,   10.7837,   11.0280,   11.1275,   11.0857,   11.6462,   11.8449,   13.3514,   12.1135,   14.0655,   14.3532,   16.9840,   17.0764,   17.5127,   17.1404,   17.6181,   18.8754,   19.1248,   20.2252,   20.7610,   21.8384,   23.6108,   25.7869,   28.5201,   30.2126,   30.7985,   32.8423,   36.2645,   36.7258,   36.2488,   36.2592,  999.0000,  999.0000,  999.0000,   38.7906,   40.1283,   41.1519,   40.9171,   41.9825,  999.0000,  999.0000,  999.0000,   42.8819,   44.0230,   43.7118,  999.0000,   45.6271,   46.8570,
 29-OCT-1996 12:11:03.28,    5.2063,    4.7078,    3.9986,    3.9459,    3.8334,    3.0790,    2.8034,    2.8140,    2.9612,    3.7619,    5.1430,  999.0000,    5.7766,    5.7312,    5.6994,  999.0000,    8.8206,    9.6734,  999.0000,   10.9832,   10.7358,   10.3099,   11.3136,   12.1461,   13.3226,   12.7734,   13.4916,   14.0466,   16.4917,   18.0437,   16.9380,   16.8693,   17.6751,   18.4468,   18.9101,   20.1916,   21.3040,   22.1982,   23.9895,   25.8239,   28.5029,   30.1803,   30.5873,   32.6753,   36.4460,  999.0000,  999.0000,  999.0000,  999.0000,  999.0000,  999.0000,   38.6911,   39.9056,   40.7492,   41.5396,   42.8659,  999.0000,  999.0000,   41.9140,   43.1886,   43.9214,   44.3332,   43.6995,   44.4394,   46.1628,
 29-OCT-1996 12:13:42.45,  999.0000,  999.0000,  999.0000,    4.4205,    3.9587,    3.6816,    3.5643,    3.5771,    3.9153,    4.7935,    5.1053,    5.6226,    5.9590,    5.9296,    5.6223,    6.1228,    7.1051,    8.4821,   10.4868,   10.7521,   10.3778,   10.1286,   10.8221,    9.8520,    8.7989,   12.9061,   13.2123,   14.4568,   17.2061,   17.8943,   17.4462,   16.7615,   17.6576,   18.4207,   19.3120,   20.3198,   21.2902,   21.8479,   23.7574,   25.6353,   27.7577,   29.3898,   30.3191,   32.2046,   35.8849,   36.4712,  999.0000,   35.4483,   36.4921,   35.1715,   35.5655,   38.5460,   40.3116,   41.4658,   42.3550,   43.3265,  999.0000,  999.0000,   41.7908,   43.3092,   43.8933,   44.5596,   44.1707,  999.0000,   45.1209,
 29-OCT-1996 12:16:19.97,    5.1255,  999.0000,    4.6105,    4.6629,  999.0000,    5.3752,    5.4535,    5.3857,    4.2415,    4.4989,  999.0000,    5.8878,    6.8878,    6.6289,    5.8750,    6.4238,    7.2472,  999.0000,  999.0000,   10.5130,    9.7455,    9.4991,   10.9540,    6.6402,  999.0000,   10.9692,   13.1251,   14.3627,   17.2927,   17.6785,  999.0000,  999.0000,   17.7677,   18.6985,   20.3535,   20.7968,   21.8269,   22.2881,   24.4879,   26.8605,   29.0613,   29.9712,   31.2018,   33.6771,   34.1637,   36.0859,  999.0000,   35.7439,  999.0000,  999.0000,  999.0000,   38.7726,   40.2338,   41.6650,   42.5672,   42.9735,  999.0000,  999.0000,   41.3641,   42.1708,   43.2749,   43.5014,   43.4795,   44.4076,   44.6303,
 29-OCT-1996 12:18:57.17,  999.0000,  999.0000,  999.0000,    5.3616,    5.3437,    5.4427,  999.0000,  999.0000,    3.8787,    4.5395,    4.8355,  999.0000,  999.0000,    5.9998,    6.1573,    6.4580,    7.1753,    9.6365,   10.0325,    9.8924,    8.9047,    9.4963,   10.4067,  999.0000,   10.8585,   12.1939,   13.0830,   14.2499,  999.0000,   17.1722,   16.2886,   16.6013,   17.7882,   19.1700,   20.9807,   20.9895,   21.5648,   21.9997,   24.5465,   26.5852,   28.7396,   29.8147,   31.4791,   34.2306,  999.0000,   35.6388,  999.0000,   35.3912,   36.7903,   36.4695,   36.6091,   38.8590,   39.7038,   41.1638,   42.3758,   42.9695,   40.9187,  999.0000,   41.2813,   42.1639,   43.6854,   43.7533,   42.7415,   44.0726,   43.9322,
 29-OCT-1996 12:21:36.37,    4.4236,  999.0000,    4.8609,    4.7802,  999.0000,    5.1788,    5.5021,    5.4799,    5.0728,    5.2606,  999.0000,    6.0277,    6.8776,    7.0030,  999.0000,    8.4268,    8.0728,  999.0000,  999.0000,  999.0000,  999.0000,   10.7615,   11.5131,    1.4180,    3.1411,   13.0637,   13.0603,   14.0277,  999.0000,  999.0000,  999.0000,   16.9496,   18.2516,   19.6012,  999.0000,  999.0000,   21.9340,   22.0192,   24.6211,   27.2596,   28.8760,   29.7166,   31.4363,   34.4552,  999.0000,   35.0172,   33.4085,  999.0000,  999.0000,   36.9170,   37.4669,  999.0000,  999.0000,  999.0000,  999.0000,  999.0000,  999.0000,  999.0000,   41.6240,   42.1483,   43.5667,   43.1043,   43.0656,   43.5221,   43.0632,
 29-OCT-1996 12:24:15.43,    4.0757,  999.0000,    4.7118,    4.3532,    4.8741,  999.0000,    5.2709,    5.1431,    5.1940,  999.0000,    5.8065,    6.1600,  999.0000,    8.6522,    8.4232,    8.4528,    8.2561,    9.6024,  999.0000,  999.0000,  999.0000,   10.4187,   10.2217,    9.2077,    9.2126,   13.5323,   13.6355,   15.3270,  999.0000,   16.9397,   16.0964,   17.1986,   18.6190,   19.0810,   20.1156,   20.2519,   21.8803,   21.9349,   23.6879,   26.4505,   28.5572,   29.4293,   30.9962,   34.0070,   36.0164,   34.5198,  999.0000,   35.3925,   36.3509,   36.5806,   37.4815,   38.4506,   39.9333,   41.2123,   42.5830,  999.0000,  999.0000,  999.0000,   41.8362,   42.3315,   43.2625,   43.1513,   43.4799,  999.0000,   43.5240,
 29-OCT-1996 12:26:52.41,    4.9390,  999.0000,  999.0000,  999.0000,  999.0000,  999.0000,  999.0000,    3.6648,    4.5191,  999.0000,  999.0000,  999.0000,    7.4420,    7.8311,    7.3440,  999.0000,  999.0000,  999.0000,    9.8367,    9.4525,    9.0527,   10.3824,   10.6043,   11.8455,   12.9130,   13.0652,   13.1684,   15.2393,  999.0000,   16.3145,   16.1796,   17.3342,   18.3815,   18.5914,   19.6937,   20.4521,   21.4477,   21.8023,   23.7757,   26.2828,   28.2386,   29.1049,   30.9375,   33.8237,  999.0000,   34.7495,   33.7073,   35.4593,   36.3820,   36.8236,   38.6256,   39.6324,   40.5720,   42.0999,  999.0000,  999.0000,  999.0000,  999.0000,   42.5068,   42.6855,   43.6245,   42.5936,  999.0000,  999.0000,  999.0000,
 29-OCT-1996 12:29:29.50,    5.9623,  999.0000,    4.8888,    3.9552,    4.1758,    3.5641,    3.5012,    3.7722,    4.5055,    5.7490,    5.6180,  999.0000,    7.2342,    7.5896,    6.9692,    7.1485,    7.5588,    9.0184,    9.7160,    9.1477,    8.0812,  999.0000,   10.2255,    9.2619,    8.1228,   12.6455,   13.1035,   15.7834,   16.3392,   16.0546,   16.6107,   16.9409,   19.2005,   19.1814,   20.2349,  999.0000,   21.8089,   23.1021,   25.1078,   27.4438,   28.6117,   30.1152,   31.1717,  999.0000,   36.0385,   35.5230,  999.0000,   35.3285,   36.3932,   37.1058,   39.2976,   40.1235,   40.6348,   42.1846,  999.0000,  999.0000,  999.0000,  999.0000,  999.0000,  999.0000,  999.0000,  999.0000,  999.0000,  999.0000,  999.0000,
 29-OCT-1996 12:32:06.37,    6.0689,    5.6125,    5.1171,    5.1343,  999.0000,  999.0000,    4.9983,    4.1933,    4.4059,  999.0000,  999.0000,    7.0238,    7.7109,    7.8692,    7.7688,    7.9330,    8.5778,    9.3325,    9.9086,    9.7727,    9.7706,   10.6017,   10.9774,   12.0240,   13.2675,   13.0154,   13.4243,   15.7356,   16.7262,   16.0769,   17.0255,   18.0766,   19.0384,   19.4508,   20.3766,   20.3977,   21.4185,   21.7739,   24.0347,   26.5854,   28.1129,   29.7981,   30.5328,   32.6441,   34.4977,   34.4965,  999.0000,   35.0870,   36.3813,   37.5527,   39.1808,   39.5581,   40.3588,   42.0988,  999.0000,   41.5813,  999.0000,   40.8766,   42.7426,   43.0428,   43.4178,   43.0565,  999.0000,  999.0000,  999.0000,
 29-OCT-1996 12:34:43.32,    5.7189,    5.5308,    5.3720,    5.6408,    5.5114,    5.8105,    6.0764,  999.0000,    7.8921,    8.0202,    7.1450,    8.0284,    9.0557,    8.9889,    8.2296,    8.3146,    8.2819,    9.3594,   10.0678,    9.8208,    9.6903,   10.6660,   11.1972,   11.9555,   13.2854,   13.1695,   13.7478,   15.6420,   17.0088,   16.0216,   16.7632,   18.1812,   18.6879,   19.5364,   20.6355,   21.0269,   21.4202,   22.2422,   24.0900,   26.2655,   27.9857,   29.6335,   30.4951,   32.8060,   33.9691,   34.0045,   32.8709,   34.5873,   35.8443,   36.5896,   38.4784,   39.7046,   41.0647,   41.9442,  999.0000,   41.7349,   40.1936,   41.1379,   42.3712,   42.3402,   43.4593,   42.3135,  999.0000,   43.9985,   44.4957,
 29-OCT-1996 12:37:22.43,    5.5579,    5.3595,    5.5498,    5.7115,    5.1655,    5.1642,    5.2959,  999.0000,  999.0000,    7.8920,    7.7476,    8.0481,    9.5107,    9.8867,    8.5264,    8.6685,    8.2127,    9.0979,    9.8593,   10.1047,   10.0485,   10.2919,   11.2667,   11.2798,   11.9307,   12.2117,   13.1193,   15.3984,   16.9945,   15.8763,   16.9968,   18.9067,   19.0124,   19.4361,   20.6901,   21.7478,   22.2079,   23.0844,   24.5199,   25.8576,   27.8256,   29.1273,   30.2636,   32.5719,   33.8523,   33.8280,  999.0000,   34.7832,   36.1269,  999.0000,  999.0000,  999.0000,   41.0053,   42.2612,  999.0000,   40.9598,   39.6363,   41.0616,  999.0000,   41.7969,  999.0000,   41.8679,  999.0000,  999.0000,   42.4101,
 29-OCT-1996 12:40:01.65,  999.0000,    3.9921,    4.5656,  999.0000,  999.0000,  999.0000,  999.0000,  999.0000,    7.6308,    7.7744,    7.9457,    8.1270,  999.0000,    9.5137,    8.7868,  999.0000,    8.4273,    8.3328,    8.7078,    9.3229,    9.5444,  999.0000,   10.0895,   11.9643,   13.0057,   12.2109,   13.6204,   15.7994,   16.6712,   15.9244,   17.1089,   18.3061,  999.0000,  999.0000,   20.4315,   21.5200,   21.7408,   22.7145,   24.8261,   26.6332,   28.4716,   29.3858,   31.0910,   33.1883,   34.4141,   34.3087,   32.5981,  999.0000,  999.0000,   37.4737,   38.6023,   40.0054,   41.5516,   42.5291,   42.9201,  999.0000,  999.0000,   40.2101,   41.5885,   41.9902,   42.4225,   42.5694,  999.0000,   44.4387,  999.0000,
 29-OCT-1996 12:42:41.18,    4.7494,  999.0000,  999.0000,  999.0000,    3.5752,    3.5443,    3.2225,  999.0000,  999.0000,  999.0000,  999.0000,  999.0000,  999.0000,  999.0000,    8.8956,    9.2067,    9.3469,    8.8661,    8.5775,    8.8011,  999.0000,  999.0000,  999.0000,  999.0000,  999.0000,   11.6242,   13.1712,   15.1887,   16.2020,   15.8306,   17.0635,   18.7379,   19.5021,   19.3676,   20.4078,   21.6864,   22.2085,   23.3986,   24.6527,   26.5719,   27.9812,   28.9474,   30.8800,   33.2606,   34.7766,   35.1609,  999.0000,  999.0000,   36.6161,   37.2444,  999.0000,  999.0000,   41.3847,   42.9015,   43.4599,   41.6085,   40.6495,   41.1470,   42.0145,   42.4197,  999.0000,   42.0818,   43.2717,  999.0000,  999.0000,
 29-OCT-1996 12:45:20.75,    5.1255,    5.1176,  999.0000,    5.0508,    5.0204,    5.3104,  999.0000,  999.0000,  999.0000,  999.0000,    6.8235,    6.8669,  999.0000,  999.0000,  999.0000,    8.1000,    7.9883,    9.2336,    7.3048,    6.5844,    6.7780,  999.0000,  999.0000,    9.5400,   10.1784,   11.8735,   12.9758,   14.6712,   15.2670,   15.3771,   17.0939,   18.1374,   18.6819,   19.2668,   20.1527,   20.8724,   21.2866,   22.4745,   23.6662,   25.2937,   27.2919,   28.6389,   30.6314,   32.6296,   34.2125,   35.0510,  999.0000,  999.0000,  999.0000,  999.0000,  999.0000,   38.6189,   39.8506,   42.4165,   43.3832,   42.0550,  999.0000,  999.0000,  999.0000,  999.0000,   43.9776,   42.5079,   43.0517,   45.2008,   45.0260,
 29-OCT-1996 12:47:58.49,    4.3471,    4.2324,    3.5728,    4.6908,  999.0000,  999.0000,  999.0000,  999.0000,    5.5520,    5.7566,    4.0235,    3.3721,  999.0000,  999.0000,    6.4624,    5.3879,    5.5016,  999.0000,    4.5534,    2.7166,    1.2307,    3.7802,    4.3968,    1.8661,  999.0000,  999.0000,   13.1455,   14.7843,   15.7139,   15.1796,   16.6553,   17.3315,   18.1655,   19.0842,   19.6601,   20.3293,  999.0000,   22.1333,   23.0160,   24.7339,   26.7160,   28.2124,   29.7172,   31.2878,   32.7827,   33.3300,  999.0000,  999.0000,  999.0000,  999.0000,  999.0000,   38.1081,   39.5491,  999.0000,  999.0000,  999.0000,  999.0000,   39.6851,   41.3608,  999.0000,  999.0000,  999.0000,  999.0000,  999.0000,  999.0000,
 29-OCT-1996 12:50:35.93,    4.7348,    4.6753,    4.5773,    4.9943,    5.1742,    5.3655,    5.4460,    5.3926,  999.0000,  999.0000,  999.0000,  999.0000,   10.8066,   11.0276,    9.9285,    9.1875,    8.8601,    8.7212,    8.9596,    8.9085,  999.0000,   10.4928,   11.5030,   12.0568,   11.2405,   12.5299,   13.3446,   14.6530,   15.9928,   14.7093,   15.9372,   17.2294,   18.3477,   19.0620,   19.3510,   20.7381,   21.4371,   21.3171,   22.7768,   24.8432,   27.0326,   28.1233,   29.8716,   31.9546,   34.3311,   33.7240,  999.0000,   33.5478,   35.7170,   36.7328,   37.3676,   38.6154,   39.9247,  999.0000,  999.0000,  999.0000,  999.0000,   39.2751,   40.9163,   42.3382,   42.8247,   42.7892,  999.0000,   45.0027,   45.6864,
 29-OCT-1996 12:53:13.07,    4.9478,    4.9112,    5.3193,    5.4944,    5.5741,    5.4806,    5.2975,    5.3940,    5.4309,    5.8528,    6.6265,  999.0000,   10.3363,   10.6821,  999.0000,    8.2758,    8.5098,    8.7320,    8.9419,    9.4113,    9.5858,   11.3680,   11.5776,   10.2915,   11.4580,   12.6584,   13.2999,   14.8472,   14.8979,   14.2464,   15.4280,   16.9079,   18.4820,   19.2306,   19.3662,   19.8775,   20.7512,   21.2483,   22.5570,   25.2492,   27.8126,   28.6012,   30.1317,   32.3602,   34.5323,   34.3595,  999.0000,   33.3204,   35.1193,   35.9582,   37.0611,   38.7309,   40.0166,   41.6962,  999.0000,  999.0000,  999.0000,  999.0000,   40.3560,   41.9519,  999.0000,  999.0000,  999.0000,  999.0000,  999.0000,
 29-OCT-1996 12:55:52.82,    5.3864,  999.0000,    5.1994,    5.6882,    5.8291,    5.4644,    5.0106,  999.0000,  999.0000,  999.0000,  999.0000,  999.0000,    9.8741,   10.1687,    9.9491,    9.2927,    9.1653,    9.2564,    9.3302,    9.3414,  999.0000,   12.0194,   12.3543,   10.9109,   12.1424,   12.7414,   13.8251,   15.4299,   15.7287,  999.0000,   12.7521,   16.8548,   17.9577,   19.0313,   19.7513,   19.7880,   20.8145,  999.0000,   23.3952,   25.4201,   27.4342,   28.2094,   29.5816,   32.2434,  999.0000,   32.0552,  999.0000,   33.3824,   35.4622,   36.2147,   37.2501,   39.0891,   40.0818,   41.2442,  999.0000,  999.0000,  999.0000,   39.0281,   40.6580,   41.8161,   42.0982,   41.5728,   41.6172,   44.4066,   45.0827,
 29-OCT-1996 12:58:32.85,    5.1984,    4.6319,    4.1324,  999.0000,  999.0000,  999.0000,  999.0000,    4.9762,    5.0017,    5.2478,  999.0000,    7.3387,    8.2576,    8.3310,    8.0716,    8.1149,    8.0114,    8.3123,    8.3530,    8.7728,   10.4357,   11.5351,   12.4666,   12.0162,   12.1787,   12.0878,   14.2519,   15.3584,   16.0832,   14.4153,   15.1849,   17.2912,   18.2769,   19.3963,   20.1006,   19.8067,   20.3083,   20.9150,   22.6220,   25.1379,   26.6190,   27.2648,   28.9584,   31.7034,   33.1982,   31.4552,   31.2803,   33.4816,   34.9746,   36.2241,   37.8720,   39.3573,   40.0194,   41.2989,   42.0801,  999.0000,  999.0000,  999.0000,   41.1594,   42.5031,   43.2861,   42.1620,   42.7963,   45.4886,   46.0679,
 29-OCT-1996 13:01:09.95,    4.1927,    3.9740,    3.4930,  999.0000,  999.0000,  999.0000,  999.0000,    5.8196,    5.8547,    5.8201,    6.2629,    7.8146,    8.7538,    8.8680,    8.8785,    7.8427,    7.9020,    8.0370,    8.1929,    9.5737,   10.3899,   10.9344,   12.3034,   10.4540,   11.6958,   12.1468,   14.2825,   15.2378,   15.2067,   13.9463,   15.4366,   17.4489,   18.4743,   20.0328,   20.3948,   20.3900,   20.5953,   21.7855,   24.0255,   26.0754,   26.8295,   27.5960,   29.4604,   31.7469,   33.4021,   33.3741,  999.0000,  999.0000,   35.6730,   36.5586,   36.5709,   37.9907,   39.3394,   40.8850,   41.8732,   40.2974,  999.0000,  999.0000,   40.8648,   41.9704,   42.6083,  999.0000,   44.8754,   45.4351,  999.0000,
 29-OCT-1996 13:03:47.27,    3.4916,    4.0017,    4.0587,  999.0000,  999.0000,  999.0000,  999.0000,  999.0000,  999.0000,  999.0000,    7.3530,    8.2678,    9.4158,    9.7968,    9.7975,  999.0000,    8.4374,    8.3004,    7.9836,    9.3013,   10.6973,   11.5725,   11.4871,   11.0906,   11.6388,   12.1562,   13.8892,   15.4142,   15.1057,   13.7593,   15.0168,   16.3053,   19.0949,   20.5727,   20.1763,   20.1321,   20.3205,   21.6365,   23.7506,   25.5401,   26.0203,   26.4608,   28.5943,   31.0875,  999.0000,   32.4747,  999.0000,   33.4499,   34.9259,   35.5346,   36.3043,   37.4896,   38.9466,   40.4098,   41.7885,   40.8071,   39.1485,   39.4436,   41.1226,   41.8647,   41.7569,   41.9857,   44.4313,   45.0306,  999.0000,
 29-OCT-1996 13:06:24.66,    4.9576,    5.0220,    5.0042,    5.1810,    5.1840,  999.0000,    7.4978,    7.9456,    7.4988,  999.0000,    8.7611,    9.5614,  999.0000,  999.0000,  999.0000,    7.9013,    8.4269,    8.3899,    9.0432,    9.2714,   10.0496,   10.7036,  999.0000,   12.0116,   11.8856,   12.5989,   14.0448,   14.0988,   15.4213,   14.4157,   15.9737,   18.3450,   19.8582,   20.7572,   20.5186,   19.9249,   20.1379,   21.4641,   23.8473,   25.2597,   25.9275,   26.3334,   28.1076,   30.8240,   32.4357,   31.0519,   30.8176,   33.6966,   34.8355,   35.6236,   37.4404,   38.9253,   39.9223,   41.0494,  999.0000,  999.0000,   39.7906,   40.8462,   42.0202,   43.4536,   42.8852,   42.7821,   44.5127,   44.8741,   44.1872,
 29-OCT-1996 13:09:03.76,    4.0975,    4.5539,  999.0000,  999.0000,  999.0000,  999.0000,  999.0000,  999.0000,    5.9874,    6.8283,    8.6530,    9.6090,    9.5879,    8.8502,    8.1907,    8.0738,    8.4212,    8.6366,    9.3783,   10.2849,   11.3442,  999.0000,  999.0000,   11.8606,   11.6430,   12.3185,   13.6492,   15.0693,   15.0984,   15.0037,   16.6490,   18.8583,   20.1333,   21.1332,   20.0796,   19.7265,   20.3881,   22.0401,   24.0099,   24.6702,   25.7322,   26.1515,   28.2233,   30.7777,   32.2176,  999.0000,   30.6721,  999.0000,  999.0000,   36.0264,   37.5709,   38.9325,   40.2440,   41.4713,   42.2801,  999.0000,  999.0000,   40.3796,   41.8491,   43.3333,  999.0000,   43.5940,   44.2747,   44.4613,   43.3251,
 29-OCT-1996 13:11:40.71,    4.3292,    4.2894,    4.1702,    4.1117,  999.0000,  999.0000,  999.0000,  999.0000,  999.0000,  999.0000,  999.0000,    9.6057,    9.7312,    8.8024,    7.9063,    7.9821,    8.2368,    8.4639,    9.2476,   11.1346,   11.7974,   11.5014,   11.5680,   12.0186,   11.6498,   12.0579,   13.3514,   14.6602,   14.8672,   14.2568,   16.5239,   18.5666,   20.0641,   20.8021,   20.1677,   19.5707,   20.6809,   22.3690,   24.2787,   24.7136,   25.9777,   26.1370,   28.6073,   31.0111,   31.2457,  999.0000,   30.7705,   32.9457,   34.7277,   36.0578,   37.4948,   38.7739,   39.8301,   40.5532,   41.5213,  999.0000,  999.0000,   39.7969,   41.3948,  999.0000,   41.2551,   42.1838,   44.0951,   45.0678,  999.0000,
 29-OCT-1996 13:14:17.67,  999.0000,    4.0786,    3.7627,    3.7091,    3.7749,    3.5026,    4.4088,  999.0000,    7.2185,    8.0415,    9.1997,  999.0000,  999.0000,    7.2675,    7.2681,    7.9083,    8.2360,    8.8648,    9.5206,   10.4246,   11.4732,   11.7432,   12.2971,   12.0587,   11.7801,   11.6169,   13.1016,   13.8819,   14.7646,   14.6580,   16.1319,   17.7704,   18.8352,   20.0913,   20.1112,   18.7536,   19.9747,   21.2173,   23.0614,   23.4676,   24.4179,   24.9096,   27.7850,   30.2415,   30.0726,  999.0000,   30.4241,   32.9893,   34.6068,   35.8217,   37.0853,   37.8886,  999.0000,  999.0000,  999.0000,  999.0000,  999.0000,  999.0000,   41.6823,  999.0000,   41.4545,  999.0000,   44.2021,   45.0136,  999.0000,
 29-OCT-1996 13:16:59.33,    5.3972,    4.0612,    3.7844,    3.3579,    3.1880,    3.1050,    3.4970,    5.3482,    6.9635,    7.9680,    9.0220,    9.7334,    9.4732,    7.5552,    7.3294,    8.0328,    8.2172,    8.7807,    9.1945,    9.4691,   11.0251,   11.2647,   11.7052,   10.9999,   10.6437,   12.0634,   13.4895,   14.5069,   15.2405,   14.3047,   16.1820,   18.0524,   18.8768,   20.5902,   21.0339,   19.1338,   20.0065,   21.0534,   22.8106,   23.9283,   25.3332,   25.3351,   28.0587,   30.2984,   30.1703,   29.3225,   30.7564,   33.3512,   34.7649,   35.6088,   36.8623,   37.6160,   38.6924,   38.7576,   39.4130,  999.0000,   39.0926,   38.7570,   40.8255,   42.3553,   41.8931,   42.4500,   44.6039,   44.3534,   43.8692,
 29-OCT-1996 13:19:38.47,    5.4617,    4.6398,    4.1502,  999.0000,    2.9693,    2.8981,  999.0000,    5.2007,    5.4873,    7.2248,    9.1082,    9.8282,    9.9505,    8.9384,    8.2105,    7.6132,    8.0766,    9.2070,    9.8467,   10.2768,   12.0138,   11.8733,   11.1993,   11.2229,    9.8377,   10.9403,   12.6359,   14.9677,   14.9385,   15.0473,   17.0202,  999.0000,  999.0000,   20.8572,   20.6714,   19.1204,   20.0768,   21.6529,   22.6800,   24.3812,   25.7161,   25.6125,   28.0804,   29.4993,   30.2790,   29.6356,   31.5621,   34.1974,   35.7136,   36.6204,   38.1068,   39.1103,   39.8311,   39.9561,   40.7912,  999.0000,   38.9176,   38.6781,   40.6846,   41.2780,   42.1182,   42.3505,   43.5468,   44.0434,   44.5127,
 29-OCT-1996 13:22:17.45,    5.1471,    4.3363,    4.0136,    3.0840,    3.3823,    3.6723,  999.0000,  999.0000,  999.0000,    7.2711,    8.5616,    9.1113,    9.1461,    8.9110,    8.3281,    8.1028,    8.8533,    9.7470,  999.0000,   10.6685,   12.5216,   12.9309,   11.8552,    3.4388,    5.3058,  999.0000,  999.0000,  999.0000,   15.1094,   15.3376,   17.1664,   18.3933,   19.3606,   20.5833,   19.9829,   19.8166,   20.9285,   22.7715,   23.9641,   26.1150,   26.0942,   25.8048,   28.0688,   28.8792,   29.5295,   29.3024,  999.0000,   33.4672,   35.3329,   36.4084,   37.1584,   37.9379,   38.8723,   39.2692,   40.4043,   41.8031,  999.0000,  999.0000,   40.2853,  999.0000,   40.9969,   41.7386,   43.1904,   43.0588,   43.6581,
 29-OCT-1996 13:24:54.66,    4.2774,  999.0000,  999.0000,  999.0000,    4.3640,    5.0920,    5.4799,    5.4972,    5.5772,  999.0000,    8.4217,    9.6341,    9.9275,    9.0369,    7.8666,    7.6139,    8.8533,    9.9610,   10.3429,   11.0172,   12.7549,  999.0000,  999.0000,  999.0000,    8.3196,   12.9603,   14.1892,   15.8266,   15.1304,   16.1277,   17.8749,   18.6281,   19.5545,   19.7645,   19.1000,   19.6201,   20.6916,   21.5547,   22.9852,   25.1971,   25.2605,   24.9143,   26.7961,   27.4675,   28.7162,   28.5033,   30.0214,   32.8241,   34.6920,   35.0855,   35.8852,   37.1218,   38.2161,   38.5861,   39.3937,  999.0000,  999.0000,  999.0000,  999.0000,   40.9753,   39.4837,   40.3832,  999.0000,   41.7830,   42.9494,
 29-OCT-1996 13:27:33.75,    4.8948,    4.2065,  999.0000,  999.0000,    4.7152,    4.9271,  999.0000,  999.0000,    5.9686,    7.2165,    8.9863,  999.0000,  999.0000,  999.0000,    7.9018,    7.8493,    8.9092,  999.0000,   10.6871,   10.9640,  999.0000,   13.1995,   13.0566,   10.0936,  999.0000,  999.0000,  999.0000,   15.9459,   14.9718,   16.7521,   17.9780,   18.7058,   19.5274,   19.9182,   19.4982,   19.8521,   20.7214,   21.5031,   23.8869,   25.4624,   25.1517,   25.5695,   27.1908,   27.4157,   28.3003,   28.1479,   29.7794,   33.2338,   34.5269,   34.5371,   36.0704,   37.1130,   37.7711,   38.1036,   39.2651,   41.0785,   40.7026,  999.0000,   39.4169,   40.0881,   39.6883,   41.3097,   42.8932,   42.2391,   43.0009,
 29-OCT-1996 13:30:12.88,    4.0535,    2.7309,  999.0000,  999.0000,  999.0000,    5.6231,    5.6387,    5.5852,    7.0838,  999.0000,  999.0000,   10.7149,   10.5110,    9.7678,  999.0000,  999.0000,  999.0000,   10.1594,   10.7469,   11.3016,   12.9222,   13.2474,   13.0462,   11.7408,   11.6045,   12.8551,   14.4233,   15.6285,   15.0077,   17.1461,   18.1595,   19.1468,   19.4463,   20.0844,   19.0481,  999.0000,   20.6501,   21.8754,   24.4324,   25.5290,   25.1996,   25.9292,   27.2007,   27.9615,   28.8611,  999.0000,   30.7203,   33.6500,   34.7695,   35.3113,   37.1524,   38.0691,   38.3029,   38.9362,   40.4832,  999.0000,  999.0000,  999.0000,   39.5585,   40.3976,   41.0094,   42.0666,   42.8062,   42.8890,   43.1857,
 29-OCT-1996 13:32:49.84,    4.3057,  999.0000,  999.0000,  999.0000,    5.5653,    5.6485,  999.0000,  999.0000,  999.0000,  999.0000,  999.0000,   10.3547,   10.1279,    9.1134,    8.5360,    8.9424,    8.9743,    9.9586,  999.0000,   10.9570,   12.0477,   12.5168,   12.4740,   10.3273,  999.0000,   11.8946,   13.8770,   14.7210,   14.9220,   16.4367,   18.2770,   19.0979,   19.5302,   19.8187,   19.3060,   20.6003,   20.0491,   21.4174,   24.0651,   24.9110,   24.4714,   25.4046,   26.8050,   27.5690,   28.1823,   27.8086,   30.0852,   32.6188,   34.4255,   35.4184,   37.1045,   38.3954,   38.5288,   38.8676,   40.6182,  999.0000,   40.8508,   39.5891,   40.0992,  999.0000,   41.2257,   41.8868,   42.0665,   42.3166,   43.2985,
 29-OCT-1996 13:35:29.01,    5.0909,  999.0000,    4.9849,    5.2990,    5.4406,    5.7673,    5.8756,    5.8617,    6.5674,    8.3553,  999.0000,   10.7207,   10.7877,  999.0000,  999.0000,    8.6319,    8.6646,  999.0000,   10.0038,   10.8277,  999.0000,   12.1075,   12.1767,   10.5766,    9.5164,   10.8642,   14.0578,   15.2090,   14.7476,   16.5901,  999.0000,  999.0000,   19.6854,   19.9309,   18.7321,   19.5510,   20.0556,   21.8309,   24.8497,   25.6251,   24.7333,   25.8754,   27.4271,   28.2728,   27.8450,   28.0239,   29.8170,   32.6201,   34.4520,   35.7985,   36.8575,   37.6444,   38.4168,   38.5918,   39.3497,   40.3145,   39.7137,   39.3930,   39.7871,   39.6919,   40.1386,   41.2942,   41.6044,   41.7796,   41.9594,
 29-OCT-1996 13:38:05.97,    4.4189,    4.1808,    4.1853,    4.5636,    5.0753,    5.6459,    6.0426,    6.0978,    6.4063,    8.0361,  999.0000,  999.0000,   10.7167,   10.1629,    9.1423,    9.2512,    9.4569,   10.4136,   10.4001,   10.7910,   12.1375,   12.6377,   12.4397,  999.0000,  999.0000,   12.6045,   14.5510,   15.3279,   15.3499,   17.4034,   19.3515,   20.2364,   20.4742,   20.2717,   19.2585,   20.0057,   20.9033,   23.5483,   25.1267,   24.9491,   24.3672,   26.8013,   27.7218,   28.0532,   27.4832,   28.7800,   30.7632,   33.0859,   34.5807,   36.6321,   37.3338,   37.7756,   38.5686,   38.9853,   39.4390,   40.1050,   40.0546,   39.7098,   40.1784,   40.4716,   41.0618,   41.7049,   41.8300,   41.8049,   41.9701,
 29-OCT-1996 13:40:44.00,    3.5369,  999.0000,  999.0000,    4.7130,    5.1680,    5.4203,    5.7268,    5.9648,    6.5121,    8.1380,  999.0000,   10.3714,   10.2035,    9.4381,  999.0000,  999.0000,  999.0000,  999.0000,  999.0000,   11.2689,   11.7939,   12.3731,  999.0000,   10.3175,    9.4769,  999.0000,   13.6043,   14.3827,   16.1643,  999.0000,   18.6114,   19.6244,   19.8018,   20.1406,   18.7726,   19.4519,   20.3988,   24.0485,   24.9228,   25.8287,   24.2348,   26.2373,   27.0436,   27.1583,   27.0057,   28.5350,   30.0912,   32.3337,   33.6930,   35.8324,   37.4415,   38.0541,  999.0000,  999.0000,   39.4521,   39.9682,   40.7587,   40.3864,   40.3513,   40.3555,   40.7601,   41.8778,   41.8922,   41.5995,   41.8774,
 29-OCT-1996 13:43:21.01,    5.5347,  999.0000,  999.0000,  999.0000,  999.0000,  999.0000,  999.0000,    5.7140,    6.1596,    7.8288,    9.4636,   10.1752,    9.7163,    8.9089,    8.9911,  999.0000,    9.8296,   10.3579,   10.5001,   11.2960,   12.3546,   12.4589,   12.1806,   10.8228,  999.0000,  999.0000,   14.8922,   15.6684,   15.4306,   17.8715,   19.0928,   19.8340,   19.8609,   19.0712,   18.7905,   19.2106,   20.4024,   23.0791,   24.4486,   24.1274,   23.8307,   25.3570,   25.9792,   25.7900,   25.8405,   27.8856,   29.6838,   31.4295,   32.9362,   35.7028,   36.8606,   37.3066,  999.0000,  999.0000,   38.9683,   39.1793,   40.0273,   40.5873,   40.1961,   40.2643,   40.3862,   41.7017,  999.0000,   41.4935,   41.4653,
 29-OCT-1996 13:46:00.17,    5.0272,    3.9365,    3.6412,  999.0000,    5.1905,    5.5728,  999.0000,    5.9051,    7.2503,    8.0972,    9.6111,  999.0000,  999.0000,  999.0000,    8.7798,    8.7151,  999.0000,   10.3881,   10.6884,  999.0000,   13.0729,   13.4381,   12.6528,  999.0000,  999.0000,  999.0000,   14.1460,   15.0767,   15.1768,   17.2232,   18.4477,   19.6959,   19.9810,   18.5552,   19.2080,   19.3724,   21.0033,   23.4714,  999.0000,  999.0000,   24.6728,   25.8854,   26.1146,   25.5663,   26.5195,   28.9189,   30.7989,   32.5699,   34.3214,   36.8042,   36.9643,   37.0543,   38.8712,   39.7838,   39.5528,   38.7063,   38.8233,   39.9529,   40.2336,   40.7773,   40.5407,   40.8861,   41.8872,   42.8605,   42.5268,
 29-OCT-1996 13:48:39.94,    3.6855,    3.6029,    4.4779,    5.2725,    5.5058,  999.0000,    6.0581,    6.2932,  999.0000,  999.0000,  999.0000,  999.0000,  999.0000,  999.0000,    9.1340,    9.2766,    9.7904,   10.5641,  999.0000,   11.7514,   12.2320,   12.2296,   11.4933,  999.0000,  999.0000,   13.4602,   14.4276,   15.2253,   15.0148,  999.0000,   18.6385,   19.6312,   19.8603,   18.0560,   18.7387,   18.9123,   20.4119,   23.1262,   23.9891,   23.3967,   23.9658,   24.8874,   25.0334,   24.0471,   24.8252,  999.0000,   29.2981,   31.7204,   33.9479,   35.9664,   36.5185,   36.8504,   38.4641,   39.3356,   39.1706,   39.6744,  999.0000,  999.0000,  999.0000,   41.4045,   41.5372,  999.0000,  999.0000,  999.0000,  999.0000,
 29-OCT-1996 13:51:17.18,    4.8452,    3.9863,    4.3813,    5.3430,    5.6459,    6.5369,    7.4788,    8.2328,    9.0305,    9.6060,   10.3052,   10.7505,   10.0575,    9.0582,    9.1322,    9.3687,    9.9541,   10.7307,   11.2261,   12.1274,   12.6058,  999.0000,  999.0000,  999.0000,  999.0000,   13.1670,   14.1292,   14.9109,   15.2986,   17.4422,   19.1698,   19.9582,   19.8572,   17.9961,   18.4470,   18.7488,   20.5820,   23.0480,   24.3924,   23.4246,   23.1953,   23.4097,   24.6090,   23.7485,   25.4364,   27.4887,   29.0353,   31.1104,   33.0792,   35.3787,   35.9000,   36.0876,   37.9310,   38.6195,   38.7610,   40.2953,  999.0000,  999.0000,   39.3692,   40.6378,  999.0000,  999.0000,   41.7716,   41.6609,  999.0000,
 29-OCT-1996 13:53:54.23,    4.6118,    4.0922,    3.8728,    5.0389,    5.6206,  999.0000,    7.7593,    8.1849,    8.9197,    9.4636,    9.9612,   10.2661,   10.1120,    9.6371,    9.4246,    9.8600,   10.5950,   10.6217,   10.9460,   12.0374,   12.5635,   12.1815,   11.4473,   10.5630,  999.0000,   13.0841,   14.0051,   14.8250,   14.6637,   16.8154,   18.8612,   20.0973,   19.7189,   18.0720,   18.0130,   18.5983,   20.6172,   23.0997,   24.3330,   23.7171,   23.0938,   24.5632,   24.4748,   23.4471,   24.3536,   26.2755,   28.5383,   30.4327,   32.7262,   35.1937,   35.8440,   36.2332,   38.2515,   38.6346,   38.6969,   40.2055,   39.8833,   40.6648,   39.8094,  999.0000,  999.0000,  999.0000,  999.0000,  999.0000,  999.0000,
 29-OCT-1996 13:56:31.62,    4.5930,    4.2118,    4.0250,  999.0000,  999.0000,  999.0000,  999.0000,    7.4917,    8.6933,    9.3279,    9.7596,    9.8624,    9.0622,    9.1235,    9.2325,    9.3634,   10.1406,   10.4248,   11.6318,  999.0000,  999.0000,  999.0000,  999.0000,   11.9622,  999.0000,   13.3975,   14.5693,   15.0262,   14.6614,   16.6660,   18.2965,   19.7046,   18.7655,   17.8362,   17.1852,   17.7243,   19.5413,   21.9544,   23.0088,   21.4719,   22.8347,   23.3391,   24.1858,   23.1035,   24.5377,   26.6182,   28.6277,   30.0317,   32.4266,   35.1127,   35.4197,   35.8996,   38.1784,   38.8558,   38.5541,   38.9767,   38.8358,   39.6837,   39.9069,   41.1019,  999.0000,   40.1296,   41.5630,   41.9570,   41.9447,
 29-OCT-1996 13:59:08.64,    4.7682,    4.6629,    3.9885,    4.7929,    5.6389,    6.0300,  999.0000,    6.9235,    8.6607,    9.4739,    9.8078,    9.5064,    8.4126,    9.0308,    9.1049,    9.3121,    9.4725,   10.3496,   11.6000,   10.9734,   11.7941,   11.5333,   11.3255,    3.3048,    0.6703,   13.1684,   14.3285,   14.5720,   15.2795,   18.3756,   19.8127,   19.0942,   18.7304,   17.3803,   16.9465,   17.3507,   19.2115,   21.9747,   23.2625,   22.3430,   22.0854,   21.1332,  999.0000,  999.0000,  999.0000,   25.9753,   27.9810,  999.0000,  999.0000,   35.2371,   35.4894,   35.4903,  999.0000,  999.0000,  999.0000,  999.0000,  999.0000,   39.2947,   40.2906,   41.1473,  999.0000,  999.0000,   42.4046,   41.9689,   41.4381,
 29-OCT-1996 14:01:47.61,    5.4187,  999.0000,  999.0000,  999.0000,  999.0000,  999.0000,  999.0000,  999.0000,  999.0000,    8.8870,    8.7816,    8.7039,    8.0596,    8.4396,    8.6400,  999.0000,    9.0820,    9.9382,   11.6892,   11.1119,   11.3153,   10.6578,  999.0000,    8.8445,  999.0000,   13.1498,   14.3532,   14.7066,   14.3211,   15.9968,   18.1750,   18.4123,   18.3659,   17.2954,   17.4020,   17.8533,   19.4754,   22.4410,  999.0000,   22.3465,   22.7012,   22.8461,   23.8816,   22.9203,   24.3257,   26.3291,   28.1384,   29.9138,   31.9010,   33.8960,   34.8572,   34.9275,   35.0821,   36.1331,   37.2131,   38.2239,   38.5059,   38.6435,   39.2666,   41.1081,   40.7842,  999.0000,  999.0000,   40.7972,   41.1550,
 29-OCT-1996 14:04:26.68,    5.2413,    4.0509,    3.4636,    4.5402,  999.0000,  999.0000,    7.9401,    7.7507,  999.0000,    8.8036,    8.4443,  999.0000,    7.7318,    8.4057,    8.8434,    9.7045,  999.0000,   10.2547,   11.7252,   11.7680,   11.9670,  999.0000,   10.8132,   10.6013,   11.6079,   12.7457,   14.1237,   14.5951,   14.6199,   15.9410,   17.6949,   17.7452,   18.0437,   17.4579,   17.3296,   18.0258,   19.6802,   22.9554,   23.7812,   21.7521,   22.0765,   23.4334,   23.3660,   22.1690,  999.0000,  999.0000,   27.9352,   29.9049,   32.1606,   34.2365,   34.8035,   35.0137,   35.3089,   36.4053,   37.3470,   38.4471,   38.1216,   37.8372,   38.8753,   39.9815,   40.7167,   40.6479,   42.5657,   41.2378,   40.8339,
 29-OCT-1996 14:07:03.54,    4.2369,    3.9615,    3.0286,    4.2063,    5.6582,    7.5324,  999.0000,    8.4829,    9.7254,    9.6275,    8.5736,    7.6180,    6.9367,  999.0000,    8.8122,    9.7129,   10.0777,   10.5569,  999.0000,   12.0991,   12.4156,   12.1075,   11.0988,   11.9424,    9.9667,   12.6859,   14.2098,   14.1648,   14.8114,   16.3732,   17.7487,   18.0019,   17.7916,   17.6461,   17.5593,   18.1524,   20.5212,   23.8913,  999.0000,   22.1070,   22.1144,   23.2478,   23.2164,   22.2661,   24.0076,   26.3583,   28.6078,   30.0328,   32.6525,   35.0618,   35.1746,   35.3043,   35.8976,   37.1252,   37.9135,  999.0000,  999.0000,  999.0000,   39.4734,   39.1140,  999.0000,  999.0000,  999.0000,   41.4493,   40.5651,
 29-OCT-1996 14:09:40.42,    3.4506,    4.1635,    4.4492,    5.0942,    5.4974,  999.0000,  999.0000,  999.0000,    9.6710,    9.0430,    7.9896,    7.8362,    7.3947,    7.8167,    9.1424,   10.0271,   10.5700,   10.7019,   11.1802,   11.9412,   12.0170,   11.6299,   10.7076,   11.7007,  999.0000,   12.8715,   13.7173,   14.3884,   15.0034,   16.3246,   17.8778,   17.2389,   17.2387,   17.0284,   17.2989,   17.8015,   20.7057,   24.0835,   25.2574,   22.7991,   22.6071,   23.3112,   23.2495,   23.0334,   24.6483,   26.7101,   28.8232,   30.1400,   32.1930,   34.0703,   34.1232,   34.6555,   35.6953,   36.8373,   37.7122,   38.1867,   38.3512,   38.4394,   39.8262,   39.0854,   40.3535,   41.2589,   42.9935,  999.0000,   41.4428,
 29-OCT-1996 14:12:20.18,    4.9549,    3.8697,    3.8982,    4.9631,  999.0000,  999.0000,    8.1811,    9.3777,   10.0679,  999.0000,    8.3870,    8.7713,    8.6251,  999.0000,    9.0548,    9.6188,   10.2491,   10.9705,  999.0000,   12.0176,   12.2294,   11.8539,   10.8889,   12.2078,   12.4199,   13.5257,   14.1375,   14.7388,   15.0424,   16.1364,   18.2644,   17.5838,   17.7274,   17.2841,   17.2897,   18.2445,   20.7760,   24.1894,   24.6849,  999.0000,   21.9831,   23.1126,   23.6317,   23.4611,   25.0535,  999.0000,   27.6541,   29.7048,   32.3091,   34.0776,   33.7315,   33.9778,   35.7744,   36.7275,   37.1241,   37.2163,   38.2821,   38.5558,  999.0000,  999.0000,  999.0000,  999.0000,  999.0000,   41.6591,   41.9889,
 29-OCT-1996 14:14:59.32,    5.4468,  999.0000,  999.0000,  999.0000,  999.0000,  999.0000,  999.0000,  999.0000,  999.0000,  999.0000,    9.0678,    9.2326,    8.8388,    8.7475,    9.3374,  999.0000,   10.6697,   11.3685,   11.8807,   12.0186,   12.4221,   11.5086,  999.0000,   12.2818,   12.3557,   13.8379,   15.0971,   15.2132,   15.5213,   16.5294,   18.1171,   17.5166,   17.7957,   17.5538,   16.8645,   17.8983,   20.4722,   23.5859,  999.0000,  999.0000,   21.3998,   22.9695,   23.7494,  999.0000,  999.0000,   26.3603,   27.8741,   29.6811,   31.8789,   33.2630,   33.3921,   33.3093,   34.4785,   35.7458,   36.2189,   36.4546,   38.1411,   38.2223,   38.2840,   39.1992,   38.9596,   40.7932,  999.0000,   42.7820,   41.2800,
 29-OCT-1996 14:17:38.91,    5.4012,    4.2798,    4.3295,  999.0000,  999.0000,  999.0000,    7.3492,    8.5555,    8.7666,    8.7182,    9.1079,    9.4274,    9.3610,    9.5376,    9.9799,  999.0000,   10.1914,   10.7219,   11.0308,   11.3066,   12.0214,   10.9740,   10.9336,  999.0000,  999.0000,   13.9094,   15.0628,   15.4491,   15.9884,   17.3973,   18.5612,   17.6680,   17.2432,   17.6714,  999.0000,  999.0000,   20.2324,   23.0580,   24.1175,   22.4700,   20.7325,   21.9283,   23.0536,   23.9140,   25.1921,  999.0000,   28.3435,   30.2679,   32.1271,  999.0000,  999.0000,   34.0268,   35.0558,   35.6461,   36.2531,   36.7093,   38.4371,   38.4654,  999.0000,  999.0000,  999.0000,   41.1662,   41.2442,  999.0000,   41.5845,
 29-OCT-1996 14:20:18.72,    5.0553,    4.9332,    4.8617,    5.2659,  999.0000,  999.0000,    7.7817,    8.3710,    8.6245,    8.7513,    9.3815,    9.7235,    9.8918,    9.4098,    9.2987,    9.8337,    9.7886,   10.7337,   11.4933,   11.6011,   11.6832,   10.6737,  999.0000,   12.2048,   12.1260,   13.4788,   14.1729,   14.6297,   15.3774,   16.8977,   17.9685,   17.1629,   16.4400,   16.8424,   16.3332,   17.7356,   20.8019,  999.0000,   24.0643,   21.1856,   20.9770,   21.4867,   21.5184,   22.3322,   23.5687,   25.5855,   27.7140,   29.7174,   31.6329,   32.8876,   33.1254,   33.5921,   34.1583,   34.3031,   35.4906,   36.1583,   36.7562,   37.3394,   38.0989,   38.5262,  999.0000,   40.7232,   41.9039,   41.7338,   41.2655,
 29-OCT-1996 14:22:58.26,    4.9652,  999.0000,    5.1654,    5.3444,    5.5871,  999.0000,    7.5176,    8.8053,    9.4550,    9.2669,  999.0000,  999.0000,  999.0000,    8.9765,    9.3072,   10.1885,  999.0000,  999.0000,  999.0000,  999.0000,   10.5715,    9.9228,    9.9818,   12.2631,   12.5663,   13.5415,   14.2067,   14.5630,   15.7351,   17.6057,   17.3985,   17.0953,   16.1131,   16.0354,   16.0164,   19.1134,  999.0000,  999.0000,   22.3065,   19.8771,   19.7735,   20.7312,   21.3813,   22.1288,   24.3631,   26.5179,   27.3785,   29.6054,   31.3949,   32.8129,   32.7602,   32.9304,   34.4517,   35.0300,   36.0037,   36.5931,   37.1244,   38.1945,   38.7298,  999.0000,   38.5938,   39.2744,   41.2659,   41.8059,   41.6014,
 29-OCT-1996 14:25:35.56,    4.7621,    5.0987,    5.0156,    5.1304,    5.7279,    6.5364,    7.8486,    9.1072,    9.0243,    8.2465,    9.0685,    9.2611,    9.5235,    8.8830,    9.2377,  999.0000,  999.0000,   11.0676,   12.1981,   11.8439,   11.4324,  999.0000,   10.1716,   11.5448,   12.8600,   13.6865,   14.1999,   15.0573,   16.1260,   17.9863,   17.8497,   17.4674,   16.6090,   16.4155,  999.0000,   19.8996,   23.0850,   24.6836,  999.0000,   19.9075,   19.4551,   20.1658,   21.3338,   22.5793,   24.8678,   26.5815,   27.2606,   29.1447,   30.5451,   32.2038,   32.2959,  999.0000,   34.0580,   34.8226,   35.4364,   36.1140,   36.8686,   38.2458,   39.3806,   39.5576,   39.8524,   40.1204,   41.7426,   42.2431,  999.0000,
 29-OCT-1996 14:28:15.61,    3.5644,    4.1653,    4.4629,    4.6424,    4.7681,    5.4917,  999.0000,    8.7638,    8.6161,    8.4006,    8.5738,    7.9434,  999.0000,    8.0136,    8.4077,    9.4455,    9.4055,   10.8629,   12.6606,   12.3006,   11.3534,   10.3985,   10.5949,   12.1910,   13.2942,   14.0899,   14.4179,   15.3702,   16.7918,   17.4385,   17.4095,   16.7095,   15.7555,   15.5613,   15.7314,   18.8619,   21.9978,   23.5177,   21.8966,   19.6068,   19.2253,   19.5182,   21.1455,   22.8045,   24.8091,   26.0790,   27.4005,   29.2789,   30.3975,   32.0062,   32.0194,   32.1296,   33.6152,   33.7445,   34.0053,   35.8930,   36.4067,   36.7189,   38.0511,   38.3507,   39.1405,  999.0000,   40.6452,   40.5406,   40.2777,
 29-OCT-1996 14:30:55.69,    4.5089,    4.2772,    3.3635,    2.9893,    2.9654,  999.0000,  999.0000,    7.5460,    8.3989,    8.5324,    8.1311,    7.6045,    7.5439,    8.5148,    8.9420,    9.1418,  999.0000,   11.3305,   12.6160,   11.8039,   10.6130,   10.0741,   11.1366,   12.3783,   13.2114,   14.1553,   14.0645,   15.1366,   16.5753,   17.6278,   16.9684,   16.5863,   15.3397,   14.1038,   16.1952,  999.0000,  999.0000,   22.0304,   21.1264,  999.0000,   19.2326,   19.8601,   21.6687,   23.5124,   25.3730,   25.8832,   27.3703,   29.2499,   30.5333,   32.1635,   31.6514,   31.7634,   33.1606,  999.0000,  999.0000,  999.0000,   36.1444,   36.5279,   37.3378,  999.0000,  999.0000,  999.0000,   40.5056,   40.8427,  999.0000,
 29-OCT-1996 14:33:35.49,    2.7784,    3.7776,  999.0000,  999.0000,  999.0000,  999.0000,  999.0000,    7.9039,    8.2146,    8.0504,    8.3802,    8.1517,    7.7738,    8.4060,    9.0423,    9.0557,    8.2179,  999.0000,  999.0000,  999.0000,   10.1977,    9.8846,   10.9402,   12.3728,   13.1591,   14.1794,   14.0761,   14.8918,   16.6402,   17.4664,   17.1657,   16.6717,   15.6213,   15.4082,   17.5557,   20.8702,  999.0000,   22.7345,   21.4514,  999.0000,   20.1511,   20.9822,   22.7665,   24.2632,   26.1348,   26.4955,  999.0000,  999.0000,   31.2169,   33.0118,   33.1827,   32.5934,   33.2412,   34.4703,   35.1921,   36.6915,   36.9610,  999.0000,  999.0000,  999.0000,   39.0479,   40.7472,   41.3446,   42.1532,   41.7452,
 29-OCT-1996 14:36:12.79,    2.7406,    3.5795,  999.0000,  999.0000,  999.0000,  999.0000,  999.0000,  999.0000,  999.0000,  999.0000,    7.8916,    8.2047,    7.9461,    8.1999,    8.3163,    8.5739,    8.4106,  999.0000,  999.0000,  999.0000,  999.0000,  999.0000,  999.0000,   12.2750,   13.3538,   13.8134,   13.9805,   14.7423,   16.5065,   17.2725,   17.1528,   17.0365,   15.7289,   15.8412,   17.4515,   20.8629,   23.7117,  999.0000,   21.7271,   19.4212,   19.9200,   20.5478,   22.1646,   24.0633,   25.7378,   26.1741,   27.9573,   29.2178,   31.0799,   32.5672,   32.4034,   32.3562,   33.2530,   34.5714,  999.0000,  999.0000,   37.9152,   38.5419,  999.0000,   38.2211,   38.6079,   40.8688,   41.3231,   41.8782,   41.5504,
 29-OCT-1996 14:38:51.90,    2.7257,    3.4579,    3.9326,  999.0000,  999.0000,  999.0000,  999.0000,    8.6370,    7.7616,    7.4778,    7.9618,    8.4229,  999.0000,    8.5798,    8.7391,    8.7316,    8.8045,    9.8527,   11.0497,   11.1178,   10.1581,    9.8053,   10.1988,   12.0624,   12.0865,   13.3203,   14.0017,   14.0730,   16.0358,   16.6411,   16.3922,   15.7848,   14.8569,  999.0000,   16.5104,   20.2195,   23.4055,   24.8574,  999.0000,  999.0000,   20.2093,   20.4126,   22.0267,   23.8714,   25.7053,   26.5499,   28.4900,   30.1277,   31.6629,   32.8557,   32.1589,  999.0000,  999.0000,   34.6861,   35.5476,   36.2429,   38.0510,  999.0000,  999.0000,  999.0000,  999.0000,  999.0000,  999.0000,  999.0000,  999.0000,
 29-OCT-1996 14:41:31.34,    3.3208,    4.3890,  999.0000,  999.0000,    4.5405,    5.2439,    7.1551,    8.3850,    8.2615,    7.8055,    8.2703,  999.0000,    7.7287,    7.8071,    8.5309,    9.4010,    9.9120,   10.4675,   10.9451,   10.7296,    9.7174,    9.6998,   10.0388,   11.3985,   12.3645,   12.6468,   13.1774,   15.2049,   15.3465,   16.3504,   15.3745,   14.5552,   14.4963,  999.0000,  999.0000,   19.8229,   22.9545,   24.0393,  999.0000,   20.2808,   20.2346,   20.5812,   21.9847,   23.2473,  999.0000,  999.0000,  999.0000,   30.3745,   31.5326,  999.0000,  999.0000,   31.4742,   32.5976,  999.0000,  999.0000,  999.0000,  999.0000,   39.0089,   38.8627,   37.5029,   38.7286,  999.0000,   40.3051,   40.5637,  999.0000,
 29-OCT-1996 14:44:10.39,    5.1020,    5.0913,    5.1297,    5.3206,  999.0000,  999.0000,    7.8438,    8.8401,    8.8333,    7.8769,    8.2832,    8.5635,  999.0000,    8.1201,    8.8024,    9.3501,    9.6110,   10.3440,   11.3772,   10.7607,    9.7788,  999.0000,   10.5038,   10.7144,   11.0191,   13.6682,   14.0806,   14.7079,   16.4570,   17.1026,   16.1787,   14.9485,   15.4448,   16.2867,   17.1021,   20.0502,   23.2171,  999.0000,   21.5381,   20.5581,  999.0000,  999.0000,   22.2239,   23.7332,   25.7260,   26.8921,   29.2086,   30.7209,  999.0000,  999.0000,   32.8683,   32.0847,   33.1838,   34.5344,  999.0000,  999.0000,  999.0000,  999.0000,  999.0000,   38.4012,   39.5526,   41.4904,   41.1308,  999.0000,   42.1091,
 29-OCT-1996 14:46:47.72,    5.1690,    4.7264,    4.5822,    4.6861,    5.2361,    5.4841,    6.9919,    8.6087,    8.3686,    7.3944,    8.4819,    8.7876,    8.9300,    9.3842,   10.0192,   10.0952,    9.9855,  999.0000,   11.8406,   11.5870,   10.2532,    9.6743,   10.6246,   11.5377,   12.5687,   13.8024,   13.8852,   14.7234,   16.9752,   17.9511,   16.7522,   15.2586,   15.7160,   15.9922,   17.3995,   20.2509,   23.0932,   23.9575,  999.0000,  999.0000,   20.5234,   21.1148,   21.9686,   24.3646,   25.7173,   26.8846,  999.0000,  999.0000,  999.0000,  999.0000,  999.0000,  999.0000,  999.0000,  999.0000,  999.0000,  999.0000,   37.0754,   38.8769,  999.0000,  999.0000,  999.0000,  999.0000,  999.0000,  999.0000,   41.2980,
 29-OCT-1996 14:49:26.83,    4.5417,    4.6858,    3.5766,    3.1170,    4.7872,  999.0000,  999.0000,    8.5019,    8.8937,  999.0000,    8.5011,    9.4525,    9.3530,    8.6970,    9.0876,    9.6555,    9.9752,   10.7101,   11.8676,   11.8474,   10.5236,    9.6906,   10.8553,   12.2176,   13.0367,   13.6022,   14.0793,   14.7322,   16.3377,   17.7306,   16.3098,   14.9188,   15.6354,   15.6103,   17.6155,   20.7979,   23.5366,  999.0000,  999.0000,   20.3633,   20.0992,   20.6889,   22.5831,   24.5743,   26.0071,   26.8877,   29.3610,   31.3220,   31.7602,   31.7095,   32.9870,   32.5819,   32.3843,   33.7656,   34.8029,   35.6033,   36.8365,   39.2956,  999.0000,  999.0000,   38.8422,   40.9894,   41.3181,   40.9264,  999.0000,
 29-OCT-1996 14:52:05.63,    4.5149,    4.8030,    4.4927,  999.0000,  999.0000,  999.0000,  999.0000,  999.0000,    8.1121,    7.6952,    9.0656,    9.9586,    9.2194,    8.1850,    9.4757,    9.9238,   10.1343,   10.9070,   11.7916,   11.5256,   10.2398,  999.0000,  999.0000,   12.5855,   13.4528,   13.7772,   14.2306,   15.3373,   16.7546,   17.4271,   15.9809,   15.1761,   15.8166,   16.0842,   18.1196,   21.2998,   23.7858,   24.6055,  999.0000,   20.7237,   20.0517,   20.5712,   22.7329,  999.0000,   26.4232,   27.9720,   29.8948,   31.1090,   31.4667,   31.6188,   32.5865,   32.5951,   33.2766,   34.6760,   34.3495,   34.8677,   36.6342,   39.3476,   39.4011,   38.8005,   39.2895,   41.8140,   42.0896,   40.8979,   41.7077,
 29-OCT-1996 14:54:44.89,    4.8070,    5.1904,  999.0000,    5.4282,    5.4426,    5.4569,  999.0000,  999.0000,    7.7508,    7.4104,    8.1540,    8.9030,    8.5294,    8.0856,    9.6445,   10.0102,   10.4125,  999.0000,  999.0000,   11.0801,   10.5169,   10.5702,   12.5389,   13.0237,   13.9869,   14.0491,   14.3429,   15.8847,   17.5464,   18.0320,   16.3923,   14.9613,   15.7059,   17.0472,   19.2344,   22.3789,   24.1560,  999.0000,  999.0000,   20.3607,   19.9454,   20.4729,   23.0703,   25.4113,   26.5471,   28.1111,   30.6539,   31.8864,   32.0146,   31.6449,   31.6111,   32.3881,   33.4286,   33.2166,   33.1132,  999.0000,  999.0000,  999.0000,   39.4186,   38.6660,   39.7937,   41.6861,  999.0000,   40.7412,   41.4806,
 29-OCT-1996 14:57:24.57,    4.0819,    4.4503,    4.6445,    5.0525,    5.3128,    5.4118,  999.0000,    5.6556,    5.9552,    7.0680,    8.2363,    9.1680,    8.8585,  999.0000,    9.9067,    9.5403,    9.7477,   11.0345,  999.0000,   11.0310,   10.3933,  999.0000,   12.2438,   13.0753,   13.3748,   14.4713,  999.0000,  999.0000,   17.2672,   16.7160,   15.9196,   14.4180,   15.5782,   17.3312,   20.0105,   22.8457,   24.2866,  999.0000,  999.0000,   20.2748,   20.0972,   21.0433,   23.5996,   25.2269,   25.9876,   27.9194,   30.7753,   32.3962,   32.7315,   31.9738,   31.6610,   31.6349,  999.0000,  999.0000,  999.0000,   35.3853,   36.7379,   38.2030,   39.6741,   39.4757,   40.1762,   41.6701,   43.2039,  999.0000,  999.0000,
 29-OCT-1996 15:00:04.05,    2.8479,    3.6974,    3.2089,  999.0000,    4.3645,    4.6106,  999.0000,    5.7948,    6.1680,    6.8736,    8.7567,    9.5959,    9.6621,  999.0000,  999.0000,   11.2864,   11.6653,   11.7891,   11.9616,   11.3548,   10.7191,   11.3127,   11.8561,   12.7276,   12.7821,   13.1263,   13.0017,   14.6244,   16.3286,   15.8528,   15.1454,   14.7787,   15.9730,   17.8806,   20.7682,   23.4853,  999.0000,   21.8910,   20.9287,   20.1723,   20.4157,   20.8084,   23.4633,   25.2333,   26.1017,   28.4253,   30.5216,   31.9256,   33.0758,   32.0692,  999.0000,  999.0000,   32.8937,   33.4026,   33.3818,   35.1148,   36.9062,   37.6229,   38.3261,   39.5720,   40.4910,   42.0692,  999.0000,  999.0000,   40.3087,
 29-OCT-1996 15:02:41.15,    2.6919,    3.4657,    3.4638,    2.8107,    3.4523,    3.4964,    5.0934,    6.3083,    6.7187,    7.0229,    8.0058,    8.5555,    9.6541,   10.4079,   10.1874,   10.3958,   11.0395,   11.5549,   11.7707,   11.2360,   10.6431,   11.1319,   11.1159,   12.8678,   13.5024,  999.0000,   12.8026,   14.2890,   15.6855,   15.3503,   14.5096,   15.1306,   16.4013,   18.2291,   21.1126,   23.9283,   24.7502,  999.0000,   21.2993,   20.2276,   19.8761,   21.4892,   23.8893,   25.4419,   25.9470,   28.5698,   30.7258,   31.1636,   31.9874,  999.0000,  999.0000,   31.6939,   32.5981,   32.6525,   33.2949,  999.0000,  999.0000,  999.0000,   38.5827,   40.4692,   40.9245,   42.9804,  999.0000,  999.0000,   40.3720,
 29-OCT-1996 15:05:18.34,    3.3798,    3.7808,    4.0650,  999.0000,    4.6037,    5.4271,  999.0000,    5.7747,    6.1181,    6.5194,    6.9075,    7.2631,  999.0000,  999.0000,   10.0239,   10.0408,   10.5715,   11.3139,   11.7885,   11.5145,   10.6040,   10.7462,   11.1931,   11.7962,  999.0000,  999.0000,  999.0000,   15.0172,   16.1333,   15.6470,   14.4454,   14.9430,   16.1350,   17.9721,   20.7511,   23.7191,   24.3562,   22.4110,   20.8142,   20.2245,   20.1436,   21.0909,   23.5686,   24.9838,   25.5373,   28.0477,   30.1466,   30.7468,   31.7093,   31.6939,   31.5840,   32.0266,   32.7900,   32.8641,   33.8450,  999.0000,  999.0000,   37.7654,   39.2003,   39.6597,   40.2295,  999.0000,   42.5672,   40.9786,  999.0000,
 29-OCT-1996 15:07:57.53,    4.7256,    4.9207,  999.0000,    3.0410,    3.1121,  999.0000,    5.1435,    5.7382,    6.2704,    6.5913,    7.2015,  999.0000,  999.0000,   10.9755,   10.9622,   10.4423,   10.4690,   10.7484,   11.1664,   10.6325,   10.1803,   10.7164,   11.4273,   12.1436,  999.0000,  999.0000,   13.3335,   15.1049,   15.5602,   15.5133,   14.3371,   15.1130,   16.0904,   17.6968,   20.5621,   23.3017,   23.8954,   22.2638,  999.0000,  999.0000,   20.4679,   20.6027,   22.8699,   24.8606,   25.4218,   27.2675,   29.1942,   30.0209,   31.6225,   31.1100,   30.5940,   31.3787,   32.5652,   32.3636,   32.5075,   34.0033,   35.9092,   36.8097,   38.4458,   39.8970,   41.0269,  999.0000,   42.8873,   41.7694,   40.6116,
 29-OCT-1996 15:10:34.91,    4.0488,    3.8041,    3.4982,    3.4706,  999.0000,  999.0000,    5.1820,    6.1539,    6.5212,  999.0000,    7.4947,    8.1211,    8.5190,    8.6532,  999.0000,   10.2226,   10.5457,   11.1666,   11.0264,   10.0814,    9.7667,  999.0000,   12.2641,   11.5961,  999.0000,  999.0000,   13.8376,   14.9166,   15.8311,   15.3625,   14.5151,   15.2982,   16.2210,   17.8649,   20.2701,   22.9304,   23.3569,   21.5916,  999.0000,  999.0000,   20.5738,   20.5920,   22.9828,   24.9182,   24.9954,   26.8748,   28.8844,   29.7475,   30.8108,   30.3407,   31.0296,   31.9575,   32.7324,   33.2055,   32.7182,   33.8646,   36.0246,   37.1215,   38.2829,   39.9953,   41.0214,   42.6241,   41.7910,   41.3761,   40.4170,
 29-OCT-1996 15:13:14.37,    4.6798,    5.1703,    5.2595,    5.3274,    5.4129,    5.4568,  999.0000,    6.2517,    6.4811,    6.7413,  999.0000,    7.6967,    7.7380,    8.7104,  999.0000,  999.0000,  999.0000,  999.0000,  999.0000,   10.2982,    9.9324,  999.0000,  999.0000,  999.0000,  999.0000,   13.4064,   13.7494,   15.4285,   16.0507,   15.4155,   15.0497,   15.7734,   16.9368,   18.7168,   21.2087,   23.7358,   23.8228,   22.7002,  999.0000,   20.0640,   19.9092,   20.6263,   23.5359,   25.0380,   24.6857,   26.9233,   28.5988,   29.3562,   30.7188,   30.6696,   30.9550,   31.8294,   32.5086,   33.2163,   32.8273,   33.6566,   36.5492,   37.5465,   38.1552,   39.9067,   40.9742,  999.0000,   41.3654,   41.2732,   40.1089,
 29-OCT-1996 15:15:51.72,    3.3853,    4.6102,    5.0043,  999.0000,  999.0000,    5.4261,    5.5226,    6.1290,    6.2931,    6.8453,    7.5105,    7.4238,    7.3522,  999.0000,   10.1542,   10.6471,   10.7937,   10.9019,   11.0335,   10.6997,   10.3844,   11.0056,   11.9939,   12.3725,  999.0000,   13.0357,   13.1775,   14.4048,   14.2614,   13.4288,   14.3947,   15.7742,   16.7592,   18.7007,   21.5376,   23.5882,   23.0950,  999.0000,   19.9754,   20.5921,   19.9098,   21.5230,   24.1765,   24.9564,   25.4649,   27.5875,   28.9086,   29.5257,   30.1194,   30.3440,   31.0897,   31.7213,   33.0885,  999.0000,  999.0000,  999.0000,   37.2501,   38.1193,   37.6736,   39.4687,   41.1002,  999.0000,  999.0000,   42.0553,  999.0000,
 29-OCT-1996 15:18:31.31,    2.7487,  999.0000,    4.9206,    5.1684,    5.3367,    5.4176,    5.6481,  999.0000,    6.1426,    7.3771,    8.1136,    8.3568,  999.0000,   10.4255,   10.9916,   11.4156,   11.4610,   10.7509,   10.5568,  999.0000,   10.2284,   11.4852,   11.3939,  999.0000,   11.9824,   12.2518,   13.0858,   14.2510,   13.9939,   14.0614,   14.2350,   15.2229,   16.2428,   18.0863,   21.0958,   23.2665,   22.9400,  999.0000,  999.0000,   20.4826,  999.0000,   21.7670,  999.0000,  999.0000,  999.0000,   27.4168,   29.2422,   29.5659,   29.6534,   29.9775,   31.1904,   31.7033,   32.6030,  999.0000,  999.0000,  999.0000,   37.1402,   38.4768,   38.0080,   39.1519,   40.9227,  999.0000,  999.0000,  999.0000,  999.0000,
 29-OCT-1996 15:22:10.76,    4.3665,    5.4076,    5.5946,  999.0000,  999.0000,    5.5888,    6.0827,    6.5267,    6.8766,    8.2396,    8.4118,    8.5280,    8.9087,  999.0000,   10.4192,   10.8199,  999.0000,   11.8030,   11.1274,   10.2308,    9.3335,   11.0367,   12.0296,   12.5461,   12.3145,   12.5810,   13.1668,   14.8506,  999.0000,   13.8629,   14.0571,   15.0910,   16.1585,   17.7349,   20.3795,   23.0115,   23.0284,   20.8007,   20.0277,   20.1543,  999.0000,   21.8338,   24.5665,   24.8629,  999.0000,  999.0000,  999.0000,  999.0000,  999.0000,  999.0000,   31.4747,   31.4290,   31.8239,  999.0000,  999.0000,  999.0000,  999.0000,   37.8042,   38.0508,   39.1602,   41.6935,   42.6154,   41.7255,   41.7425,  999.0000,
 29-OCT-1996 15:24:49.97,    4.7690,  999.0000,    5.4732,    5.4733,    5.5811,    5.7115,  999.0000,  999.0000,    6.5025,    7.7717,    8.1598,    8.3389,    9.0129,    9.1493,   10.8699,   11.2059,  999.0000,   12.1496,   11.7583,  999.0000,  999.0000,  999.0000,   12.2723,   11.6426,   12.4046,   12.4877,   12.8596,   14.7258,   14.4196,   13.1122,   12.8721,   14.4980,   15.5684,   17.3603,  999.0000,   22.2735,   22.1351,   20.2107,   20.2374,   20.0938,   19.7328,   21.8919,   24.2549,   24.4836,   25.4477,  999.0000,  999.0000,  999.0000,   29.9692,   30.2840,   31.6336,   31.7400,   32.6837,   33.4880,  999.0000,  999.0000,  999.0000,  999.0000,  999.0000,   39.8426,   42.0614,   42.4169,   42.7590,   41.3286,   40.2146,
 29-OCT-1996 15:27:28.92,    3.6391,    4.8037,    5.2915,    5.4373,    5.4637,    5.4644,    5.5731,  999.0000,  999.0000,    7.4896,    8.0495,    8.5439,    9.2718,  999.0000,   11.0911,   11.5357,   11.8694,   11.8312,   11.2337,  999.0000,    9.3547,   10.4415,  999.0000,  999.0000,  999.0000,   12.0895,   13.0491,   14.5138,   14.3839,   12.6331,   13.6642,   14.6249,   15.6320,   17.8121,   20.2108,   22.0420,   21.9987,   20.5204,   20.6042,   19.8220,   19.9620,   22.6799,   24.9964,   25.1049,   26.2784,   29.5173,   30.4727,   30.3353,   30.2858,   30.3326,   31.8521,   32.4405,   33.2545,   34.0085,   34.8536,   36.2170,   37.9167,   37.7271,   38.3640,   40.0743,   41.3863,   42.5896,   43.0162,  999.0000,   41.1127,
 29-OCT-1996 15:30:07.88,    4.0765,    5.1095,    5.3789,    5.4443,    5.4554,    5.4947,    5.6009,    6.0853,  999.0000,    7.4490,    8.1057,    9.0469,    9.6798,    9.8439,  999.0000,   11.3581,   11.3087,   11.2452,   11.2114,  999.0000,  999.0000,  999.0000,   10.7976,   11.1659,   11.5786,   11.1215,   13.2540,   13.9510,   14.2218,  999.0000,   13.2815,   14.7706,   15.8192,   18.0899,   20.5924,   22.4234,   23.5000,  999.0000,   20.2667,   19.3188,   20.5189,   23.8484,   25.3526,   25.2372,   27.2502,   30.1756,   31.0307,   30.2604,   30.4414,   30.7074,   31.9198,   31.7545,   32.1250,   33.8809,   34.2187,   35.6490,   37.8126,   38.3200,   38.8174,   39.6427,   41.1430,   42.8899,   42.5542,  999.0000,   40.0891,
 29-OCT-1996 15:32:45.14,    4.5874,    5.0020,    5.2429,    5.4162,    5.4440,    5.4727,    5.7644,    5.9346,    6.3605,    6.9359,    8.1502,    9.5459,    9.9854,  999.0000,   10.7797,   11.3382,   11.5471,   11.7507,   11.3942,   10.1370,   10.3066,   10.3350,   10.2932,    9.9333,  999.0000,   12.2774,   13.8001,   14.3500,   14.1944,   12.5908,   13.5384,   14.7946,  999.0000,   18.6232,   20.9449,   22.7080,   22.5712,   21.3457,   20.1430,   19.5676,   20.9584,   24.2846,   25.4635,   25.4526,   27.8740,   30.6001,   31.4312,   31.0569,   31.8518,   31.8904,   31.7170,   32.2768,   32.9707,   34.4706,   34.5862,   35.4027,   37.9701,  999.0000,   38.9458,   39.3968,   40.4928,  999.0000,   40.9751,   39.0780,   39.0831,
 29-OCT-1996 15:35:22.14,    4.4635,    5.2516,    5.4080,    5.4517,    5.4594,    5.4952,    5.9943,    6.2255,    6.5286,    7.2402,    8.5638,    9.1372,   10.0613,   10.1083,   10.5972,   10.8611,   10.9165,   11.6230,   11.3973,   10.1249,    9.8083,   10.0332,   10.6896,   11.7576,   12.8474,  999.0000,   13.8207,   14.2181,   13.5726,   12.3016,   13.7555,   15.4200,   16.3064,   18.4739,   20.4564,   21.0927,   21.8135,   21.5140,   20.0106,   19.4417,   20.7328,   23.9608,   25.2081,   25.5220,   27.8849,   30.1164,   31.1084,   31.4816,   31.5645,   31.8610,   31.4209,   32.0874,   33.4748,   34.7713,   35.2018,   36.2591,   38.6432,  999.0000,   39.4625,   39.4096,   40.1168,  999.0000,  999.0000,  999.0000,   39.4451,
 29-OCT-1996 15:38:01.27,    4.8147,    5.1137,    5.2695,    5.4460,    5.4547,    5.5660,    5.9703,    6.0927,    6.5978,    7.7619,    8.3679,    8.7473,    9.1873,   10.2334,   10.9396,  999.0000,   11.1572,   11.7248,   11.1812,   10.5395,   10.0387,   10.3739,   11.1061,   12.1619,   13.3737,   13.3643,   14.1624,   14.0907,   13.2828,   12.2278,   13.2959,   15.1054,   15.8010,   17.7905,   20.2751,   22.0846,   21.5996,   21.6161,   20.1096,  999.0000,   20.9631,   23.5913,   24.7985,   25.4529,   28.0948,   30.0860,   31.2625,   31.4474,   30.9180,   31.0780,  999.0000,  999.0000,  999.0000,  999.0000,  999.0000,  999.0000,  999.0000,  999.0000,  999.0000,  999.0000,  999.0000,  999.0000,  999.0000,  999.0000,  999.0000,
 29-OCT-1996 15:40:40.64,    3.3815,  999.0000,    5.2736,    5.4533,    5.4542,  999.0000,    5.7699,    6.2494,    6.9333,    7.8612,    8.5437,    9.2007,    9.4261,  999.0000,   11.5015,   11.6620,   11.8275,   11.7698,   11.4802,   11.0078,   10.6040,   10.4955,   11.3862,   12.5006,   14.1665,  999.0000,   14.5090,   14.3565,   13.5613,   12.5385,   13.4310,   14.8647,   16.1675,   18.2184,   20.8478,   22.1448,  999.0000,   21.3083,   20.6560,  999.0000,   22.2669,   24.3989,   25.1994,   26.0734,   28.4477,   30.2523,   31.2767,  999.0000,  999.0000,   30.8337,   30.7932,   32.3973,   34.2697,   34.8145,   36.3417,   38.0768,  999.0000,  999.0000,   39.1910,   40.0791,   40.5128,   41.8377,   42.4674,   41.6163,  999.0000,
 29-OCT-1996 15:43:17.77,    3.2214,    5.0059,    5.0971,    5.3798,    5.4531,    5.5089,    5.4858,    5.8388,    7.0805,    7.9427,    9.2880,    9.3455,    9.6219,   10.1274,   11.4349,   11.8928,   11.5303,   11.8480,   11.7025,   10.8970,    9.8479,   10.1581,   11.4615,   12.2359,   13.6783,   13.9008,   14.3266,   14.4166,   13.3934,   12.1691,   13.1752,   14.8647,   16.1927,   17.9496,   20.1965,   21.6745,   21.1575,   20.5781,   20.4404,   20.7262,   23.1174,   24.4695,   24.8248,   26.0049,   28.5319,   30.3815,   31.4596,   32.0169,   31.4503,   30.9607,   30.5445,   31.6540,   33.2518,  999.0000,  999.0000,   37.6061,   38.8117,   38.5307,   39.3284,  999.0000,   39.9776,   40.9861,  999.0000,  999.0000,   39.5639,
 29-OCT-1996 15:45:56.41,    2.3756,  999.0000,  999.0000,    4.5217,    4.7103,    5.2089,    5.2349,    5.2881,    6.3459,    7.0687,  999.0000,    8.5906,    9.2952,   10.3663,   11.0054,   11.7429,   11.3860,   11.0926,   10.6714,   10.0701,  999.0000,   10.2931,   10.9579,   11.8268,   13.0239,   14.1125,   14.1192,   14.4293,   13.2655,   12.0353,   13.2583,   14.8105,   16.0553,   18.0099,   19.9134,   21.2120,   20.8905,   20.7596,   20.4791,   20.5287,   22.9119,   23.9075,   25.0240,   26.0257,   28.2807,   30.1357,   31.3189,   31.7157,   30.1343,   29.8374,   30.6346,   31.8806,   33.2265,   34.4330,   35.3936,   36.7738,   38.9330,   38.6787,   38.8347,  999.0000,  999.0000,  999.0000,  999.0000,   40.0051,   39.8514,
 29-OCT-1996 15:48:35.77,    3.1103,  999.0000,    3.0574,    3.4232,    3.4351,  999.0000,    5.3684,    5.2262,    5.6531,    6.8983,    7.7403,    8.4689,    9.0771,   10.0878,   10.6219,   11.2833,   11.2380,   11.3613,  999.0000,    9.5475,    9.8884,    9.9598,   10.4533,   11.6455,   12.6552,   13.6635,   14.4125,   14.4918,   13.7802,   12.2388,   13.7033,   15.0035,   15.7936,   18.2420,   19.9270,   20.7681,   20.5580,   20.1935,   20.1989,   20.1767,   22.1591,   23.1237,   24.6436,   25.6629,   27.8405,   29.7248,   30.4927,   30.2684,   29.3528,   29.6898,   30.6701,   31.4981,   32.9686,   34.0278,   34.6323,   36.3587,   38.9322,   38.8869,   39.3261,   41.4175,   40.5192,  999.0000,  999.0000,  999.0000,  999.0000,
 29-OCT-1996 15:51:15.13,    3.9248,  999.0000,  999.0000,    5.2974,    5.2694,    5.0993,    5.4157,    5.6064,    5.9020,    6.3018,    7.1520,    8.5487,    8.9183,    9.8557,   10.3451,   10.5430,   10.8231,   11.1642,   10.7863,    9.4135,    8.8772,    9.6975,   10.3497,   10.8724,   11.7458,   12.9827,   14.0349,   13.7929,   12.9656,   12.0543,   13.4660,   14.5995,   16.0666,  999.0000,   20.2184,   20.4919,   20.8900,   19.8654,  999.0000,   20.7226,   22.5364,   23.6561,   24.8238,   25.2415,   27.9720,   29.4306,   29.9904,   30.3255,   29.4633,   30.0599,   30.9177,   31.2732,   32.9221,   33.9396,   34.7204,   37.0532,   38.0125,  999.0000,   38.3356,   40.2586,   40.7100,  999.0000,  999.0000,  999.0000,  999.0000,
 29-OCT-1996 15:53:54.36,    4.3173,    5.4495,  999.0000,    5.4535,    5.4333,    5.4517,  999.0000,  999.0000,  999.0000,  999.0000,  999.0000,  999.0000,  999.0000,  999.0000,   10.6869,   10.7843,   10.6462,  999.0000,   11.1082,    9.7671,    8.9596,    7.9969,    9.5570,   11.1492,   11.8631,  999.0000,   13.4489,   13.1182,   12.6077,   11.5006,   12.8451,   14.3060,   15.7556,   18.2602,   20.3147,   20.2621,   20.4585,   19.6872,   19.4745,   21.3090,   22.9654,   24.0660,   25.4289,   25.9834,   28.4875,   30.0530,   29.8599,   29.2933,   29.5216,   31.0674,   31.5099,   31.9603,   33.5744,   34.4155,   35.9019,  999.0000,  999.0000,  999.0000,   38.9715,   39.1105,   39.6257,  999.0000,  999.0000,  999.0000,  999.0000,
 29-OCT-1996 15:56:31.61,    5.0751,    5.5895,    5.4403,    5.2994,    5.3875,    5.4703,    5.7265,    6.0100,    5.9987,    6.1452,    6.5720,    8.5236,    9.5820,    9.9361,   10.4062,   10.9756,   10.7695,   10.8808,   10.9143,   10.0549,  999.0000,  999.0000,  999.0000,   11.4875,   12.0948,   12.7567,   13.4131,   13.3312,   12.7916,   11.9026,   12.5387,   14.2025,   15.8623,   18.2273,   20.0161,   20.0183,   19.8522,   19.6962,   19.4026,   21.2016,   22.8378,   23.9791,   25.2821,   26.4009,   28.5698,   30.1645,   29.1334,  999.0000,   29.6415,   31.3848,   32.1247,   31.9920,  999.0000,  999.0000,  999.0000,  999.0000,  999.0000,  999.0000,  999.0000,  999.0000,   39.5557,   39.4056,   39.6541,  999.0000,   37.6667,
 29-OCT-1996 15:59:10.69,    5.3292,    5.6654,    5.4509,    5.4444,    5.4605,    5.4898,    6.0394,    6.0184,    5.8789,    6.2960,    6.6772,    7.6233,    9.5759,   10.0332,   10.3814,   10.7873,   11.1241,   11.3624,  999.0000,    9.8183,    9.7309,    9.7929,   10.8442,   10.9364,   11.8785,   12.8804,   13.5178,   13.1669,   12.5839,   11.2329,   12.5832,   14.1654,   15.4797,   17.8259,   19.6956,   19.4894,   20.1101,   19.4260,   19.1030,   20.7383,   22.4603,   23.2167,  999.0000,   26.3989,   28.4019,   30.1416,   29.7202,   28.8189,   29.6619,   31.7363,   32.6133,   32.6360,   34.1131,   34.9719,  999.0000,  999.0000,  999.0000,   36.5830,  999.0000,   40.1164,   39.0338,   38.7510,  999.0000,   37.0960,   36.9435,
 29-OCT-1996 16:01:49.88,    5.0686,    5.5951,    5.4927,  999.0000,    5.4327,    5.4919,    5.9553,    6.3764,    6.1401,    6.1930,    6.8219,    7.2464,    8.8305,   10.2452,   10.8339,   10.7922,   11.0891,   11.2235,   10.6507,    9.4397,    9.8659,    9.8735,   10.9468,   11.4773,   12.1073,   12.7892,   13.6797,   13.1269,   12.7867,   11.6557,   12.7885,   14.6366,   15.9500,   17.9664,   19.9284,   19.6030,   20.6242,   19.6867,   18.9341,   20.4368,   21.9554,   22.9995,   25.0743,   26.3645,   28.1066,   29.7218,  999.0000,  999.0000,  999.0000,   31.8359,   32.4966,   32.7083,   35.0826,   35.3671,   34.9971,   35.8064,  999.0000,  999.0000,  999.0000,  999.0000,  999.0000,  999.0000,   39.0219,  999.0000,   38.4981,
 29-OCT-1996 16:04:26.92,    5.2233,  999.0000,    5.3647,    5.4166,  999.0000,    5.4925,    6.1269,    6.4509,  999.0000,  999.0000,    7.4791,    8.0056,    9.4669,   10.2314,   10.7537,   10.4633,   10.9649,   10.9960,   10.3154,  999.0000,  999.0000,  999.0000,  999.0000,   11.9190,   11.9713,   12.8705,   12.9798,   12.9182,   12.1757,  999.0000,   12.5465,   14.5899,   15.8348,   18.3094,   19.9689,   19.6043,   20.5115,   19.6876,   19.5484,   19.6979,   21.2185,   22.6767,   24.7664,   26.0888,   28.3899,   29.7035,   28.8570,   28.4640,   28.9102,   31.1973,   32.1047,   32.2032,   33.6651,  999.0000,  999.0000,  999.0000,  999.0000,  999.0000,   37.5513,   37.9948,   37.9678,   36.8860,   37.8757,   38.6347,   37.9773,
 29-OCT-1996 16:07:06.44,    4.8536,  999.0000,    5.2491,    5.3710,    5.4626,  999.0000,    6.2624,    6.0108,    5.6167,    5.7053,    7.0828,    8.0862,    8.9117,    9.6394,  999.0000,  999.0000,  999.0000,  999.0000,   10.6559,    9.6412,    9.1815,  999.0000,   11.1623,   12.2405,   12.5597,   13.3837,   13.4832,   12.5048,   11.1328,   10.9286,   12.4602,   14.6423,   16.2772,   18.8241,   20.0734,   19.6910,   20.2115,   19.5757,  999.0000,   20.2040,   21.2547,   22.5557,   24.5136,   26.1613,   28.3430,   29.6408,   28.8707,   28.4377,   29.1561,   31.1688,   32.1506,   32.1715,   32.0170,   34.1994,   35.4024,   35.7566,   37.2298,  999.0000,  999.0000,  999.0000,   36.9140,   37.1530,  999.0000,   37.2957,   37.1739,
 29-OCT-1996 16:09:45.69,    5.1320,    5.6212,    5.6196,    5.5272,  999.0000,    5.6146,    5.7978,    5.5929,    6.2455,    6.0042,  999.0000,  999.0000,  999.0000,   10.7272,   10.4675,   10.2731,   10.6934,   11.3458,   11.3559,   10.2830,  999.0000,  999.0000,   11.4105,   12.1749,   12.5727,   12.5392,   13.6334,  999.0000,   11.2864,   10.9458,   12.9031,   14.4580,   16.2407,   18.8577,   20.1226,  999.0000,   20.1109,   20.0816,  999.0000,   20.5536,   21.6919,   22.9584,   25.0913,   26.9063,   28.5750,   30.4756,   30.1009,  999.0000,   29.6011,   31.2390,  999.0000,  999.0000,  999.0000,   34.7004,   35.4084,   35.8501,  999.0000,  999.0000,  999.0000,  999.0000,  999.0000,   36.9874,   37.7196,   36.8261,   37.4167,
 29-OCT-1996 16:12:23.11,    4.7464,    5.4228,    5.5864,  999.0000,    5.6114,    5.6806,    5.6910,    5.5315,    6.3905,    6.4586,  999.0000,    8.8042,    9.6456,   10.5428,   10.4743,   10.3305,   10.4940,   11.1691,   10.8053,    9.0883,    8.9980,   10.1377,   11.1425,   12.2272,   13.0406,   13.3743,   13.7077,   12.5543,   11.3055,   10.8258,   12.6637,   14.4133,   16.0389,   18.5586,   20.3812,   19.9049,   19.8014,   20.0908,   18.8693,   20.3960,   21.6565,   22.7402,   24.8168,   26.6279,   28.1859,   29.4400,   28.7058,   28.2603,   29.1264,   30.4610,   31.1413,   31.4914,   31.6356,   33.2039,   34.8671,   36.6689,   38.3498,  999.0000,  999.0000,  999.0000,  999.0000,   37.5392,   38.4564,   37.0997,   37.1004,
 29-OCT-1996 16:15:00.45,    5.4022,    5.0657,    5.3357,  999.0000,  999.0000,    5.3926,    5.5890,    5.6246,    6.1466,    6.8655,    8.2330,    8.7279,    9.6047,   10.5481,   10.6662,  999.0000,  999.0000,  999.0000,  999.0000,  999.0000,    8.8599,    9.7901,  999.0000,   12.2318,   13.1738,   13.5655,   14.2063,   13.0924,   11.5312,   10.8606,   12.7849,   14.3670,   16.2168,   18.0471,  999.0000,   19.3104,   18.9044,   17.8721,   18.4003,   19.8741,   21.4468,   22.5440,   24.3797,   26.2696,   28.1983,   29.5026,   29.0990,   28.8717,   29.6324,   30.7889,   31.1163,   30.7521,   32.1974,   34.5309,   35.7145,   36.3525,  999.0000,  999.0000,  999.0000,   36.3684,  999.0000,   37.5540,   38.4506,  999.0000,   37.6089,
 29-OCT-1996 16:17:37.85,    5.0721,  999.0000,    5.4150,    5.3968,    5.4179,  999.0000,    5.6779,    5.7849,    6.1986,    7.4426,    8.6812,  999.0000,  999.0000,  999.0000,  999.0000,   10.7332,   11.0286,   11.2066,  999.0000,  999.0000,    8.7445,    9.5374,  999.0000,   12.1181,   12.6711,   12.8293,   12.3132,   12.7844,   11.4616,   11.0063,   12.6245,   14.5226,   16.2553,   18.4455,   19.5824,   18.7918,   18.9942,   19.5399,   18.3292,   19.4004,   20.8738,   22.0936,   23.9906,   25.8284,   27.7116,   29.2587,   28.7268,   28.1586,   29.7067,   31.0716,  999.0000,  999.0000,  999.0000,  999.0000,   36.8416,   37.3172,   38.7509,   39.4008,   38.1479,  999.0000,   35.7437,   36.9683,   37.8607,   36.4797,   37.4382,
 29-OCT-1996 16:20:17.34,    5.2039,    5.4478,    5.3805,    5.3439,    5.3630,    5.5394,    5.6189,    5.7969,    6.7104,    8.3498,    9.1975,    9.1734,    9.7849,   10.4065,   10.2403,   10.5839,   10.9359,   11.0955,   10.5858,    9.1533,    8.3659,    9.6030,   11.3769,   12.0733,   12.7641,   13.0827,   12.9193,   12.4044,   11.1450,   11.3428,   13.0457,  999.0000,  999.0000,   18.9660,   19.7345,   18.9927,   19.5660,   19.8114,   17.7960,   19.5858,   20.4248,   21.5788,   23.3988,   25.5609,   27.2797,   28.5514,   28.3548,   27.9719,   28.8490,  999.0000,  999.0000,  999.0000,  999.0000,   34.9169,   36.8251,   37.1736,   38.4431,  999.0000,  999.0000,  999.0000,   37.1298,  999.0000,  999.0000,  999.0000,   39.6795,
 29-OCT-1996 16:22:56.37,    5.1069,    5.5476,    5.4931,    5.4677,    5.4595,  999.0000,    5.6055,    6.0301,    6.8162,    7.7180,    7.9397,    8.1897,    9.5685,   10.3890,   10.4893,   10.8087,  999.0000,   11.7972,   11.3739,  999.0000,    9.5142,    9.8778,  999.0000,   11.9623,   13.1186,   13.1658,   13.5811,   12.6368,   11.6649,   12.3630,   14.5065,   16.5817,   17.3713,   19.4466,   19.8087,   18.8486,   19.8726,  999.0000,   18.4942,   19.7673,   20.3674,   21.7024,   23.4155,   25.5777,   26.8890,   28.0055,   28.1698,   28.6225,   29.0430,   30.8636,  999.0000,  999.0000,  999.0000,   34.5989,   36.1297,   37.0342,  999.0000,  999.0000,  999.0000,  999.0000,  999.0000,  999.0000,  999.0000,  999.0000,   39.5265,
 29-OCT-1996 16:25:35.43,    5.2545,    5.5207,    5.4918,    5.4646,    5.3549,    5.6617,    5.6094,    5.5090,    6.0859,    7.1412,    7.5824,    8.2035,    9.6260,   10.6386,   10.4229,   10.6066,   11.3564,   11.0950,   10.6941,    9.9161,   10.4017,   10.8152,   11.8644,   12.1868,   13.1081,   13.0603,   13.7215,   11.9913,   11.6544,   12.8446,   14.5217,   16.3147,   17.4540,  999.0000,  999.0000,   20.2933,   21.0111,   19.9034,   17.9987,   19.6775,   20.7047,   21.9085,   23.2335,   25.9293,   27.2858,   27.9305,  999.0000,  999.0000,   29.0701,   30.2831,   29.7196,   30.8578,   32.7588,   34.4316,   35.7326,   36.6531,   38.4404,  999.0000,  999.0000,  999.0000,  999.0000,   37.4372,   37.1242,   36.3975,   38.7936,
 29-OCT-1996 16:28:14.73,    4.9146,  999.0000,  999.0000,  999.0000,    5.1942,    5.6944,    5.7974,    5.7665,  999.0000,    6.8863,    7.4776,    8.5330,    9.9548,   10.6571,   10.6285,   11.0691,   11.4481,   11.3052,   10.5900,    9.4711,    9.9226,   10.9465,  999.0000,   12.8833,   13.3595,   13.2112,   13.0311,   12.5535,  999.0000,   12.6467,   14.6614,   16.1458,   17.5911,   19.0646,  999.0000,   19.2764,   21.0925,  999.0000,   18.6291,   19.2985,   19.8854,   20.9089,   22.4863,   24.8662,   26.2102,   27.4289,   26.9319,   27.8571,   29.2279,  999.0000,  999.0000,  999.0000,   32.9051,   34.6230,   35.6856,   36.2187,  999.0000,  999.0000,  999.0000,  999.0000,  999.0000,  999.0000,   36.4661,   36.4478,   38.5430,
 29-OCT-1996 16:30:51.89,    5.5037,    5.5307,    5.5198,    5.4679,    5.4630,    5.7324,    5.6712,    5.8121,    6.3232,  999.0000,    8.1498,    8.8179,   10.3100,   10.7091,   10.4762,  999.0000,   11.4698,   11.1150,    9.9400,    9.2321,   10.0827,   10.8307,   11.1237,   11.7234,   12.4149,   12.5818,   13.5141,   12.5951,   11.3809,   12.7743,   14.4540,   15.9101,   17.7022,   19.3814,   19.0243,   19.5332,   20.7329,  999.0000,   18.1160,   19.3457,   20.0410,   21.4986,   23.7422,   25.8380,   26.5324,   28.0442,   27.4671,  999.0000,  999.0000,  999.0000,  999.0000,   30.8652,   32.5697,  999.0000,  999.0000,  999.0000,  999.0000,  999.0000,  999.0000,  999.0000,  999.0000,  999.0000,  999.0000,  999.0000,  999.0000,
 29-OCT-1996 16:33:31.08,    5.4705,    5.5205,    5.4791,    5.4216,    5.5117,    6.0007,    5.9322,    5.9457,    6.5476,    7.8931,    8.2610,    8.6033,  999.0000,   10.5095,   10.7080,   11.2965,   11.5168,   11.2172,    9.6053,    7.7942,    8.7233,    9.1857,  999.0000,   10.5610,   12.5181,   12.1364,  999.0000,   12.0890,   10.9784,   12.4248,  999.0000,   15.7814,   17.5966,   18.0454,   19.1781,   19.5267,   20.2806,  999.0000,   18.1848,   19.9291,   20.3596,   21.2035,   22.5357,  999.0000,  999.0000,  999.0000,   28.0833,   27.9008,  999.0000,  999.0000,  999.0000,  999.0000,   32.8843,   34.0617,   35.5611,  999.0000,  999.0000,  999.0000,  999.0000,  999.0000,  999.0000,  999.0000,  999.0000,   36.5135,   38.4491,
 29-OCT-1996 16:36:10.09,    5.4333,    5.6735,    5.5827,    5.4843,    5.6585,    6.4408,    6.3066,    6.1228,    6.7564,    7.5437,    8.0230,    9.0550,   10.3721,   10.4202,   10.6163,   10.9994,   11.6129,   11.3187,   10.1041,  999.0000,    9.0233,    9.4003,    9.1772,    8.2294,   12.0207,   12.7908,   13.2011,   12.0854,   11.0481,   12.3776,   14.3305,   15.9658,   17.7714,   19.4128,   19.5498,   19.6281,   20.4785,  999.0000,   18.4925,   20.1193,   20.7422,   21.3934,   23.4158,   25.5338,  999.0000,   28.0444,   28.0962,   27.8083,  999.0000,  999.0000,  999.0000,  999.0000,   33.9412,   34.9301,  999.0000,  999.0000,  999.0000,  999.0000,  999.0000,  999.0000,  999.0000,  999.0000,   34.7335,   36.7444,   38.7599,
 29-OCT-1996 16:38:47.21,    5.2899,    5.8955,    5.7886,    5.6324,    5.7050,    5.8821,    5.8560,    5.9986,    6.8065,    7.5508,    7.7700,  999.0000,   10.5052,   10.5107,   10.3844,   10.7817,   11.2559,   10.9867,   10.1202,    8.0463,    8.4481,  999.0000,  999.0000,  999.0000,   11.4354,   12.8320,   13.2991,   12.0701,   11.3610,   12.9756,   14.8704,   16.1302,   18.1054,   19.8012,   19.5578,  999.0000,  999.0000,   16.9636,   18.5327,   20.0835,   20.9508,   21.3711,   23.6353,   25.2875,   25.5634,   27.1962,   27.8268,   28.0306,  999.0000,  999.0000,  999.0000,  999.0000,  999.0000,  999.0000,  999.0000,  999.0000,  999.0000,  999.0000,  999.0000,  999.0000,  999.0000,  999.0000,   34.5943,   36.7609,   38.9924,
 29-OCT-1996 16:41:24.59,    5.7872,    6.3729,    6.3102,    5.9431,    6.0355,    6.3699,    6.3520,    6.6486,    7.7603,    8.1078,    8.1117,  999.0000,   11.2179,   10.9598,   10.1563,   10.7097,   11.2409,   11.3227,  999.0000,  999.0000,  999.0000,  999.0000,  999.0000,  999.0000,   11.7654,   12.5564,   13.4464,   11.8122,   12.0063,   12.7748,   14.5774,   15.9694,   17.6952,   19.2640,   19.6420,   19.8896,   20.1530,  999.0000,   18.3729,   19.6568,   20.0647,   20.8661,  999.0000,   24.5159,   25.3403,   26.4058,   26.5882,   27.9829,  999.0000,  999.0000,  999.0000,   32.0499,   33.7316,   33.8818,  999.0000,  999.0000,  999.0000,  999.0000,  999.0000,  999.0000,  999.0000,  999.0000,  999.0000,   36.6229,   38.9133,
 29-OCT-1996 16:44:01.74,    5.5071,    6.1910,    6.2979,    5.9069,    5.7543,    5.5936,    5.4478,    5.6281,  999.0000,    7.8872,    8.5893,  999.0000,   11.2111,   10.8172,   10.5135,   11.2956,   11.7357,  999.0000,  999.0000,    4.2706,    6.6331,  999.0000,  999.0000,   12.3402,   12.1622,   13.2848,   13.7491,   12.0166,   11.3431,   13.2721,   14.8289,   16.6379,   18.3963,   19.1967,   19.9206,   19.3959,  999.0000,   16.9400,   18.4632,   20.0295,   19.7948,  999.0000,   23.8757,   24.8773,  999.0000,  999.0000,   26.6750,   28.3641,  999.0000,  999.0000,  999.0000,  999.0000,  999.0000,  999.0000,   35.3011,   36.9368,   36.7721,  999.0000,  999.0000,  999.0000,  999.0000,   36.3508,   35.3298,   36.9028,   38.1919,
 29-OCT-1996 16:46:41.26,    5.2199,    5.8865,    5.9838,    5.7499,    6.5025,    6.1750,    5.8466,    6.2959,    7.6610,  999.0000,    9.6554,   11.0442,   11.5779,   11.1040,   11.6772,   12.2278,   12.2795,   11.8775,  999.0000,  999.0000,    9.6533,   10.6809,  999.0000,   12.2451,   12.3513,   13.5351,   13.3778,   11.8340,   11.8955,   13.8835,   15.5760,   17.5769,   18.9454,   19.7183,   20.4504,   19.2023,  999.0000,   17.1242,   18.6359,   20.4956,   21.0942,   22.0700,  999.0000,   25.7589,   26.8171,   26.5600,   26.4544,   27.9294,   29.6391,   29.2260,   30.2806,   32.1760,   32.9438,   35.0035,   35.1100,   36.1706,   37.0277,  999.0000,  999.0000,  999.0000,   35.0430,   34.5923,   35.2449,   36.9120,   38.0233,
 29-OCT-1996 16:49:18.43,    4.9956,    5.4699,    5.8881,    5.7755,    6.3489,    5.9866,    5.6110,    5.8492,    7.0592,    8.3977,    9.5085,   10.7926,   11.0891,   11.1653,   11.3293,   11.8933,   11.8741,  999.0000,  999.0000,    8.3540,    8.9986,  999.0000,  999.0000,   12.7694,   13.0969,   13.9540,   12.7260,   10.6400,   12.6839,   14.5206,   16.2637,   18.2574,   19.5389,   20.3927,   20.2292,  999.0000,  999.0000,   18.1610,   19.9224,   21.0446,   21.3652,   22.7556,   24.6734,   25.4628,   25.6313,   26.9934,   27.4494,   28.6943,   30.4218,   30.2513,   31.2176,   32.2067,   32.4481,   35.0090,   35.3211,   36.2780,   36.3673,  999.0000,  999.0000,   34.9650,   35.0159,  999.0000,   35.9024,   37.1260,   38.3757,
 29-OCT-1996 16:51:56.05,    4.8161,  999.0000,    6.7869,    6.0726,    5.4833,    5.3296,    5.1905,  999.0000,    6.5444,    8.2211,  999.0000,   10.7146,   10.4982,   10.9910,   11.4371,   11.7914,   11.3111,  999.0000,  999.0000,  999.0000,  999.0000,   10.7170,   10.8418,   12.6637,   13.5947,   14.2688,   12.6048,   10.8970,   12.6552,   13.8044,   17.1115,   18.9315,   20.0971,   19.5451,  999.0000,  999.0000,  999.0000,   18.6477,   20.1469,   20.7008,   21.7746,   23.1086,   24.6807,   25.0723,   25.2017,   26.9699,   27.9018,   28.3736,  999.0000,  999.0000,   30.6622,   31.7047,   32.9129,  999.0000,  999.0000,  999.0000,  999.0000,  999.0000,  999.0000,  999.0000,  999.0000,  999.0000,   36.1057,  999.0000,  999.0000,
 29-OCT-1996 16:54:33.04,    4.2677,  999.0000,  999.0000,  999.0000,  999.0000,    6.1310,    5.8187,    5.7592,    6.8265,    7.9122,  999.0000,   10.6163,   10.8017,   10.7013,   11.1298,   11.4225,   10.4647,  999.0000,    9.3871,    9.6013,   10.5519,   11.6701,   13.1890,   12.7326,   13.9276,   14.5769,   13.0088,  999.0000,   14.0729,   15.5099,   16.9522,   19.0945,   20.0727,   20.1877,  999.0000,  999.0000,   17.4375,   18.6016,   20.1846,   21.6369,   22.2187,   23.1060,   24.8189,   25.0432,   25.4471,   26.8381,   27.8731,   28.5520,   29.8006,   30.9690,   31.5923,   32.5155,   33.9535,   35.7238,   37.0214,  999.0000,  999.0000,  999.0000,  999.0000,  999.0000,   36.0181,  999.0000,   36.1950,   38.0351,   38.4659,
 29-OCT-1996 16:57:12.38,    4.5191,    5.3660,    5.5177,    5.5225,  999.0000,    7.1838,    6.5580,  999.0000,    7.1434,    7.9577,    9.5050,   10.7079,   10.6630,    9.9871,   10.4219,   11.1554,  999.0000,  999.0000,    8.9910,    9.7236,  999.0000,  999.0000,  999.0000,   13.1359,   14.0513,   14.4019,   12.7810,   11.8676,   13.9252,   15.5894,   16.8074,  999.0000,  999.0000,  999.0000,  999.0000,  999.0000,  999.0000,   18.0494,   20.0080,   21.8026,   22.2985,   23.2087,   24.5634,   24.6090,   25.1912,   26.6793,   27.6611,   29.1194,   30.7705,   31.3258,   30.7215,  999.0000,  999.0000,  999.0000,  999.0000,  999.0000,  999.0000,  999.0000,   37.3543,   36.6442,  999.0000,  999.0000,   35.1892,  999.0000,  999.0000,
 29-OCT-1996 16:59:51.60,    4.7884,    5.5712,    5.5444,    5.5172,    5.7057,    5.7943,    5.7852,    5.8573,    6.5174,    7.3994,  999.0000,   10.6693,   10.4092,   10.6400,   11.1631,   11.2844,   11.6580,   10.5814,  999.0000,   10.4018,   11.2895,  999.0000,   12.1523,   12.9992,   13.8799,   14.0563,   12.3998,   12.1877,   13.6402,   15.2133,   16.6012,   18.4891,   19.6714,   20.3887,  999.0000,  999.0000,  999.0000,   17.5499,   19.3523,   21.0609,   21.9648,   22.9052,   24.4308,   24.4718,   24.2034,   25.9159,   27.4179,   28.6749,   30.5829,   31.2025,   31.9958,  999.0000,  999.0000,  999.0000,  999.0000,  999.0000,  999.0000,  999.0000,  999.0000,  999.0000,  999.0000,  999.0000,   35.3715,   37.1958,   38.0254,
 29-OCT-1996 17:02:28.88,    5.2003,    5.5632,    5.5302,    5.4750,    5.7278,    5.7607,    5.6185,    5.6322,    6.4465,    7.5068,    9.5803,   10.6129,   10.5602,   10.8231,   11.3176,   11.3508,   11.1920,  999.0000,    9.5568,   10.0986,   10.6979,  999.0000,  999.0000,   12.7150,   14.0018,   13.9945,   12.3889,   11.1051,   13.2669,   14.5731,   16.1619,   18.2578,   19.4740,   19.8374,   18.7799,  999.0000,  999.0000,   17.2144,   19.0699,   20.5709,   21.7253,   22.3449,   23.4827,   23.9206,   23.7556,   25.0622,   26.6666,   28.5780,   30.0175,  999.0000,  999.0000,  999.0000,  999.0000,  999.0000,  999.0000,  999.0000,  999.0000,  999.0000,  999.0000,  999.0000,  999.0000,   35.4209,   35.3889,   37.4913,   38.5569,
 29-OCT-1996 17:05:05.92,    5.0077,    5.7256,    5.6524,    5.5965,    5.7206,    5.6828,    5.5409,    5.5192,    6.0198,  999.0000,    9.9472,   10.6097,   10.7084,   11.0151,   11.1611,   11.3602,   11.3246,    9.7594,    9.4192,   10.3469,   11.3857,   12.0512,   12.5810,   12.7998,   13.7997,   14.1879,   12.6782,   11.1438,   12.9744,   14.7407,   15.9914,   18.1100,   19.2720,   19.5259,   19.6043,   18.9052,  999.0000,  999.0000,   19.0852,   20.7943,   21.7897,   22.5173,   23.7795,   23.9349,   24.3040,   25.1033,   27.1241,   29.2929,   29.9631,   30.3449,   32.4122,   32.7237,   32.3842,  999.0000,  999.0000,  999.0000,  999.0000,  999.0000,  999.0000,  999.0000,  999.0000,  999.0000,   35.1186,   37.1246,   38.1642,
 29-OCT-1996 17:07:43.10,    5.3569,    6.1712,    6.1528,    6.0615,    6.0098,    5.7023,    5.5775,    5.6314,    6.1814,  999.0000,    9.2656,   10.4853,   10.5662,   10.6806,   11.0927,   11.2721,   10.8732,    9.4060,    9.1489,    9.6936,   10.9391,   12.4370,   13.1741,   12.8893,   14.0273,   14.1886,   12.4519,   11.2605,   12.8784,   14.8081,   16.2770,   17.9341,   18.4459,   18.4272,  999.0000,  999.0000,  999.0000,  999.0000,   19.1431,   20.6855,   21.6749,   22.7137,  999.0000,   23.5915,   24.4283,   25.0186,   27.3102,   29.5073,   29.9961,   29.9790,   31.7811,   33.1767,  999.0000,  999.0000,  999.0000,  999.0000,  999.0000,  999.0000,   34.7210,   33.6044,   34.6264,  999.0000,   35.5375,   36.7605,   38.0984,
 29-OCT-1996 17:10:20.22,    5.8240,    6.1585,    6.1547,    6.2734,    6.1423,    5.7641,    5.7388,    5.9851,    6.5984,    8.4374,    9.6465,   10.2773,   10.0017,   10.5740,   11.4794,   11.8038,   10.9710,  999.0000,    9.4329,    9.4346,   10.6340,   12.5124,   13.1100,   12.8413,   14.2435,   13.9248,   11.7407,   11.3286,   12.9675,   14.6720,   16.4608,   17.9115,   18.6011,   18.7738,   18.5526,   18.5690,  999.0000,   17.3054,   19.2395,   21.1305,   21.9666,   22.9945,   23.8231,   23.0104,   24.3252,   25.5651,   27.3410,  999.0000,  999.0000,  999.0000,   32.1548,   33.3627,  999.0000,  999.0000,  999.0000,  999.0000,   35.2952,   35.5977,  999.0000,  999.0000,   35.3155,   34.8209,   35.5235,  999.0000,   37.3771,
 29-OCT-1996 17:12:57.34,    5.5979,    6.0944,    6.2698,    6.5825,    6.6051,    6.4355,    6.4156,    6.6958,    7.2897,    8.5353,  999.0000,   10.8360,   10.1418,   10.3038,   11.1380,   11.6396,  999.0000,  999.0000,    8.9151,    8.5973,  999.0000,   12.0825,   12.7036,   11.9282,   11.7393,   12.6108,   10.8441,   10.9260,   12.7632,   14.7618,   16.2566,   17.7879,   18.5912,   19.3513,   18.1859,   17.6749,  999.0000,  999.0000,  999.0000,  999.0000,  999.0000,  999.0000,   23.9142,   23.4214,   24.3500,   25.8091,   27.4125,   29.4948,   30.3962,   30.5263,   31.9680,   33.4077,  999.0000,  999.0000,  999.0000,  999.0000,  999.0000,  999.0000,  999.0000,  999.0000,   34.1998,  999.0000,   36.4974,   36.7670,   37.7578,
 29-OCT-1996 17:15:36.59,    5.9400,    6.9394,    7.4647,    7.3762,    7.5891,    7.8169,    7.0800,    6.8515,  999.0000,    8.3932,   10.1920,   10.9425,   10.4210,   10.2524,   10.1747,   11.0771,   11.2542,  999.0000,  999.0000,  999.0000,   11.1328,   12.3169,  999.0000,   12.2037,   12.5064,   12.9117,   11.0123,   10.5724,   12.2131,   14.2279,   15.8870,   17.2930,   18.2671,  999.0000,   18.1475,   17.3058,   17.1173,  999.0000,   18.5093,   19.8947,   20.8377,   21.8116,   22.0432,   23.0126,   24.0182,   25.4661,   26.9184,   29.0107,   29.7909,   29.8155,   31.6355,   32.7759,   32.2593,  999.0000,  999.0000,  999.0000,  999.0000,  999.0000,  999.0000,  999.0000,   34.5155,   35.1140,   36.2504,   36.2660,   37.8200,
 29-OCT-1996 17:18:16.04,    5.5892,    6.1809,    6.1754,    6.0438,    6.9324,    7.2317,    6.4742,    6.3913,    7.3170,    7.8363,  999.0000,   10.5682,   10.4822,    9.9097,    9.8511,   10.8616,   10.9236,    9.6171,    8.4015,  999.0000,   11.0758,   12.0556,   12.1965,   12.5389,   13.2528,   13.0060,   12.2800,   10.8969,   11.5726,  999.0000,  999.0000,   16.5983,   17.3186,   17.7539,  999.0000,  999.0000,  999.0000,   16.7842,   18.4867,   19.9637,  999.0000,  999.0000,  999.0000,  999.0000,   24.3219,   25.4358,  999.0000,  999.0000,  999.0000,  999.0000,  999.0000,  999.0000,  999.0000,  999.0000,  999.0000,  999.0000,    5.3104,    5.5788,    3.9392,  999.0000,  999.0000,  999.0000,  999.0000,  999.0000,  999.0000,
 29-OCT-1996 17:20:53.24,    5.7418,    5.7146,    5.6161,    5.5704,    5.8374,    5.7653,    5.6583,    5.7569,    6.5487,    7.5685,    8.9897,   10.2989,   10.2572,    9.7538,  999.0000,  999.0000,  999.0000,   10.1123,    8.3944,    8.2987,   10.0834,   11.3809,   11.7610,   12.4952,   13.0940,   12.7959,   12.7100,   11.5742,   12.1540,   14.1187,   15.4719,   16.2417,   17.3589,   17.8951,   17.5334,   16.8590,   16.1459,   16.3047,   18.2245,   20.2275,   21.0536,   22.2458,   22.4253,   23.2122,   24.5340,   26.1115,   27.4403,   28.8972,   29.8799,   30.3787,  999.0000,  999.0000,  999.0000,   33.5294,   32.6102,   33.1275,   27.0378,   28.1240,  999.0000,  999.0000,   36.0838,   35.9240,   35.5770,   36.2505,   38.7431,
 29-OCT-1996 17:23:30.40,    5.9007,  999.0000,    5.8123,    5.9347,    5.8960,    5.8531,    5.7795,    5.7854,  999.0000,    7.9148,    9.0864,    9.9410,    9.6912,    9.5680,   10.0735,  999.0000,  999.0000,  999.0000,    7.7910,    8.1388,    9.8455,  999.0000,   11.5504,   12.1791,   13.0430,   12.5182,   10.7831,   10.6542,   12.5050,   14.1383,   15.3046,   16.9041,   18.0473,  999.0000,   17.2008,   16.6190,   16.0679,   16.6496,   18.1950,   20.1191,   21.3468,   22.7438,   22.7379,   22.8058,   24.1677,   25.5411,  999.0000,  999.0000,   29.9128,   29.9111,   31.2946,   33.2699,   33.4406,   33.5003,   33.3359,   33.7194,   35.2490,   36.3100,   29.8679,  999.0000,   35.4178,   36.2333,   35.9041,   36.4152,  999.0000,
 29-OCT-1996 17:26:09.57,    5.4572,    5.5701,    5.5543,    5.8206,    5.6112,    5.3964,    5.4515,    5.8474,    6.3356,    7.8492,    9.4327,   10.2167,    9.7214,    9.9574,   10.9232,   11.2101,   10.7037,  999.0000,    7.9741,    8.7443,    9.9741,   10.7296,   11.2495,   12.5869,   13.1880,   11.9829,   10.0586,    9.9917,   12.6581,   14.4613,   16.0645,   17.4554,   17.8284,   18.0328,  999.0000,   16.8092,   16.2559,   16.8997,   18.7423,   20.5230,   21.3350,   23.1784,   23.2556,   22.9042,   24.0830,   25.5099,   27.4293,  999.0000,  999.0000,   29.4953,   30.5995,  999.0000,  999.0000,  999.0000,  999.0000,   33.8368,   34.8477,   35.3922,   33.8680,   33.2196,   35.0831,   35.5271,  999.0000,  999.0000,  999.0000,
 29-OCT-1996 17:28:46.66,    5.6663,    5.5902,    5.6244,    5.6775,  999.0000,    5.5503,    5.5830,  999.0000,  999.0000,  999.0000,   10.2644,   10.5435,   10.1264,   10.2812,   10.9615,   11.6053,   11.0027,  999.0000,    8.2076,    8.6963,   10.1028,   11.1196,  999.0000,   13.1055,   13.7561,   12.5315,   10.3573,  999.0000,   13.4404,   15.3460,   16.5943,   17.6852,  999.0000,   17.4451,   17.1050,   16.9085,   15.9445,   16.8911,   18.7459,   20.7182,   21.2682,   23.0601,   23.3098,   23.0172,   23.5908,   25.2468,  999.0000,  999.0000,   30.6447,   30.2260,   30.3250,  999.0000,  999.0000,  999.0000,   32.3486,   33.2353,   34.1361,   34.7106,   34.1759,   33.0525,   34.5875,   34.9864,  999.0000,  999.0000,   39.4333,
 29-OCT-1996 17:31:25.69,    5.8322,    5.7470,    5.6154,    5.8908,    5.9555,    5.0882,    5.1020,    6.1179,    6.8958,    8.0231,  999.0000,   10.5099,   10.2823,   10.5625,   10.9027,   11.0906,   11.2270,  999.0000,  999.0000,    8.5427,   10.0531,  999.0000,   11.8786,   12.4244,   13.1372,   12.0914,    9.9452,    9.9773,   13.2958,   15.3974,   16.2265,   17.7297,   17.8998,   17.2273,   17.6413,   17.1306,   16.1842,   16.5257,   19.0245,   20.8688,   21.4864,   23.0311,   23.2801,   22.5749,  999.0000,   25.6687,   27.7696,   28.6133,  999.0000,  999.0000,  999.0000,  999.0000,  999.0000,  999.0000,  999.0000,  999.0000,   34.2399,   33.5341,  999.0000,  999.0000,   34.9388,  999.0000,  999.0000,   35.4216,  999.0000,
 29-OCT-1996 17:34:02.81,    5.7868,    6.0112,  999.0000,  999.0000,  999.0000,    4.1000,    3.7026,  999.0000,    6.8736,    7.7511,    9.7626,   10.7758,   10.5439,   10.5604,   10.6354,   10.6241,   10.5440,    9.5790,    8.7978,    8.8091,    9.6837,   11.2252,   11.6407,   12.0191,   12.8892,   11.7851,    9.4723,   11.2842,   13.2214,   15.0797,   16.3453,   17.2234,   17.5099,   17.2332,   17.9417,   17.2540,   16.2084,   16.5580,   19.0645,   20.6329,   20.9045,   22.5093,   22.7259,   22.0051,   22.6720,  999.0000,  999.0000,  999.0000,   29.4420,   29.6426,   31.4166,   32.2352,   31.9924,  999.0000,  999.0000,  999.0000,  999.0000,   33.6626,   34.1980,   33.4984,   35.2531,   35.5085,   35.2447,   36.0124,   38.2368,
 29-OCT-1996 17:36:41.91,    6.4815,    6.2768,    5.5836,    5.9287,    6.1722,    5.8617,    5.7315,    5.7650,  999.0000,  999.0000,    9.8596,   10.7647,   10.5451,   10.4300,  999.0000,   11.0199,   10.6180,    9.6979,  999.0000,    8.4896,    9.2601,   11.1218,   12.1277,   12.2579,   11.9782,   10.9269,    9.3382,   10.1942,   12.7973,   14.9183,   16.2787,   17.1611,   17.1784,   16.9579,   17.2905,   16.3224,   15.7467,   16.8051,   19.2041,   20.4524,   20.7002,   21.8718,   22.3632,   21.9409,   22.7113,   25.1954,   27.1771,  999.0000,  999.0000,  999.0000,  999.0000,  999.0000,  999.0000,  999.0000,  999.0000,  999.0000,  999.0000,  999.0000,  999.0000,   33.7369,   34.6584,   35.1589,   34.8898,   36.1579,   38.0457,
 29-OCT-1996 17:39:19.12,    7.2440,  999.0000,    5.4167,    5.1159,    5.1686,    5.3803,    5.6058,    5.7467,    5.9406,    7.2210,  999.0000,   10.5754,   10.2949,  999.0000,  999.0000,  999.0000,  999.0000,  999.0000,    8.3960,    8.5785,   10.1157,   11.0555,  999.0000,   12.4675,   12.3477,   10.2752,    9.2343,   10.3074,   12.9374,   15.1454,   15.9212,   16.8967,   16.7298,   17.4253,   16.9069,   16.0670,   15.6251,   17.2771,   19.4844,   20.7249,   21.4519,   22.5820,   22.4952,   22.0528,   22.4383,   24.9156,   26.5679,   27.7541,   30.3655,   31.4156,  999.0000,   32.2593,   33.9214,  999.0000,  999.0000,  999.0000,  999.0000,  999.0000,   32.9072,   34.1791,   34.5672,   34.3943,   35.4608,   36.3610,   38.4953,
 29-OCT-1996 17:41:56.94,    6.4007,  999.0000,    5.6479,    5.5661,    5.4968,    5.3803,    5.4723,    5.7174,    6.0237,    7.0100,  999.0000,  999.0000,   10.0654,   10.6881,   10.9421,   10.9038,    9.9177,  999.0000,    7.9100,    8.8560,   10.6219,  999.0000,   12.1388,   12.7647,   12.4446,  999.0000,    9.5171,   11.4532,   14.0926,   15.7324,   16.1390,   17.0905,   17.6819,   17.9933,   16.5166,   16.4522,   15.6884,   17.6030,   19.5910,   20.9478,   21.9537,   22.8616,   22.4290,   22.1331,   22.7779,   24.5806,   26.4016,   27.5032,  999.0000,  999.0000,  999.0000,  999.0000,  999.0000,  999.0000,  999.0000,  999.0000,  999.0000,   34.3769,   33.5897,   33.7964,   35.0973,   34.7139,  999.0000,   37.7711,   39.0952,
 29-OCT-1996 17:44:36.20,    5.3375,    6.6662,  999.0000,    5.6341,    5.5592,    5.3373,    5.3405,    5.8447,    6.2083,    6.7179,  999.0000,   10.2959,    9.9962,   10.4780,   10.7058,   10.6101,    9.9054,    8.6492,    8.3599,    8.6824,   10.1997,   11.5310,   12.0013,   12.7053,   12.3145,   10.9751,   10.3522,   12.4905,   14.5299,   15.9078,   16.4330,   17.3084,   17.5986,  999.0000,  999.0000,  999.0000,  999.0000,   16.7776,   18.2176,  999.0000,  999.0000,   23.1357,   22.6913,   21.5703,   22.1425,  999.0000,  999.0000,  999.0000,  999.0000,  999.0000,  999.0000,  999.0000,  999.0000,  999.0000,  999.0000,  999.0000,  999.0000,  999.0000,  999.0000,   10.0404,    9.4310,  999.0000,  999.0000,   -8.4131,  999.0000,
 29-OCT-1996 17:47:16.23,    4.0452,  999.0000,    5.1688,    5.3867,    5.4414,    5.4331,    5.4382,  999.0000,    6.1301,    6.3535,  999.0000,  999.0000,  999.0000,  999.0000,  999.0000,  999.0000,  999.0000,  999.0000,  999.0000,    9.5500,   10.8599,  999.0000,   12.7447,   13.1869,   12.5143,  999.0000,   10.7152,   12.8759,   14.8291,   16.1895,   17.1257,   17.5125,   17.9693,   17.1115,  999.0000,   14.9528,   15.8437,   17.2169,  999.0000,  999.0000,   21.4614,   22.8012,   22.7591,   21.8907,   21.9446,   24.0023,   25.7290,   26.1297,   27.9043,  999.0000,  999.0000,  999.0000,  999.0000,  999.0000,  999.0000,  999.0000,   31.5963,   32.3488,   33.4983,   25.3112,   25.4109,   33.8786,   34.4461,   20.2773,   38.8944,
 29-OCT-1996 17:49:53.82,    5.2910,    5.5007,    5.0546,    5.0641,    5.3989,    5.4835,    5.5394,    5.8995,    6.5777,    6.9844,  999.0000,   10.2207,    9.7013,   10.2693,   10.3820,    9.7467,    8.6097,    8.3274,    9.1035,   10.0901,   11.0555,   12.3139,   12.7262,   13.0591,   12.2188,    9.9912,   10.5274,   13.0763,   15.3422,   16.6775,   17.2602,   17.5667,   18.1469,  999.0000,  999.0000,   14.9650,   16.3142,   17.0717,   19.1187,   20.5210,  999.0000,   22.4735,   22.7090,   22.6188,  999.0000,   23.7266,   25.2550,   25.6684,  999.0000,  999.0000,  999.0000,  999.0000,  999.0000,  999.0000,  999.0000,  999.0000,  999.0000,   32.4473,   32.8176,   33.6954,   34.6508,   35.0399,   35.5001,   36.5078,   38.2717,
 29-OCT-1996 17:52:31.09,    5.0119,    5.5642,    5.2067,    5.4330,    5.5750,    5.5685,    5.7214,    5.9286,    6.3389,    7.1070,  999.0000,  999.0000,  999.0000,    9.7276,   10.1618,   10.0825,    8.6744,    8.1948,    8.6842,   10.3316,  999.0000,  999.0000,  999.0000,   12.7061,   11.3057,    9.9905,   10.5599,   13.0596,   15.5401,   16.5400,   17.1920,   17.9132,   17.5573,  999.0000,  999.0000,  999.0000,   16.1470,   17.3597,   19.0893,   20.1402,   20.9795,   22.3930,   22.8759,   22.8713,  999.0000,   23.2388,  999.0000,   26.0340,   27.4274,  999.0000,  999.0000,  999.0000,  999.0000,  999.0000,  999.0000,  999.0000,  999.0000,  999.0000,   32.6996,   32.8298,   34.2796,   35.0217,   36.1069,   36.8379,   38.8146,
 29-OCT-1996 17:55:10.17,  999.0000,    5.5199,    5.0860,    5.3008,    5.6515,    5.5713,    5.4356,    5.6978,    6.0088,    6.7715,  999.0000,    9.4984,    9.6798,    9.6973,   10.0391,    9.7796,    8.8877,    8.2584,    8.6747,  999.0000,  999.0000,   12.3421,   12.3460,   12.0203,    9.5958,  999.0000,    8.8351,   11.8932,   14.9651,   15.9561,   17.2504,   16.7258,   17.2636,    2.4518,  999.0000,  999.0000,   16.0417,   17.3670,   18.9768,   19.2081,   19.8800,  999.0000,   19.7803,  999.0000,  999.0000,  999.0000,   25.7793,   26.5491,   27.6688,  999.0000,  999.0000,  999.0000,  999.0000,  999.0000,  999.0000,  999.0000,  999.0000,  999.0000,  999.0000,  999.0000,   34.3955,   34.4840,   35.8491,  999.0000,  999.0000,
 29-OCT-1996 17:57:49.11,    5.9721,    6.0203,    5.4878,    5.4378,    5.8256,    5.7053,    5.3205,    5.5726,    5.8456,    6.9241,    8.6564,    9.7236,    9.7990,    9.7465,    9.8314,    9.8897,    8.6781,    8.0456,    8.5221,   10.2988,   11.9872,   12.1767,   11.8602,  999.0000,    9.6131,    9.8078,   10.5486,   12.7093,   14.9110,   16.3324,   17.7212,   17.8764,   18.2730,  999.0000,  999.0000,   15.6610,   16.2580,   17.6199,   18.8724,   19.7974,   20.8577,   22.2211,   21.4254,   22.2172,   22.2176,   23.2953,  999.0000,  999.0000,  999.0000,  999.0000,  999.0000,  999.0000,  999.0000,  999.0000,  999.0000,  999.0000,  999.0000,  999.0000,  999.0000,  999.0000,   36.1217,   35.5930,   36.3452,   37.9755,  999.0000,
 29-OCT-1996 18:00:28.17,    6.6736,    7.0504,    5.5461,    5.4518,    5.7443,    5.6072,    5.4757,    5.3663,    6.1294,    6.8491,    8.4179,    9.3087,    9.3873,    9.5996,    9.8238,    9.7566,    8.5203,    7.9256,    8.4427,   10.7664,  999.0000,  999.0000,   11.8031,   11.4473,   10.0305,    9.4903,   10.8459,  999.0000,   15.1150,   16.4426,   17.6393,   17.0488,  999.0000,  999.0000,  999.0000,  999.0000,   16.4142,   17.6442,   19.0238,   20.4307,   21.5831,   22.8021,   22.9896,   22.3483,   22.2736,   23.5398,   25.3198,   26.2262,   27.3363,  999.0000,  999.0000,  999.0000,  999.0000,  999.0000,  999.0000,  999.0000,  999.0000,  999.0000,   33.8965,   33.5115,   35.6891,  999.0000,  999.0000,   37.0711,  999.0000,
 29-OCT-1996 18:03:05.23,  999.0000,  999.0000,  999.0000,    5.5789,    5.5106,    5.4791,    5.4502,    5.5010,    5.8009,    5.8878,    7.2835,    8.5234,    8.6541,    8.9844,    9.0767,  999.0000,  999.0000,  999.0000,  999.0000,  999.0000,  999.0000,  999.0000,   11.6562,   11.6700,    9.9169,    9.4595,   10.6632,   12.8141,   15.2857,   16.5531,   17.6952,   18.5818,  999.0000,  999.0000,  999.0000,   15.8764,   16.6223,   17.5989,   19.0847,   20.3756,   21.4421,   22.6676,   23.1457,   22.3985,   22.3029,   23.8790,   25.7050,   26.2747,   26.5568,   26.6696,   27.8909,   30.1418,   31.2534,   32.2378,   33.7073,  999.0000,  999.0000,   34.2750,   34.0843,   33.9406,   35.5741,   36.3445,   36.1546,   37.2747,  999.0000,
 29-OCT-1996 18:05:42.29,    4.2095,    4.7368,    5.0435,    5.3155,    5.3232,    5.3995,  999.0000,    5.4768,    5.6622,    5.7331,    6.9187,    8.3455,    8.3117,    7.7929,    7.9397,    8.0261,    7.5072,  999.0000,  999.0000,   11.2540,   12.3891,  999.0000,   12.3534,   10.2479,    8.4533,    9.1188,   11.1755,   12.7156,   15.1496,   16.0748,   17.6326,   18.2659,  999.0000,  999.0000,  999.0000,   15.8823,   16.6604,   17.4411,   18.8659,   20.3676,   21.1367,   22.0475,   22.8586,   22.2815,   22.2371,   23.7951,   25.6108,   26.1512,   26.7295,  999.0000,  999.0000,  999.0000,  999.0000,  999.0000,  999.0000,  999.0000,  999.0000,  999.0000,  999.0000,   35.3367,   36.3684,   36.4188,   36.3844,   38.5386,  999.0000,
 29-OCT-1996 18:08:19.25,    4.9644,  999.0000,    4.6910,    4.6531,    5.4381,    5.2796,    5.3530,    5.3876,  999.0000,    5.9514,    7.0717,    8.3192,    8.4144,    8.1194,    8.0478,    7.3578,    6.8873,    6.8465,    8.4573,  999.0000,   11.3138,   12.0865,   12.2965,   10.4375,    8.7353,    8.8863,    9.9682,   12.2679,   13.8553,   15.9237,  999.0000,  999.0000,  999.0000,  999.0000,  999.0000,   15.7933,   16.3522,  999.0000,   18.0633,   19.6686,  999.0000,  999.0000,   23.0269,   17.4391,  999.0000,   23.5583,   25.3499,  999.0000,  999.0000,  999.0000,  999.0000,  999.0000,  999.0000,  999.0000,  999.0000,  999.0000,  999.0000,  999.0000,  999.0000,   37.3572,   37.8915,  999.0000,  999.0000,  999.0000,  999.0000,
 29-OCT-1996 18:10:58.41,    5.0105,  999.0000,    2.7622,    3.3029,  999.0000,    5.0372,    5.2439,    5.3605,    5.6003,    6.2412,  999.0000,  999.0000,  999.0000,  999.0000,  999.0000,  999.0000,  999.0000,  999.0000,  999.0000,   10.0204,   11.7255,   12.1313,   11.5524,   10.3369,    9.0410,    9.1346,   10.2538,   12.4014,   14.4665,   16.0192,   17.2942,   18.0245,  999.0000,  999.0000,  999.0000,   15.7433,   16.0856,   17.4997,   18.1487,   19.6675,   20.9169,   22.2285,   23.1180,   20.9095,   22.7927,   23.6591,  999.0000,   27.3395,   27.8039,   28.6801,   29.8748,   30.7485,  999.0000,  999.0000,  999.0000,  999.0000,  999.0000,  999.0000,  999.0000,  999.0000,  999.0000,   36.3073,  999.0000,  999.0000,  999.0000,
 29-OCT-1996 18:13:36.37,    5.0874,    5.5042,  999.0000,    5.4634,    5.3629,    5.4079,    5.4318,    5.3795,    5.6462,  999.0000,    8.4462,    8.9462,    8.2869,    7.8593,    7.8162,    7.2141,    7.2700,    7.3592,    7.9621,  999.0000,  999.0000,   11.7060,   11.7714,   10.1275,    9.3606,    9.0523,   10.3088,   12.2133,   14.6010,   15.8105,   17.2578,   17.3993,  999.0000,  999.0000,  999.0000,   15.6150,   16.2904,   17.3865,   18.4364,   19.9548,   20.6990,   21.8794,   22.8106,   22.6218,   22.6884,   23.7015,   25.3946,   26.9245,   27.9525,  999.0000,  999.0000,  999.0000,  999.0000,  999.0000,  999.0000,  999.0000,  999.0000,  999.0000,   33.0626,   35.3039,   37.7465,   38.3383,  999.0000,  999.0000,  999.0000,
 29-OCT-1996 18:16:15.45,    4.3945,  999.0000,  999.0000,  999.0000,    5.1186,    5.3018,    5.3344,    5.4119,    5.9229,  999.0000,    6.8056,    7.8578,    8.5359,    8.1250,    8.3480,    7.9384,    7.2113,    7.1054,    7.7157,  999.0000,   11.4311,   11.6796,   11.4191,   10.0770,    8.6827,    8.6976,    9.7550,   11.6785,   14.0163,   15.5090,   16.8702,   17.6667,   18.4301,  999.0000,   15.9568,   15.8092,   16.1031,   17.3450,   18.6199,   19.8157,   21.0905,   21.9978,   22.6678,   22.7123,   22.8610,   23.6685,   25.3159,   26.7054,  999.0000,  999.0000,  999.0000,  999.0000,  999.0000,  999.0000,  999.0000,  999.0000,  999.0000,  999.0000,  999.0000,   35.2894,   37.4676,   38.9994,   38.6153,   39.1177,   41.4235,
 29-OCT-1996 18:18:54.88,    1.9173,  999.0000,  999.0000,  999.0000,  999.0000,  999.0000,    5.2056,    5.4207,    5.8534,    6.0263,    6.4287,  999.0000,  999.0000,    7.8901,    8.4514,    8.0962,  999.0000,    7.1650,    7.8236,   10.5116,   11.4074,   12.1050,   12.1672,    9.7215,    7.9178,    8.3797,    9.2098,   11.3841,   13.8671,   15.4017,   16.5156,   17.7175,  999.0000,  999.0000,   15.8159,   15.8501,   15.7262,   16.8728,  999.0000,   19.5754,   21.1205,   22.1399,   22.5168,   22.7341,   22.7286,   23.2017,   24.9511,   26.7029,  999.0000,  999.0000,  999.0000,   28.7358,   30.0483,  999.0000,  999.0000,  999.0000,   31.6797,   32.8790,   32.7499,   34.5752,   36.7765,   38.7965,   38.2876,   39.1985,  999.0000,
 29-OCT-1996 18:21:33.94,    3.5241,    4.6317,  999.0000,    5.0900,    5.2207,    5.3415,    5.4046,    5.4061,    5.5168,  999.0000,  999.0000,  999.0000,    7.1768,    7.5335,    7.9823,    7.8032,    7.4812,    7.2850,  999.0000,  999.0000,   11.7111,   11.9928,   11.7370,    7.7652,    8.2136,    8.3916,    9.2006,   11.4328,   13.7177,   15.1058,   16.2066,   17.3350,   17.5861,   16.5022,  999.0000,   15.8103,   15.9221,   16.8482,  999.0000,   19.3590,   20.7574,   22.0398,   22.5114,   22.8730,   22.9437,   23.5828,   24.9017,   26.4475,  999.0000,  999.0000,  999.0000,  999.0000,  999.0000,   29.6456,   30.4473,  999.0000,  999.0000,  999.0000,  999.0000,   33.9928,   36.0075,   38.6191,   38.3148,   39.5545,  999.0000,
 29-OCT-1996 18:24:13.01,    4.9101,    5.4145,    4.7202,    4.6257,    4.6901,    4.8263,    4.8846,    4.8878,    5.3007,    5.8530,    5.9766,    6.2220,    6.7534,  999.0000,    8.4419,    8.2316,    7.4503,  999.0000,  999.0000,   10.0683,   11.4052,   12.0514,   12.2512,    3.0468,    3.4385,    4.9690,    5.1162,    7.1300,   11.3495,  999.0000,  999.0000,  999.0000,  999.0000,   10.2920,    9.2597,  999.0000,   15.6833,   16.6361,   18.1673,   19.1007,   20.3935,   21.6706,   21.9466,   22.1865,   22.4126,   22.9451,   24.6722,  999.0000,  999.0000,  999.0000,  999.0000,  999.0000,  999.0000,  999.0000,  999.0000,  999.0000,  999.0000,  999.0000,  999.0000,  999.0000,  999.0000,   37.7620,  999.0000,  999.0000,  999.0000,
 29-OCT-1996 18:26:49.97,    5.5650,  999.0000,    3.3492,    2.8634,    2.8285,    3.0960,    3.2680,    3.3844,  999.0000,    5.7769,    7.8536,  999.0000,    8.3060,    8.4311,    8.5491,    8.1461,    7.2183,    6.7171,    6.9305,    8.8893,  999.0000,  999.0000,   11.9126,    4.9662,    5.1727,    6.1664,    7.5768,  999.0000,  999.0000,  999.0000,  999.0000,  999.0000,  999.0000,  999.0000,  999.0000,   13.8198,   14.5203,   15.9112,   16.8643,   17.1117,  999.0000,   21.5250,   21.6586,   22.3399,   21.7739,   21.9789,   23.8317,   25.4895,  999.0000,  999.0000,  999.0000,  999.0000,  999.0000,  999.0000,  999.0000,  999.0000,  999.0000,  999.0000,  999.0000,   34.9642,   37.2184,   38.1696,   38.1939,  999.0000,  999.0000,
 29-OCT-1996 18:29:27.19,    5.8469,  999.0000,    4.2018,    3.6726,    3.5744,    3.6376,    3.2136,    3.2790,    4.5457,  999.0000,    8.5647,    9.0555,    8.5135,    8.6773,    8.5364,  999.0000,  999.0000,  999.0000,  999.0000,  999.0000,   11.5016,   12.5413,  999.0000,    9.0505,    8.0024,    8.2902,    9.6799,   11.4417,   13.9761,   15.4168,   16.5026,   16.5652,  999.0000,  999.0000,  999.0000,  999.0000,   14.6856,   15.7300,   17.4564,   18.2840,   19.4008,   20.5701,   21.1460,   21.4532,   21.8744,   22.2474,  999.0000,  999.0000,   27.5789,   28.3152,  999.0000,  999.0000,  999.0000,  999.0000,  999.0000,   29.2806,   29.4860,   31.0651,   33.4157,   35.1932,  999.0000,   37.5155,   37.7135,  999.0000,   40.2167,
 29-OCT-1996 18:32:06.44,    5.8725,    6.4489,    6.3340,    5.8292,    5.5209,    5.6525,  999.0000,    3.9711,    3.4016,    4.6864,  999.0000,  999.0000,    8.6508,    9.0497,    8.8952,    7.8039,    7.0548,    7.1222,    7.9231,  999.0000,   11.8731,   12.9697,   12.9687,    9.4109,    8.2739,    8.6903,   10.5379,   12.4224,   14.2571,   15.1726,   16.1782,   16.8731,  999.0000,  999.0000,  999.0000,   14.9302,   15.0467,   16.0252,   17.7747,   18.7390,   18.7700,   19.9292,   20.5031,   20.7106,   21.6695,   22.1790,   23.1769,   25.0988,   28.1566,   28.8405,  999.0000,  999.0000,  999.0000,  999.0000,  999.0000,  999.0000,  999.0000,  999.0000,  999.0000,   35.8031,   37.7147,   37.7417,  999.0000,  999.0000,   40.6337,
 29-OCT-1996 18:34:45.70,    4.0307,    5.1242,    5.2471,    5.3606,    4.9021,    4.7383,    4.7711,    4.8696,  999.0000,    8.0581,    9.7120,    9.8922,    9.5120,    9.5044,    9.1120,    8.0571,    7.9826,    8.0054,    8.3371,  999.0000,  999.0000,   12.9125,   13.0004,    8.4974,    8.4289,    8.6681,   10.7687,   12.6953,   13.9638,   15.0650,   16.0892,   17.0445,  999.0000,  999.0000,  999.0000,  999.0000,   15.0510,   15.9624,   17.4484,   18.2212,   18.7920,   20.0597,   20.5245,   21.0980,   21.4272,   21.8720,   23.1241,   25.4599,   27.0949,   27.7961,   28.6183,   28.6880,   29.2232,   29.6622,   29.8568,   30.2288,   30.4527,   31.9521,   34.7559,   36.8152,   37.6859,   38.4162,  999.0000,   40.9836,   41.2413,
 29-OCT-1996 18:37:25.07,    2.7680,  999.0000,  999.0000,  999.0000,    3.4605,    3.4155,    3.6087,    3.4582,    4.4037,    6.7897,    9.4019,    9.5997,    9.2130,  999.0000,  999.0000,  999.0000,    7.7052,    7.8510,    8.2094,   10.0772,   12.5707,   13.1248,   13.1299,    8.7037,    8.4909,    9.0856,   11.0702,   12.8792,   14.3809,   15.1502,   16.0371,   16.2969,   16.9359,  999.0000,  999.0000,  999.0000,   14.8729,   16.1363,   17.3872,   18.2821,   18.4860,   19.9199,   20.8393,   21.3881,   21.2654,   21.9617,   23.0601,   25.5680,   26.9209,   27.4574,   27.7392,  999.0000,  999.0000,  999.0000,  999.0000,  999.0000,  999.0000,   32.5482,   34.6587,   37.0367,   37.5686,  999.0000,  999.0000,   41.7124,  999.0000,
 29-OCT-1996 18:40:02.13,    4.7319,    4.1326,    3.7614,    3.6190,  999.0000,    5.1474,    5.3658,  999.0000,    4.4171,    5.9167,  999.0000,    9.3121,    8.6031,    8.5446,    8.9275,    7.6346,    7.0465,    7.3370,    8.8367,  999.0000,   12.6751,   13.1495,   13.3225,    8.7242,    8.7811,    9.3821,   11.0898,   12.6678,   14.0888,   15.0204,   16.0436,   16.4645,   16.9989,  999.0000,  999.0000,  999.0000,   14.9778,   16.4799,   17.4305,   18.4552,   18.7775,   20.2880,   20.4751,   20.6789,   21.5689,   22.9394,  999.0000,  999.0000,  999.0000,  999.0000,  999.0000,  999.0000,  999.0000,  999.0000,  999.0000,  999.0000,  999.0000,  999.0000,  999.0000,  999.0000,  999.0000,  999.0000,   38.6288,   41.3418,   40.9357,
 29-OCT-1996 18:42:41.40,    5.6265,    5.6351,    5.3956,    5.2002,    5.0576,    5.1432,  999.0000,    6.4072,    6.9724,    8.0112,    9.5636,    9.6312,    9.1853,    8.9879,    8.5846,    8.3250,    7.8081,    8.2266,    9.8618,   11.3811,   12.5095,   12.8813,   12.6754,  999.0000,    7.3133,    9.3777,   10.5657,   12.5165,   13.9146,   15.1844,   16.1757,   16.1919,  999.0000,  999.0000,  999.0000,  999.0000,  999.0000,  999.0000,   17.5689,   18.7969,   19.2169,   20.0772,   20.8139,   15.2443,   21.3145,  999.0000,  999.0000,  999.0000,  999.0000,  999.0000,  999.0000,  999.0000,  999.0000,  999.0000,   28.9412,   30.7073,   32.0246,   33.6172,   33.9484,   35.2554,   36.6773,   39.1911,  999.0000,  999.0000,  999.0000,
 29-OCT-1996 18:45:20.63,    5.7222,    5.8736,  999.0000,  999.0000,  999.0000,  999.0000,  999.0000,  999.0000,  999.0000,  999.0000,  999.0000,    9.7630,    9.6018,    9.6396,  999.0000,  999.0000,  999.0000,    8.7521,    9.2430,  999.0000,  999.0000,   12.5503,   12.5488,    8.6233,    8.2362,    9.7539,   11.2593,   13.0664,   14.6318,   15.4932,   16.1339,   16.9626,   17.3853,   16.3942,   16.8901,   15.7844,   14.9937,  999.0000,   17.5171,   18.0589,   18.8898,   20.3620,   20.3761,   18.6792,   21.0652,   21.4009,   22.5949,   25.1945,  999.0000,  999.0000,  999.0000,  999.0000,  999.0000,  999.0000,   29.8675,   30.3308,   31.3992,   33.4406,   34.5097,   36.3454,   37.4421,   38.9145,   39.7695,  999.0000,   39.9576,
 29-OCT-1996 18:47:57.90,    5.2375,    5.5003,    4.8137,    3.6403,    2.4582,  999.0000,    4.8518,    5.5908,    7.0576,    8.0450,    9.2538,    9.9429,    9.3322,    9.1888,    9.0166,    8.7959,    8.3643,    8.6999,    9.3176,   11.3308,   12.7493,   13.0827,   13.1498,    8.4193,    8.7933,   10.1737,   11.5233,   13.1486,   14.3174,   15.0990,   16.3592,   17.3683,   16.8742,   16.6859,   17.1305,   15.4320,   15.2114,   16.6460,   15.8716,   18.1554,   19.6055,   20.8246,   20.9232,   20.9114,   21.6463,   22.2047,   23.1684,   25.4827,   27.2175,   27.6671,   28.5113,   28.5445,   28.9534,  999.0000,  999.0000,  999.0000,  999.0000,   33.2531,   35.0612,   37.3619,   37.7665,   38.4450,  999.0000,  999.0000,  999.0000,
 29-OCT-1996 18:50:35.23,    5.1762,    5.3571,    5.4751,  999.0000,    2.9295,    3.2018,    4.4445,    5.2543,    6.6903,    7.9319,    8.9620,   10.0632,    8.9654,    8.8410,    8.8106,    8.4235,    8.0351,    8.2290,    8.9020,   10.7428,   12.4346,   12.8394,   12.4135,    3.6037,    4.9515,  999.0000,    8.0150,  999.0000,  999.0000,   15.6553,   16.3939,   16.5350,  999.0000,  999.0000,   16.3133,   14.9907,   15.0914,   16.5978,   17.7273,   17.8825,   19.1343,   20.6209,   20.5402,   19.8642,   20.7069,   21.4875,   22.1832,   24.2236,   26.4243,   27.9482,   28.9043,   28.5687,   28.3369,  999.0000,  999.0000,   29.8749,   31.0861,   33.1430,   35.2583,   37.6662,   37.8576,   38.5147,   39.3250,   40.6958,  999.0000,
 29-OCT-1996 18:53:12.19,    5.4229,    5.4751,    5.4708,    5.3105,    4.5719,    4.6650,    5.0079,    5.1610,    5.7587,    7.2075,    8.1607,    9.4495,    8.9233,    8.7600,    8.8847,    7.8199,    7.5921,    7.8285,    8.8260,   10.4314,   11.6841,   11.8856,   10.7946,    4.8603,    6.3020,    9.4156,    9.4888,   12.9620,   14.9214,  999.0000,   16.2481,  999.0000,  999.0000,   15.9540,   15.6591,  999.0000,  999.0000,   16.7829,   17.6324,   17.6356,   19.3641,   20.2780,  999.0000,   14.4091,   21.0406,   21.9919,   22.8619,   23.8688,  999.0000,   27.8507,  999.0000,  999.0000,  999.0000,  999.0000,  999.0000,  999.0000,   31.2694,   33.0269,   36.1072,   38.1334,   37.9436,   39.5873,  999.0000,  999.0000,  999.0000,
 29-OCT-1996 18:55:51.77,    5.3406,    5.3774,  999.0000,  999.0000,  999.0000,  999.0000,    4.5028,    4.5562,  999.0000,  999.0000,  999.0000,    7.9013,    7.0263,    7.0589,    8.6064,  999.0000,  999.0000,    7.1677,    8.7075,   10.5347,   11.4369,   11.9445,   10.9677,  999.0000,    8.4153,    9.4568,   11.8517,   14.0115,   14.7589,   15.4584,   16.3894,   17.0656,  999.0000,   15.8076,   15.4619,   14.8757,   15.3480,   17.1577,   17.8073,   17.9722,   19.5588,   20.7807,   21.2213,   20.8227,   19.7380,   20.8875,   21.8198,   24.2719,  999.0000,   28.3131,   28.9317,  999.0000,  999.0000,   28.8036,   28.9615,   29.2983,   31.2305,   33.8828,   36.2089,   38.3088,   38.5679,   39.1862,   39.9030,   40.4243,   40.0879,
 29-OCT-1996 18:58:31.04,    5.3556,    5.3237,    5.4804,  999.0000,    2.3737,    2.6399,  999.0000,  999.0000,    4.4376,    5.9410,  999.0000,  999.0000,    4.4996,    4.8753,  999.0000,  999.0000,  999.0000,    7.5678,    8.4914,   10.4306,   11.5594,   12.0975,  999.0000,  999.0000,    9.0791,    9.2429,   11.9835,   14.0439,   14.8365,   15.6597,   16.2745,   16.4488,   16.6419,   16.2087,   15.6990,   14.8686,   16.0406,   17.7220,   18.0117,   18.5138,   20.1832,   20.9355,   21.5345,   19.5353,   20.2882,   21.3993,   22.4134,   24.9700,   26.9688,   28.4746,   29.4365,   28.7211,  999.0000,  999.0000,  999.0000,  999.0000,  999.0000,   33.9031,   35.7023,   37.7216,   39.1414,   39.4561,   39.9782,   39.8066,   40.1284,
 29-OCT-1996 19:01:08.13,    5.3566,  999.0000,  999.0000,  999.0000,  999.0000,  999.0000,    4.1029,    5.2036,    5.4219,    5.9517,    5.9246,    6.2338,    7.6837,    7.7923,    7.6149,    6.9900,    6.8984,    7.5990,    8.4949,    9.6863,   10.9642,   11.7033,   11.2689,  999.0000,    8.5012,    9.7639,   12.3333,   13.9542,   14.6327,   15.7059,   16.3090,   16.7468,   16.5478,   15.9479,   15.5535,  999.0000,   15.9651,   17.2715,   17.7958,   18.8603,   20.4108,   20.7571,   21.1234,   20.1321,   20.0997,   21.3256,   22.5847,   25.2009,  999.0000,  999.0000,  999.0000,  999.0000,  999.0000,   28.6986,   29.1301,   30.9290,   32.0421,   34.1809,   36.3045,   38.8008,   40.2876,   40.9589,   41.1738,  999.0000,   40.6156,
 29-OCT-1996 19:03:45.12,    5.4740,    5.4580,  999.0000,  999.0000,  999.0000,    2.1238,    2.6055,  999.0000,  999.0000,    5.8106,    6.0781,    7.0001,    7.2150,    6.7325,    7.1455,  999.0000,    7.0677,    7.5454,    8.8368,   10.1772,  999.0000,  999.0000,  999.0000,    8.3609,    8.5893,    9.8346,   12.3324,   13.8661,   14.6665,   15.6227,   16.2712,   16.7550,   16.4245,   16.0958,   15.6013,  999.0000,   16.1914,   17.2811,   17.8450,   19.1627,   20.7073,   21.1617,   21.3307,   20.2668,   20.4288,   21.7125,   22.8995,   25.2864,  999.0000,  999.0000,  999.0000,  999.0000,  999.0000,  999.0000,   30.5969,   31.4208,   32.1646,  999.0000,  999.0000,   39.3288,   40.2216,   39.6707,   40.4405,  999.0000,   39.8787,
 29-OCT-1996 19:07:15.64,    5.4924,    5.3935,    4.6289,    3.7236,  999.0000,    1.8413,    3.1298,    4.7843,    5.2494,    5.6738,    6.2173,    7.1990,    7.6335,    7.5136,    7.6971,    7.3313,    7.3407,    7.7952,    8.5697,    9.8145,   10.4714,   10.8910,   10.3876,  999.0000,    9.2514,   10.5399,   12.2780,   14.0173,   14.5247,   15.4497,   16.1961,   16.4535,   16.4290,   16.2261,   15.5812,   14.8432,   16.1502,   17.2501,   17.5736,   19.3327,   20.6231,   20.6197,  999.0000,   19.1515,   20.0188,   21.5690,   22.7159,   24.6058,   26.8207,   28.3037,   27.8366,   28.0454,   28.4040,   29.2599,   30.6839,  999.0000,  999.0000,   34.3667,   35.4067,   37.7538,   39.2313,   39.0145,  999.0000,   39.3786,   39.6477,
 29-OCT-1996 19:09:52.63,    5.5074,  999.0000,  999.0000,  999.0000,  999.0000,  999.0000,  999.0000,  999.0000,  999.0000,  999.0000,    6.1935,    7.7457,    7.8212,    8.1119,    8.3459,    7.3556,    7.2213,    7.8007,    9.1783,   10.0450,   10.7390,  999.0000,  999.0000,  999.0000,    8.9405,   10.1443,   11.9491,   13.8655,   14.7133,   15.7207,   16.2546,   16.4495,   16.1809,   15.9207,   15.2104,   14.7235,   15.8514,   16.9255,   17.7087,   19.6466,   20.5202,   20.3892,   20.6671,   19.3597,   20.1789,   21.8922,   23.1688,   25.3419,   26.7286,   27.1519,   27.9606,   28.5349,   28.3418,   29.4645,   30.3399,   30.7687,   32.7125,   34.4833,   35.9888,   37.5355,   38.4858,   39.2573,  999.0000,  999.0000,  999.0000,
 29-OCT-1996 19:12:31.76,    5.6096,  999.0000,    4.6195,    4.3117,    4.2696,  999.0000,    5.3070,    5.5561,    5.8025,    5.9499,    5.7496,  999.0000,  999.0000,    7.8985,    7.9520,    7.1056,    7.2985,    7.7025,    8.6309,    9.6172,  999.0000,   10.7893,    9.8291,  999.0000,  999.0000,  999.0000,   12.1413,   13.5720,   14.5452,   15.6165,   16.5899,   16.3335,   16.1263,   15.9152,   15.0130,   14.9524,   15.8532,   16.8255,   18.0683,   19.4744,   20.3337,   20.4816,   20.1489,   19.0002,   20.4553,   22.0508,   23.4877,   25.6758,   26.5751,   26.5975,   28.1742,   29.1283,   29.0060,   30.1108,   31.1314,   31.3067,   32.6582,   34.1278,   36.1972,   37.1485,   38.1255,   39.0711,   40.6336,  999.0000,  999.0000,
 29-OCT-1996 19:15:10.80,    5.3139,    5.2873,    3.8471,    3.2352,    4.8250,    4.9772,    5.3976,    5.7460,    6.1646,  999.0000,    7.9226,    7.8244,  999.0000,    8.1956,    7.8762,    7.5148,    8.2237,    8.6191,    8.5297,  999.0000,   11.1134,   11.5179,  999.0000,  999.0000,    8.3799,   10.2328,   12.7791,   14.5470,   15.1630,   15.5929,   16.6139,   16.9913,   16.5530,   16.3195,   15.4488,   15.5768,   15.9798,   16.6953,   18.2627,   19.6133,   20.2928,   20.5225,   20.1933,   18.9904,   20.3980,   21.8397,   23.0510,   25.3108,   26.5464,   26.7802,   28.1727,   29.6739,  999.0000,  999.0000,  999.0000,   31.8031,   32.8739,   34.4020,   36.9125,   37.3944,   38.5166,   39.1481,  999.0000,  999.0000,  999.0000,
 29-OCT-1996 19:17:48.22,    5.0392,  999.0000,    2.0844,    1.4532,  999.0000,    4.8566,    5.5197,    5.6520,    6.1129,    6.9987,    7.3901,    6.7936,    6.8802,    7.8015,    7.0382,    7.6507,    8.2972,    9.0438,    9.0627,  999.0000,   10.5236,  999.0000,    8.9793,    8.0469,    9.5879,   10.6549,   12.6723,   14.5277,   15.0853,   16.3029,   16.5978,   17.2900,   16.7489,   16.1341,   15.3888,   15.8195,   16.0057,   16.3236,   18.5020,   20.1208,   20.7530,   20.8739,   20.0439,   19.0710,   20.7438,   22.2377,   23.2122,   25.1294,   26.5655,   26.9047,   27.8087,   28.7123,   28.3229,   29.6931,   31.3028,   32.5145,   33.8306,   35.1667,   37.7260,   37.6327,   38.6868,   39.5562,  999.0000,  999.0000,  999.0000,
 29-OCT-1996 19:20:25.56,    5.4758,  999.0000,    5.2454,    5.1230,    5.0777,  999.0000,    5.5170,    5.6489,    5.9194,    6.6499,    7.6731,    7.9540,    7.9363,    8.1633,    7.7682,    7.6378,    8.0281,    9.1415,  999.0000,   10.2474,   10.9949,   11.0614,  999.0000,  999.0000,    9.4060,   10.7054,   12.5758,   13.8504,   14.8009,   15.9491,   16.3279,   17.3255,   16.8251,  999.0000,   15.1816,   15.6681,   15.9317,   16.9916,   18.9018,   20.3923,   20.8079,   21.2127,   20.2372,   19.3836,   21.1726,   22.3769,   23.6171,   25.6558,   26.8117,   27.0535,  999.0000,  999.0000,  999.0000,   29.5442,   31.1326,   33.0583,   34.3471,   35.3173,   37.7925,   37.4659,   38.5809,   39.9579,   41.8170,  999.0000,   39.0609,
 29-OCT-1996 19:23:02.80,    5.6909,    5.4718,    4.9184,    4.0868,    4.2166,  999.0000,    5.4837,    5.6187,    5.7561,    6.3534,    7.6996,    9.1313,    9.1182,    8.7610,    8.1557,    8.3535,    8.7127,    9.1340,    9.3778,    9.6123,   10.4189,  999.0000,    8.7641,    7.7704,    9.4699,   10.4962,   11.8802,   13.4929,   14.5106,   15.5343,   16.6033,   17.3432,   16.6971,   16.0835,   15.2437,   15.6610,   15.8434,   17.2294,   18.8407,   20.3864,   20.8567,   20.9018,   19.7883,   19.4915,   21.0520,   22.2429,   23.9729,   26.0024,   26.3433,   26.7597,   27.7389,   28.2149,   28.8509,   30.1933,   31.4985,   33.5265,   34.9566,   35.8964,   38.0129,   37.5799,   38.8858,   39.1630,   40.7577,  999.0000,  999.0000,
 29-OCT-1996 19:25:40.52,    5.9865,    5.5581,    4.7485,  999.0000,    2.7547,    5.0294,    5.0481,    5.0157,    5.0225,    6.1124,    7.3713,    8.5084,    8.8258,    8.6771,    8.1923,    8.4200,    8.7044,    9.0075,    9.4402,  999.0000,   10.4278,   10.7093,    8.6638,    7.4112,    8.7957,   10.4041,   11.7238,   13.3166,   14.7379,   15.1759,   16.2541,   16.9148,   16.8571,   15.7732,   15.2317,   15.7793,   15.4058,  999.0000,   18.4874,   20.1141,   21.2733,   20.9605,   19.8686,   19.7965,   21.3502,   22.5634,   24.4442,   26.7277,   26.9958,   27.2404,   28.2612,   28.5810,   29.2842,   30.4926,   31.9137,   34.6195,   35.7267,   36.6168,   38.4196,   38.2436,   39.7074,  999.0000,  999.0000,  999.0000,   40.1514,
 29-OCT-1996 19:28:17.51,    5.5965,    5.4268,  999.0000,    2.1545,    1.6315,  999.0000,    5.0674,    5.5709,    5.6159,    6.4661,    8.0183,    8.5780,    8.7529,    9.0633,    8.8301,    7.9971,    8.4309,    9.0391,   10.2940,   10.4666,   11.1667,   11.5113,  999.0000,    7.7420,    8.8150,   10.5984,   11.5610,   12.6486,   14.1634,   14.9592,   15.9675,   17.2306,   16.7264,   15.6413,   14.7924,   15.5150,   15.5612,   16.8920,   18.4071,   20.2121,   21.6250,   21.1141,   20.0990,   20.0732,   21.7096,   22.8934,   24.3265,   26.5894,   27.4843,   27.6574,   28.8909,   28.9491,   29.1946,   30.5315,   32.1443,   35.0650,   36.0487,   36.3627,   38.1539,   38.3685,  999.0000,  999.0000,   40.6754,   39.7258,   40.0176,
 29-OCT-1996 19:30:56.80,    5.5669,    5.0555,    4.7262,    4.4337,    4.4572,    4.9176,    5.4333,    5.5280,    5.6036,    6.3028,    7.8213,    8.5499,    8.7563,    8.9501,    8.6178,    8.1676,    8.6117,    9.4681,   10.1051,   11.1759,   11.7374,   11.8113,   11.5856,  999.0000,    8.8182,    9.6277,  999.0000,   12.7502,   14.2679,   15.1417,   15.8819,   16.6297,   17.2383,   15.7425,   14.7346,   15.5087,   15.6826,   16.8422,   18.2244,   20.0585,   21.3162,   20.9569,   19.6792,   20.2640,   21.8640,   23.0668,   24.0169,   25.7863,   26.5183,   27.7549,  999.0000,  999.0000,   29.2189,   30.9284,   32.5923,   34.9886,   35.8686,   36.4108,   38.1585,   37.7512,   39.8065,   40.3169,   41.9533,   41.7169,   40.4844,
 29-OCT-1996 19:33:35.82,    4.9359,  999.0000,  999.0000,  999.0000,  999.0000,  999.0000,  999.0000,  999.0000,  999.0000,    6.7841,    8.0246,    8.9749,    9.2284,    9.5661,    8.6138,    8.0721,    8.7482,  999.0000,  999.0000,  999.0000,  999.0000,  999.0000,  999.0000,    7.9577,    8.6226,    9.7316,   10.5921,   12.1748,   13.9225,   14.8931,   15.7481,   16.9233,   17.0574,   15.2227,   14.6520,   15.8185,   15.8409,   16.9115,   18.2652,   20.0485,   21.3096,   21.1010,   20.4301,   19.8120,   21.6795,  999.0000,   24.3903,   25.9939,   26.4340,   28.2506,   29.1179,   29.1872,   29.8466,   31.3789,   33.2999,   35.3294,  999.0000,  999.0000,  999.0000,  999.0000,  999.0000,  999.0000,  999.0000,  999.0000,  999.0000,
 29-OCT-1996 19:36:12.94,    3.8225,    3.1327,    2.9392,    2.9591,    2.4010,    2.5267,  999.0000,    4.5290,    5.1695,    6.2684,    7.7849,    8.5450,    8.7240,    8.7766,    7.9824,    7.7911,    8.5891,    9.8566,    9.7325,   10.2728,   10.9134,   11.0725,   10.8099,    7.0196,    8.4108,    9.5441,   10.4650,   11.8769,   13.5477,   14.7153,   15.4379,   16.6844,   16.7906,   14.9408,   14.4826,   15.5593,   15.9891,   16.7927,   17.9429,   19.7674,   21.1845,   20.6864,   19.9316,   19.9333,   21.7165,   23.2625,   24.7407,   26.0357,   26.7618,   28.6706,   29.0255,   29.0969,   29.8922,   31.3268,   33.5997,   36.0598,   36.3335,   35.7598,   37.3796,   37.9496,  999.0000,  999.0000,  999.0000,   38.6351,   38.7757,
 29-OCT-1996 19:38:52.17,    5.7736,  999.0000,  999.0000,    3.7587,    3.5192,  999.0000,  999.0000,    3.4287,    4.3673,    5.8492,  999.0000,  999.0000,    8.0167,    8.1903,    8.0456,    7.6726,    8.4644,    9.2200,    9.7970,  999.0000,   10.9997,   11.2404,   10.8975,    6.3637,    8.1213,    8.5777,  999.0000,   12.1372,   13.3853,   14.5171,   15.1748,   16.6170,   16.8785,  999.0000,   14.1947,   15.1708,   15.5349,   16.6204,   17.7320,   19.5007,   21.0046,   20.5667,   19.5864,   20.1467,   21.6873,   23.2092,   24.7841,   25.8875,   26.4482,   28.7914,   29.1568,   28.7152,   29.2600,   30.8124,  999.0000,  999.0000,  999.0000,   36.3989,   37.7744,  999.0000,  999.0000,  999.0000,   41.6985,   39.8530,   38.8789,
 29-OCT-1996 19:41:31.68,    5.6818,    5.2783,  999.0000,    4.6962,    3.5658,    3.7436,    4.7530,    5.2531,    5.6664,    6.0444,    6.4273,    7.5512,    8.3892,    8.3541,    7.6847,    7.3350,    7.8435,    8.6612,    9.7811,   10.0985,   10.3981,   11.2302,   10.9650,  999.0000,    8.2457,    8.4031,   10.2453,   12.5737,   13.1776,   14.5287,   15.3180,   16.5438,   16.4358,   15.1406,   14.4968,   15.0273,   15.5163,   16.5708,   17.4738,   19.3952,   21.1613,   20.2277,   18.9525,   20.1468,   21.9928,   23.3837,   24.9154,   26.1876,   26.9181,   29.1300,   29.8705,   28.9780,   29.5190,   31.3312,   33.9937,   36.3017,   35.8263,   35.9447,   37.7584,   38.1776,   39.7386,   39.7776,  999.0000,  999.0000,   39.0096,
 29-OCT-1996 19:44:08.97,    5.5087,  999.0000,  999.0000,  999.0000,  999.0000,  999.0000,    4.6843,    5.3472,  999.0000,    6.1559,    6.4128,  999.0000,    8.3642,    8.5119,    7.7986,    7.5675,    8.0051,    8.9318,    9.2092,  999.0000,  999.0000,  999.0000,  999.0000,    6.6454,    8.5548,    9.0043,   10.3584,   12.4511,   13.4986,   14.6995,   15.7539,   16.7532,  999.0000,   15.0761,   14.8938,   14.8731,   15.4003,   16.6327,   17.6813,   19.2182,   20.7895,   20.1595,   18.8477,   19.9563,   22.1961,   23.7728,   25.1348,   26.7503,   27.7754,   29.1988,   29.8087,   29.0984,   29.1183,   31.0779,   32.9075,   35.2532,   36.6805,   36.3362,   37.0796,   37.8792,   39.3641,   40.5711,  999.0000,  999.0000,   39.8376,
 29-OCT-1996 19:46:46.45,    5.4793,    5.3250,    4.9635,    4.8913,    4.6701,  999.0000,    4.2558,    5.2586,    5.7919,    6.4133,    6.6051,    7.4313,    8.3999,    8.1913,    7.7805,    7.6917,    8.1660,    8.6345,    9.5155,   10.2279,  999.0000,   11.1233,   10.8756,  999.0000,    8.3898,    9.1670,    9.7048,   12.7725,   13.7839,   14.9063,   15.9154,   17.1574,   16.8242,  999.0000,  999.0000,   15.2822,   15.3995,   16.2561,   17.3589,   18.6465,   20.3606,   20.1783,   18.7280,   19.9553,   22.1661,   23.6472,   24.6991,  999.0000,  999.0000,  999.0000,   28.9097,   28.9978,  999.0000,  999.0000,  999.0000,   34.9048,   36.2757,   35.9958,   37.3285,   39.1545,   40.4785,   41.5226,   41.7129,  999.0000,  999.0000,
 29-OCT-1996 19:49:26.79,    4.8202,    5.4106,  999.0000,  999.0000,    4.2604,    4.2220,    4.5538,  999.0000,    5.4817,    6.3020,    7.0400,    8.4269,    8.4716,    8.0178,  999.0000,    7.2836,    7.6618,    8.4940,    9.5027,   10.0043,   10.4995,   10.6347,  999.0000,    6.8746,    7.8337,    9.0798,   10.2902,   12.8194,   13.8608,   15.1011,   15.6964,   16.8517,  999.0000,  999.0000,   14.6224,   15.0315,   15.1184,   15.7924,   16.7640,   18.1692,   20.1450,   20.3741,   18.5519,   19.6864,   22.0976,   23.7803,   25.0748,   26.7702,   28.1635,  999.0000,  999.0000,   28.8485,   29.2908,   31.3360,   33.1434,   34.9018,   35.2794,   35.7493,   37.2171,   39.7419,   42.0934,   42.3174,  999.0000,  999.0000,  999.0000,
 29-OCT-1996 19:52:06.97,    3.6437,  999.0000,    2.6895,    1.5890,  999.0000,  999.0000,  999.0000,  999.0000,  999.0000,    5.4382,    5.9103,    7.5770,    8.1986,    8.1740,    7.6868,    7.4111,    8.0673,    9.0069,    9.9173,   10.1514,   10.3681,  999.0000,  999.0000,  999.0000,    7.8529,    8.7522,    9.8806,   12.2254,   13.9196,   14.9631,   15.4062,   16.4409,   16.3266,  999.0000,  999.0000,   14.8650,   15.2394,   15.5231,   16.4479,   17.6197,   19.5085,   19.6477,   18.1259,   19.3230,   21.5644,   23.4551,   25.1620,   26.5510,   28.0492,   28.4911,   28.1308,   28.8310,   29.4941,   31.5368,   33.1933,   34.7965,   34.9436,   35.6358,   37.4691,   39.6874,   41.7880,   42.4734,   43.1334,  999.0000,   39.4400,
 29-OCT-1996 19:54:46.02,    4.7385,  999.0000,    2.9969,    2.3496,  999.0000,  999.0000,  999.0000,  999.0000,  999.0000,  999.0000,  999.0000,    6.6918,    7.5089,    7.6633,    7.5580,    7.6080,    8.2658,    8.8005,    9.3602,  999.0000,   10.0557,   10.1764,  999.0000,    8.8070,    7.8043,    8.7183,    8.8858,   12.0372,   13.5229,   14.8567,   15.0507,   16.2574,  999.0000,   15.5232,   14.5345,   14.9496,   15.0951,   15.6193,   16.6709,   17.3684,   18.7872,   19.5256,   18.1062,   19.2090,   21.2434,   23.2533,   25.5155,   26.9142,   27.9835,   28.5480,   28.5724,  999.0000,  999.0000,  999.0000,  999.0000,  999.0000,  999.0000,   35.8936,   37.3746,   39.1707,   41.5897,   42.7912,  999.0000,   39.9369,  999.0000,
 29-OCT-1996 19:57:23.43,    5.5875,    5.4843,    5.4281,    5.4222,  999.0000,    3.4143,    2.8993,    3.7034,    4.2969,    5.6057,    5.9684,    7.1173,    7.4510,    7.7531,    7.6530,    8.1032,    9.1362,    8.8046,    8.7997,    9.3894,   10.2380,   10.3902,  999.0000,    7.1701,    7.8603,    8.4748,    8.9525,   12.4349,   13.7735,   15.0898,   15.2207,   16.3225,  999.0000,   14.8933,   14.2793,   14.7481,   15.1772,   15.6301,   16.4653,   17.7047,   19.2154,   19.4429,   18.4045,   19.4023,   21.3024,   23.5106,   25.6769,   26.9396,   28.5870,   29.2540,   28.5951,   29.6392,   30.7558,   32.2595,   34.4674,   35.5042,   34.4728,   35.7372,   38.0740,   39.9419,  999.0000,  999.0000,  999.0000,   40.3985,  999.0000,
 29-OCT-1996 20:00:00.45,    6.0610,    5.6397,    4.7532,    4.3724,    3.7688,  999.0000,    2.8301,    3.1964,    3.8368,  999.0000,    6.6863,    7.5688,    7.4757,    7.3488,    7.5370,    7.7946,    8.2082,    8.7590,    8.7027,    9.4029,   10.3249,   10.4927,  999.0000,    5.2336,    8.1477,    8.7310,   10.3291,   12.5741,   14.4333,   15.4877,   15.5958,   16.5457,   15.8484,   14.8308,   14.2389,   14.5930,   14.9445,   15.6252,   16.7216,   18.0702,   19.8336,   20.0201,   18.7485,   19.6366,   21.6940,   24.0968,   26.1717,   26.6830,   27.4002,   28.5907,   28.8587,   30.3127,   31.0143,   32.8210,  999.0000,  999.0000,  999.0000,  999.0000,  999.0000,   41.1508,   43.5709,   43.4833,  999.0000,   40.1273,   39.6459,
 29-OCT-1996 20:02:39.49,    6.0028,  999.0000,    3.1059,    1.5756,    2.5361,    2.6909,    3.1512,    3.0828,    4.1114,    6.3860,    7.2493,    7.8400,  999.0000,  999.0000,  999.0000,    7.6727,    8.4982,    9.1465,    9.4821,   10.6916,   11.1550,  999.0000,  999.0000,  999.0000,    7.9577,    9.0113,   10.1141,   13.2471,   14.7776,   15.6278,   16.0915,  999.0000,  999.0000,  999.0000,  999.0000,   14.7311,   14.7746,   15.8006,   16.9612,   18.4525,   20.0537,   19.7716,   18.8707,   20.4702,   21.4586,  999.0000,   26.2645,   27.0707,   27.4715,   28.2253,   28.6566,   30.1377,   31.3744,   33.6018,   35.5932,   36.0552,   34.9110,   36.0070,   38.7435,   41.5127,   43.5270,   43.6252,   43.8145,  999.0000,  999.0000,
 29-OCT-1996 20:05:19.18,    5.6535,    5.4208,  999.0000,  999.0000,    2.6530,    1.9885,  999.0000,    1.3962,    1.4648,  999.0000,    7.7979,    8.7396,    8.6635,    8.3442,    8.2118,    8.2004,    8.8615,  999.0000,    9.9324,   10.6434,   10.7063,  999.0000,  999.0000,    6.5103,    7.9518,    9.1509,   10.6423,   13.5901,   15.0718,   15.9241,   16.5696,   17.1846,   16.5951,   14.8368,  999.0000,   14.4402,   14.8957,  999.0000,   17.1672,   18.9989,   20.2860,   19.8866,   18.6966,   19.7493,   21.3586,  999.0000,  999.0000,  999.0000,   27.3320,   27.8341,   27.8724,   29.9453,   31.5909,   33.6111,   35.5506,  999.0000,  999.0000,  999.0000,  999.0000,   41.4309,   42.0566,   42.9375,   43.6368,  999.0000,  999.0000,
 29-OCT-1996 20:07:56.78,    5.8174,    5.0091,    4.0909,  999.0000,  999.0000,  999.0000,    4.0815,    4.6257,  999.0000,  999.0000,  999.0000,    8.4561,    8.7119,    8.8419,    8.8956,    8.9633,    9.0647,  999.0000,   10.4923,   11.4989,   11.7680,  999.0000,  999.0000,  999.0000,    8.0254,    9.1789,  999.0000,   13.4795,   15.1911,   15.6391,   15.9231,   16.7056,   15.8965,   15.5728,  999.0000,   14.1345,   15.0313,   15.8669,   17.1670,   18.7480,   20.3664,   20.0337,   19.3819,   19.6783,   21.5010,   23.8504,   26.0101,   27.1283,   28.2138,   28.6279,  999.0000,   30.0180,   31.3427,  999.0000,  999.0000,  999.0000,  999.0000,  999.0000,  999.0000,   41.1258,   41.7208,   42.7827,  999.0000,   40.3916,   39.9567,
 29-OCT-1996 20:10:33.99,    4.6422,  999.0000,    3.4386,    2.2725,    0.8511,    0.4600,  999.0000,    4.5861,    5.6446,    5.8937,    7.0213,    8.6594,    8.8084,    8.5989,    8.6411,    8.7467,    8.6895,    9.0538,   10.2670,   11.2843,   11.4782,  999.0000,  999.0000,  999.0000,    6.4012,    7.6239,   10.2944,   11.4089,   13.9032,   15.0196,  999.0000,  999.0000,  999.0000,    6.8458,  999.0000,   14.0173,   14.4435,   15.0834,   16.5739,   18.5388,   20.0802,   19.4035,  999.0000,   18.1175,   20.7542,   22.5584,  999.0000,  999.0000,  999.0000,  999.0000,  999.0000,  999.0000,  999.0000,  999.0000,  999.0000,  999.0000,  999.0000,  999.0000,   20.4288,   24.5371,  999.0000,  999.0000,  999.0000,  999.0000,  999.0000,
 29-OCT-1996 20:13:10.97,    3.3297,    3.8901,    3.9403,    3.2996,  999.0000,    0.6398,    0.2009,  999.0000,  999.0000,    5.9104,    6.9567,    8.2269,    8.6818,    8.4853,    8.4495,    8.4206,    8.3282,    8.9607,  999.0000,   10.5393,   10.3728,  999.0000,  999.0000,  999.0000,  999.0000,  999.0000,   11.2345,   12.7208,   14.7839,   15.5198,   15.6104,   15.8429,   15.2100,   11.6003,  999.0000,   13.8433,   14.3472,   15.2899,   16.3293,   18.2590,   19.7966,   19.8569,   19.8436,   18.7642,   20.9780,   23.8117,   25.7028,   26.6277,   27.2555,   27.2725,   27.9120,   29.1169,   30.7312,  999.0000,  999.0000,   37.3482,   36.3500,   36.6145,   32.6268,  999.0000,  999.0000,  999.0000,   41.9107,   40.5271,   40.5662,
 29-OCT-1996 20:15:48.09,    4.2022,    4.6824,    4.6061,    3.8192,  999.0000,    0.0802,    0.3826,  999.0000,  999.0000,  999.0000,    6.7368,    7.9360,    8.7216,    8.4103,    8.1439,    7.8702,    8.1747,    8.8227,  999.0000,   10.3268,   10.6757,  999.0000,  999.0000,    6.6485,    7.8301,    8.7468,   11.2788,   13.0677,   14.5178,   15.2454,   15.9592,   15.9136,   15.6453,  999.0000,  999.0000,   13.8783,   14.6163,   15.4107,   16.5291,   18.4249,   20.0535,   20.2386,   19.7094,   19.2684,   21.3412,   23.9168,   25.7714,   26.9940,   27.5296,   26.9642,   28.1198,   29.5289,   31.5176,  999.0000,  999.0000,  999.0000,  999.0000,  999.0000,  999.0000,  999.0000,  999.0000,  999.0000,  999.0000,  999.0000,  999.0000,
 29-OCT-1996 20:18:27.51,    3.3662,    3.1842,    3.3886,    3.3529,    4.1361,    4.5386,    3.4870,    3.6483,    5.1700,    6.1276,    6.8481,    7.9241,    8.5340,    8.1631,    8.0824,    8.0069,    8.4987,    9.0200,   10.2912,   10.6213,   10.8852,   10.8729,  999.0000,    6.3456,    8.1078,    8.5154,   11.1015,   12.7537,   13.2725,   14.9791,   15.6266,   15.6460,   15.7081,  999.0000,  999.0000,  999.0000,   14.3333,   15.1929,   16.2675,   18.1081,   19.4744,   19.6748,   19.2247,   19.7233,   21.7276,   24.3669,   26.1615,   27.7288,   28.6757,   27.6272,   28.9368,   30.5750,   32.4211,   35.6580,   36.7106,   36.3740,   36.1002,   36.4898,   38.2768,   39.3594,   42.8064,  999.0000,  999.0000,  999.0000,   41.0251,
 29-OCT-1996 20:21:04.80,    4.3911,    3.4813,    3.5664,    3.2493,    2.7395,  999.0000,    1.1122,    0.8646,  999.0000,    5.7270,    6.5909,    7.7091,    8.7997,    8.6807,    8.1984,    8.1714,    8.5599,    8.9415,    9.9919,   10.7172,   11.0230,   10.9585,  999.0000,    7.3430,    8.2085,    8.7761,   10.6167,   12.9485,   14.2449,   14.8254,   15.6239,   15.4494,   15.3549,   13.9951,  999.0000,   14.7602,   13.9782,   14.8955,   15.8828,   17.7742,   19.1610,   19.0602,   19.0571,   19.2785,   21.7767,   24.7926,   26.2614,   26.7380,   27.6630,   28.2030,   30.0444,   31.2357,   32.7826,  999.0000,  999.0000,  999.0000,   36.4532,   37.4063,   38.8032,   41.2563,   42.2518,   43.0384,   44.3173,  999.0000,  999.0000,
 29-OCT-1996 20:23:42.36,    5.4731,  999.0000,    5.2087,    3.6895,    2.7968,    2.8789,    2.0439,    1.4689,  999.0000,  999.0000,    6.8652,    8.1484,    8.5826,    8.8762,    8.5024,    8.7478,    8.4990,    8.7568,    9.9399,  999.0000,  999.0000,  999.0000,  999.0000,    7.7364,    8.2852,    9.2613,  999.0000,   13.3921,   14.2745,   15.0699,   16.0168,   16.3665,  999.0000,  999.0000,  999.0000,  999.0000,   13.8554,   15.0208,   16.0226,   17.6679,   19.0098,   19.1838,   18.6145,   19.4493,   21.4891,   24.4172,   26.5988,   27.2019,   27.3607,   28.3530,   30.1390,   31.3458,   33.2586,  999.0000,   35.5839,   34.8106,   36.0915,   37.5357,   39.4728,   40.8448,   42.2308,   43.0050,  999.0000,   39.7638,   40.8163,
 29-OCT-1996 20:26:19.48,    5.3702,    5.1998,    4.9874,  999.0000,  999.0000,  999.0000,    0.5145,   -0.0563,  999.0000,    5.6076,    6.6306,    7.9419,    8.1647,    8.1735,    7.9150,    9.0323,    9.3304,    9.1964,   10.4351,   11.0305,   11.1345,   11.2311,  999.0000,    7.8018,    8.4121,    9.3573,   11.6425,   13.5750,   14.7422,   15.2301,   15.6050,  999.0000,  999.0000,  999.0000,  999.0000,   14.2498,   14.4162,   15.1575,   16.0038,   17.5661,   19.0487,   19.7365,   18.7602,   19.8864,   21.7213,   22.4084,   26.7251,   27.0294,   27.1861,   28.2935,   30.6643,   31.9357,   34.2281,   35.7351,   34.7182,   34.4374,   36.5902,   38.2924,   39.6605,   41.2373,   42.8924,   43.3135,   43.9566,  999.0000,   41.0710,
 29-OCT-1996 20:28:58.62,    4.6896,    4.4231,    3.8876,  999.0000,  999.0000,  999.0000,  999.0000,  999.0000,    4.8014,    5.9152,    6.4203,    7.9464,    7.8551,    7.4095,    7.4982,    7.9915,    8.6624,    8.9042,  999.0000,   10.9563,   10.6377,  999.0000,  999.0000,    3.1517,    3.7454,  999.0000,    8.2146,   10.7046,   11.7466,  999.0000,  999.0000,  999.0000,    7.5563,    7.7595,  999.0000,  999.0000,  999.0000,   15.7178,   16.3529,   17.7017,   18.9588,   19.3344,   18.4933,   19.7859,   21.9033,  999.0000,  999.0000,  999.0000,  999.0000,  999.0000,   30.3929,   31.8543,  999.0000,  999.0000,  999.0000,  999.0000,  999.0000,   38.1562,   39.6886,  999.0000,  999.0000,   43.1827,   43.3894,   40.3495,   40.2787,
 29-OCT-1996 20:31:35.73,    2.5629,    2.7300,  999.0000,    2.4756,    1.9617,  999.0000,  999.0000,  999.0000,  999.0000,  999.0000,    7.0119,    7.5114,    7.3414,    7.5534,    7.9793,    8.4709,  999.0000,  999.0000,  999.0000,  999.0000,  999.0000,  999.0000,    6.9518,    6.2085,    6.8101,   10.4813,   10.4435,   12.4814,   13.7007,   15.5823,   16.1152,   16.0783,   12.3164,  999.0000,  999.0000,   14.6931,   14.8376,   15.6647,   16.9999,   18.2155,   19.3912,   19.6637,   18.9974,   20.0501,   21.6491,   23.9184,   26.8025,   27.6257,   27.0778,   28.1365,   30.3490,   31.9384,   34.8255,   35.8282,   35.4262,   35.8030,   35.4178,   37.5105,   40.3771,   41.7653,   43.5248,   43.0816,   43.0704,   40.6688,   39.7870,
 29-OCT-1996 20:34:12.62,    2.7596,    3.2628,    3.3627,  999.0000,    1.8430,    2.9714,    4.0043,  999.0000,    5.1624,    6.2078,  999.0000,    6.9489,    6.5546,    6.9293,    7.7927,    8.3405,    8.4896,    8.9995,  999.0000,   10.8513,   10.1321,  999.0000,    6.7149,    7.7738,    8.2089,   10.5481,   12.0614,   13.7698,   14.7794,   15.7589,   16.7657,   16.6103,  999.0000,  999.0000,  999.0000,  999.0000,   14.6702,   15.2899,   16.3481,   17.8923,   19.1468,   19.1677,   18.5820,   19.3592,   21.2106,   24.1848,   26.8171,   27.6206,   27.1606,   28.0451,   30.3579,   32.1400,   34.1942,  999.0000,  999.0000,  999.0000,  999.0000,  999.0000,  999.0000,  999.0000,   44.7647,   43.8080,   43.1550,   41.2140,   40.4383,
 29-OCT-1996 20:36:51.68,    4.9625,    5.3277,  999.0000,  999.0000,  999.0000,  999.0000,  999.0000,  999.0000,  999.0000,    5.9662,    6.6776,    6.9524,    7.4608,    7.6987,    7.4221,    7.6055,    7.8998,    9.3874,  999.0000,   10.9567,   10.4140,  999.0000,    7.4212,    7.2231,    8.4995,   10.9130,   12.7688,   14.2437,   15.2266,   16.1373,   16.8168,   16.8440,   14.8006,  999.0000,  999.0000,  999.0000,   15.2670,   15.1624,   16.1956,   18.1204,   19.1195,   19.0880,   18.3374,   19.1059,   21.0201,   23.9244,   26.5036,   26.7434,   26.9957,   28.5269,   30.7059,   32.6042,   34.5634,   34.4818,  999.0000,  999.0000,   36.4562,   38.3603,  999.0000,  999.0000,  999.0000,  999.0000,   42.8134,   41.0524,   40.4253,
 29-OCT-1996 20:39:28.74,    5.2854,    5.3674,    5.3262,  999.0000,  999.0000,  999.0000,  999.0000,    1.0320,    3.7675,    5.4980,    6.3061,    6.4126,    7.0078,    7.5301,    7.3439,    7.6003,    7.8278,    9.2681,   10.9697,   11.1470,   10.0679,  999.0000,    6.4153,    7.4237,    8.7523,   10.7593,   12.4228,   14.1486,   15.0279,   16.1223,   16.6966,   16.3450,   15.8876,  999.0000,  999.0000,   14.4985,   15.3763,   15.5676,  999.0000,  999.0000,  999.0000,   18.0880,   18.2188,   19.0231,   21.0924,   24.2816,   26.5693,   26.4376,   27.1192,   29.2237,   31.4970,  999.0000,  999.0000,  999.0000,  999.0000,  999.0000,   37.1438,   39.5118,   41.9342,   42.4277,   44.3523,   43.2690,   42.4284,   41.0870,   40.9269,
 29-OCT-1996 20:42:08.47,    5.2830,    5.2621,  999.0000,  999.0000,  999.0000,  999.0000,   -0.5399,   -0.7005,  999.0000,    6.3801,    7.5273,    7.9552,    8.0388,    7.9890,    8.0132,    8.2278,    8.5347,    9.8958,   11.0733,   11.3624,   11.0416,  999.0000,    7.5102,    7.9542,    8.8940,   10.1197,   11.7457,   13.8886,   14.7124,   16.0208,  999.0000,  999.0000,  999.0000,  999.0000,  999.0000,   14.4242,   14.9990,   15.9680,   17.1953,   18.1431,   18.7981,   19.3930,   18.4219,   18.7735,   20.8519,   23.7734,   26.2605,   26.7212,   26.9488,   29.0878,   31.1851,  999.0000,  999.0000,  999.0000,  999.0000,   35.9650,   37.7671,   39.7199,   42.1375,   43.0698,   44.9595,   44.0009,   41.7737,   40.8451,   41.1704,
 29-OCT-1996 20:44:48.55,    5.0619,    4.9122,    5.1739,  999.0000,  999.0000,  999.0000,  999.0000,  999.0000,    6.5009,    7.5939,    7.9145,    8.1652,    8.2693,    8.3061,    8.1111,    8.4710,    8.8931,   10.1056,  999.0000,   12.2194,   12.0296,  999.0000,    8.2236,    8.1928,    8.7313,  999.0000,  999.0000,   13.9157,   14.6066,   15.4391,   16.0987,   15.9390,   16.0544,   15.1815,   14.6045,   14.6708,   14.9679,   16.0080,   17.3905,   18.0372,   18.6766,   19.7074,   18.1695,   18.2127,   20.1543,   22.8617,   25.3770,   26.5778,   27.0101,   29.0785,   30.7741,   32.3887,  999.0000,  999.0000,  999.0000,  999.0000,   37.6047,   39.2709,   41.4859,   42.3211,   43.9910,   42.8289,  999.0000,  999.0000,   40.6313,
 29-OCT-1996 20:47:26.51,    4.5692,    4.5285,    4.5743,  999.0000,  999.0000,  999.0000,  999.0000,  999.0000,    6.1118,    7.5548,    7.9062,    8.1734,    8.2275,    8.3225,    8.0841,    8.4219,    8.9814,    9.8576,   11.1914,   11.9150,   12.0115,  999.0000,  999.0000,    7.8496,    8.3638,   10.2102,   12.2076,   13.9879,   14.7358,   15.3553,   16.0216,   15.8125,   15.4580,   15.3785,   14.1205,   14.6628,   15.3667,   16.2044,   17.2940,   18.4328,   18.5606,   19.8064,   18.7978,   18.9203,   21.4445,  999.0000,   26.0588,   26.1847,   27.4321,   29.8422,   31.1224,   33.1379,   34.4318,   33.7732,   34.4228,   35.2668,   37.1746,  999.0000,  999.0000,  999.0000,   43.2931,   42.4504,   41.6894,   40.2179,   40.6646,
 29-OCT-1996 20:50:03.73,    1.5269,    2.7576,    2.9201,    2.5687,  999.0000,  999.0000,  999.0000,  999.0000,    5.8823,    6.6714,    7.0889,    7.7022,    8.1142,  999.0000,    8.1743,    8.3193,  999.0000,  999.0000,  999.0000,  999.0000,  999.0000,  999.0000,  999.0000,    7.6044,    8.1528,    9.6161,   12.0652,   13.8178,   14.5374,   14.9967,   16.3219,   16.8417,   15.9045,   15.5216,   14.5708,   15.1610,   16.2727,   16.6991,   17.8399,   18.9072,   19.6137,   19.9839,   18.6993,   19.8187,   22.1574,   24.5237,   26.8683,   27.1093,   27.5785,   29.7509,   31.0850,  999.0000,  999.0000,  999.0000,  999.0000,   35.1561,   37.0571,  999.0000,  999.0000,   42.7180,   43.6304,   43.0546,  999.0000,   39.9080,   40.8018,
 29-OCT-1996 20:52:41.06,   -0.6253,  999.0000,  999.0000,  999.0000,  999.0000,    0.9783,    1.8447,  999.0000,    5.8728,    6.5774,    7.1643,    7.7223,    7.9728,    8.1229,    8.0834,    7.8221,  999.0000,    9.8525,   10.8601,   10.8353,  999.0000,  999.0000,  999.0000,    7.6779,    8.1845,    9.7695,   11.9307,   13.6671,   14.5085,   14.9077,   16.0035,  999.0000,  999.0000,  999.0000,   14.5926,   15.2801,   16.0571,   16.6373,  999.0000,   20.3971,   20.1045,   20.3230,   19.6339,   20.1287,   22.7157,   25.3398,   27.3207,   27.4637,   27.7776,   29.5216,   30.6973,   32.5056,   34.2142,   34.3307,   34.5083,   35.1256,   36.4582,   39.6518,  999.0000,   42.7519,   44.1793,  999.0000,   42.2928,  999.0000,   40.9319,
 29-OCT-1996 20:55:19.08,    2.6188,    2.6534,    2.7310,  999.0000,    1.9071,    2.7247,    3.7730,    4.5224,    5.9903,    6.6260,    7.0975,    7.4006,    7.7294,    7.7998,    7.7681,    7.7949,    8.5500,    9.6626,   10.6045,   11.1038,   10.5072,    8.5404,    8.1066,    2.7033,    3.2623,  999.0000,  999.0000,  999.0000,   13.9710,   14.4758,  999.0000,  999.0000,  999.0000,  999.0000,  999.0000,   14.9937,   15.4990,   16.4472,   17.3480,  999.0000,   19.7813,   20.5518,   20.7080,   21.3051,   22.8879,   25.4365,   27.2004,   27.0493,   28.0528,  999.0000,  999.0000,  999.0000,  999.0000,  999.0000,  999.0000,  999.0000,  999.0000,  999.0000,   41.0359,  999.0000,   43.7499,   43.8615,   41.7458,  999.0000,   41.5918,
 29-OCT-1996 20:57:58.22,    3.2706,    3.2203,  999.0000,  999.0000,  999.0000,    2.3797,    2.7026,    3.9381,    5.7441,    6.1800,    6.9904,    7.3875,    7.6725,    7.7170,    7.6693,    7.8098,    8.4858,    9.6800,  999.0000,   11.4946,   10.8103,  999.0000,    8.1116,    8.1670,    8.5659,   10.2858,   12.3709,   14.1689,   14.8242,   15.3929,   16.5321,   16.1565,  999.0000,  999.0000,  999.0000,   15.3220,   16.2218,   14.8352,   14.7612,  999.0000,  999.0000,  999.0000,   17.1884,   18.5427,   20.5704,   25.1787,   26.9507,   26.9792,   27.8708,   29.6609,   30.8828,  999.0000,  999.0000,  999.0000,   34.5638,   35.7566,   37.2460,   39.8973,   41.4248,   41.5195,   42.9558,  999.0000,   42.5128,  999.0000,   41.9461,
 29-OCT-1996 21:00:37.48,  999.0000,  999.0000,  999.0000,  999.0000,  999.0000,  999.0000,  999.0000,  999.0000,  999.0000,    5.3948,    6.9531,    7.6788,    8.0482,    8.2402,    8.0255,    8.2713,    8.9060,   10.2222,  999.0000,  999.0000,  999.0000,  999.0000,  999.0000,    7.6315,    8.0688,   10.8308,   12.5847,   14.3567,   14.7664,   15.2895,  999.0000,  999.0000,  999.0000,    8.4410,    9.3627,  999.0000,   16.0811,   16.3164,   16.8211,   17.7842,  999.0000,  999.0000,  999.0000,   20.1149,   23.0390,   25.5369,   27.0601,   26.6921,   27.8537,   29.3331,   30.4112,   33.6139,   34.6565,   33.6185,   34.1967,   35.1759,   37.1347,  999.0000,  999.0000,   41.1118,   42.2998,   43.8176,  999.0000,   41.1682,   42.3815,
 29-OCT-1996 21:03:15.34,    5.2106,    5.3932,  999.0000,  999.0000,    2.3128,    1.9289,  999.0000,    1.8038,    4.0358,  999.0000,    6.5821,    7.6963,    8.2674,    8.4705,    8.3059,    9.1139,    9.5706,   10.0806,  999.0000,   11.5093,    7.8115,    6.9868,    6.1916,    8.4171,    9.1753,   10.8621,   12.9051,   14.1958,   14.6530,   15.1079,   16.2701,   15.7638,  999.0000,  999.0000,  999.0000,   15.1915,   16.3094,  999.0000,   16.6287,   18.0691,   18.8908,   18.1761,   18.2486,   20.3374,   22.9258,   24.8932,  999.0000,   26.6264,   27.5387,   29.0554,   30.4230,   32.8593,   33.2463,   33.2066,  999.0000,  999.0000,  999.0000,  999.0000,  999.0000,   42.5826,   42.2212,  999.0000,   40.0971,   40.1286,   42.3401,
 29-OCT-1996 21:05:52.54,    4.1337,    4.9288,  999.0000,  999.0000,  999.0000,  999.0000,    0.0257,    1.1429,  999.0000,  999.0000,  999.0000,  999.0000,  999.0000,  999.0000,  999.0000,  999.0000,  999.0000,  999.0000,  999.0000,  999.0000,    2.5418,    1.3178,    2.3980,    6.4504,    7.9942,   10.5775,  999.0000,  999.0000,  999.0000,  999.0000,  999.0000,   15.8467,  999.0000,  999.0000,  999.0000,  999.0000,   16.2041,   16.3534,   16.9256,   17.8393,   18.1622,   17.5211,   18.5609,   21.2177,   23.7012,  999.0000,  999.0000,  999.0000,  999.0000,  999.0000,  999.0000,  999.0000,  999.0000,  999.0000,  999.0000,  999.0000,  999.0000,  999.0000,  999.0000,   40.7169,   41.2176,   42.2503,  999.0000,   40.2078,   42.0321,
 29-OCT-1996 21:08:31.75,    2.7889,  999.0000,  999.0000,  999.0000,  999.0000,  999.0000,  999.0000,    4.9153,    5.7381,    5.7566,    5.8859,    7.6771,    8.0813,    8.8126,    8.6095,    8.5462,    9.2280,    9.4557,   10.1253,  999.0000,  999.0000,  999.0000,    6.9142,    7.3217,    8.3428,   10.6204,   12.6224,   13.6080,   14.7369,   14.8136,   16.1042,   16.2202,  999.0000,  999.0000,  999.0000,  999.0000,   16.2721,   16.2761,   16.7420,   17.7030,   18.6590,   18.4934,   19.2608,   21.6420,   24.2840,   26.5390,   27.9422,   27.5140,   28.3508,   29.7826,   30.8304,  999.0000,  999.0000,  999.0000,  999.0000,  999.0000,  999.0000,  999.0000,  999.0000,  999.0000,   42.2619,   42.5124,   40.2742,  999.0000,   41.8158,
 29-OCT-1996 21:11:08.95,    3.3439,    3.4488,    4.1996,    3.0495,    2.4027,    0.9300,    1.9332,  999.0000,    5.9503,    6.1738,    6.4995,    8.0762,    8.1778,    8.4450,    8.3291,    8.2763,    9.1035,    9.4634,  999.0000,   10.7211,   10.3054,  999.0000,    7.1143,    8.0145,    8.6414,   10.3783,   12.4955,   12.9808,   14.1717,   14.7947,   15.6985,  999.0000,  999.0000,  999.0000,  999.0000,  999.0000,   16.4394,   16.4681,   16.9726,   18.3018,   18.9474,   18.4889,   19.7323,   21.8786,   24.3492,   26.9011,   28.0241,   27.5489,   29.2746,   30.6587,  999.0000,  999.0000,  999.0000,  999.0000,  999.0000,   35.5257,   37.4621,  999.0000,  999.0000,   40.8596,   40.9297,   42.1792,   41.4329,  999.0000,   41.7039,
 29-OCT-1996 21:13:46.13,    4.9966,    5.2708,    5.2426,  999.0000,  999.0000,   -2.6576,   -2.0503,  999.0000,  999.0000,  999.0000,    7.6905,    7.5679,    7.8526,    8.3160,    8.1834,    8.4009,    9.0339,    9.2204,    9.9105,   10.6635,   10.4457,    8.4296,    7.6803,    7.7443,    8.4137,   10.0960,   11.8359,   13.1463,   13.9269,   14.4145,   15.4643,   15.6529,  999.0000,  999.0000,  999.0000,  999.0000,   16.3380,   16.5608,   17.0825,   17.2358,   18.5991,   18.3198,   19.7886,   22.0866,   24.4293,   27.0765,   28.0564,   27.2939,   29.1670,   30.4721,   31.0174,   33.4790,   34.2786,   33.2928,   33.9328,   35.5612,   37.7306,   38.6970,  999.0000,  999.0000,  999.0000,  999.0000,   41.7944,  999.0000,   41.1266,
 29-OCT-1996 21:16:23.05,    5.1099,    5.0370,    4.6424,  999.0000,  999.0000,  999.0000,  999.0000,    4.2359,    6.0090,    6.4972,    6.9390,    7.3606,    7.6499,    8.5664,    8.8257,    8.3262,    9.0369,  999.0000,    9.7512,   10.4537,   10.1505,  999.0000,  999.0000,    7.7924,    8.1414,   10.0600,   12.0776,   13.0121,   14.2296,   14.3697,   15.5327,   15.3444,   13.6057,  999.0000,  999.0000,  999.0000,   16.0404,   16.6528,   16.7918,   17.6012,   18.5659,   18.4045,   19.7373,   22.0815,   24.4609,   26.9076,   27.2302,  999.0000,   28.5323,   30.0373,   31.0133,   32.4107,  999.0000,  999.0000,  999.0000,  999.0000,   38.0192,   39.5438,   41.5304,  999.0000,  999.0000,  999.0000,   40.4272,  999.0000,   40.3558,
 29-OCT-1996 21:19:03.31,    4.9063,  999.0000,    3.5649,    2.1091,  999.0000,  999.0000,  999.0000,  999.0000,  999.0000,  999.0000,    6.0981,    6.9477,    7.8308,    8.6513,    8.5277,    8.3598,    8.6879,    9.1783,    9.8161,  999.0000,  999.0000,  999.0000,    7.3966,    8.1078,    8.7445,   10.2660,   12.1306,   13.2363,   14.1690,   14.3624,   15.1070,  999.0000,    9.2449,    7.1796,  999.0000,  999.0000,   16.1088,   17.1318,   16.7146,   17.4204,   17.9983,   17.9657,   19.6430,   22.3242,   24.9630,   27.2353,   28.3056,   28.7485,  999.0000,  999.0000,   31.2341,   32.5629,   33.6436,   33.0967,   33.6051,   34.9627,   37.1776,   39.0263,   40.3595,   40.5468,   41.7773,   42.5018,   40.1749,   39.5187,   40.8227,
 29-OCT-1996 21:21:40.33,  999.0000,  999.0000,    4.5728,    3.2662,  999.0000,  999.0000,   -2.9142,   -1.6144,  999.0000,    5.4110,    6.2776,    6.7395,    7.5090,    8.0355,    8.4620,    8.4714,    8.5872,    9.2715,   10.0163,   10.5739,  999.0000,  999.0000,    7.1513,    7.8921,    9.3022,   10.7138,   12.0571,   13.1347,   14.2845,   14.3085,   14.8282,  999.0000,  999.0000,  999.0000,  999.0000,  999.0000,   15.7800,   17.0033,   16.8214,   17.5315,   17.7729,   17.3217,   19.4372,   22.5130,   25.0950,   27.5997,   28.0378,   27.6195,  999.0000,  999.0000,  999.0000,  999.0000,  999.0000,  999.0000,  999.0000,   35.4202,   36.5907,   38.4819,   39.4730,   40.3977,   42.0146,   43.2925,  999.0000,   40.2968,   40.8855,
 29-OCT-1996 21:24:19.42,    4.6328,  999.0000,  999.0000,  999.0000,  999.0000,   -2.8118,   -2.7007,  999.0000,  999.0000,  999.0000,  999.0000,    6.9101,    7.2948,    7.8427,    7.9859,    9.0030,    9.3019,    9.5016,   10.0257,   10.0761,    8.8235,  999.0000,    7.3739,    6.5314,    8.0034,   11.0341,   12.4407,   13.3775,   14.1781,   14.4465,   15.3156,   14.5674,  999.0000,  999.0000,  999.0000,    8.4931,  999.0000,  999.0000,   16.9843,   17.6856,   17.1331,   17.0017,   19.5208,   22.2773,   24.7824,  999.0000,   23.6381,  999.0000,  999.0000,  999.0000,  999.0000,  999.0000,  999.0000,  999.0000,  999.0000,   35.4106,   36.1752,   38.2222,  999.0000,  999.0000,  999.0000,  999.0000,  999.0000,   39.5330,   40.8915,
 29-OCT-1996 21:26:57.21,    3.0554,  999.0000,    2.8005,    2.6950,  999.0000,    2.8834,    3.4032,  999.0000,  999.0000,  999.0000,    5.5388,    6.5965,    7.0004,    8.1634,    7.9205,    8.9458,    9.0866,    9.7176,   10.2707,   10.2026,    9.5506,  999.0000,  999.0000,    7.7679,    8.9677,   11.3463,   12.8410,   13.9756,   14.5361,   14.4060,   15.6381,   14.8737,  999.0000,  999.0000,  999.0000,  999.0000,   16.0789,   16.6003,   17.0903,   17.6338,   17.3465,   17.5009,   20.1708,   21.8370,   23.3105,   27.6629,   26.2658,   27.0559,   29.1843,   29.7860,   30.8362,   33.3244,   33.4181,   33.0555,   34.0424,   34.9003,   35.9514,   38.5490,   40.9501,   40.7625,   41.0999,   41.6492,   39.2856,   39.3531,   40.4263,
 29-OCT-1996 21:29:34.30,    3.4560,  999.0000,    2.6909,    2.5094,    2.7477,  999.0000,  999.0000,  999.0000,  999.0000,  999.0000,  999.0000,    6.2729,    6.6684,    7.0607,    7.5961,    7.9799,    8.6728,    9.2047,    9.6615,  999.0000,  999.0000,  999.0000,    6.5556,    8.1566,    9.8854,   11.4768,   13.1237,   13.7974,   14.7632,   14.6988,   15.5997,   15.7055,  999.0000,  999.0000,  999.0000,  999.0000,   15.7484,   16.4548,   16.7420,   17.2641,   17.3124,   17.6907,   19.5874,   22.1925,   25.1603,   27.4425,   27.0616,  999.0000,   28.8591,   29.7827,   31.1415,  999.0000,  999.0000,  999.0000,  999.0000,   35.7151,   36.6539,   38.2871,   40.7346,   41.0095,   41.2801,   41.3143,  999.0000,   39.1223,   40.2544,
 29-OCT-1996 21:32:11.28,    2.7724,    2.4701,  999.0000,  999.0000,  999.0000,  999.0000,    3.0009,    3.1795,    4.5519,    5.6118,    5.7831,    5.7956,    6.0880,    6.3729,    7.0753,    7.5056,    8.0197,    8.3811,    8.8638,    9.6635,    9.7949,  999.0000,    7.0143,    7.9234,    9.5951,   11.1896,   12.5298,   13.4812,   14.2438,   14.6622,   15.2880,   15.0544,  999.0000,  999.0000,  999.0000,   14.7612,   15.7525,   16.4786,   16.4598,   17.2417,   17.6340,   17.6353,   19.4198,   22.3080,   25.1627,   26.8413,   26.7563,   26.9244,   28.9808,   29.9734,   31.4105,   34.2857,   34.6643,   33.3484,   33.5040,  999.0000,  999.0000,  999.0000,   40.4808,   40.0156,   40.5836,  999.0000,   39.4849,   39.2276,   40.1810,
 29-OCT-1996 21:34:48.28,  999.0000,  999.0000,  999.0000,    1.0853,    1.7861,    2.6176,    4.0735,    4.7197,    5.4724,    5.5822,    5.6172,    5.7214,    6.0598,    6.1201,    6.4301,    6.9871,    8.1743,    8.5045,    9.4769,   10.0019,   10.1074,  999.0000,    6.9973,    7.7065,    9.7345,   11.3658,   12.6187,   13.5982,   14.2195,   14.7298,   15.4888,   16.0238,   14.9760,   15.2578,  999.0000,   14.1873,   16.3621,   17.1104,   17.1782,   17.1369,   17.6288,   17.5514,   19.8016,   21.5342,   25.4510,   27.0845,   27.1667,   27.2627,   29.0962,   29.9430,   32.6954,   34.8172,  999.0000,  999.0000,   33.5460,   34.9400,   36.4372,   37.7356,   40.0108,   40.3520,   40.6201,   41.0874,   39.5978,   39.1628,   40.4508,
 29-OCT-1996 21:37:27.54,    1.2372,    0.4892,    0.5905,    0.9870,    1.4800,    2.7910,    5.0123,    5.3406,  999.0000,    5.5524,    5.5931,  999.0000,    5.9524,    6.2205,    6.1087,    5.9743,    8.6957,    8.6308,    9.4305,    9.9315,    9.7394,  999.0000,    6.9286,    7.5801,    9.2853,   10.7581,   12.2616,   13.1264,   13.7845,   14.5307,   15.3525,   16.4061,   15.3601,   15.2490,  999.0000,   15.0991,   16.2785,   17.1229,   17.4229,   17.4083,   17.7830,   17.8520,   20.3431,   23.3161,   25.5608,   26.7261,   26.9432,   27.8673,   29.1913,   29.7639,   30.9933,  999.0000,  999.0000,  999.0000,   33.9859,   34.9108,   35.8891,   37.3061,   39.8130,   40.2249,   41.3484,   41.3244,  999.0000,  999.0000,   41.3180,
 29-OCT-1996 21:40:04.92,    3.3498,  999.0000,  999.0000,  999.0000,  999.0000,  999.0000,  999.0000,  999.0000,    5.6361,    6.1489,    5.9761,    6.2162,    6.2525,  999.0000,    6.7666,    6.6399,  999.0000,    8.0090,    9.4811,  999.0000,  999.0000,  999.0000,    7.2038,    7.8501,    9.1635,   11.0669,   12.3248,   13.1139,   13.9218,   14.4804,   14.9360,   15.9416,  999.0000,  999.0000,  999.0000,  999.0000,   15.8903,   16.6861,   16.5389,   17.1814,   17.6761,   18.5162,   21.1499,   23.8457,   25.7276,   26.5503,   26.7712,   27.6056,   28.7396,   29.9457,   33.4298,   35.6409,   35.0450,   33.9775,   34.4623,   35.3747,   36.5595,   37.9261,   40.0512,   40.7726,  999.0000,   40.5988,   38.5958,   39.3799,   40.8183,
 29-OCT-1996 21:42:42.99,    4.6263,  999.0000,  999.0000,  999.0000,  999.0000,  999.0000,    6.2134,    6.0692,    6.5314,    6.6540,    6.7890,    7.0932,    7.3437,    7.9171,    8.2080,    8.7627,    8.8587,    8.7212,    9.2814,   10.1859,   10.3250,  999.0000,    8.0685,    7.0226,    8.1557,   10.8248,   12.1292,   12.8698,   13.7276,   14.2555,   14.5593,   15.3146,  999.0000,  999.0000,  999.0000,  999.0000,   15.6960,   16.4297,   16.3147,   16.9139,   17.3732,   18.5560,   21.1832,   23.5348,   25.1664,   26.0193,   26.4477,   27.4414,   28.8081,   30.0892,   32.9041,   35.4532,   35.1171,   33.8240,   34.3184,   35.4946,   36.5981,   38.1178,   40.3348,   41.3046,  999.0000,   40.8040,  999.0000,   39.7128,   40.6427,
 29-OCT-1996 21:47:21.87,    2.7983,  999.0000,  999.0000,  999.0000,  999.0000,  999.0000,    5.8439,    5.7319,    6.3911,    6.5839,    7.2762,    7.8259,    7.8236,  999.0000,  999.0000,    8.2419,    8.4765,    8.8068,  999.0000,   10.0504,    9.7603,    9.0066,  999.0000,    7.1814,    8.2409,   10.1937,   11.8404,   12.5272,   13.2059,   13.6011,   14.0909,   14.8816,   14.4955,   15.0363,   15.2826,  999.0000,   15.4556,   16.5747,   16.6258,   17.1261,   17.1808,   18.7651,   21.1126,   22.8706,   24.8563,   25.6816,   25.9452,   27.7300,   29.2160,   30.0162,   32.2506,   34.5751,   35.4092,   34.3961,   34.3720,   35.4035,   35.8437,   37.7755,   40.1522,   41.3963,  999.0000,   42.3089,   39.3462,   39.4014,   40.8476,
 29-OCT-1996 21:49:59.02,    2.9633,    2.8477,    3.2463,    3.1104,  999.0000,  999.0000,  999.0000,    4.5251,    6.1539,    6.6966,    7.4623,    7.8909,    8.1220,    8.7995,    8.5470,    8.4529,    8.6444,    9.3452,    9.6187,    9.6689,    9.8856,    9.0579,  999.0000,    7.4045,    8.8981,   10.3295,   12.2758,   12.7948,   13.4296,   13.8343,   14.2206,   15.4986,  999.0000,  999.0000,   15.4796,   14.6649,   15.2533,   16.8721,   16.8330,   17.0596,   17.3221,   19.1845,   20.8885,   22.7839,   24.6785,   25.6193,   26.2338,   28.0101,   29.0488,   29.5460,   32.1224,   34.7680,   35.5383,   34.6740,   35.1009,   35.6218,   35.7324,   37.7073,   40.0576,   41.4323,   42.3301,   41.7424,   39.1652,   38.8718,   40.2694,
 29-OCT-1996 21:52:36.56,    4.7199,    4.1212,    3.2004,    2.0948,    1.2878,    3.1710,    5.2300,    5.9934,    6.8423,    7.7347,    7.8522,    8.2080,    9.0194,    9.4591,    8.7076,    9.0385,    9.4352,    9.9855,   10.5210,   10.4378,   10.4268,    9.2583,  999.0000,  999.0000,  999.0000,   10.4678,   12.1067,   12.9162,   13.3834,   13.6298,   14.1332,   15.4507,  999.0000,  999.0000,  999.0000,  999.0000,  999.0000,   16.6184,   16.8084,   16.4801,   17.1705,   19.0182,   20.9271,   23.1367,   24.8681,   25.6065,   26.7338,   28.5343,   29.1235,   29.2980,   31.8852,  999.0000,   35.1519,  999.0000,   34.6039,   35.6271,   35.8212,   38.2086,   40.2291,   41.6643,  999.0000,  999.0000,   39.4482,  999.0000,  999.0000,
 29-OCT-1996 21:55:13.88,    4.5902,  999.0000,    2.9278,    2.3086,    1.7715,  999.0000,  999.0000,  999.0000,  999.0000,  999.0000,  999.0000,  999.0000,  999.0000,    9.3076,    9.0672,  999.0000,    9.6551,   10.3108,  999.0000,   10.8561,   10.7394,    9.6921,  999.0000,    7.2805,    8.2251,    9.7693,   11.6264,   12.4839,   12.7652,   13.1652,   13.3862,  999.0000,  999.0000,  999.0000,   14.9683,   14.5294,   15.3718,   16.8970,   17.2917,   16.6668,   17.3948,   19.0287,   20.8458,   23.2669,   25.3004,   25.8407,   26.4782,   28.6340,   28.9557,  999.0000,   31.8272,   34.9271,   35.1016,   34.6905,   35.0956,   36.8005,   37.2619,   38.6421,   40.1816,   41.5279,   42.5260,  999.0000,   38.4029,   38.9242,   40.7485,
 29-OCT-1996 21:57:52.97,    4.3836,  999.0000,  999.0000,  999.0000,  999.0000,  999.0000,  999.0000,    5.9331,    6.6913,  999.0000,  999.0000,  999.0000,    9.7071,   10.0620,    9.5452,    9.3979,    9.5220,    9.9851,   10.5411,   10.7222,  999.0000,  999.0000,  999.0000,    7.2789,    8.0380,    9.2383,   11.1076,   11.8873,   12.0168,   12.1622,   13.2283,   13.7824,   13.2912,   14.1805,   14.5623,   14.9735,   15.2580,   16.6828,   16.8468,   17.0184,   17.3991,   18.5815,  999.0000,   23.1928,   25.3891,   25.8820,   26.5795,   28.6760,   28.8661,   30.4539,   31.4269,  999.0000,  999.0000,   35.0175,   35.8296,   36.2329,   36.7708,   38.8153,   40.7362,   41.9397,   42.4122,   40.7604,   38.4588,   38.5959,   40.4472,
 29-OCT-1996 22:00:32.34,    3.5480,    3.3808,    3.3985,  999.0000,    2.7429,    3.8291,    5.4300,    5.9332,    6.9536,    8.3342,    8.8806,    8.7658,    9.7618,    9.8012,    8.9777,    8.9900,    9.3051,    9.4499,    9.7355,    9.7034,    9.3078,    8.4555,    6.8058,    7.4341,    8.0816,    9.6578,   11.0752,   11.8520,   12.1913,   12.4161,   12.8642,   13.3018,  999.0000,  999.0000,  999.0000,  999.0000,   15.3934,   16.3582,   16.2285,   16.6895,   18.0243,   19.3965,   21.4205,   23.9184,   25.8567,   26.0846,   26.8964,   28.9587,   28.9437,  999.0000,   32.1569,   34.7548,   35.1116,   34.9548,   35.9319,  999.0000,  999.0000,   38.3880,   40.2272,   41.3070,  999.0000,  999.0000,   39.2968,  999.0000,   40.8203,
 29-OCT-1996 22:03:11.33,    3.7369,    4.5889,    5.0688,    4.7228,    3.5730,  999.0000,    5.6808,    6.2871,    6.6762,    7.0231,    7.7756,    8.9099,   10.2130,    9.8090,    8.9575,    9.1790,    9.6675,    9.8132,   10.0866,   10.3928,   10.3555,    9.7804,  999.0000,    7.6990,    8.2084,    9.4335,   11.0331,   11.9549,   11.8960,   12.0670,   12.7086,   13.3053,  999.0000,  999.0000,   14.0915,   14.7440,   15.5900,   16.1104,   16.0455,   16.1390,   17.1239,   19.1504,   21.7581,   24.3613,   26.4870,   26.9290,   27.4354,  999.0000,   28.5969,   30.3515,  999.0000,  999.0000,  999.0000,   34.5584,   35.5203,   36.1607,   36.5823,   38.5374,   39.6586,   41.6119,   43.5620,  999.0000,  999.0000,   39.3114,   40.6293,
 29-OCT-1996 22:05:48.40,    4.1338,    4.3145,    4.2278,  999.0000,  999.0000,  999.0000,  999.0000,  999.0000,  999.0000,    7.0447,    7.7968,    8.6470,    9.7002,    9.8855,    9.0975,    9.0276,    9.1392,  999.0000,   10.0256,   10.4362,   10.4819,   10.0998,  999.0000,    7.3862,    7.9945,    9.3441,   10.9573,   11.5051,   12.2267,   12.4899,   12.5190,   13.2671,   13.6852,   14.0116,   14.2390,   14.6380,   15.5652,   16.0132,   16.6315,   16.7926,   17.1716,   19.2188,   21.4357,   23.7212,   26.1353,   26.8811,   27.7865,   29.1180,   28.4960,   28.7599,   31.8048,   34.5114,   35.2125,   34.9864,   35.9693,   36.4236,   36.8022,   38.6128,   39.4989,   41.4686,  999.0000,  999.0000,   40.6221,  999.0000,   40.5812,
 29-OCT-1996 22:08:25.40,    1.9898,    2.3534,    2.7316,    2.4935,    2.8446,    3.8137,    4.9794,    5.9075,    6.0653,    6.2047,    7.0045,    7.9030,    9.1100,    9.3650,    8.8425,    8.8389,    8.8655,    9.5824,   10.0425,   10.7112,   10.7747,    9.8728,    7.8893,    8.2163,    8.3566,    9.7215,   10.6739,  999.0000,   12.1830,   12.6250,   12.7312,   13.2055,   13.6806,  999.0000,   13.8794,   14.3287,  999.0000,   15.7638,   16.8176,   17.0159,   17.3260,   18.9114,   20.6889,   22.8607,   25.5236,   26.7071,   27.7697,   28.8625,   28.3309,   29.1228,   32.2028,   34.3168,   35.0381,   34.5747,   35.5156,   36.8848,   37.0160,   38.3369,   39.4217,   41.8581,   43.0076,  999.0000,  999.0000,   38.8282,   39.8453,
 29-OCT-1996 22:11:02.26,    3.2018,    3.3554,    3.2878,    2.4455,    2.3761,    3.6187,    4.7609,    6.0339,  999.0000,    6.2308,    7.3194,    8.0132,    8.4539,    8.5816,    8.2024,    8.5490,    8.7898,    9.7898,   10.5380,   10.8858,   10.4714,  999.0000,    7.9193,    8.5887,    9.3091,    9.4442,   11.7955,   13.1024,   12.7438,   13.1960,   13.1231,   13.5133,   14.0614,  999.0000,  999.0000,  999.0000,   16.9270,   16.5420,   17.3499,   16.9543,   16.8807,   19.0237,   21.3609,   23.0068,   25.2275,   26.5334,   27.8174,   28.5742,   27.9640,   29.5055,   32.2819,   34.0080,   33.7030,   32.8451,   34.9165,   36.6011,   37.5913,   38.9411,   39.7595,   42.1152,  999.0000,   40.3747,   38.5740,   37.9742,   39.4995,
 29-OCT-1996 22:13:39.39,    4.3579,    4.4516,    4.6245,    3.8527,    3.2253,  999.0000,  999.0000,    6.5937,    7.3565,    7.6665,    8.0253,    7.9115,  999.0000,  999.0000,  999.0000,  999.0000,  999.0000,   10.6495,   10.9040,   11.0983,  999.0000,  999.0000,  999.0000,    8.9180,    9.4541,   10.1874,   11.8790,   12.3786,   13.0317,   13.3186,   13.4513,   14.4406,  999.0000,  999.0000,  999.0000,  999.0000,   16.7458,   16.8820,   16.9828,   16.4100,   16.1736,   18.6258,   21.4842,   23.9033,   26.1800,   26.8089,   28.1768,   28.9417,   28.7628,   30.2889,   32.5871,   34.7348,   35.9057,   34.2532,   34.6433,   36.3568,   37.5332,   38.8568,   40.3155,  999.0000,  999.0000,  999.0000,   38.3171,   38.5833,   39.9420,
 29-OCT-1996 22:16:18.44,    2.9798,    3.3180,  999.0000,  999.0000,  999.0000,    4.4319,    5.1667,    6.3550,    6.9915,    7.2309,    7.7097,    7.9935,    8.0462,    8.6365,    8.6967,    8.6754,    9.0179,   10.0783,   10.9039,   10.5173,   10.6674,   10.3842,    8.6239,    8.3004,    9.0047,   10.2864,   11.5970,   12.8864,   12.5174,   13.0465,   15.0051,   14.3546,  999.0000,    8.9501,    8.9009,  999.0000,   16.3642,   16.3576,   16.6913,   15.8188,   15.6909,   18.4215,   21.5916,   24.6533,   24.9757,   25.7081,   27.9869,   29.3405,   29.1422,   30.3818,   32.7461,   35.4369,   36.6306,   35.0772,   35.0405,   37.4623,   37.9959,   38.3430,   40.7396,   43.6212,   42.9037,  999.0000,   38.9481,   38.7057,   39.9863,
 29-OCT-1996 22:18:57.67,    3.7598,  999.0000,  999.0000,  999.0000,    3.0175,    4.2606,  999.0000,    5.9629,    6.5278,    6.7765,    6.6423,    7.1559,    7.8971,    8.1870,    8.1504,    8.3084,    8.5334,  999.0000,  999.0000,   10.9992,   11.0235,   10.5604,    8.8738,    8.3541,    8.8739,    9.9732,   11.3229,   12.7447,   12.4058,   12.3134,   12.4263,   14.9366,  999.0000,  999.0000,  999.0000,  999.0000,   16.3876,   16.3363,   16.7153,   16.1745,   16.9524,   19.3405,   21.6361,   24.3972,   26.5096,   26.9044,   27.8476,   29.1381,   29.1672,   30.5325,   32.4848,   34.8347,   36.2636,  999.0000,  999.0000,   37.0573,   37.3500,   38.1263,   40.5700,  999.0000,  999.0000,  999.0000,   38.3124,   38.5064,   39.8470,
 29-OCT-1996 22:21:34.92,    4.7347,    5.2990,  999.0000,    2.6242,    1.9850,  999.0000,  999.0000,    5.7182,    5.9011,    6.5524,    6.3775,    6.9369,    7.8708,    8.4306,    8.3439,    8.9277,    8.6510,    9.3726,   11.3888,   11.3450,   11.4361,   11.2998,    9.5586,    9.2303,    9.7153,   10.8854,   11.7447,   13.2461,   12.8309,   12.9911,   12.9766,   13.2467,  999.0000,  999.0000,    7.3795,    8.8321,   15.0497,   16.0168,   16.7533,  999.0000,  999.0000,   18.9313,   21.0506,   23.3216,   25.4905,   26.2179,   27.4102,   28.9687,   28.6975,   30.1646,   32.4434,   34.8304,   35.6414,   34.1604,   34.6234,  999.0000,   36.7993,   38.0776,   40.7504,   42.5105,  999.0000,   42.4092,  999.0000,   38.0501,   39.3339,
 29-OCT-1996 22:24:12.07,    4.5341,  999.0000,    3.3998,    2.8918,  999.0000,  999.0000,  999.0000,  999.0000,    6.2531,    7.3363,    7.6149,    7.9722,    8.6137,    9.2990,    9.1388,    9.5596,  999.0000,  999.0000,   11.1837,   11.2145,   11.4204,   11.7430,   10.0765,    9.4781,   10.3891,   11.4185,   11.8081,   13.2390,   13.2789,   13.3811,   13.7158,   13.9581,  999.0000,  999.0000,  999.0000,  999.0000,  999.0000,   16.5206,   17.2437,  999.0000,  999.0000,   19.2403,   21.3640,   23.4916,   25.8390,   26.7092,   27.8189,   29.2361,   29.2160,   30.3396,   32.5291,   35.0525,   36.0859,   34.8520,   35.3156,   37.1866,   37.3305,   38.5948,   40.6493,  999.0000,   40.4825,   41.1591,   39.5587,   38.6509,   39.2146,
 29-OCT-1996 22:26:51.42,    4.0378,  999.0000,  999.0000,  999.0000,  999.0000,    3.8855,    5.5316,    6.4869,    7.2712,    7.7894,    7.3076,    7.8654,    8.8325,    9.4434,    9.3286,    9.4011,    9.4827,   10.2740,   10.5187,   10.5099,   10.8801,   10.5070,    9.0768,    8.9793,    9.3099,   10.5376,   11.3767,   12.9686,   13.4180,   12.9288,   12.8876,   13.5038,   13.4564,  999.0000,  999.0000,  999.0000,  999.0000,   16.5780,   17.3742,  999.0000,   16.9962,   19.0068,   20.7292,   22.9213,   25.6141,   26.6190,   27.7012,   28.9522,   28.9877,   30.0909,   32.3059,   34.6812,   35.8468,   35.1050,   35.0191,   36.4902,   36.9061,   38.0772,   40.1086,   42.2767,  999.0000,   40.9060,   39.8772,   39.3744,   39.5056,
 29-OCT-1996 22:29:28.44,    5.0028,    5.3569,    5.2766,  999.0000,  999.0000,  999.0000,  999.0000,  999.0000,    6.3209,    6.8860,    6.9597,  999.0000,    8.8242,    9.6247,    8.9458,    8.8698,    9.2464,  999.0000,  999.0000,  999.0000,  999.0000,    9.8482,    8.6117,    3.9974,    4.8513,    5.0561,    6.6926,  999.0000,  999.0000,  999.0000,  999.0000,  999.0000,  999.0000,  999.0000,    7.8117,    8.9555,  999.0000,   16.4666,   16.6772,   16.2272,  999.0000,   18.6870,   20.6340,   23.2780,   25.9464,   26.8244,   27.4654,   28.6304,   28.8661,   29.8989,   32.0667,   34.6857,   35.5227,   35.3331,   35.7578,   36.9432,   37.2168,  999.0000,  999.0000,  999.0000,  999.0000,  999.0000,   38.9103,   39.0209,   39.9755,
 29-OCT-1996 22:32:05.76,    5.2429,    5.2524,    5.1907,    4.4772,  999.0000,  999.0000,  999.0000,    6.4087,    6.6390,    6.8597,    7.8574,    8.2627,    8.7179,    9.6565,    8.8203,    8.7238,    9.4494,   10.4508,   10.1731,   10.7443,   10.7335,  999.0000,    8.7479,    6.2390,    7.0019,    7.5488,    9.1012,   12.0114,   12.9284,   12.4323,   12.8360,   13.1905,   13.3617,  999.0000,  999.0000,  999.0000,  999.0000,   16.4650,   16.7399,   16.0367,   16.5605,   18.2893,   20.6972,   23.5700,   26.4567,   27.0319,   27.8110,   29.0359,  999.0000,  999.0000,  999.0000,   35.7023,   36.3655,   35.1650,   35.5875,   37.1732,   37.3505,   38.1999,   39.9458,  999.0000,  999.0000,  999.0000,   38.2645,   38.7299,   39.5007,
 29-OCT-1996 22:34:42.80,    5.0314,    5.3440,  999.0000,    3.6751,    2.9813,    3.3337,  999.0000,  999.0000,  999.0000,  999.0000,    8.7065,    8.8702,    9.1460,    9.5575,    8.8104,    8.6232,    9.6487,   10.2592,    9.5784,   10.7323,   10.8498,   10.6399,    8.6500,    8.2641,    8.8967,    9.9320,   10.5842,   11.8586,   12.4289,   12.4935,   12.6203,   12.9533,   12.3849,  999.0000,  999.0000,   14.4255,   16.1428,   16.1413,   16.6815,  999.0000,  999.0000,   18.8533,   21.1466,   23.9667,   26.5510,   27.1761,   28.0359,   28.7948,   28.7124,   30.4839,   33.3749,   36.0311,   36.2121,   34.9273,   35.0958,  999.0000,  999.0000,  999.0000,  999.0000,   41.9516,   43.3458,   42.5657,  999.0000,   39.5517,   39.5189,
 29-OCT-1996 22:37:21.83,    4.5911,    4.6582,    4.6838,  999.0000,    1.5774,    1.5240,  999.0000,    7.0138,    8.0984,    7.8237,    7.8181,    8.5043,    9.3033,    9.9936,    9.2996,    8.8271,    9.2082,    9.7946,  999.0000,   10.8215,   10.9345,   10.5230,  999.0000,    8.7351,    7.1694,    9.1713,   10.9024,   11.9177,   12.4874,   12.5176,   12.2168,   13.0220,  999.0000,  999.0000,  999.0000,   15.0786,   16.2899,   15.7963,   16.4225,   16.3263,   15.9779,   18.1763,   20.4705,   23.0800,   25.6611,   26.8476,   28.2655,   28.5579,   28.6852,   30.6283,   33.5752,   36.0413,   36.0174,   34.5082,   34.6321,   37.4647,   38.0238,   38.7968,   40.7512,   42.2786,  999.0000,  999.0000,   39.3378,   39.4332,   39.4640,
 29-OCT-1996 22:40:01.29,    3.4839,    3.4507,    3.3971,  999.0000,    3.9642,    5.5465,    6.2307,    6.9159,    7.5365,  999.0000,    7.8835,    8.8705,    9.5913,   10.5304,   10.3257,    9.2730,  999.0000,    9.2589,    9.9930,   10.8997,   11.1381,   11.2434,    9.5526,    7.5466,    7.3883,    9.9639,   10.4458,   11.7681,   12.2206,   12.3346,   12.7325,   13.3685,   13.4685,  999.0000,   13.5834,   14.5693,   15.6362,   15.7442,   16.3432,   16.4904,   15.6633,   17.1769,   20.3226,   22.0209,   26.0377,   27.0818,   28.6343,   28.9671,   28.8605,   30.8457,   33.7388,   35.8018,   35.4379,   33.8410,   34.0943,   36.8440,   37.1392,   38.1628,   40.4646,   41.6472,  999.0000,  999.0000,   38.3318,   39.0703,   39.5934,
 29-OCT-1996 22:42:41.17,    5.1626,    4.8258,    4.0646,  999.0000,    3.7622,    4.3686,  999.0000,    6.8311,    7.3133,    7.2520,    8.1979,  999.0000,  999.0000,    9.8200,    9.7290,    8.9410,    9.2919,    9.6564,   10.1399,   10.3303,  999.0000,  999.0000,  999.0000,    9.2301,    8.6882,   10.3584,   10.5836,   11.7112,   11.8431,   12.2938,   12.7690,   13.5109,   13.4272,  999.0000,  999.0000,  999.0000,  999.0000,   15.6493,   15.8810,   15.5172,  999.0000,   17.6561,   21.0789,   24.0534,   26.7739,   27.6828,   28.6693,   28.6949,   29.1460,   31.1365,   34.1331,   35.4719,   35.0712,   34.0118,   34.2115,   36.6782,   36.8149,   37.7973,   39.8449,   41.3521,  999.0000,   42.0635,  999.0000,   39.7477,   39.4929,
 29-OCT-1996 22:45:18.36,    4.8198,    3.2770,    1.4295,    1.0570,    2.5613,  999.0000,  999.0000,  999.0000,  999.0000,  999.0000,    8.1340,    8.4309,  999.0000,   10.1240,   10.2562,  999.0000,    9.4683,    9.8654,  999.0000,   10.2695,   10.5158,   10.7652,  999.0000,    8.5072,    9.3780,   10.1656,   10.9968,   11.8823,   12.3276,   12.6934,   13.3111,   13.7036,   12.5539,  999.0000,  999.0000,   15.8680,   16.8151,   16.4770,   16.3108,  999.0000,   17.6129,   19.0046,   21.4667,   24.6671,   27.0238,   27.8829,  999.0000,  999.0000,  999.0000,   32.2210,  999.0000,   35.8133,   35.1216,   34.5641,   34.6976,  999.0000,  999.0000,  999.0000,  999.0000,   41.3969,   42.6057,   41.8521,   39.1079,   39.6919,   39.0376,
 29-OCT-1996 22:47:55.64,    5.3290,  999.0000,  999.0000,  999.0000,  999.0000,    0.2595,    1.3707,  999.0000,  999.0000,    6.4046,    7.8568,    8.3656,    9.0089,    9.5413,    9.9173,    9.4526,    9.4106,   10.0636,   10.3782,   10.8513,   11.0744,   11.0935,    9.8107,    9.2177,    9.2586,   10.8670,   11.9239,   12.6712,   13.1812,   13.6153,   14.1706,   14.4619,   14.1646,   14.9741,  999.0000,  999.0000,   16.9831,   17.1858,   17.1461,   16.9245,   17.7736,   19.5389,   21.6328,   24.4966,   26.5781,   27.3956,   28.5980,   28.4400,   29.7805,   32.8642,   35.5814,   37.1447,  999.0000,   35.0579,   35.1048,   37.6066,   38.1338,   37.9675,   38.5780,   40.6400,  999.0000,  999.0000,  999.0000,   41.0347,   39.7151,
 29-OCT-1996 22:50:33.03,    5.0107,  999.0000,  999.0000,  999.0000,  999.0000,  999.0000,  999.0000,    6.5505,    6.7488,    6.0747,  999.0000,    8.5446,    8.9103,    9.5547,   10.4221,    9.9745,    9.8362,  999.0000,   10.3065,   10.6408,   10.8340,   11.0691,   10.3620,   10.1297,   10.7327,   11.1568,   12.2032,   13.1246,   13.7250,   13.7527,   14.3916,   14.9087,  999.0000,  999.0000,  999.0000,  999.0000,   16.8355,   17.0915,   16.8849,   16.7010,   17.0480,   19.2338,   21.7185,   24.9193,   27.1454,   28.0359,   29.3275,   28.6455,   30.0482,   33.4708,  999.0000,  999.0000,  999.0000,  999.0000,  999.0000,  999.0000,   38.5422,   38.7381,   38.8506,   40.7150,  999.0000,  999.0000,  999.0000,   41.1008,   39.9494,
 29-OCT-1996 22:54:24.70,    3.4364,    3.4459,    3.7737,    2.8931,    2.7294,  999.0000,  999.0000,    5.8450,    5.8137,    6.2418,    7.1598,    7.9061,    9.1983,  999.0000,  999.0000,   10.0388,   10.1115,   10.8201,  999.0000,  999.0000,   11.6213,   11.7534,   10.9348,    9.9825,   10.7693,   11.8685,   12.5957,   13.6736,   14.2950,   13.7830,   14.4815,   15.2394,   14.8106,   14.4314,  999.0000,   16.4379,   17.2608,   16.8298,   17.0378,   16.7522,   17.3552,   19.3432,   22.0056,   25.6060,   28.0730,   28.9181,   30.2171,   29.3776,   30.1563,   33.5231,   36.5991,   37.3184,   35.9919,   36.2061,   35.5880,  999.0000,  999.0000,   38.9019,   39.5933,   41.4787,  999.0000,  999.0000,   39.7990,   40.1655,   39.3316,
 29-OCT-1996 22:57:04.64,    4.9913,    5.2395,    5.2960,    4.8975,    3.4242,    3.8617,    5.4854,    5.8157,    6.1042,  999.0000,    8.0993,    8.3688,    9.2152,   10.3658,   10.6074,   10.3841,    9.9321,   10.1824,   10.5512,   11.1772,   11.5703,   11.7477,   10.5163,    9.9615,   10.5683,   10.4981,   12.6666,   13.6489,   14.2966,   13.7797,   14.8956,   15.0966,  999.0000,  999.0000,  999.0000,   16.1865,   17.4009,   17.1241,   17.0532,   16.7381,   17.6968,   19.5560,   21.7629,   25.0293,   27.4632,   28.5545,   29.6469,   28.5243,   29.6064,   32.8578,   36.0285,   36.4771,   35.3043,   36.1468,   35.8532,   36.7119,   37.3635,   38.1913,   39.3016,  999.0000,  999.0000,   40.4225,   38.9141,   39.9748,   39.2177,
 29-OCT-1996 22:59:42.01,    3.9965,    4.5908,    4.5577,  999.0000,    1.6441,    1.8966,    4.3779,    5.2260,    7.0161,    7.2551,    7.5805,    7.8396,  999.0000,   10.4148,   10.7135,   10.7119,  999.0000,   10.8124,   11.0167,   10.9016,   11.6142,   11.6059,   10.9116,   10.4661,   11.6428,   12.1469,   12.3840,  999.0000,   14.2747,   13.0471,   14.4085,   14.8230,  999.0000,  999.0000,  999.0000,  999.0000,   17.7880,   17.7413,   17.4816,   17.0340,   17.5534,   19.3583,   21.6245,   24.6602,   27.1322,   28.3336,   29.2153,   28.4361,   29.1075,   32.2032,   35.1300,   35.8811,   35.1657,   35.8952,   35.6689,  999.0000,  999.0000,  999.0000,  999.0000,   43.0598,  999.0000,  999.0000,  999.0000,   40.0418,   39.5579,
 29-OCT-1996 23:02:21.72,    3.3715,    3.4433,    3.3775,    2.7253,    2.8478,    3.1116,    4.2557,  999.0000,    6.1555,    5.9490,    6.5116,    7.8523,  999.0000,  999.0000,   11.1041,   10.8358,   10.7904,  999.0000,   11.7208,   11.6924,   11.4606,   11.7979,   11.4370,   10.2224,   10.7068,  999.0000,   12.5047,   12.6054,   13.6052,   13.2859,   14.2718,   15.0150,   14.4577,  999.0000,  999.0000,   16.4239,   17.5565,   17.3739,   17.2209,   17.1844,   17.3370,   19.0061,   20.9038,   23.8427,   26.4434,   27.5788,   28.8370,   28.5154,   28.9009,   32.0182,  999.0000,   35.7448,   34.5621,   35.6691,   35.8662,   36.2934,  999.0000,  999.0000,  999.0000,  999.0000,  999.0000,   38.6067,   38.9492,   39.3910,   39.4103,
 29-OCT-1996 23:04:58.71,    5.0646,    4.9216,    4.4924,  999.0000,    2.3753,    3.5828,    5.2237,    6.2774,    6.7859,    6.3920,    6.9616,    8.0697,   10.1827,   11.0573,   11.3435,   10.5899,   10.8416,   10.9788,   11.0628,  999.0000,   11.1866,   11.7770,   11.3704,    9.4564,    9.0089,   10.2984,   11.8628,   11.9549,   12.8842,   13.2003,   14.1004,   15.0706,   13.9818,   14.8671,  999.0000,   15.9060,   16.5669,   16.7947,   16.7226,   16.7882,   16.5098,   18.5532,   20.8010,   23.8910,   26.3071,   27.2202,   28.9400,   28.6708,   29.0004,   32.2693,   35.4888,   35.8476,   33.7874,   34.9754,   36.1775,   36.4792,   38.2868,   38.3942,   39.4884,  999.0000,  999.0000,  999.0000,  999.0000,   39.4388,   39.6927,
 29-OCT-1996 23:07:35.89,    4.6096,  999.0000,    3.0014,    2.6469,    2.7441,  999.0000,    5.5520,    5.9709,    6.8952,    6.0496,    6.2795,  999.0000,  999.0000,  999.0000,  999.0000,  999.0000,   10.8519,   11.2052,  999.0000,  999.0000,  999.0000,  999.0000,  999.0000,    9.9831,    9.3568,   11.0348,  999.0000,   12.2886,   12.8975,   13.4123,   14.0816,   14.5671,  999.0000,   14.6695,   14.4129,   15.6957,   16.1488,   16.6075,   17.3505,   17.1162,   16.2999,   18.3491,   20.7463,   24.0835,   26.1107,   26.8843,   28.4552,   27.8834,   28.6210,  999.0000,  999.0000,  999.0000,   34.7926,   35.0830,   36.0192,  999.0000,  999.0000,  999.0000,   39.7440,   40.7547,   40.2387,  999.0000,   38.7725,   38.8063,   39.2870,
 29-OCT-1996 23:10:15.07,    3.2738,    2.6564,    2.6666,    2.5519,  999.0000,  999.0000,    6.3063,    5.9860,  999.0000,    4.0854,    4.3124,  999.0000,   10.0635,   11.2082,   11.5032,   11.1105,   11.1643,   11.3298,   11.2656,  999.0000,   11.5307,   11.8807,   12.2450,    9.5633,   10.1953,  999.0000,  999.0000,  999.0000,   12.5712,   13.2385,   13.7789,   14.6025,   13.7327,   13.5163,  999.0000,   15.6115,   16.2659,  999.0000,   17.2357,   17.2484,   16.6356,   18.4778,   20.7811,   24.1477,   26.2386,   26.9813,   28.6386,   28.0132,   28.9416,   32.0069,  999.0000,  999.0000,  999.0000,   34.5294,   35.7545,  999.0000,  999.0000,  999.0000,  999.0000,   40.7467,   40.9870,  999.0000,  999.0000,   38.8224,   39.2103,
 29-OCT-1996 23:12:55.33,    4.7406,  999.0000,  999.0000,  999.0000,  999.0000,  999.0000,  999.0000,    6.6386,    6.8350,    6.7682,    7.5182,    8.3080,    9.8422,  999.0000,  999.0000,  999.0000,   10.7010,   10.9176,  999.0000,  999.0000,  999.0000,   11.7281,   11.8650,    9.7009,   10.2296,   10.3162,  999.0000,   11.6036,   12.0241,   12.8048,   13.2925,   14.1388,   13.5519,  999.0000,  999.0000,   15.6391,   16.6007,   16.7552,   17.0884,   17.0363,   16.9182,   18.8036,   20.8664,   24.2461,   26.4953,   27.2811,   28.6485,   27.9316,   29.4017,   32.3322,   34.6505,   35.4087,   35.4983,  999.0000,  999.0000,   38.3125,   39.0040,   38.4434,   40.6497,   42.0552,  999.0000,   39.3129,   38.9900,   38.8945,   39.6594,
 29-OCT-1996 23:15:32.37,    3.6441,    3.2826,    3.2216,    2.9729,  999.0000,    4.7507,    5.6843,  999.0000,    6.6501,    7.0290,    7.6394,    8.6795,   10.1590,   10.8583,   11.1136,   11.0390,   11.1950,   11.3453,   11.3510,   11.1661,   11.4942,   11.7133,  999.0000,   10.0420,   10.2503,   10.0739,    9.6139,   11.4037,   12.1896,   12.8688,   13.3259,   14.0445,   13.9504,  999.0000,   14.2883,   15.6790,   17.0590,   17.2545,   16.8349,   17.2316,   16.8882,   18.6006,   20.8034,   24.1729,   26.1968,   27.3899,   28.3901,   27.3657,   29.0924,   32.0839,   34.2453,   35.5604,   34.8098,   34.3816,  999.0000,  999.0000,  999.0000,  999.0000,   40.7726,   42.4570,   42.7780,  999.0000,  999.0000,   38.5276,   39.2631,
 29-OCT-1996 23:18:09.94,    5.1818,    5.0842,    5.0074,    5.2038,    5.0393,    4.7547,    5.3327,    6.4835,    6.6025,    7.1416,    7.5874,    8.8350,  999.0000,   11.3048,   11.1388,   11.2026,   11.6149,   11.4013,   12.1146,   11.8588,   11.7704,   12.0744,   12.0478,    9.6438,   10.1360,   10.2661,   10.3838,   11.3536,   12.2133,   12.3513,   13.2036,   14.4718,  999.0000,  999.0000,  999.0000,   15.5531,   17.0798,  999.0000,  999.0000,   16.9997,   16.9017,   18.5728,   20.9304,  999.0000,  999.0000,   27.6875,   28.5541,   27.8435,   29.1419,   31.7551,   34.0486,   35.9391,   35.4050,   34.6632,   35.5906,   36.4870,   37.1856,   37.7789,   39.8908,  999.0000,  999.0000,  999.0000,   39.9456,   38.7230,   38.9208,
 29-OCT-1996 23:20:47.07,  999.0000,  999.0000,  999.0000,  999.0000,  999.0000,  999.0000,  999.0000,  999.0000,    6.9672,    7.6677,    8.2687,    9.1727,  999.0000,   11.4397,   11.3326,  999.0000,  999.0000,   11.1933,   11.5241,  999.0000,  999.0000,   11.6625,   11.6242,    9.4800,    9.4731,    9.9420,   10.0493,   11.4030,   11.6905,   12.0447,   13.2542,   14.3448,   13.3097,  999.0000,  999.0000,   15.6376,   16.8856,   16.7087,   16.2703,   16.4517,   16.4152,   18.4534,   20.8414,   24.4293,   26.4226,   27.3779,   28.3548,   27.6607,   28.9213,   31.5073,   33.5977,   35.5184,   35.1160,   34.7568,   35.9609,   36.2804,   36.8608,   37.6177,   39.0697,  999.0000,  999.0000,   37.1648,   38.3214,   38.0566,   38.0741,
 29-OCT-1996 23:23:26.05,    4.8016,    5.2424,    5.3098,    5.3359,    5.1139,  999.0000,    5.1139,    6.4918,    7.0786,    7.2521,    8.2807,    8.8897,   10.5635,   11.3971,   11.2443,   10.9909,  999.0000,   11.2616,   11.4605,   11.4844,   11.2638,   11.6124,   10.8346,    9.5995,    9.6106,    9.6076,  999.0000,   10.5737,   11.5832,   11.6770,   13.1903,  999.0000,  999.0000,  999.0000,  999.0000,  999.0000,   16.6800,   16.9843,   16.5087,   16.6584,   16.3720,   18.1154,   20.6903,   24.0470,   26.0228,   27.0839,   28.1935,   27.6143,   28.8477,   31.5109,   33.5597,   35.3264,   35.1077,   34.1328,  999.0000,  999.0000,  999.0000,  999.0000,  999.0000,  999.0000,  999.0000,   37.7615,   37.7038,   37.6015,   38.2766,
 29-OCT-1996 23:26:05.00,    4.3892,    4.4154,    4.5149,    4.5661,    4.8340,  999.0000,  999.0000,  999.0000,    6.0714,    6.1859,  999.0000,  999.0000,  999.0000,  999.0000,  999.0000,  999.0000,  999.0000,  999.0000,  999.0000,  999.0000,   11.6551,   11.9314,   11.5675,    9.4836,   10.0116,    9.8309,    9.9620,   10.6639,   11.4965,   11.6610,   12.8571,  999.0000,  999.0000,   13.2745,   13.9575,   15.3183,   16.3601,   16.7184,   16.3235,   16.6808,   16.7051,   18.0390,   20.7644,   24.4381,   26.4626,   27.6808,   28.6967,   27.7712,   29.1535,  999.0000,  999.0000,  999.0000,   35.7639,   34.4414,   35.2571,  999.0000,  999.0000,  999.0000,   39.7695,  999.0000,   40.1323,   37.3423,   37.1321,   37.5497,   38.6180,
 29-OCT-1996 23:28:42.12,    3.3542,    2.2926,    2.6554,    2.6022,  999.0000,    4.6965,    5.3674,    6.2509,    6.5586,    7.6106,    8.5176,   10.0788,   10.8715,   11.1348,   11.2410,   11.3337,   11.4141,   11.3406,   11.6808,   11.6284,   12.2124,   12.3791,   12.2414,    9.8132,    9.9262,   10.0687,   10.0378,   10.7558,   11.6882,   11.8945,   12.7141,   13.3809,  999.0000,  999.0000,  999.0000,   15.8412,   15.9806,   16.1683,   16.2942,   16.8010,   16.7025,   18.0288,   20.8943,   24.3503,   25.6612,   27.1036,   27.9841,   27.5821,   29.2208,   31.9911,   33.8977,   36.0891,   36.0673,   34.7212,   35.0635,   35.2169,  999.0000,  999.0000,  999.0000,  999.0000,  999.0000,  999.0000,   37.1788,   37.1460,   38.4794,
 29-OCT-1996 23:31:19.13,    3.3513,  999.0000,    3.0062,    2.7306,  999.0000,  999.0000,  999.0000,  999.0000,  999.0000,    8.7091,    9.3984,   10.4046,  999.0000,  999.0000,  999.0000,  999.0000,   11.9383,   12.0739,   12.0714,   11.8605,   11.9861,   12.0567,   12.2310,   10.4891,   10.1827,    9.9986,    9.6704,   10.1854,   11.4550,   11.9345,   12.4266,   13.4794,   13.2794,  999.0000,  999.0000,   14.2252,   15.9063,   16.1267,   16.0425,   16.8864,   16.5315,   18.0254,   21.4142,   24.6446,   25.7085,   26.6989,  999.0000,   27.7461,   29.5844,   32.3526,   34.3282,  999.0000,   36.3416,  999.0000,   35.2369,   37.6580,   38.8012,  999.0000,   39.2818,  999.0000,  999.0000,  999.0000,   37.5427,   36.9692,   38.5577,
 29-OCT-1996 23:33:56.37,    1.8816,    1.2008,  999.0000,  999.0000,    4.4965,    4.8913,  999.0000,    6.3854,    6.6958,  999.0000,    8.3826,    9.9516,  999.0000,   11.6524,   11.6413,   11.9390,   12.0549,   12.2864,   12.6618,   12.4296,   12.3029,   12.1445,   12.3500,   10.2235,   10.2658,    9.2259,    9.6762,   10.2669,   11.4757,   11.6633,   12.5667,   13.4988,   12.9021,  999.0000,   12.3934,   13.8525,  999.0000,   16.8047,   15.7252,   16.4586,   16.1509,   18.0124,   21.4655,   24.6641,   25.8097,   26.7954,   27.7107,   27.1973,  999.0000,  999.0000,   34.7280,   36.6246,   35.8852,  999.0000,   35.4664,  999.0000,  999.0000,  999.0000,   39.1964,  999.0000,  999.0000,  999.0000,  999.0000,  999.0000,   38.0213,
 29-OCT-1996 23:36:33.39,    4.7810,    3.7619,    3.4203,    3.2748,  999.0000,  999.0000,  999.0000,    6.1534,    6.3851,    6.6266,    7.7103,    9.2264,  999.0000,   11.7035,   11.6581,   11.8214,   12.0226,   11.7581,   12.1579,   12.3768,   12.5498,   12.4769,  999.0000,   10.2543,   10.8682,    9.7712,   10.2627,   10.6139,   11.7206,   11.9026,   13.1352,   13.8451,   13.6592,  999.0000,  999.0000,   14.0852,   15.9417,   16.7253,   15.8493,   16.6220,   16.2555,   18.0152,   21.6262,   24.6536,   25.7614,   26.9175,   27.6753,   27.2910,   29.7409,   32.7417,   35.0133,   36.0550,   35.1835,   33.7341,   34.2720,  999.0000,  999.0000,  999.0000,   39.0001,  999.0000,  999.0000,  999.0000,   37.8166,  999.0000,   37.9041,
 29-OCT-1996 23:39:12.32,    4.9929,    5.0647,    5.1331,    4.8245,  999.0000,  999.0000,  999.0000,    6.0149,    6.8275,    7.6645,    8.3412,  999.0000,   11.3191,   11.5305,   11.6560,  999.0000,   12.2073,   12.1842,   12.0440,   12.1314,   12.1148,   12.5413,   12.2097,   10.6029,   11.4358,   10.1509,  999.0000,   10.8972,   11.8067,   11.8276,   12.9849,   13.8965,   14.5725,   13.7555,   13.7464,   13.7208,   15.8301,   16.6616,   15.9115,   16.6558,  999.0000,  999.0000,   21.6500,   24.8048,   25.5295,   26.5440,   27.4967,   27.2781,   29.9270,   32.7043,   34.8875,   35.9350,   35.3078,   34.0103,   34.2791,  999.0000,  999.0000,  999.0000,  999.0000,  999.0000,  999.0000,   36.6867,   36.8262,   36.4467,   37.2304,
 29-OCT-1996 23:41:52.07,    5.2144,    5.0198,    4.8475,    5.1815,    5.3419,    5.3657,  999.0000,    6.5631,    7.3274,    8.3368,    8.2417,    9.6397,   11.1748,   11.6404,   11.6806,  999.0000,  999.0000,  999.0000,   11.5584,   12.0053,   12.5961,  999.0000,   11.5945,   10.6067,   10.9870,   10.1197,   10.7152,   10.7755,   12.4861,   12.4679,   13.0336,   13.6354,   14.2632,   14.2281,   14.0915,   14.2119,   16.0251,   16.8079,   16.0104,   16.1262,   16.6663,   19.3311,   22.9249,   25.5017,   25.6409,   26.5593,  999.0000,   27.7442,   30.0619,   33.1068,   35.3506,  999.0000,   35.2859,  999.0000,  999.0000,  999.0000,  999.0000,   37.2864,   39.7294,  999.0000,  999.0000,   37.6109,   37.3049,   36.4971,   37.5576,
 29-OCT-1996 23:44:29.25,    4.9363,    5.0738,    5.0205,    5.2108,    5.2889,    5.1458,  999.0000,  999.0000,    7.5293,    8.3633,    8.7857,  999.0000,  999.0000,  999.0000,  999.0000,  999.0000,  999.0000,  999.0000,  999.0000,  999.0000,   13.0601,   12.6005,  999.0000,   10.9354,   10.5343,   10.0891,   10.6182,   10.9851,   12.2085,   12.3961,   12.8038,   13.5274,   14.2034,   14.2779,   14.9864,   14.4386,   16.1633,   16.7000,   16.0538,   15.8461,   16.9524,   20.0778,   23.9183,   25.6951,   25.5277,   26.8864,   27.6878,   28.1381,   30.5566,   33.4103,  999.0000,   36.0855,   34.3192,   34.0506,   35.2474,   35.3720,  999.0000,  999.0000,  999.0000,  999.0000,  999.0000,  999.0000,   38.4591,  999.0000,   37.9153,
 29-OCT-1996 23:47:09.09,    5.0467,    5.4403,  999.0000,  999.0000,  999.0000,  999.0000,    5.0179,    6.2374,    7.5611,    7.6862,    8.3977,    9.3001,   10.1788,   11.3366,   12.1312,   12.3947,   12.7138,   12.7384,   12.5566,   12.4086,   12.4370,   12.0540,   11.3237,   11.2563,   10.4628,   10.0459,   10.5821,  999.0000,   12.5879,   13.0853,   12.8754,   13.5569,   14.4583,   14.3688,   14.4444,   14.7377,   15.8671,   15.9398,   16.5546,  999.0000,  999.0000,   20.7412,   24.1805,   25.9709,   25.8204,   27.5921,   28.3980,   28.5335,   31.3208,  999.0000,  999.0000,  999.0000,   34.2606,   34.0828,   35.5279,  999.0000,  999.0000,  999.0000,   38.9124,  999.0000,  999.0000,   38.8667,   37.7356,   36.6198,   37.7687,
 29-OCT-1996 23:49:46.39,    5.0659,  999.0000,    5.3799,    5.1844,  999.0000,  999.0000,  999.0000,    6.0908,    6.7108,    7.0301,    7.6559,    9.1959,  999.0000,   11.4245,   12.0048,   12.3664,   12.6533,   12.6538,   12.4917,   12.3964,   12.5098,   12.4253,   11.7481,   11.4975,   11.1344,   10.6300,   11.1076,  999.0000,   12.6349,   13.5613,   13.4720,   13.3989,   14.8208,  999.0000,   14.6991,   15.1597,   16.0990,   15.6442,   16.3458,   16.1993,   18.0063,   21.0701,   24.5247,   25.9546,   25.6494,   27.9752,   28.5745,  999.0000,   31.4788,  999.0000,  999.0000,  999.0000,   34.3954,   33.9790,   35.3534,   35.9599,  999.0000,  999.0000,  999.0000,  999.0000,  999.0000,   38.3572,   36.9477,   36.8455,   37.9976,
 29-OCT-1996 23:52:23.89,    4.1955,    4.5257,    4.1263,    3.6176,    3.7243,    3.7951,  999.0000,    4.7307,    5.0377,    5.3339,    5.6343,    6.7616,  999.0000,   11.3468,   12.0802,    9.7611,    9.2551,    9.4794,   10.2859,   10.5370,   10.0460,    9.6857,    8.2759,   11.4820,   11.2658,    9.9174,   11.0075,   11.6050,   12.2030,   13.3128,   13.6193,   13.5030,   14.6682,   15.1798,   14.5352,   15.4182,   16.5212,   15.8353,   15.9271,   16.0909,   17.8275,   20.9317,  999.0000,   26.2871,   25.0289,   27.6462,   28.2814,  999.0000,   30.9711,   33.5228,   35.4309,  999.0000,  999.0000,  999.0000,  999.0000,  999.0000,   37.3812,   37.7253,   38.4504,  999.0000,  999.0000,   38.5576,   37.1114,   37.0238,   38.0341,
 29-OCT-1996 23:55:03.06,    2.8550,    2.3096,    1.6481,    0.4054,    0.8296,    0.3396,    1.0435,    2.4512,    2.9190,    3.5790,    3.1713,    2.7010,  999.0000,  999.0000,  999.0000,    5.2645,    4.0715,    4.3164,    5.0208,    6.9637,    6.0509,    4.7225,    1.2764,   12.0723,   11.6890,    9.9745,   10.8576,   12.0204,   12.2810,   13.3187,   13.5006,   13.5375,   14.3777,   15.1050,   14.5436,   15.8375,   16.6756,   16.1385,   15.9066,   16.1966,   18.5241,   21.5237,   25.2713,   26.4593,   23.6963,   27.4751,   28.2061,  999.0000,  999.0000,  999.0000,  999.0000,  999.0000,   33.4219,   33.8772,   34.8573,   35.1820,   37.1146,   38.6316,   39.2881,  999.0000,  999.0000,   38.2436,   37.1181,   37.0469,   38.6732,
 29-OCT-1996 23:57:40.42,    3.6855,  999.0000,    3.9760,    3.9620,    4.2899,  999.0000,  999.0000,    6.1568,    6.4337,    7.0657,    7.6577,  999.0000,  999.0000,  999.0000,   11.6450,   11.9047,   11.8911,   11.7445,  999.0000,   13.0571,   13.1191,   13.1840,  999.0000,   10.8827,    9.5752,  999.0000,  999.0000,   11.1375,   11.4505,   12.5441,   12.8321,   11.7759,  999.0000,  999.0000,  999.0000,   15.6121,   16.1587,   15.5553,   15.0229,   16.4499,   19.0096,   22.4204,   26.0709,   26.9178,  999.0000,   28.0054,   27.9671,  999.0000,   30.7190,   33.6500,   35.8343,   36.1201,  999.0000,  999.0000,  999.0000,  999.0000,  999.0000,  999.0000,  999.0000,  999.0000,  999.0000,   37.1342,   36.6779,  999.0000,  999.0000,
